<?xml version='1.0' encoding='UTF-8'?><gpx version="1.1" creator="JPX - https://github.com/jenetics/jpx" xmlns="http://www.topografix.com/GPX/1/1"><trk><trkseg><trkpt lat="43.5047081412844" lon="10.620266234259525"><ele>309.0</ele><time>2026-04-18T06:41:44Z</time></trkpt><trkpt lat="43.5046727020453" lon="10.620178605856355"><ele>309.0</ele><time>2026-04-18T06:41:52Z</time></trkpt><trkpt lat="43.50476253527222" lon="10.620103229473077"><ele>309.0</ele><time>2026-04-18T06:42:12.999Z</time></trkpt><trkpt lat="43.50483971979676" lon="10.620014708372148"><ele>309.0</ele><time>2026-04-18T06:42:13.999Z</time></trkpt><trkpt lat="43.504937145678966" lon="10.619905010719256"><ele>309.0</ele><time>2026-04-18T06:42:14.999Z</time></trkpt><trkpt lat="43.505002211872096" lon="10.619844253746013"><ele>309.0</ele><time>2026-04-18T06:42:15.999Z</time></trkpt><trkpt lat="43.505066062319784" lon="10.619775802207215"><ele>309.0</ele><time>2026-04-18T06:42:16.999Z</time></trkpt><trkpt lat="43.50508429109563" lon="10.619651413541067"><ele>309.0</ele><time>2026-04-18T06:42:17.999Z</time></trkpt><trkpt lat="43.50512337126846" lon="10.61955064935655"><ele>309.0</ele><time>2026-04-18T06:42:18.999Z</time></trkpt><trkpt lat="43.505157592471605" lon="10.619466749254586"><ele>309.0</ele><time>2026-04-18T06:42:19.999Z</time></trkpt><trkpt lat="43.50519935858062" lon="10.61937269977029"><ele>309.0</ele><time>2026-04-18T06:42:20.999Z</time></trkpt><trkpt lat="43.50529270087273" lon="10.61932737995071"><ele>309.59999999999997</ele><time>2026-04-18T06:42:22.999Z</time></trkpt><trkpt lat="43.50534586119641" lon="10.619385245711817"><ele>310.2</ele><time>2026-04-18T06:42:23.999Z</time></trkpt><trkpt lat="43.50543859427239" lon="10.619391060560302"><ele>310.79999999999995</ele><time>2026-04-18T06:42:24.999Z</time></trkpt><trkpt lat="43.50553808586882" lon="10.61943047705296"><ele>311.4</ele><time>2026-04-18T06:42:25.999Z</time></trkpt><trkpt lat="43.50563856751471" lon="10.619472239516632"><ele>312.0</ele><time>2026-04-18T06:42:26.999Z</time></trkpt><trkpt lat="43.50573047868869" lon="10.619502746785358"><ele>310.0</ele><time>2026-04-18T06:42:27.999Z</time></trkpt><trkpt lat="43.50581109826841" lon="10.619504753186295"><ele>308.0</ele><time>2026-04-18T06:42:28.999Z</time></trkpt><trkpt lat="43.50588706054588" lon="10.619481071264582"><ele>306.0</ele><time>2026-04-18T06:42:29.999Z</time></trkpt><trkpt lat="43.50597690478265" lon="10.619440580856281"><ele>304.0</ele><time>2026-04-18T06:42:30.999Z</time></trkpt><trkpt lat="43.50605608577343" lon="10.619395877532495"><ele>302.0</ele><time>2026-04-18T06:42:31.999Z</time></trkpt><trkpt lat="43.50612831553052" lon="10.619371913006182"><ele>300.0</ele><time>2026-04-18T06:42:32.999Z</time></trkpt><trkpt lat="43.50619969810737" lon="10.619347182958357"><ele>298.1666666666667</ele><time>2026-04-18T06:42:33.999Z</time></trkpt><trkpt lat="43.50627588660363" lon="10.619318262280691"><ele>296.3333333333333</ele><time>2026-04-18T06:42:34.998Z</time></trkpt><trkpt lat="43.50635141353533" lon="10.619337405913871"><ele>294.5</ele><time>2026-04-18T06:42:35.998Z</time></trkpt><trkpt lat="43.506442109288294" lon="10.619348758314283"><ele>292.66666666666663</ele><time>2026-04-18T06:42:36.998Z</time></trkpt><trkpt lat="43.5065270255361" lon="10.619357175677502"><ele>290.8333333333333</ele><time>2026-04-18T06:42:37.998Z</time></trkpt><trkpt lat="43.506596734187646" lon="10.61934146345842"><ele>289.0</ele><time>2026-04-18T06:42:38.998Z</time></trkpt><trkpt lat="43.50666452838606" lon="10.619328157791507"><ele>289.0</ele><time>2026-04-18T06:42:39.998Z</time></trkpt><trkpt lat="43.50677963138653" lon="10.619279217060848"><ele>289.0</ele><time>2026-04-18T06:42:41.998Z</time></trkpt><trkpt lat="43.506894448877446" lon="10.619225352938148"><ele>289.0</ele><time>2026-04-18T06:42:43.998Z</time></trkpt><trkpt lat="43.5069545619064" lon="10.619145724859619"><ele>289.0</ele><time>2026-04-18T06:42:44.998Z</time></trkpt><trkpt lat="43.50700902053105" lon="10.619066144016708"><ele>289.0</ele><time>2026-04-18T06:42:45.998Z</time></trkpt><trkpt lat="43.50706499483845" lon="10.618990670683965"><ele>287.0</ele><time>2026-04-18T06:42:46.998Z</time></trkpt><trkpt lat="43.50713277734025" lon="10.618923411727563"><ele>285.0</ele><time>2026-04-18T06:42:47.998Z</time></trkpt><trkpt lat="43.50721188457194" lon="10.618860505968478"><ele>283.0</ele><time>2026-04-18T06:42:48.998Z</time></trkpt><trkpt lat="43.50731179026573" lon="10.61880324303814"><ele>281.0</ele><time>2026-04-18T06:42:49.998Z</time></trkpt><trkpt lat="43.50740051050886" lon="10.61878374849084"><ele>279.0</ele><time>2026-04-18T06:42:50.998Z</time></trkpt><trkpt lat="43.507476042610904" lon="10.618758382223687"><ele>279.0</ele><time>2026-04-18T06:42:51.998Z</time></trkpt><trkpt lat="43.50753957445799" lon="10.618698986196964"><ele>279.0</ele><time>2026-04-18T06:42:52.998Z</time></trkpt><trkpt lat="43.50761898210496" lon="10.618642333114853"><ele>279.0</ele><time>2026-04-18T06:42:53.998Z</time></trkpt><trkpt lat="43.50769465748969" lon="10.618548183979021"><ele>279.0</ele><time>2026-04-18T06:42:54.998Z</time></trkpt><trkpt lat="43.50778558866792" lon="10.618471082086524"><ele>279.0</ele><time>2026-04-18T06:42:55.998Z</time></trkpt><trkpt lat="43.50794821737817" lon="10.61819226655795"><ele>279.0</ele><time>2026-04-18T06:42:57.998Z</time></trkpt><trkpt lat="43.50802705342173" lon="10.617989794383682"><ele>279.0</ele><time>2026-04-18T06:42:58.998Z</time></trkpt><trkpt lat="43.50809499180084" lon="10.617806771669102"><ele>279.0</ele><time>2026-04-18T06:42:59.998Z</time></trkpt><trkpt lat="43.50815707974489" lon="10.617623519103642"><ele>281.5</ele><time>2026-04-18T06:43:00.998Z</time></trkpt><trkpt lat="43.508214574987456" lon="10.61742429701417"><ele>284.0</ele><time>2026-04-18T06:43:01.998Z</time></trkpt><trkpt lat="43.50827937216945" lon="10.617290503000087"><ele>286.5</ele><time>2026-04-18T06:43:02.998Z</time></trkpt><trkpt lat="43.508334232202984" lon="10.61718416234057"><ele>289.0</ele><time>2026-04-18T06:43:03.998Z</time></trkpt><trkpt lat="43.508399641714284" lon="10.617070002927504"><ele>290.75</ele><time>2026-04-18T06:43:04.998Z</time></trkpt><trkpt lat="43.50846458714632" lon="10.616937742693468"><ele>292.5</ele><time>2026-04-18T06:43:05.998Z</time></trkpt><trkpt lat="43.508559934185406" lon="10.616827405872986"><ele>294.25</ele><time>2026-04-18T06:43:06.998Z</time></trkpt><trkpt lat="43.508654746184256" lon="10.616718352788867"><ele>296.0</ele><time>2026-04-18T06:43:07.998Z</time></trkpt><trkpt lat="43.508737268899615" lon="10.616625085764126"><ele>295.2</ele><time>2026-04-18T06:43:08.998Z</time></trkpt><trkpt lat="43.50880722907522" lon="10.616538161949615"><ele>294.40000000000003</ele><time>2026-04-18T06:43:09.998Z</time></trkpt><trkpt lat="43.5088648319097" lon="10.616463228496528"><ele>293.6</ele><time>2026-04-18T06:43:10.998Z</time></trkpt><trkpt lat="43.50891886104281" lon="10.616404537748771"><ele>292.8</ele><time>2026-04-18T06:43:11.998Z</time></trkpt><trkpt lat="43.50899480620114" lon="10.616395345028893"><ele>292.0</ele><time>2026-04-18T06:43:13.998Z</time></trkpt><trkpt lat="43.50908779215698" lon="10.616536811199685"><ele>292.0</ele><time>2026-04-18T06:43:30.998Z</time></trkpt><trkpt lat="43.50914424248796" lon="10.616622971215936"><ele>292.0</ele><time>2026-04-18T06:43:34.998Z</time></trkpt><trkpt lat="43.50917493141655" lon="10.616724112834614"><ele>292.0</ele><time>2026-04-18T06:43:37.997Z</time></trkpt><trkpt lat="43.50923500630551" lon="10.61681624223971"><ele>292.0</ele><time>2026-04-18T06:43:40.997Z</time></trkpt><trkpt lat="43.50930659224424" lon="10.616932575505531"><ele>292.0</ele><time>2026-04-18T06:43:42.997Z</time></trkpt><trkpt lat="43.50934332435508" lon="10.617010643239109"><ele>292.0</ele><time>2026-04-18T06:43:43.997Z</time></trkpt><trkpt lat="43.50938016652202" lon="10.6170815111604"><ele>291.16666666666663</ele><time>2026-04-18T06:43:44.999Z</time></trkpt><trkpt lat="43.50942106857756" lon="10.61715757693412"><ele>290.3333333333333</ele><time>2026-04-18T06:43:45.999Z</time></trkpt><trkpt lat="43.50947286031489" lon="10.617241565832026"><ele>289.5</ele><time>2026-04-18T06:43:46.999Z</time></trkpt><trkpt lat="43.50953122741126" lon="10.617342243289523"><ele>288.6666666666667</ele><time>2026-04-18T06:43:47.999Z</time></trkpt><trkpt lat="43.5095841407262" lon="10.617449409345454"><ele>287.83333333333337</ele><time>2026-04-18T06:43:48.999Z</time></trkpt><trkpt lat="43.50964295647666" lon="10.61755881300284"><ele>287.0</ele><time>2026-04-18T06:43:49.999Z</time></trkpt><trkpt lat="43.50970328729354" lon="10.617669924245718"><ele>286.8</ele><time>2026-04-18T06:43:50.999Z</time></trkpt><trkpt lat="43.509747916736714" lon="10.617800093588484"><ele>286.6</ele><time>2026-04-18T06:43:51.999Z</time></trkpt><trkpt lat="43.50980318404565" lon="10.617922048517396"><ele>286.40000000000003</ele><time>2026-04-18T06:43:52.999Z</time></trkpt><trkpt lat="43.50986041225876" lon="10.618035595749346"><ele>286.2</ele><time>2026-04-18T06:43:53.999Z</time></trkpt><trkpt lat="43.50990184433732" lon="10.618140261214961"><ele>286.0</ele><time>2026-04-18T06:43:54.999Z</time></trkpt><trkpt lat="43.50991797389073" lon="10.618240135622838"><ele>285.5</ele><time>2026-04-18T06:43:55.999Z</time></trkpt><trkpt lat="43.509953655421626" lon="10.618356326151648"><ele>285.0</ele><time>2026-04-18T06:43:56.999Z</time></trkpt><trkpt lat="43.510006898649465" lon="10.6184645826823"><ele>284.5</ele><time>2026-04-18T06:43:57.999Z</time></trkpt><trkpt lat="43.51005052842835" lon="10.618564963055476"><ele>284.0</ele><time>2026-04-18T06:43:58.999Z</time></trkpt><trkpt lat="43.51011717550886" lon="10.618623834998237"><ele>283.5</ele><time>2026-04-18T06:43:59.999Z</time></trkpt><trkpt lat="43.51019976413687" lon="10.618621010436847"><ele>283.0</ele><time>2026-04-18T06:44:00.999Z</time></trkpt><trkpt lat="43.51028923312703" lon="10.618558965082615"><ele>283.0</ele><time>2026-04-18T06:44:01.999Z</time></trkpt><trkpt lat="43.510380268349884" lon="10.618466314281"><ele>283.0</ele><time>2026-04-18T06:44:02.999Z</time></trkpt><trkpt lat="43.510476073675285" lon="10.618379630789997"><ele>283.0</ele><time>2026-04-18T06:44:03.999Z</time></trkpt><trkpt lat="43.51057106541777" lon="10.61829570521936"><ele>283.0</ele><time>2026-04-18T06:44:04.999Z</time></trkpt><trkpt lat="43.51068301010239" lon="10.618243970169521"><ele>280.5</ele><time>2026-04-18T06:44:05.999Z</time></trkpt><trkpt lat="43.51079729634812" lon="10.618206099935358"><ele>278.0</ele><time>2026-04-18T06:44:06.999Z</time></trkpt><trkpt lat="43.51091296289032" lon="10.618201077606766"><ele>275.5</ele><time>2026-04-18T06:44:07.999Z</time></trkpt><trkpt lat="43.51102885895537" lon="10.618225527867878"><ele>273.0</ele><time>2026-04-18T06:44:08.999Z</time></trkpt><trkpt lat="43.511144746199044" lon="10.618236548870225"><ele>270.75</ele><time>2026-04-18T06:44:09.999Z</time></trkpt><trkpt lat="43.51126152679659" lon="10.618263593404322"><ele>268.5</ele><time>2026-04-18T06:44:10.999Z</time></trkpt><trkpt lat="43.51138764809235" lon="10.618286424042214"><ele>266.25</ele><time>2026-04-18T06:44:11.999Z</time></trkpt><trkpt lat="43.51151398464309" lon="10.61831220287691"><ele>264.0</ele><time>2026-04-18T06:44:12.999Z</time></trkpt><trkpt lat="43.511636329742245" lon="10.618343407247622"><ele>264.0</ele><time>2026-04-18T06:44:13.999Z</time></trkpt><trkpt lat="43.51174702129295" lon="10.618411602062293"><ele>264.0</ele><time>2026-04-18T06:44:14.999Z</time></trkpt><trkpt lat="43.51184703275134" lon="10.618493026553537"><ele>264.0</ele><time>2026-04-18T06:44:15.999Z</time></trkpt><trkpt lat="43.51194613316022" lon="10.618587710473031"><ele>264.0</ele><time>2026-04-18T06:44:16.999Z</time></trkpt><trkpt lat="43.51205893289404" lon="10.618680036767612"><ele>261.75</ele><time>2026-04-18T06:44:17.999Z</time></trkpt><trkpt lat="43.51216262507542" lon="10.618780832213956"><ele>259.5</ele><time>2026-04-18T06:44:18.999Z</time></trkpt><trkpt lat="43.51227043362667" lon="10.618867483969076"><ele>257.25</ele><time>2026-04-18T06:44:19.999Z</time></trkpt><trkpt lat="43.51239440811154" lon="10.618935006570197"><ele>255.0</ele><time>2026-04-18T06:44:20.999Z</time></trkpt><trkpt lat="43.51252868669673" lon="10.618993762507186"><ele>255.0</ele><time>2026-04-18T06:44:21.999Z</time></trkpt><trkpt lat="43.51266944645507" lon="10.6190562670928"><ele>255.0</ele><time>2026-04-18T06:44:22.999Z</time></trkpt><trkpt lat="43.51281376967185" lon="10.619124247729667"><ele>255.0</ele><time>2026-04-18T06:44:23.999Z</time></trkpt><trkpt lat="43.51295500101863" lon="10.619190325171875"><ele>252.0</ele><time>2026-04-18T06:44:24.999Z</time></trkpt><trkpt lat="43.513098522049425" lon="10.619259198843901"><ele>249.0</ele><time>2026-04-18T06:44:25.999Z</time></trkpt><trkpt lat="43.513242288544944" lon="10.619329696332452"><ele>246.0</ele><time>2026-04-18T06:44:26.999Z</time></trkpt><trkpt lat="43.51338482745372" lon="10.619403813804517"><ele>246.0</ele><time>2026-04-18T06:44:27.999Z</time></trkpt><trkpt lat="43.51352677282698" lon="10.619469272257675"><ele>246.0</ele><time>2026-04-18T06:44:28.999Z</time></trkpt><trkpt lat="43.513667080214425" lon="10.619532011090003"><ele>246.0</ele><time>2026-04-18T06:44:29.999Z</time></trkpt><trkpt lat="43.513795496637755" lon="10.619590922885417"><ele>246.0</ele><time>2026-04-18T06:44:30.999Z</time></trkpt><trkpt lat="43.513909476931154" lon="10.619642585807384"><ele>244.0</ele><time>2026-04-18T06:44:31.999Z</time></trkpt><trkpt lat="43.51399849774897" lon="10.619697623080935"><ele>242.00000000000003</ele><time>2026-04-18T06:44:32.999Z</time></trkpt><trkpt lat="43.514069550579926" lon="10.619769315794747"><ele>240.00000000000003</ele><time>2026-04-18T06:44:33.999Z</time></trkpt><trkpt lat="43.5141061522685" lon="10.619891751067872"><ele>238.0</ele><time>2026-04-18T06:44:34.999Z</time></trkpt><trkpt lat="43.5140855493649" lon="10.620033816688114"><ele>236.0</ele><time>2026-04-18T06:44:35.999Z</time></trkpt><trkpt lat="43.514043818360776" lon="10.620168919812699"><ele>235.5</ele><time>2026-04-18T06:44:36.999Z</time></trkpt><trkpt lat="43.51399453389991" lon="10.620319301789042"><ele>235.0</ele><time>2026-04-18T06:44:37.999Z</time></trkpt><trkpt lat="43.513911690182006" lon="10.620465429299221"><ele>234.5</ele><time>2026-04-18T06:44:38.999Z</time></trkpt><trkpt lat="43.51381331473498" lon="10.620606893410558"><ele>234.0</ele><time>2026-04-18T06:44:39.999Z</time></trkpt><trkpt lat="43.513700225201966" lon="10.620728396935384"><ele>234.0</ele><time>2026-04-18T06:44:40.999Z</time></trkpt><trkpt lat="43.513607107183525" lon="10.620884767719186"><ele>234.0</ele><time>2026-04-18T06:44:41.999Z</time></trkpt><trkpt lat="43.51351865676213" lon="10.620996674392147"><ele>234.0</ele><time>2026-04-18T06:44:42.999Z</time></trkpt><trkpt lat="43.51345384820386" lon="10.621098941697745"><ele>234.0</ele><time>2026-04-18T06:44:43.999Z</time></trkpt><trkpt lat="43.51342480991752" lon="10.621214975587941"><ele>232.0</ele><time>2026-04-18T06:44:44.999Z</time></trkpt><trkpt lat="43.51343860223672" lon="10.621351682232529"><ele>230.0</ele><time>2026-04-18T06:44:45.999Z</time></trkpt><trkpt lat="43.51349904193405" lon="10.62148820653335"><ele>228.0</ele><time>2026-04-18T06:44:46.999Z</time></trkpt><trkpt lat="43.51360054238408" lon="10.62158810267774"><ele>226.0</ele><time>2026-04-18T06:44:47.999Z</time></trkpt><trkpt lat="43.51373097761293" lon="10.621635921116118"><ele>225.25</ele><time>2026-04-18T06:44:48.999Z</time></trkpt><trkpt lat="43.51386659717932" lon="10.621647913851897"><ele>224.5</ele><time>2026-04-18T06:44:49.999Z</time></trkpt><trkpt lat="43.51400334218669" lon="10.621678241332956"><ele>223.75</ele><time>2026-04-18T06:44:50.999Z</time></trkpt><trkpt lat="43.51412990551303" lon="10.621752002012542"><ele>223.0</ele><time>2026-04-18T06:44:51.999Z</time></trkpt><trkpt lat="43.51424655617698" lon="10.621851167300884"><ele>223.0</ele><time>2026-04-18T06:44:52.999Z</time></trkpt><trkpt lat="43.51437251989109" lon="10.621944983788456"><ele>223.0</ele><time>2026-04-18T06:44:53.999Z</time></trkpt><trkpt lat="43.51451102789779" lon="10.622020184070784"><ele>223.0</ele><time>2026-04-18T06:44:54.999Z</time></trkpt><trkpt lat="43.51465859116203" lon="10.622082563191476"><ele>223.0</ele><time>2026-04-18T06:44:55.999Z</time></trkpt><trkpt lat="43.514808763955955" lon="10.622129118399798"><ele>220.0</ele><time>2026-04-18T06:44:56.999Z</time></trkpt><trkpt lat="43.514970785046934" lon="10.622165375119943"><ele>217.0</ele><time>2026-04-18T06:44:57.999Z</time></trkpt><trkpt lat="43.51514156773567" lon="10.62219428031247"><ele>214.0</ele><time>2026-04-18T06:44:58.999Z</time></trkpt><trkpt lat="43.51531589757148" lon="10.622209537211555"><ele>212.0</ele><time>2026-04-18T06:44:59.999Z</time></trkpt><trkpt lat="43.515494698057424" lon="10.622214445729439"><ele>210.0</ele><time>2026-04-18T06:45:00.999Z</time></trkpt><trkpt lat="43.51567730510231" lon="10.62221375104564"><ele>208.0</ele><time>2026-04-18T06:45:01.999Z</time></trkpt><trkpt lat="43.515860522531206" lon="10.622213544311222"><ele>208.0</ele><time>2026-04-18T06:45:02.999Z</time></trkpt><trkpt lat="43.51604127746077" lon="10.622240934428767"><ele>208.0</ele><time>2026-04-18T06:45:03.999Z</time></trkpt><trkpt lat="43.51620637551613" lon="10.622304449175592"><ele>208.0</ele><time>2026-04-18T06:45:04.999Z</time></trkpt><trkpt lat="43.51636306491163" lon="10.622405936285237"><ele>206.33333333333331</ele><time>2026-04-18T06:45:05.999Z</time></trkpt><trkpt lat="43.51650032305539" lon="10.622537987494631"><ele>204.66666666666669</ele><time>2026-04-18T06:45:06.999Z</time></trkpt><trkpt lat="43.51661333078779" lon="10.622695508764622"><ele>203.0</ele><time>2026-04-18T06:45:07.999Z</time></trkpt><trkpt lat="43.516700753556755" lon="10.622866755472728"><ele>202.66666666666669</ele><time>2026-04-18T06:45:08.999Z</time></trkpt><trkpt lat="43.51677466954031" lon="10.623065416299474"><ele>202.33333333333331</ele><time>2026-04-18T06:45:09.999Z</time></trkpt><trkpt lat="43.51684669586046" lon="10.623281245359353"><ele>202.0</ele><time>2026-04-18T06:45:10.999Z</time></trkpt><trkpt lat="43.51690386672797" lon="10.623494726031259"><ele>201.75</ele><time>2026-04-18T06:45:11.999Z</time></trkpt><trkpt lat="43.516952589018814" lon="10.623683657704579"><ele>201.5</ele><time>2026-04-18T06:45:12.999Z</time></trkpt><trkpt lat="43.51700693122109" lon="10.623850257943767"><ele>201.25</ele><time>2026-04-18T06:45:13.998Z</time></trkpt><trkpt lat="43.51708191895171" lon="10.623976196568353"><ele>201.0</ele><time>2026-04-18T06:45:14.998Z</time></trkpt><trkpt lat="43.5171897165939" lon="10.624069640923267"><ele>198.0</ele><time>2026-04-18T06:45:15.998Z</time></trkpt><trkpt lat="43.51731925449719" lon="10.624140690353311"><ele>195.0</ele><time>2026-04-18T06:45:16.998Z</time></trkpt><trkpt lat="43.51746861317654" lon="10.624181871531949"><ele>192.0</ele><time>2026-04-18T06:45:17.998Z</time></trkpt><trkpt lat="43.51762967800054" lon="10.624215024546066"><ele>192.0</ele><time>2026-04-18T06:45:18.998Z</time></trkpt><trkpt lat="43.517795625998055" lon="10.624249898656574"><ele>192.0</ele><time>2026-04-18T06:45:19.998Z</time></trkpt><trkpt lat="43.51796688426128" lon="10.624299412092459"><ele>192.0</ele><time>2026-04-18T06:45:20.998Z</time></trkpt><trkpt lat="43.51832338543077" lon="10.62439408186173"><ele>188.0</ele><time>2026-04-18T06:45:22.998Z</time></trkpt><trkpt lat="43.51850488956679" lon="10.624441969404122"><ele>184.0</ele><time>2026-04-18T06:45:23.998Z</time></trkpt><trkpt lat="43.5186847196379" lon="10.624489895553786"><ele>180.0</ele><time>2026-04-18T06:45:24.998Z</time></trkpt><trkpt lat="43.51886388342018" lon="10.6245352144385"><ele>178.0</ele><time>2026-04-18T06:45:25.998Z</time></trkpt><trkpt lat="43.51902953104161" lon="10.624579947664937"><ele>176.0</ele><time>2026-04-18T06:45:26.998Z</time></trkpt><trkpt lat="43.519176536394866" lon="10.624622347545293"><ele>174.0</ele><time>2026-04-18T06:45:27.998Z</time></trkpt><trkpt lat="43.519298438197595" lon="10.624668138625932"><ele>172.0</ele><time>2026-04-18T06:45:28.998Z</time></trkpt><trkpt lat="43.51939275264881" lon="10.624711912756581"><ele>172.0</ele><time>2026-04-18T06:45:29.998Z</time></trkpt><trkpt lat="43.51945313155386" lon="10.624739598516804"><ele>172.0</ele><time>2026-04-18T06:45:30.998Z</time></trkpt><trkpt lat="43.5195816690358" lon="10.624808682386737"><ele>172.0</ele><time>2026-04-18T06:45:32.998Z</time></trkpt><trkpt lat="43.51965468738341" lon="10.624848238813076"><ele>172.0</ele><time>2026-04-18T06:45:33.998Z</time></trkpt><trkpt lat="43.51975309753449" lon="10.624930161273221"><ele>172.0</ele><time>2026-04-18T06:45:34.998Z</time></trkpt><trkpt lat="43.51985576127273" lon="10.625036692050307"><ele>170.25</ele><time>2026-04-18T06:45:35.998Z</time></trkpt><trkpt lat="43.51996176744323" lon="10.62513778308156"><ele>168.5</ele><time>2026-04-18T06:45:36.998Z</time></trkpt><trkpt lat="43.52007577487795" lon="10.625239888493832"><ele>166.75</ele><time>2026-04-18T06:45:37.998Z</time></trkpt><trkpt lat="43.5201990587786" lon="10.625349130243233"><ele>165.0</ele><time>2026-04-18T06:45:38.998Z</time></trkpt><trkpt lat="43.52032662935822" lon="10.625427511168235"><ele>164.2</ele><time>2026-04-18T06:45:39.998Z</time></trkpt><trkpt lat="43.52043624293814" lon="10.625516739719986"><ele>163.4</ele><time>2026-04-18T06:45:40.998Z</time></trkpt><trkpt lat="43.52053413452221" lon="10.62557928824652"><ele>162.60000000000002</ele><time>2026-04-18T06:45:41.998Z</time></trkpt><trkpt lat="43.52058008360293" lon="10.62569875195482"><ele>161.8</ele><time>2026-04-18T06:45:42.998Z</time></trkpt><trkpt lat="43.52061498119362" lon="10.625818487541068"><ele>161.0</ele><time>2026-04-18T06:45:43.998Z</time></trkpt><trkpt lat="43.520659349298036" lon="10.625972340017377"><ele>161.0</ele><time>2026-04-18T06:45:44.998Z</time></trkpt><trkpt lat="43.52071615122624" lon="10.626117988945127"><ele>161.0</ele><time>2026-04-18T06:45:45.998Z</time></trkpt><trkpt lat="43.52076627542086" lon="10.62624304432175"><ele>161.0</ele><time>2026-04-18T06:45:46.998Z</time></trkpt><trkpt lat="43.520837347034266" lon="10.626324751820446"><ele>161.0</ele><time>2026-04-18T06:45:47.998Z</time></trkpt><trkpt lat="43.520933358860226" lon="10.626382805786948"><ele>161.0</ele><time>2026-04-18T06:45:48.998Z</time></trkpt><trkpt lat="43.52104759892098" lon="10.626429759699962"><ele>161.0</ele><time>2026-04-18T06:45:49.998Z</time></trkpt><trkpt lat="43.52117272585732" lon="10.626491570194489"><ele>161.0</ele><time>2026-04-18T06:45:50.999Z</time></trkpt><trkpt lat="43.52129551771127" lon="10.626563270234566"><ele>161.0</ele><time>2026-04-18T06:45:51.999Z</time></trkpt><trkpt lat="43.52141943336105" lon="10.626647937642238"><ele>161.0</ele><time>2026-04-18T06:45:52.999Z</time></trkpt><trkpt lat="43.52154555328666" lon="10.626734078458536"><ele>161.0</ele><time>2026-04-18T06:45:53.999Z</time></trkpt><trkpt lat="43.52167537984851" lon="10.626810546673509"><ele>161.0</ele><time>2026-04-18T06:45:54.999Z</time></trkpt><trkpt lat="43.5218040674327" lon="10.626883076358306"><ele>161.0</ele><time>2026-04-18T06:45:55.999Z</time></trkpt><trkpt lat="43.52193883613877" lon="10.62694505288682"><ele>161.0</ele><time>2026-04-18T06:45:56.999Z</time></trkpt><trkpt lat="43.52208012134967" lon="10.627000563781845"><ele>159.66666666666666</ele><time>2026-04-18T06:45:57.999Z</time></trkpt><trkpt lat="43.52222721841453" lon="10.627042650136387"><ele>158.33333333333334</ele><time>2026-04-18T06:45:58.999Z</time></trkpt><trkpt lat="43.52237170387615" lon="10.627077830732896"><ele>157.0</ele><time>2026-04-18T06:45:59.999Z</time></trkpt><trkpt lat="43.52252220428696" lon="10.62711865587472"><ele>157.0</ele><time>2026-04-18T06:46:00.999Z</time></trkpt><trkpt lat="43.52267705363511" lon="10.62716134791471"><ele>157.0</ele><time>2026-04-18T06:46:01.999Z</time></trkpt><trkpt lat="43.522830570205066" lon="10.627201439188912"><ele>157.0</ele><time>2026-04-18T06:46:02.999Z</time></trkpt><trkpt lat="43.5229735140986" lon="10.627253878267597"><ele>155.6</ele><time>2026-04-18T06:46:03.999Z</time></trkpt><trkpt lat="43.523100113430516" lon="10.627301378162217"><ele>154.2</ele><time>2026-04-18T06:46:04.999Z</time></trkpt><trkpt lat="43.52321047011782" lon="10.627377680853302"><ele>152.8</ele><time>2026-04-18T06:46:05.999Z</time></trkpt><trkpt lat="43.52328215727617" lon="10.62745633915902"><ele>151.4</ele><time>2026-04-18T06:46:06.999Z</time></trkpt><trkpt lat="43.52335124936758" lon="10.627560340488788"><ele>150.0</ele><time>2026-04-18T06:46:07.999Z</time></trkpt><trkpt lat="43.523425255698214" lon="10.627677992307053"><ele>150.0</ele><time>2026-04-18T06:46:08.999Z</time></trkpt><trkpt lat="43.52351850165313" lon="10.627767408950433"><ele>150.0</ele><time>2026-04-18T06:46:09.999Z</time></trkpt><trkpt lat="43.5236042053343" lon="10.627822029637105"><ele>150.0</ele><time>2026-04-18T06:46:10.999Z</time></trkpt><trkpt lat="43.523699519499885" lon="10.627819746354135"><ele>150.0</ele><time>2026-04-18T06:46:11.999Z</time></trkpt><trkpt lat="43.52380364407399" lon="10.6277926701854"><ele>150.0</ele><time>2026-04-18T06:46:12.999Z</time></trkpt><trkpt lat="43.52391636581752" lon="10.627772895718307"><ele>149.0</ele><time>2026-04-18T06:46:13.999Z</time></trkpt><trkpt lat="43.52401809962144" lon="10.627804088721387"><ele>148.0</ele><time>2026-04-18T06:46:14.999Z</time></trkpt><trkpt lat="43.52410308290395" lon="10.627820686628715"><ele>147.0</ele><time>2026-04-18T06:46:15.999Z</time></trkpt><trkpt lat="43.52417277516752" lon="10.627823851829696"><ele>146.0</ele><time>2026-04-18T06:46:16.999Z</time></trkpt><trkpt lat="43.52424924809639" lon="10.627818955739308"><ele>145.0</ele><time>2026-04-18T06:46:18.999Z</time></trkpt><trkpt lat="43.52433468490369" lon="10.62781194946595"><ele>144.0</ele><time>2026-04-18T06:46:21.999Z</time></trkpt><trkpt lat="43.52441156063708" lon="10.627805645325903"><ele>143.6</ele><time>2026-04-18T06:46:22.999Z</time></trkpt><trkpt lat="43.524480951176585" lon="10.627582722473834"><ele>143.2</ele><time>2026-04-18T06:46:23.999Z</time></trkpt><trkpt lat="43.52456221569784" lon="10.62757599693841"><ele>142.79999999999998</ele><time>2026-04-18T06:46:24.999Z</time></trkpt><trkpt lat="43.52464471905297" lon="10.62756028373595"><ele>142.4</ele><time>2026-04-18T06:46:25.999Z</time></trkpt><trkpt lat="43.52473207455365" lon="10.627542191466917"><ele>142.0</ele><time>2026-04-18T06:46:26.999Z</time></trkpt><trkpt lat="43.52482070752837" lon="10.627527238586719"><ele>141.66666666666669</ele><time>2026-04-18T06:46:27.999Z</time></trkpt><trkpt lat="43.524902311223386" lon="10.627519240432843"><ele>141.33333333333334</ele><time>2026-04-18T06:46:28.999Z</time></trkpt><trkpt lat="43.52498509989057" lon="10.627503717838376"><ele>141.0</ele><time>2026-04-18T06:46:29.999Z</time></trkpt><trkpt lat="43.52506541034526" lon="10.627477644604802"><ele>140.66666666666666</ele><time>2026-04-18T06:46:30.999Z</time></trkpt><trkpt lat="43.52514454337732" lon="10.627449077649885"><ele>140.33333333333331</ele><time>2026-04-18T06:46:31.999Z</time></trkpt><trkpt lat="43.525213946985666" lon="10.627426565517574"><ele>140.0</ele><time>2026-04-18T06:46:32.999Z</time></trkpt><trkpt lat="43.525286352014035" lon="10.627394991341141"><ele>140.0</ele><time>2026-04-18T06:46:33.999Z</time></trkpt><trkpt lat="43.525366048111735" lon="10.627352086451126"><ele>140.0</ele><time>2026-04-18T06:46:34.999Z</time></trkpt><trkpt lat="43.52544938100687" lon="10.627295571559536"><ele>140.0</ele><time>2026-04-18T06:46:35.999Z</time></trkpt><trkpt lat="43.52554145022507" lon="10.62723438187723"><ele>140.0</ele><time>2026-04-18T06:46:36.999Z</time></trkpt><trkpt lat="43.52563265784343" lon="10.627181250058271"><ele>140.0</ele><time>2026-04-18T06:46:37.999Z</time></trkpt><trkpt lat="43.52571258154037" lon="10.62712040488501"><ele>140.0</ele><time>2026-04-18T06:46:38.999Z</time></trkpt><trkpt lat="43.52579121972844" lon="10.627061062345817"><ele>140.0</ele><time>2026-04-18T06:46:39.999Z</time></trkpt><trkpt lat="43.5258790811872" lon="10.627003364411449"><ele>140.0</ele><time>2026-04-18T06:46:40.999Z</time></trkpt><trkpt lat="43.525977788507085" lon="10.626967350136821"><ele>140.0</ele><time>2026-04-18T06:46:41.999Z</time></trkpt><trkpt lat="43.52608163827474" lon="10.626946706637993"><ele>140.0</ele><time>2026-04-18T06:46:42.999Z</time></trkpt><trkpt lat="43.526168110118135" lon="10.62692505423253"><ele>139.33333333333331</ele><time>2026-04-18T06:46:43.999Z</time></trkpt><trkpt lat="43.52625003260417" lon="10.62689943715723"><ele>138.66666666666666</ele><time>2026-04-18T06:46:44.999Z</time></trkpt><trkpt lat="43.52633078361833" lon="10.626871213541603"><ele>138.0</ele><time>2026-04-18T06:46:45.999Z</time></trkpt><trkpt lat="43.52640597007566" lon="10.626847263259211"><ele>137.33333333333334</ele><time>2026-04-18T06:46:46.999Z</time></trkpt><trkpt lat="43.52647920725202" lon="10.626818441562921"><ele>136.66666666666669</ele><time>2026-04-18T06:46:47.999Z</time></trkpt><trkpt lat="43.52655690199023" lon="10.626793166841267"><ele>136.0</ele><time>2026-04-18T06:46:48.999Z</time></trkpt><trkpt lat="43.52663258451009" lon="10.626779570252506"><ele>136.0</ele><time>2026-04-18T06:46:49.999Z</time></trkpt><trkpt lat="43.526700369365834" lon="10.62677810651725"><ele>136.0</ele><time>2026-04-18T06:46:50.999Z</time></trkpt><trkpt lat="43.52677906999428" lon="10.626774874020361"><ele>136.0</ele><time>2026-04-18T06:46:51.999Z</time></trkpt><trkpt lat="43.526857373355625" lon="10.626751830278554"><ele>136.0</ele><time>2026-04-18T06:46:52.999Z</time></trkpt><trkpt lat="43.5269231558849" lon="10.626721556358486"><ele>136.0</ele><time>2026-04-18T06:46:53.999Z</time></trkpt><trkpt lat="43.52699079121371" lon="10.626691319302752"><ele>136.0</ele><time>2026-04-18T06:46:54.999Z</time></trkpt><trkpt lat="43.52710436251087" lon="10.626599497162317"><ele>134.83333333333334</ele><time>2026-04-18T06:46:56.999Z</time></trkpt><trkpt lat="43.527165886198375" lon="10.626529596472562"><ele>133.66666666666669</ele><time>2026-04-18T06:46:57.999Z</time></trkpt><trkpt lat="43.527221603098944" lon="10.626460961833182"><ele>132.5</ele><time>2026-04-18T06:46:58.999Z</time></trkpt><trkpt lat="43.527271084925175" lon="10.626399694555381"><ele>131.33333333333334</ele><time>2026-04-18T06:46:59.999Z</time></trkpt><trkpt lat="43.52737429283367" lon="10.626313123368401"><ele>130.16666666666666</ele><time>2026-04-18T06:47:01.999Z</time></trkpt><trkpt lat="43.527459357574685" lon="10.626283843683588"><ele>129.0</ele><time>2026-04-18T06:47:03.999Z</time></trkpt><trkpt lat="43.5275496436946" lon="10.626273822915396"><ele>129.0</ele><time>2026-04-18T06:47:05.999Z</time></trkpt><trkpt lat="43.527688953566226" lon="10.626282069092577"><ele>129.0</ele><time>2026-04-18T06:47:07.999Z</time></trkpt><trkpt lat="43.5277676675211" lon="10.626280007937993"><ele>129.0</ele><time>2026-04-18T06:47:08.999Z</time></trkpt><trkpt lat="43.52785239441677" lon="10.626284348610156"><ele>129.0</ele><time>2026-04-18T06:47:09.999Z</time></trkpt><trkpt lat="43.52794593158361" lon="10.626293367664031"><ele>129.0</ele><time>2026-04-18T06:47:10.999Z</time></trkpt><trkpt lat="43.52803018523636" lon="10.626297164269024"><ele>128.14285714285714</ele><time>2026-04-18T06:47:11.999Z</time></trkpt><trkpt lat="43.528119072489396" lon="10.626290301871949"><ele>127.28571428571428</ele><time>2026-04-18T06:47:12.999Z</time></trkpt><trkpt lat="43.528197376447814" lon="10.626273398855814"><ele>126.42857142857143</ele><time>2026-04-18T06:47:13.999Z</time></trkpt><trkpt lat="43.528261158668094" lon="10.626255098167528"><ele>125.57142857142857</ele><time>2026-04-18T06:47:14.999Z</time></trkpt><trkpt lat="43.528324479173" lon="10.626245932062089"><ele>124.71428571428572</ele><time>2026-04-18T06:47:15.998Z</time></trkpt><trkpt lat="43.52840130519117" lon="10.626254266399238"><ele>123.85714285714288</ele><time>2026-04-18T06:47:16.998Z</time></trkpt><trkpt lat="43.52847040359152" lon="10.626277634263948"><ele>123.00000000000001</ele><time>2026-04-18T06:47:17.998Z</time></trkpt><trkpt lat="43.52856890040214" lon="10.626316607377829"><ele>123.0</ele><time>2026-04-18T06:47:19.998Z</time></trkpt><trkpt lat="43.52867119446462" lon="10.62636071022515"><ele>123.00000000000001</ele><time>2026-04-18T06:47:21.998Z</time></trkpt><trkpt lat="43.52880633729886" lon="10.62641068692013"><ele>123.00000000000001</ele><time>2026-04-18T06:47:23.998Z</time></trkpt><trkpt lat="43.52889508501442" lon="10.626424546561728"><ele>123.0</ele><time>2026-04-18T06:47:24.998Z</time></trkpt><trkpt lat="43.528975027278435" lon="10.62641544676308"><ele>123.0</ele><time>2026-04-18T06:47:25.998Z</time></trkpt><trkpt lat="43.52904075914953" lon="10.626383020104408"><ele>123.14285714285717</ele><time>2026-04-18T06:47:26.998Z</time></trkpt><trkpt lat="43.52911128849608" lon="10.626338789624853"><ele>123.28571428571429</ele><time>2026-04-18T06:47:27.998Z</time></trkpt><trkpt lat="43.52917284145946" lon="10.626306843861917"><ele>123.42857142857144</ele><time>2026-04-18T06:47:28.998Z</time></trkpt><trkpt lat="43.5292384432735" lon="10.626267876555957"><ele>123.57142857142858</ele><time>2026-04-18T06:47:29.998Z</time></trkpt><trkpt lat="43.52930266337289" lon="10.626228228417244"><ele>123.71428571428572</ele><time>2026-04-18T06:47:30.998Z</time></trkpt><trkpt lat="43.529370408034424" lon="10.626215279181142"><ele>123.85714285714286</ele><time>2026-04-18T06:47:31.998Z</time></trkpt><trkpt lat="43.529447521104984" lon="10.626239894202174"><ele>124.0</ele><time>2026-04-18T06:47:32.998Z</time></trkpt><trkpt lat="43.529524805984394" lon="10.626243404908207"><ele>123.00000000000001</ele><time>2026-04-18T06:47:33.998Z</time></trkpt><trkpt lat="43.529613298731064" lon="10.626226900586298"><ele>122.0</ele><time>2026-04-18T06:47:34.998Z</time></trkpt><trkpt lat="43.5296955380848" lon="10.626200557599155"><ele>121.0</ele><time>2026-04-18T06:47:35.998Z</time></trkpt><trkpt lat="43.529775667872066" lon="10.626171137202018"><ele>120.0</ele><time>2026-04-18T06:47:36.998Z</time></trkpt><trkpt lat="43.529853396501615" lon="10.626143673279902"><ele>119.00000000000001</ele><time>2026-04-18T06:47:37.998Z</time></trkpt><trkpt lat="43.52994040521149" lon="10.626116008195115"><ele>118.0</ele><time>2026-04-18T06:47:38.998Z</time></trkpt><trkpt lat="43.53001572219721" lon="10.626096747510895"><ele>117.80000000000001</ele><time>2026-04-18T06:47:39.998Z</time></trkpt><trkpt lat="43.53012205040563" lon="10.626071006417316"><ele>117.60000000000001</ele><time>2026-04-18T06:47:41.998Z</time></trkpt><trkpt lat="43.530238945620425" lon="10.62609447878261"><ele>117.39999999999999</ele><time>2026-04-18T06:47:43.998Z</time></trkpt><trkpt lat="43.53031167751469" lon="10.626105563336067"><ele>117.19999999999999</ele><time>2026-04-18T06:47:44.998Z</time></trkpt><trkpt lat="43.53039278397318" lon="10.626103998486139"><ele>117.0</ele><time>2026-04-18T06:47:45.998Z</time></trkpt><trkpt lat="43.53048959186743" lon="10.626107476377987"><ele>117.0</ele><time>2026-04-18T06:47:46.998Z</time></trkpt><trkpt lat="43.53059073903413" lon="10.626123085445625"><ele>116.99999999999999</ele><time>2026-04-18T06:47:47.998Z</time></trkpt><trkpt lat="43.530693242143386" lon="10.626145618776288"><ele>116.99999999999999</ele><time>2026-04-18T06:47:48.998Z</time></trkpt><trkpt lat="43.53079015193603" lon="10.626164281023657"><ele>117.0</ele><time>2026-04-18T06:47:49.998Z</time></trkpt><trkpt lat="43.530875064814005" lon="10.62617521907689"><ele>117.0</ele><time>2026-04-18T06:47:50.998Z</time></trkpt><trkpt lat="43.53094159226701" lon="10.626178110438179"><ele>117.0</ele><time>2026-04-18T06:47:51.998Z</time></trkpt><trkpt lat="43.53102174960232" lon="10.62618470718099"><ele>117.0</ele><time>2026-04-18T06:47:52.998Z</time></trkpt><trkpt lat="43.53109061804645" lon="10.626189002908975"><ele>117.0</ele><time>2026-04-18T06:47:53.998Z</time></trkpt><trkpt lat="43.5311646686194" lon="10.626205894993285"><ele>117.0</ele><time>2026-04-18T06:47:54.998Z</time></trkpt><trkpt lat="43.531249123759075" lon="10.626239002032174"><ele>117.0</ele><time>2026-04-18T06:47:55.998Z</time></trkpt><trkpt lat="43.531342706930275" lon="10.626272420109007"><ele>117.0</ele><time>2026-04-18T06:47:56.999Z</time></trkpt><trkpt lat="43.53142935565206" lon="10.62629338078301"><ele>118.33333333333333</ele><time>2026-04-18T06:47:57.999Z</time></trkpt><trkpt lat="43.53150328538087" lon="10.626299221534518"><ele>119.66666666666666</ele><time>2026-04-18T06:47:58.999Z</time></trkpt><trkpt lat="43.53158893914126" lon="10.62631029177607"><ele>121.0</ele><time>2026-04-18T06:47:59.999Z</time></trkpt><trkpt lat="43.53167530660088" lon="10.626321636146917"><ele>122.33333333333333</ele><time>2026-04-18T06:48:00.999Z</time></trkpt><trkpt lat="43.5317624397782" lon="10.62633142582005"><ele>123.66666666666666</ele><time>2026-04-18T06:48:01.999Z</time></trkpt><trkpt lat="43.53185370972839" lon="10.626352236115551"><ele>125.0</ele><time>2026-04-18T06:48:02.999Z</time></trkpt><trkpt lat="43.5319344493932" lon="10.626388516000631"><ele>124.99999999999999</ele><time>2026-04-18T06:48:03.999Z</time></trkpt><trkpt lat="43.53199969005601" lon="10.626420591410064"><ele>125.0</ele><time>2026-04-18T06:48:04.999Z</time></trkpt><trkpt lat="43.532065911732374" lon="10.626453037151006"><ele>125.0</ele><time>2026-04-18T06:48:05.999Z</time></trkpt><trkpt lat="43.53212802366337" lon="10.626481246092704"><ele>125.0</ele><time>2026-04-18T06:48:06.999Z</time></trkpt><trkpt lat="43.53222591895115" lon="10.626504518650137"><ele>124.99999999999999</ele><time>2026-04-18T06:48:08.999Z</time></trkpt><trkpt lat="43.532340616216004" lon="10.62654679362918"><ele>125.0</ele><time>2026-04-18T06:48:10.999Z</time></trkpt><trkpt lat="43.53240864788693" lon="10.626572331463336"><ele>124.99999999999999</ele><time>2026-04-18T06:48:12.999Z</time></trkpt><trkpt lat="43.53244846585152" lon="10.62665880146653"><ele>125.0</ele><time>2026-04-18T06:48:15.999Z</time></trkpt><trkpt lat="43.53250600462976" lon="10.626735230641033"><ele>125.0</ele><time>2026-04-18T06:48:18.999Z</time></trkpt><trkpt lat="43.532559200541456" lon="10.626790738730405"><ele>125.0</ele><time>2026-04-18T06:48:24.999Z</time></trkpt><trkpt lat="43.5326535816322" lon="10.626842621036785"><ele>124.99999999999999</ele><time>2026-04-18T06:48:27.999Z</time></trkpt><trkpt lat="43.532749550799345" lon="10.626859024062215"><ele>125.0</ele><time>2026-04-18T06:48:30.999Z</time></trkpt><trkpt lat="43.53283836322683" lon="10.626885132813221"><ele>124.33333333333333</ele><time>2026-04-18T06:48:33.999Z</time></trkpt><trkpt lat="43.53290387083995" lon="10.626909311223272"><ele>123.66666666666666</ele><time>2026-04-18T06:48:36.999Z</time></trkpt><trkpt lat="43.532971403013526" lon="10.626943783349098"><ele>123.0</ele><time>2026-04-18T06:48:38.999Z</time></trkpt><trkpt lat="43.53308841331007" lon="10.62697151450527"><ele>122.33333333333334</ele><time>2026-04-18T06:48:41.999Z</time></trkpt><trkpt lat="43.53315680587633" lon="10.626974208985489"><ele>121.66666666666667</ele><time>2026-04-18T06:48:42.999Z</time></trkpt><trkpt lat="43.53322670460218" lon="10.626973348081398"><ele>121.0</ele><time>2026-04-18T06:48:43.999Z</time></trkpt><trkpt lat="43.53329765293638" lon="10.626977289486867"><ele>121.00000000000001</ele><time>2026-04-18T06:48:44.999Z</time></trkpt><trkpt lat="43.533369509742485" lon="10.626973259641463"><ele>121.0</ele><time>2026-04-18T06:48:45.999Z</time></trkpt><trkpt lat="43.53347010764784" lon="10.626956643401254"><ele>121.0</ele><time>2026-04-18T06:48:47.999Z</time></trkpt><trkpt lat="43.533531465120184" lon="10.626929834346168"><ele>121.0</ele><time>2026-04-18T06:48:49.999Z</time></trkpt><trkpt lat="43.53360424195989" lon="10.626869629767251"><ele>121.00000000000001</ele><time>2026-04-18T06:48:51.999Z</time></trkpt><trkpt lat="43.53367800736606" lon="10.626817049542213"><ele>121.0</ele><time>2026-04-18T06:48:53.999Z</time></trkpt><trkpt lat="43.53375529611356" lon="10.626750217007169"><ele>121.4</ele><time>2026-04-18T06:48:55.999Z</time></trkpt><trkpt lat="43.533851472375936" lon="10.62667765579519"><ele>121.8</ele><time>2026-04-18T06:48:57.999Z</time></trkpt><trkpt lat="43.53391209882182" lon="10.626644612880778"><ele>122.20000000000002</ele><time>2026-04-18T06:48:58.999Z</time></trkpt><trkpt lat="43.53399853717657" lon="10.626572494185574"><ele>122.60000000000001</ele><time>2026-04-18T06:49:00.999Z</time></trkpt><trkpt lat="43.53406738783796" lon="10.626486447025206"><ele>123.0</ele><time>2026-04-18T06:49:02.999Z</time></trkpt><trkpt lat="43.5341286896625" lon="10.62638323143575"><ele>123.0</ele><time>2026-04-18T06:49:04.999Z</time></trkpt><trkpt lat="43.53418234081486" lon="10.626287577976493"><ele>123.0</ele><time>2026-04-18T06:49:06.999Z</time></trkpt><trkpt lat="43.534231064902556" lon="10.626187481044408"><ele>123.0</ele><time>2026-04-18T06:49:08.999Z</time></trkpt><trkpt lat="43.53428199490174" lon="10.626089534599378"><ele>123.0</ele><time>2026-04-18T06:49:10.999Z</time></trkpt><trkpt lat="43.53432677959923" lon="10.625995625150649"><ele>123.0</ele><time>2026-04-18T06:49:12.999Z</time></trkpt><trkpt lat="43.53436698394495" lon="10.625923302779135"><ele>123.0</ele><time>2026-04-18T06:49:14.999Z</time></trkpt><trkpt lat="43.534417539794475" lon="10.625837384102724"><ele>122.4</ele><time>2026-04-18T06:49:16.999Z</time></trkpt><trkpt lat="43.534472097610134" lon="10.625755042306741"><ele>121.80000000000001</ele><time>2026-04-18T06:49:18.999Z</time></trkpt><trkpt lat="43.5345308685393" lon="10.62567124492523"><ele>121.2</ele><time>2026-04-18T06:49:20.999Z</time></trkpt><trkpt lat="43.534606948649454" lon="10.625604647170293"><ele>120.6</ele><time>2026-04-18T06:49:22.999Z</time></trkpt><trkpt lat="43.5347095677149" lon="10.625526382982292"><ele>120.0</ele><time>2026-04-18T06:49:24.999Z</time></trkpt><trkpt lat="43.5347999604792" lon="10.625468131049518"><ele>119.16666666666667</ele><time>2026-04-18T06:49:26.999Z</time></trkpt><trkpt lat="43.5348732904004" lon="10.625413011585625"><ele>118.33333333333334</ele><time>2026-04-18T06:49:28.999Z</time></trkpt><trkpt lat="43.53494972257547" lon="10.625352143462564"><ele>117.5</ele><time>2026-04-18T06:49:30.999Z</time></trkpt><trkpt lat="43.535015037664664" lon="10.625305287495225"><ele>116.66666666666667</ele><time>2026-04-18T06:49:32.998Z</time></trkpt><trkpt lat="43.53510030433876" lon="10.625261411247873"><ele>115.83333333333334</ele><time>2026-04-18T06:49:35.998Z</time></trkpt><trkpt lat="43.535185596937055" lon="10.625198372173697"><ele>115.0</ele><time>2026-04-18T06:49:38.998Z</time></trkpt><trkpt lat="43.53526002401143" lon="10.625143420879366"><ele>114.8</ele><time>2026-04-18T06:49:40.998Z</time></trkpt><trkpt lat="43.535341640014664" lon="10.625102087218101"><ele>114.6</ele><time>2026-04-18T06:49:42.998Z</time></trkpt><trkpt lat="43.53544735876727" lon="10.625034101539521"><ele>114.4</ele><time>2026-04-18T06:49:44.998Z</time></trkpt><trkpt lat="43.53555491964359" lon="10.624977346919374"><ele>114.2</ele><time>2026-04-18T06:49:46.998Z</time></trkpt><trkpt lat="43.5356469713123" lon="10.624940124131221"><ele>114.0</ele><time>2026-04-18T06:49:48.998Z</time></trkpt><trkpt lat="43.53574673295669" lon="10.624907253573204"><ele>113.0</ele><time>2026-04-18T06:49:50.998Z</time></trkpt><trkpt lat="43.53585729210236" lon="10.624877318100623"><ele>112.0</ele><time>2026-04-18T06:49:52.998Z</time></trkpt><trkpt lat="43.535976617892935" lon="10.624865555544698"><ele>111.0</ele><time>2026-04-18T06:49:54.998Z</time></trkpt><trkpt lat="43.53607119788186" lon="10.624907711285937"><ele>110.0</ele><time>2026-04-18T06:49:56.998Z</time></trkpt><trkpt lat="43.53615883492942" lon="10.624952325081479"><ele>109.0</ele><time>2026-04-18T06:49:58.998Z</time></trkpt><trkpt lat="43.53627525070004" lon="10.624980845154944"><ele>108.16666666666667</ele><time>2026-04-18T06:50:00.998Z</time></trkpt><trkpt lat="43.536373639010655" lon="10.624984601528746"><ele>107.33333333333334</ele><time>2026-04-18T06:50:02.999Z</time></trkpt><trkpt lat="43.53644663101322" lon="10.62499621880649"><ele>106.5</ele><time>2026-04-18T06:50:04.999Z</time></trkpt><trkpt lat="43.53652486187854" lon="10.625014294372143"><ele>105.66666666666666</ele><time>2026-04-18T06:50:06.999Z</time></trkpt><trkpt lat="43.53661765188341" lon="10.625017436222066"><ele>104.83333333333333</ele><time>2026-04-18T06:50:08.999Z</time></trkpt><trkpt lat="43.536687126999105" lon="10.625044497117697"><ele>104.0</ele><time>2026-04-18T06:50:10.999Z</time></trkpt><trkpt lat="43.536748986779315" lon="10.62506314508803"><ele>103.99999999999999</ele><time>2026-04-18T06:50:13.999Z</time></trkpt><trkpt lat="43.53681485353548" lon="10.625094371850398"><ele>104.0</ele><time>2026-04-18T06:50:47.999Z</time></trkpt><trkpt lat="43.5368812326995" lon="10.625119288454705"><ele>104.0</ele><time>2026-04-18T06:50:49.999Z</time></trkpt><trkpt lat="43.53695572155703" lon="10.62513998549393"><ele>104.0</ele><time>2026-04-18T06:50:51.999Z</time></trkpt><trkpt lat="43.53703227919689" lon="10.62515448909676"><ele>103.99999999999999</ele><time>2026-04-18T06:50:53.999Z</time></trkpt><trkpt lat="43.537134372213636" lon="10.625184673996502"><ele>104.0</ele><time>2026-04-18T06:50:55.999Z</time></trkpt><trkpt lat="43.53722335899776" lon="10.625217150894729"><ele>103.28571428571428</ele><time>2026-04-18T06:50:57.999Z</time></trkpt><trkpt lat="43.53729291890722" lon="10.625231961703465"><ele>102.57142857142858</ele><time>2026-04-18T06:50:58.999Z</time></trkpt><trkpt lat="43.53737092794086" lon="10.625252439135881"><ele>101.85714285714286</ele><time>2026-04-18T06:50:59.999Z</time></trkpt><trkpt lat="43.53744799027578" lon="10.625275446790189"><ele>101.14285714285714</ele><time>2026-04-18T06:51:00.999Z</time></trkpt><trkpt lat="43.53751477986555" lon="10.625302557630876"><ele>100.42857142857142</ele><time>2026-04-18T06:51:01.999Z</time></trkpt><trkpt lat="43.53757662153408" lon="10.625326505979436"><ele>99.71428571428572</ele><time>2026-04-18T06:51:02.999Z</time></trkpt><trkpt lat="43.537647420508705" lon="10.62536172732619"><ele>99.0</ele><time>2026-04-18T06:51:04.999Z</time></trkpt><trkpt lat="43.53775254699629" lon="10.625410214018954"><ele>99.4</ele><time>2026-04-18T06:51:07.999Z</time></trkpt><trkpt lat="43.53788408541792" lon="10.625440342471098"><ele>99.80000000000001</ele><time>2026-04-18T06:51:09.999Z</time></trkpt><trkpt lat="43.537965751400364" lon="10.625454487380807"><ele>100.19999999999999</ele><time>2026-04-18T06:51:10.999Z</time></trkpt><trkpt lat="43.5380426584572" lon="10.625456400442253"><ele>100.6</ele><time>2026-04-18T06:51:11.999Z</time></trkpt><trkpt lat="43.538154911916926" lon="10.62545283418778"><ele>101.0</ele><time>2026-04-18T06:51:13.999Z</time></trkpt><trkpt lat="43.53825669573765" lon="10.625409525843988"><ele>101.0</ele><time>2026-04-18T06:51:15.999Z</time></trkpt><trkpt lat="43.53834750281727" lon="10.625333870514742"><ele>101.0</ele><time>2026-04-18T06:51:17.999Z</time></trkpt><trkpt lat="43.53842483812433" lon="10.625262399820043"><ele>101.0</ele><time>2026-04-18T06:51:19.999Z</time></trkpt><trkpt lat="43.53850189917005" lon="10.625177587923785"><ele>101.0</ele><time>2026-04-18T06:51:21.999Z</time></trkpt><trkpt lat="43.538569225202444" lon="10.6250846919729"><ele>101.0</ele><time>2026-04-18T06:51:23.999Z</time></trkpt><trkpt lat="43.53865453899274" lon="10.624968390092942"><ele>103.75</ele><time>2026-04-18T06:51:25.999Z</time></trkpt><trkpt lat="43.53872773416886" lon="10.624868638094597"><ele>106.5</ele><time>2026-04-18T06:51:27.999Z</time></trkpt><trkpt lat="43.53880681824316" lon="10.624742269585193"><ele>109.25</ele><time>2026-04-18T06:51:29.999Z</time></trkpt><trkpt lat="43.53889265458626" lon="10.624616914451815"><ele>112.0</ele><time>2026-04-18T06:51:31.999Z</time></trkpt><trkpt lat="43.53897367660662" lon="10.62450321014717"><ele>111.66666666666667</ele><time>2026-04-18T06:51:33.999Z</time></trkpt><trkpt lat="43.5390190392189" lon="10.62444176617983"><ele>111.33333333333334</ele><time>2026-04-18T06:51:34.999Z</time></trkpt><trkpt lat="43.53910318120098" lon="10.624329706225922"><ele>111.0</ele><time>2026-04-18T06:51:36.999Z</time></trkpt><trkpt lat="43.53916373168992" lon="10.62424626210528"><ele>110.66666666666666</ele><time>2026-04-18T06:51:38.999Z</time></trkpt><trkpt lat="43.53919622228992" lon="10.624169502322744"><ele>110.33333333333333</ele><time>2026-04-18T06:51:40.999Z</time></trkpt><trkpt lat="43.53923387628583" lon="10.62409005556134"><ele>110.0</ele><time>2026-04-18T06:51:42.999Z</time></trkpt><trkpt lat="43.53926579372933" lon="10.623990953088201"><ele>109.99999999999999</ele><time>2026-04-18T06:51:46.999Z</time></trkpt><trkpt lat="43.53932017951536" lon="10.623937963483419"><ele>110.0</ele><time>2026-04-18T06:52:01.998Z</time></trkpt><trkpt lat="43.53937493284952" lon="10.623889519155762"><ele>110.0</ele><time>2026-04-18T06:52:47.999Z</time></trkpt><trkpt lat="43.53943841391606" lon="10.623863047589447"><ele>110.0</ele><time>2026-04-18T06:53:22.999Z</time></trkpt><trkpt lat="43.539504879923236" lon="10.623862593558966"><ele>110.0</ele><time>2026-04-18T06:54:37Z</time></trkpt><trkpt lat="43.53956275173811" lon="10.623918937659727"><ele>109.99999999999999</ele><time>2026-04-18T06:55:20.999Z</time></trkpt><trkpt lat="43.539631881556595" lon="10.623966153680506"><ele>110.0</ele><time>2026-04-18T06:56:45Z</time></trkpt><trkpt lat="43.53970451863242" lon="10.624038390233537"><ele>110.33333333333333</ele><time>2026-04-18T06:56:47Z</time></trkpt><trkpt lat="43.53978228586182" lon="10.624139186151659"><ele>110.66666666666666</ele><time>2026-04-18T06:56:49Z</time></trkpt><trkpt lat="43.53984326847115" lon="10.624282621968423"><ele>111.0</ele><time>2026-04-18T06:56:51Z</time></trkpt><trkpt lat="43.539890964405835" lon="10.624349922248465"><ele>111.33333333333334</ele><time>2026-04-18T06:56:51.999Z</time></trkpt><trkpt lat="43.5399409253985" lon="10.624417028047107"><ele>111.66666666666667</ele><time>2026-04-18T06:56:52.999Z</time></trkpt><trkpt lat="43.53999665696529" lon="10.624489390387293"><ele>112.0</ele><time>2026-04-18T06:56:53.999Z</time></trkpt><trkpt lat="43.540050968535084" lon="10.624558289573443"><ele>112.00000000000001</ele><time>2026-04-18T06:56:54.999Z</time></trkpt><trkpt lat="43.54011202135506" lon="10.62462954710771"><ele>112.0</ele><time>2026-04-18T06:56:55.999Z</time></trkpt><trkpt lat="43.540170363704334" lon="10.624689566959088"><ele>112.0</ele><time>2026-04-18T06:56:56.999Z</time></trkpt><trkpt lat="43.54022339188768" lon="10.624745472632096"><ele>112.0</ele><time>2026-04-18T06:56:57.999Z</time></trkpt><trkpt lat="43.540280452029194" lon="10.624794071199315"><ele>112.00000000000001</ele><time>2026-04-18T06:56:58.999Z</time></trkpt><trkpt lat="43.54032168783692" lon="10.62487940700072"><ele>112.0</ele><time>2026-04-18T06:56:59.999Z</time></trkpt><trkpt lat="43.54034471590865" lon="10.625027027128567"><ele>112.0</ele><time>2026-04-18T06:57:01.999Z</time></trkpt><trkpt lat="43.540322518382055" lon="10.625116753611252"><ele>111.99999999999999</ele><time>2026-04-18T06:57:02.999Z</time></trkpt><trkpt lat="43.54034224163827" lon="10.625206259147884"><ele>111.99999999999999</ele><time>2026-04-18T06:57:03.999Z</time></trkpt><trkpt lat="43.54038167331393" lon="10.625362519594235"><ele>112.0</ele><time>2026-04-18T06:57:05.999Z</time></trkpt><trkpt lat="43.5404437377017" lon="10.625497195867782"><ele>112.0</ele><time>2026-04-18T06:57:07.999Z</time></trkpt><trkpt lat="43.54047916021561" lon="10.625624138864334"><ele>110.8</ele><time>2026-04-18T06:57:09.999Z</time></trkpt><trkpt lat="43.54052541774112" lon="10.62571442431151"><ele>109.6</ele><time>2026-04-18T06:57:11.999Z</time></trkpt><trkpt lat="43.540487289958854" lon="10.625830914460547"><ele>108.39999999999999</ele><time>2026-04-18T06:57:14.999Z</time></trkpt><trkpt lat="43.54038164722558" lon="10.625848578874322"><ele>107.19999999999999</ele><time>2026-04-18T06:57:16.999Z</time></trkpt><trkpt lat="43.540276318309004" lon="10.625930827061826"><ele>106.0</ele><time>2026-04-18T06:57:18.999Z</time></trkpt><trkpt lat="43.54020478878136" lon="10.625989670220262"><ele>106.0</ele><time>2026-04-18T06:57:19.999Z</time></trkpt><trkpt lat="43.540147161102645" lon="10.626062168478965"><ele>106.0</ele><time>2026-04-18T06:57:20.999Z</time></trkpt><trkpt lat="43.54006488204656" lon="10.62614319504985"><ele>106.0</ele><time>2026-04-18T06:57:22.999Z</time></trkpt><trkpt lat="43.54006182652921" lon="10.62625563721588"><ele>106.0</ele><time>2026-04-18T06:57:24.999Z</time></trkpt><trkpt lat="43.54011220346121" lon="10.626381620110475"><ele>106.0</ele><time>2026-04-18T06:57:26.999Z</time></trkpt><trkpt lat="43.54017738744777" lon="10.626512428113646"><ele>103.8</ele><time>2026-04-18T06:57:28.999Z</time></trkpt><trkpt lat="43.54023699178838" lon="10.626650105762543"><ele>101.6</ele><time>2026-04-18T06:57:30.999Z</time></trkpt><trkpt lat="43.540298839480876" lon="10.626796531624295"><ele>99.4</ele><time>2026-04-18T06:57:32.999Z</time></trkpt><trkpt lat="43.540330328562604" lon="10.626872086061926"><ele>97.2</ele><time>2026-04-18T06:57:33.999Z</time></trkpt><trkpt lat="43.540364101239184" lon="10.626946864795249"><ele>95.0</ele><time>2026-04-18T06:57:34.999Z</time></trkpt><trkpt lat="43.540435428691474" lon="10.627090601851606"><ele>93.2</ele><time>2026-04-18T06:57:36.999Z</time></trkpt><trkpt lat="43.54050466280919" lon="10.627233479761676"><ele>91.4</ele><time>2026-04-18T06:57:38.999Z</time></trkpt><trkpt lat="43.54056890912994" lon="10.627377828464699"><ele>89.6</ele><time>2026-04-18T06:57:40.999Z</time></trkpt><trkpt lat="43.540605619442545" lon="10.627458290958547"><ele>87.8</ele><time>2026-04-18T06:57:41.999Z</time></trkpt><trkpt lat="43.54064524835544" lon="10.627545169758685"><ele>86.0</ele><time>2026-04-18T06:57:42.999Z</time></trkpt><trkpt lat="43.540690592243664" lon="10.627644902263789"><ele>86.00000000000001</ele><time>2026-04-18T06:57:43.999Z</time></trkpt><trkpt lat="43.54072948047862" lon="10.627725952323987"><ele>86.0</ele><time>2026-04-18T06:57:44.999Z</time></trkpt><trkpt lat="43.54076508847943" lon="10.627802527482416"><ele>86.0</ele><time>2026-04-18T06:57:45.999Z</time></trkpt><trkpt lat="43.540803523871155" lon="10.627881387162429"><ele>86.0</ele><time>2026-04-18T06:57:46.999Z</time></trkpt><trkpt lat="43.54083319562096" lon="10.627980373150148"><ele>86.0</ele><time>2026-04-18T06:57:47.999Z</time></trkpt><trkpt lat="43.540895294417595" lon="10.62807138990673"><ele>86.00000000000001</ele><time>2026-04-18T06:57:48.999Z</time></trkpt><trkpt lat="43.540935221371775" lon="10.628157439475682"><ele>86.0</ele><time>2026-04-18T06:57:49.999Z</time></trkpt><trkpt lat="43.5409585169336" lon="10.628248820466029"><ele>84.66666666666667</ele><time>2026-04-18T06:57:50.999Z</time></trkpt><trkpt lat="43.54100558717881" lon="10.62830739702131"><ele>83.33333333333334</ele><time>2026-04-18T06:57:51.999Z</time></trkpt><trkpt lat="43.54103562332899" lon="10.628387854675564"><ele>82.0</ele><time>2026-04-18T06:57:52.999Z</time></trkpt><trkpt lat="43.541045435144305" lon="10.62849109153494"><ele>80.66666666666667</ele><time>2026-04-18T06:57:53.999Z</time></trkpt><trkpt lat="43.54109055989498" lon="10.62856182482173"><ele>79.33333333333333</ele><time>2026-04-18T06:57:54.999Z</time></trkpt><trkpt lat="43.54116746569273" lon="10.628696747606265"><ele>78.0</ele><time>2026-04-18T06:57:56.999Z</time></trkpt><trkpt lat="43.54121311809033" lon="10.628763629424451"><ele>75.83333333333333</ele><time>2026-04-18T06:57:57.999Z</time></trkpt><trkpt lat="43.54123621782728" lon="10.628850390532424"><ele>73.66666666666667</ele><time>2026-04-18T06:57:58.999Z</time></trkpt><trkpt lat="43.541274591420965" lon="10.628936182964344"><ele>71.5</ele><time>2026-04-18T06:57:59.999Z</time></trkpt><trkpt lat="43.54131566639582" lon="10.629027262649252"><ele>69.33333333333334</ele><time>2026-04-18T06:58:00.999Z</time></trkpt><trkpt lat="43.54135976853112" lon="10.629125054766142"><ele>67.16666666666667</ele><time>2026-04-18T06:58:01.999Z</time></trkpt><trkpt lat="43.5414018881412" lon="10.62921845082515"><ele>65.0</ele><time>2026-04-18T06:58:02.999Z</time></trkpt><trkpt lat="43.541444088866925" lon="10.629312026750991"><ele>65.0</ele><time>2026-04-18T06:58:03.999Z</time></trkpt><trkpt lat="43.5414864419657" lon="10.629405940551196"><ele>65.0</ele><time>2026-04-18T06:58:04.999Z</time></trkpt><trkpt lat="43.54153937489193" lon="10.629489645524998"><ele>65.0</ele><time>2026-04-18T06:58:05.999Z</time></trkpt><trkpt lat="43.541581691059896" lon="10.629577970387128"><ele>65.0</ele><time>2026-04-18T06:58:06.999Z</time></trkpt><trkpt lat="43.541618878024586" lon="10.629665269954723"><ele>65.0</ele><time>2026-04-18T06:58:07.999Z</time></trkpt><trkpt lat="43.54164304870183" lon="10.629753200473177"><ele>65.0</ele><time>2026-04-18T06:58:08.999Z</time></trkpt><trkpt lat="43.54170492219627" lon="10.629890398811636"><ele>63.25</ele><time>2026-04-18T06:58:10.999Z</time></trkpt><trkpt lat="43.54174138797233" lon="10.629982610311739"><ele>61.5</ele><time>2026-04-18T06:58:13.999Z</time></trkpt><trkpt lat="43.541633998615715" lon="10.630046508011231"><ele>59.75</ele><time>2026-04-18T06:58:14.999Z</time></trkpt><trkpt lat="43.541529400531914" lon="10.630218949394816"><ele>58.0</ele><time>2026-04-18T06:58:16.999Z</time></trkpt><trkpt lat="43.541481618223635" lon="10.630333472681498"><ele>57.0</ele><time>2026-04-18T06:58:17.999Z</time></trkpt><trkpt lat="43.54142937936868" lon="10.630433443710302"><ele>56.0</ele><time>2026-04-18T06:58:18.999Z</time></trkpt><trkpt lat="43.54137944080067" lon="10.630541052031592"><ele>55.0</ele><time>2026-04-18T06:58:19.999Z</time></trkpt><trkpt lat="43.541338396514966" lon="10.630641706921251"><ele>54.0</ele><time>2026-04-18T06:58:20.999Z</time></trkpt><trkpt lat="43.541289622374805" lon="10.630749026782397"><ele>53.0</ele><time>2026-04-18T06:58:21.998Z</time></trkpt><trkpt lat="43.541241617748796" lon="10.630859910669061"><ele>53.0</ele><time>2026-04-18T06:58:22.998Z</time></trkpt><trkpt lat="43.54118834746894" lon="10.630981728415739"><ele>53.0</ele><time>2026-04-18T06:58:23.998Z</time></trkpt><trkpt lat="43.54113433042945" lon="10.631102922182652"><ele>53.0</ele><time>2026-04-18T06:58:25Z</time></trkpt><trkpt lat="43.5410751871133" lon="10.631227495081342"><ele>53.0</ele><time>2026-04-18T06:58:26Z</time></trkpt><trkpt lat="43.541036843626564" lon="10.631370326411789"><ele>53.0</ele><time>2026-04-18T06:58:27Z</time></trkpt><trkpt lat="43.54099268515684" lon="10.63150391599929"><ele>53.0</ele><time>2026-04-18T06:58:28Z</time></trkpt><trkpt lat="43.54094657062488" lon="10.631630893311266"><ele>53.0</ele><time>2026-04-18T06:58:29Z</time></trkpt><trkpt lat="43.54087378814104" lon="10.631720570635693"><ele>53.0</ele><time>2026-04-18T06:58:30Z</time></trkpt><trkpt lat="43.54079468582276" lon="10.631836658619587"><ele>53.0</ele><time>2026-04-18T06:58:31Z</time></trkpt><trkpt lat="43.54074048309218" lon="10.631973301836496"><ele>53.0</ele><time>2026-04-18T06:58:32Z</time></trkpt><trkpt lat="43.54068298089449" lon="10.63210245152045"><ele>53.2</ele><time>2026-04-18T06:58:33Z</time></trkpt><trkpt lat="43.540645135553916" lon="10.632235819273966"><ele>53.4</ele><time>2026-04-18T06:58:34Z</time></trkpt><trkpt lat="43.54058020724987" lon="10.632346181676835"><ele>53.60000000000001</ele><time>2026-04-18T06:58:35Z</time></trkpt><trkpt lat="43.54051413196472" lon="10.63247801475759"><ele>53.800000000000004</ele><time>2026-04-18T06:58:36Z</time></trkpt><trkpt lat="43.54045505862454" lon="10.632620822768805"><ele>54.0</ele><time>2026-04-18T06:58:37Z</time></trkpt><trkpt lat="43.540391674411545" lon="10.63275645957277"><ele>55.2</ele><time>2026-04-18T06:58:38Z</time></trkpt><trkpt lat="43.54032706569339" lon="10.63287664880087"><ele>56.400000000000006</ele><time>2026-04-18T06:58:39Z</time></trkpt><trkpt lat="43.540262501515784" lon="10.632998955597824"><ele>57.6</ele><time>2026-04-18T06:58:40Z</time></trkpt><trkpt lat="43.54019919726654" lon="10.63312259688212"><ele>58.8</ele><time>2026-04-18T06:58:41Z</time></trkpt><trkpt lat="43.540137052291584" lon="10.633242905856232"><ele>60.0</ele><time>2026-04-18T06:58:42Z</time></trkpt><trkpt lat="43.540080918109254" lon="10.633352118783463"><ele>60.0</ele><time>2026-04-18T06:58:43Z</time></trkpt><trkpt lat="43.5400408873464" lon="10.633455549393258"><ele>60.0</ele><time>2026-04-18T06:58:44Z</time></trkpt><trkpt lat="43.540006287362" lon="10.633576150447976"><ele>60.0</ele><time>2026-04-18T06:58:45Z</time></trkpt><trkpt lat="43.53994815370467" lon="10.633685493507956"><ele>60.0</ele><time>2026-04-18T06:58:46Z</time></trkpt><trkpt lat="43.53988736108144" lon="10.633799793299271"><ele>60.0</ele><time>2026-04-18T06:58:47Z</time></trkpt><trkpt lat="43.53982044467743" lon="10.633916376443292"><ele>59.0</ele><time>2026-04-18T06:58:48Z</time></trkpt><trkpt lat="43.539756272651196" lon="10.634044173608215"><ele>58.0</ele><time>2026-04-18T06:58:49Z</time></trkpt><trkpt lat="43.53968615517849" lon="10.634165298936647"><ele>57.0</ele><time>2026-04-18T06:58:50Z</time></trkpt><trkpt lat="43.53961960291406" lon="10.634289410343168"><ele>56.0</ele><time>2026-04-18T06:58:51Z</time></trkpt><trkpt lat="43.53954754034882" lon="10.634418070591666"><ele>56.0</ele><time>2026-04-18T06:58:52Z</time></trkpt><trkpt lat="43.5394718988926" lon="10.634550253308836"><ele>55.99999999999999</ele><time>2026-04-18T06:58:53Z</time></trkpt><trkpt lat="43.539406452430946" lon="10.63466892648163"><ele>55.99999999999999</ele><time>2026-04-18T06:58:54Z</time></trkpt><trkpt lat="43.53934761786818" lon="10.63477586702399"><ele>56.0</ele><time>2026-04-18T06:58:55Z</time></trkpt><trkpt lat="43.539297764360455" lon="10.634873730086532"><ele>56.0</ele><time>2026-04-18T06:58:56Z</time></trkpt><trkpt lat="43.53925137280968" lon="10.634964059259364"><ele>56.0</ele><time>2026-04-18T06:58:57Z</time></trkpt><trkpt lat="43.539188902919975" lon="10.63503113608923"><ele>55.99999999999999</ele><time>2026-04-18T06:58:58Z</time></trkpt><trkpt lat="43.53912068609408" lon="10.635085678789077"><ele>55.99999999999999</ele><time>2026-04-18T06:58:59Z</time></trkpt><trkpt lat="43.539039471485125" lon="10.635150581055333"><ele>56.0</ele><time>2026-04-18T06:59:00Z</time></trkpt><trkpt lat="43.53898705030496" lon="10.635292473344903"><ele>56.0</ele><time>2026-04-18T06:59:01Z</time></trkpt><trkpt lat="43.53892159665053" lon="10.635409456785704"><ele>56.0</ele><time>2026-04-18T06:59:01.999Z</time></trkpt><trkpt lat="43.53883907115616" lon="10.635517796198643"><ele>56.0</ele><time>2026-04-18T06:59:02.999Z</time></trkpt><trkpt lat="43.538767259075556" lon="10.635635942480278"><ele>56.0</ele><time>2026-04-18T06:59:03.999Z</time></trkpt><trkpt lat="43.53869289801774" lon="10.635760064836123"><ele>56.0</ele><time>2026-04-18T06:59:04.999Z</time></trkpt><trkpt lat="43.53864100377249" lon="10.63589248629005"><ele>56.75</ele><time>2026-04-18T06:59:05.999Z</time></trkpt><trkpt lat="43.538588945382585" lon="10.63601395901543"><ele>57.5</ele><time>2026-04-18T06:59:06.999Z</time></trkpt><trkpt lat="43.538555365790806" lon="10.636162034756602"><ele>58.25</ele><time>2026-04-18T06:59:07.999Z</time></trkpt><trkpt lat="43.53853864097444" lon="10.636322246620473"><ele>59.0</ele><time>2026-04-18T06:59:08.999Z</time></trkpt><trkpt lat="43.53850412836769" lon="10.63648414419036"><ele>59.0</ele><time>2026-04-18T06:59:09.999Z</time></trkpt><trkpt lat="43.538472124687324" lon="10.636649068530067"><ele>59.00000000000001</ele><time>2026-04-18T06:59:10.999Z</time></trkpt><trkpt lat="43.53842786334882" lon="10.636803138066114"><ele>59.00000000000001</ele><time>2026-04-18T06:59:11.999Z</time></trkpt><trkpt lat="43.53836518028822" lon="10.636920204853329"><ele>59.0</ele><time>2026-04-18T06:59:12.999Z</time></trkpt><trkpt lat="43.538312671080945" lon="10.637000812747845"><ele>59.0</ele><time>2026-04-18T06:59:14.999Z</time></trkpt><trkpt lat="43.53839140598566" lon="10.637115828154393"><ele>58.333333333333336</ele><time>2026-04-18T06:59:17.999Z</time></trkpt><trkpt lat="43.53843916772514" lon="10.637176547177534"><ele>57.66666666666667</ele><time>2026-04-18T06:59:19.999Z</time></trkpt><trkpt lat="43.538494050322754" lon="10.63723640314856"><ele>57.0</ele><time>2026-04-18T06:59:20.999Z</time></trkpt><trkpt lat="43.538544640861474" lon="10.637300553695155"><ele>56.33333333333333</ele><time>2026-04-18T06:59:21.999Z</time></trkpt><trkpt lat="43.53860175447463" lon="10.637373944730616"><ele>55.666666666666664</ele><time>2026-04-18T06:59:22.999Z</time></trkpt><trkpt lat="43.538664760040064" lon="10.637452951912275"><ele>55.0</ele><time>2026-04-18T06:59:23.999Z</time></trkpt><trkpt lat="43.53873405998762" lon="10.63753725235715"><ele>54.2</ele><time>2026-04-18T06:59:24.999Z</time></trkpt><trkpt lat="43.53880617880238" lon="10.637630781580413"><ele>53.4</ele><time>2026-04-18T06:59:25.999Z</time></trkpt><trkpt lat="43.53887925253656" lon="10.637729330057283"><ele>52.599999999999994</ele><time>2026-04-18T06:59:26.999Z</time></trkpt><trkpt lat="43.5389573677737" lon="10.637823746858873"><ele>51.8</ele><time>2026-04-18T06:59:27.999Z</time></trkpt><trkpt lat="43.53903603367126" lon="10.637919631342678"><ele>51.0</ele><time>2026-04-18T06:59:28.999Z</time></trkpt><trkpt lat="43.5391113221117" lon="10.638019768917403"><ele>51.0</ele><time>2026-04-18T06:59:29.999Z</time></trkpt><trkpt lat="43.53919219942337" lon="10.63811826077904"><ele>51.0</ele><time>2026-04-18T06:59:30.999Z</time></trkpt><trkpt lat="43.53927118457754" lon="10.63821489443173"><ele>51.0</ele><time>2026-04-18T06:59:31.999Z</time></trkpt><trkpt lat="43.539350683283416" lon="10.638309503654797"><ele>51.0</ele><time>2026-04-18T06:59:32.999Z</time></trkpt><trkpt lat="43.539435342191666" lon="10.638398593085942"><ele>51.0</ele><time>2026-04-18T06:59:33.999Z</time></trkpt><trkpt lat="43.53951920796104" lon="10.638481732771933"><ele>51.0</ele><time>2026-04-18T06:59:34.999Z</time></trkpt><trkpt lat="43.53961201501141" lon="10.638562997594422"><ele>51.0</ele><time>2026-04-18T06:59:35.999Z</time></trkpt><trkpt lat="43.53969958675881" lon="10.638649367422236"><ele>51.0</ele><time>2026-04-18T06:59:36.999Z</time></trkpt><trkpt lat="43.539771315901966" lon="10.638742342891714"><ele>51.0</ele><time>2026-04-18T06:59:37.999Z</time></trkpt><trkpt lat="43.53981643390765" lon="10.638876767265943"><ele>51.0</ele><time>2026-04-18T06:59:38.999Z</time></trkpt><trkpt lat="43.539897264043184" lon="10.638980034191764"><ele>51.5</ele><time>2026-04-18T06:59:39.999Z</time></trkpt><trkpt lat="43.53997224073226" lon="10.639096117952674"><ele>52.0</ele><time>2026-04-18T06:59:40.999Z</time></trkpt><trkpt lat="43.54006321785477" lon="10.639201607456114"><ele>52.5</ele><time>2026-04-18T06:59:41.999Z</time></trkpt><trkpt lat="43.54015150229409" lon="10.639309385885486"><ele>53.0</ele><time>2026-04-18T06:59:42.999Z</time></trkpt><trkpt lat="43.54023753694448" lon="10.639416028606403"><ele>53.25</ele><time>2026-04-18T06:59:43.999Z</time></trkpt><trkpt lat="43.54032004515514" lon="10.639518872526917"><ele>53.5</ele><time>2026-04-18T06:59:44.999Z</time></trkpt><trkpt lat="43.54040439504629" lon="10.639625693814349"><ele>53.75</ele><time>2026-04-18T06:59:45.999Z</time></trkpt><trkpt lat="43.54048989356269" lon="10.639739473804543"><ele>54.0</ele><time>2026-04-18T06:59:46.999Z</time></trkpt><trkpt lat="43.5405702458405" lon="10.63983738994911"><ele>54.400000000000006</ele><time>2026-04-18T06:59:47.999Z</time></trkpt><trkpt lat="43.54063607330034" lon="10.639927240586545"><ele>54.800000000000004</ele><time>2026-04-18T06:59:48.999Z</time></trkpt><trkpt lat="43.54069675613977" lon="10.640002731262216"><ele>55.199999999999996</ele><time>2026-04-18T06:59:49.999Z</time></trkpt><trkpt lat="43.540750287210344" lon="10.640064050805815"><ele>55.599999999999994</ele><time>2026-04-18T06:59:50.999Z</time></trkpt><trkpt lat="43.540801174395924" lon="10.640183539475784"><ele>56.0</ele><time>2026-04-18T06:59:52.999Z</time></trkpt><trkpt lat="43.54074139489077" lon="10.640334964875294"><ele>56.199999999999996</ele><time>2026-04-18T06:59:54.999Z</time></trkpt><trkpt lat="43.54068431417501" lon="10.640432992932684"><ele>56.39999999999999</ele><time>2026-04-18T06:59:55.999Z</time></trkpt><trkpt lat="43.540619092092086" lon="10.640548073093948"><ele>56.6</ele><time>2026-04-18T06:59:56.999Z</time></trkpt><trkpt lat="43.54055859220215" lon="10.640667298726251"><ele>56.8</ele><time>2026-04-18T06:59:57.999Z</time></trkpt><trkpt lat="43.54049417796091" lon="10.640800820556422"><ele>57.0</ele><time>2026-04-18T06:59:58.999Z</time></trkpt><trkpt lat="43.54042138311716" lon="10.640939482653303"><ele>56.75</ele><time>2026-04-18T06:59:59.999Z</time></trkpt><trkpt lat="43.540342801961266" lon="10.641082995670553"><ele>56.5</ele><time>2026-04-18T07:00:00.999Z</time></trkpt><trkpt lat="43.5402598670717" lon="10.641232522468863"><ele>56.25</ele><time>2026-04-18T07:00:01.999Z</time></trkpt><trkpt lat="43.540172744687325" lon="10.641381284612793"><ele>56.0</ele><time>2026-04-18T07:00:02.999Z</time></trkpt><trkpt lat="43.5400809779339" lon="10.641531538286596"><ele>56.66666666666667</ele><time>2026-04-18T07:00:03.999Z</time></trkpt><trkpt lat="43.53998493160868" lon="10.641688281109731"><ele>57.33333333333333</ele><time>2026-04-18T07:00:04.999Z</time></trkpt><trkpt lat="43.539880631357875" lon="10.641842620197162"><ele>58.0</ele><time>2026-04-18T07:00:05.999Z</time></trkpt><trkpt lat="43.53976860867567" lon="10.641993644572826"><ele>58.0</ele><time>2026-04-18T07:00:06.999Z</time></trkpt><trkpt lat="43.53965396985504" lon="10.64214901791382"><ele>58.0</ele><time>2026-04-18T07:00:07.999Z</time></trkpt><trkpt lat="43.53953983271852" lon="10.642304635171179"><ele>58.0</ele><time>2026-04-18T07:00:08.999Z</time></trkpt><trkpt lat="43.539424879581134" lon="10.642460493783181"><ele>58.0</ele><time>2026-04-18T07:00:09.999Z</time></trkpt><trkpt lat="43.53930761245837" lon="10.642619712932861"><ele>58.0</ele><time>2026-04-18T07:00:10.999Z</time></trkpt><trkpt lat="43.53919614767478" lon="10.64277891667825"><ele>58.0</ele><time>2026-04-18T07:00:11.999Z</time></trkpt><trkpt lat="43.53908435814505" lon="10.642936918533913"><ele>62.666666666666664</ele><time>2026-04-18T07:00:12.999Z</time></trkpt><trkpt lat="43.53897544945346" lon="10.643096486847831"><ele>67.33333333333333</ele><time>2026-04-18T07:00:13.999Z</time></trkpt><trkpt lat="43.53887075781446" lon="10.643258615183747"><ele>72.0</ele><time>2026-04-18T07:00:14.999Z</time></trkpt><trkpt lat="43.538768679668905" lon="10.643430917127152"><ele>69.66666666666667</ele><time>2026-04-18T07:00:15.999Z</time></trkpt><trkpt lat="43.53867217913702" lon="10.643614100318224"><ele>67.33333333333334</ele><time>2026-04-18T07:00:16.999Z</time></trkpt><trkpt lat="43.53857748312253" lon="10.64380266382147"><ele>65.0</ele><time>2026-04-18T07:00:17.999Z</time></trkpt><trkpt lat="43.53848036266843" lon="10.643993732074561"><ele>65.0</ele><time>2026-04-18T07:00:18.999Z</time></trkpt><trkpt lat="43.53838295895909" lon="10.64419027063705"><ele>65.0</ele><time>2026-04-18T07:00:19.999Z</time></trkpt><trkpt lat="43.53828842287247" lon="10.644391149349637"><ele>65.0</ele><time>2026-04-18T07:00:20.999Z</time></trkpt><trkpt lat="43.53819642492158" lon="10.644593205735575"><ele>67.33333333333334</ele><time>2026-04-18T07:00:21.999Z</time></trkpt><trkpt lat="43.538108893509936" lon="10.644794213786088"><ele>69.66666666666667</ele><time>2026-04-18T07:00:22.999Z</time></trkpt><trkpt lat="43.53803169359756" lon="10.644997562062184"><ele>72.0</ele><time>2026-04-18T07:00:23.999Z</time></trkpt><trkpt lat="43.53795628920137" lon="10.64519699804126"><ele>73.66666666666667</ele><time>2026-04-18T07:00:24.999Z</time></trkpt><trkpt lat="43.53792453701153" lon="10.645414905396532"><ele>75.33333333333334</ele><time>2026-04-18T07:00:25.999Z</time></trkpt><trkpt lat="43.53787957445952" lon="10.645619720498791"><ele>77.0</ele><time>2026-04-18T07:00:26.999Z</time></trkpt><trkpt lat="43.537819977334735" lon="10.645813506266531"><ele>73.66666666666667</ele><time>2026-04-18T07:00:27.999Z</time></trkpt><trkpt lat="43.537741518652616" lon="10.645998929368996"><ele>70.33333333333333</ele><time>2026-04-18T07:00:28.999Z</time></trkpt><trkpt lat="43.537644635440245" lon="10.646163236969466"><ele>67.0</ele><time>2026-04-18T07:00:29.999Z</time></trkpt><trkpt lat="43.53752141745284" lon="10.646290481842343"><ele>67.0</ele><time>2026-04-18T07:00:31Z</time></trkpt><trkpt lat="43.53738649871389" lon="10.646393465145945"><ele>67.0</ele><time>2026-04-18T07:00:32Z</time></trkpt><trkpt lat="43.537237871414405" lon="10.646463034905436"><ele>67.0</ele><time>2026-04-18T07:00:33Z</time></trkpt><trkpt lat="43.53708387767031" lon="10.646498100956624"><ele>66.66666666666666</ele><time>2026-04-18T07:00:34Z</time></trkpt><trkpt lat="43.53692635588687" lon="10.646491035722159"><ele>66.33333333333333</ele><time>2026-04-18T07:00:35Z</time></trkpt><trkpt lat="43.536769364634644" lon="10.646453490133178"><ele>66.0</ele><time>2026-04-18T07:00:36Z</time></trkpt><trkpt lat="43.53661430891435" lon="10.646385114798832"><ele>66.0</ele><time>2026-04-18T07:00:37Z</time></trkpt><trkpt lat="43.536462236004375" lon="10.646314717764959"><ele>66.0</ele><time>2026-04-18T07:00:38Z</time></trkpt><trkpt lat="43.53632013171896" lon="10.64625538020926"><ele>66.0</ele><time>2026-04-18T07:00:39Z</time></trkpt><trkpt lat="43.53618765455214" lon="10.646213838886817"><ele>66.0</ele><time>2026-04-18T07:00:40Z</time></trkpt><trkpt lat="43.536059138707856" lon="10.646203345611973"><ele>66.25</ele><time>2026-04-18T07:00:41Z</time></trkpt><trkpt lat="43.53592218553408" lon="10.646221238651218"><ele>66.5</ele><time>2026-04-18T07:00:42Z</time></trkpt><trkpt lat="43.53577624467423" lon="10.646262281416853"><ele>66.75</ele><time>2026-04-18T07:00:43Z</time></trkpt><trkpt lat="43.53562273539977" lon="10.646320987132963"><ele>67.0</ele><time>2026-04-18T07:00:44Z</time></trkpt><trkpt lat="43.535455671816536" lon="10.646364046473163"><ele>66.33333333333333</ele><time>2026-04-18T07:00:45Z</time></trkpt><trkpt lat="43.53528664246222" lon="10.646423103312939"><ele>65.66666666666667</ele><time>2026-04-18T07:00:46Z</time></trkpt><trkpt lat="43.5351115139061" lon="10.646486404528138"><ele>65.0</ele><time>2026-04-18T07:00:47Z</time></trkpt><trkpt lat="43.53493133454641" lon="10.646551583669847"><ele>65.0</ele><time>2026-04-18T07:00:48Z</time></trkpt><trkpt lat="43.534753313907984" lon="10.646636841878788"><ele>65.0</ele><time>2026-04-18T07:00:49Z</time></trkpt><trkpt lat="43.5345647396166" lon="10.646684254967148"><ele>65.0</ele><time>2026-04-18T07:00:50Z</time></trkpt><trkpt lat="43.53437817170644" lon="10.646749886975753"><ele>64.0</ele><time>2026-04-18T07:00:51Z</time></trkpt><trkpt lat="43.534195741052265" lon="10.646832975387746"><ele>63.0</ele><time>2026-04-18T07:00:52Z</time></trkpt><trkpt lat="43.53400624489939" lon="10.646888465516593"><ele>62.0</ele><time>2026-04-18T07:00:53Z</time></trkpt><trkpt lat="43.533817294756396" lon="10.64694657463472"><ele>63.0</ele><time>2026-04-18T07:00:54Z</time></trkpt><trkpt lat="43.53362741878636" lon="10.647003228692945"><ele>64.0</ele><time>2026-04-18T07:00:55Z</time></trkpt><trkpt lat="43.53343577784379" lon="10.647054896011035"><ele>65.0</ele><time>2026-04-18T07:00:56Z</time></trkpt><trkpt lat="43.53324353917256" lon="10.647094870601194"><ele>65.0</ele><time>2026-04-18T07:00:57Z</time></trkpt><trkpt lat="43.53305113229426" lon="10.647117288104363"><ele>65.0</ele><time>2026-04-18T07:00:58Z</time></trkpt><trkpt lat="43.53286183632088" lon="10.64712812032616"><ele>65.0</ele><time>2026-04-18T07:00:59Z</time></trkpt><trkpt lat="43.53267424510215" lon="10.647139765837062"><ele>65.33333333333334</ele><time>2026-04-18T07:01:00Z</time></trkpt><trkpt lat="43.532492050762" lon="10.64715654579835"><ele>65.66666666666667</ele><time>2026-04-18T07:01:01Z</time></trkpt><trkpt lat="43.53231737506014" lon="10.647189214122474"><ele>66.0</ele><time>2026-04-18T07:01:02Z</time></trkpt><trkpt lat="43.53215028647852" lon="10.647242250690486"><ele>64.66666666666667</ele><time>2026-04-18T07:01:03Z</time></trkpt><trkpt lat="43.531988012885336" lon="10.64731909756624"><ele>63.333333333333336</ele><time>2026-04-18T07:01:04Z</time></trkpt><trkpt lat="43.531834333849574" lon="10.64740296418927"><ele>62.0</ele><time>2026-04-18T07:01:05Z</time></trkpt><trkpt lat="43.5317088395536" lon="10.647499475698528"><ele>62.0</ele><time>2026-04-18T07:01:06Z</time></trkpt><trkpt lat="43.53159376891046" lon="10.64761716159396"><ele>62.0</ele><time>2026-04-18T07:01:07Z</time></trkpt><trkpt lat="43.531508884433215" lon="10.647800572164726"><ele>62.0</ele><time>2026-04-18T07:01:08Z</time></trkpt><trkpt lat="43.53139974488752" lon="10.647959390697023"><ele>62.333333333333336</ele><time>2026-04-18T07:01:09Z</time></trkpt><trkpt lat="43.5312930501877" lon="10.648123386637064"><ele>62.66666666666667</ele><time>2026-04-18T07:01:10Z</time></trkpt><trkpt lat="43.531168483499755" lon="10.648269224742926"><ele>63.0</ele><time>2026-04-18T07:01:11Z</time></trkpt><trkpt lat="43.531039658027474" lon="10.648417135215988"><ele>63.0</ele><time>2026-04-18T07:01:12Z</time></trkpt><trkpt lat="43.530898403129115" lon="10.648544186359727"><ele>63.0</ele><time>2026-04-18T07:01:13Z</time></trkpt><trkpt lat="43.53075496751669" lon="10.648672196058342"><ele>63.0</ele><time>2026-04-18T07:01:14Z</time></trkpt><trkpt lat="43.53061135882316" lon="10.648795546232314"><ele>63.5</ele><time>2026-04-18T07:01:15Z</time></trkpt><trkpt lat="43.530471229378605" lon="10.648863375939744"><ele>64.0</ele><time>2026-04-18T07:01:16Z</time></trkpt><trkpt lat="43.530347294964045" lon="10.648919768344077"><ele>64.5</ele><time>2026-04-18T07:01:17Z</time></trkpt><trkpt lat="43.530214535409854" lon="10.64890783431376"><ele>65.0</ele><time>2026-04-18T07:01:18Z</time></trkpt><trkpt lat="43.53007711011253" lon="10.648858402455948"><ele>64.66666666666667</ele><time>2026-04-18T07:01:18.999Z</time></trkpt><trkpt lat="43.52994015554179" lon="10.64877964587872"><ele>64.33333333333333</ele><time>2026-04-18T07:01:19.999Z</time></trkpt><trkpt lat="43.52980387331423" lon="10.648689529560384"><ele>64.0</ele><time>2026-04-18T07:01:20.999Z</time></trkpt><trkpt lat="43.529663173053144" lon="10.648592870120225"><ele>65.66666666666666</ele><time>2026-04-18T07:01:21.999Z</time></trkpt><trkpt lat="43.52952507843425" lon="10.64847693275907"><ele>67.33333333333333</ele><time>2026-04-18T07:01:22.999Z</time></trkpt><trkpt lat="43.529389296377396" lon="10.64833873181202"><ele>69.0</ele><time>2026-04-18T07:01:23.999Z</time></trkpt><trkpt lat="43.52925245971674" lon="10.648193282321172"><ele>69.0</ele><time>2026-04-18T07:01:24.999Z</time></trkpt><trkpt lat="43.52911065790825" lon="10.648050614332197"><ele>69.0</ele><time>2026-04-18T07:01:25.999Z</time></trkpt><trkpt lat="43.52896887695595" lon="10.647911924622942"><ele>69.0</ele><time>2026-04-18T07:01:26.999Z</time></trkpt><trkpt lat="43.528828881345234" lon="10.64777706787383"><ele>68.0</ele><time>2026-04-18T07:01:27.999Z</time></trkpt><trkpt lat="43.52868703978041" lon="10.647656567178474"><ele>67.0</ele><time>2026-04-18T07:01:28.999Z</time></trkpt><trkpt lat="43.52854211876279" lon="10.647558022148859"><ele>66.0</ele><time>2026-04-18T07:01:29.999Z</time></trkpt><trkpt lat="43.52838816562893" lon="10.647478153694726"><ele>66.0</ele><time>2026-04-18T07:01:30.999Z</time></trkpt><trkpt lat="43.528231269328096" lon="10.647410449942795"><ele>66.0</ele><time>2026-04-18T07:01:31.999Z</time></trkpt><trkpt lat="43.52807374491992" lon="10.647365180474146"><ele>66.0</ele><time>2026-04-18T07:01:32.999Z</time></trkpt><trkpt lat="43.52791499862413" lon="10.647340622633802"><ele>67.0</ele><time>2026-04-18T07:01:33.999Z</time></trkpt><trkpt lat="43.52775249250481" lon="10.647331294482939"><ele>68.0</ele><time>2026-04-18T07:01:34.999Z</time></trkpt><trkpt lat="43.52758993549256" lon="10.647335630374878"><ele>69.0</ele><time>2026-04-18T07:01:35.999Z</time></trkpt><trkpt lat="43.52742976130236" lon="10.647351940734493"><ele>69.0</ele><time>2026-04-18T07:01:36.999Z</time></trkpt><trkpt lat="43.52727273547789" lon="10.647373764124577"><ele>69.0</ele><time>2026-04-18T07:01:37.999Z</time></trkpt><trkpt lat="43.52712852628229" lon="10.647401375872324"><ele>69.0</ele><time>2026-04-18T07:01:38.999Z</time></trkpt><trkpt lat="43.52699239412733" lon="10.647437100279914"><ele>69.0</ele><time>2026-04-18T07:01:39.999Z</time></trkpt><trkpt lat="43.5268590853363" lon="10.647484325647698"><ele>69.0</ele><time>2026-04-18T07:01:40.999Z</time></trkpt><trkpt lat="43.52672632592811" lon="10.64754591764372"><ele>69.0</ele><time>2026-04-18T07:01:41.999Z</time></trkpt><trkpt lat="43.52659368912654" lon="10.647625265416268"><ele>69.0</ele><time>2026-04-18T07:01:42.999Z</time></trkpt><trkpt lat="43.52645277943905" lon="10.64770253775701"><ele>69.0</ele><time>2026-04-18T07:01:43.999Z</time></trkpt><trkpt lat="43.52632067802833" lon="10.647807995918521"><ele>67.8</ele><time>2026-04-18T07:01:44.999Z</time></trkpt><trkpt lat="43.52620694962277" lon="10.647910473280286"><ele>66.60000000000001</ele><time>2026-04-18T07:01:45.999Z</time></trkpt><trkpt lat="43.52612405892406" lon="10.648015318382766"><ele>65.4</ele><time>2026-04-18T07:01:46.999Z</time></trkpt><trkpt lat="43.526046525987944" lon="10.648065803258588"><ele>64.2</ele><time>2026-04-18T07:01:47.999Z</time></trkpt><trkpt lat="43.525991505237776" lon="10.648120783101344"><ele>63.0</ele><time>2026-04-18T07:01:48.999Z</time></trkpt><trkpt lat="43.526003536876686" lon="10.64835873476055"><ele>63.0</ele><time>2026-04-18T07:01:50.999Z</time></trkpt><trkpt lat="43.526029021041175" lon="10.648480953394873"><ele>63.0</ele><time>2026-04-18T07:01:51.999Z</time></trkpt><trkpt lat="43.52605926796333" lon="10.648613646350093"><ele>63.0</ele><time>2026-04-18T07:01:52.999Z</time></trkpt><trkpt lat="43.52608296572052" lon="10.648754764155457"><ele>63.0</ele><time>2026-04-18T07:01:53.999Z</time></trkpt><trkpt lat="43.52610424205519" lon="10.648904559853486"><ele>63.0</ele><time>2026-04-18T07:01:54.999Z</time></trkpt><trkpt lat="43.52612187294906" lon="10.649026169473943"><ele>64.33333333333333</ele><time>2026-04-18T07:01:55.999Z</time></trkpt><trkpt lat="43.526125598882174" lon="10.649118684721318"><ele>65.66666666666667</ele><time>2026-04-18T07:01:56.999Z</time></trkpt><trkpt lat="43.52611172926685" lon="10.649204421902548"><ele>67.0</ele><time>2026-04-18T07:01:57.999Z</time></trkpt><trkpt lat="43.52606647484295" lon="10.64927559173149"><ele>68.33333333333334</ele><time>2026-04-18T07:01:58.999Z</time></trkpt><trkpt lat="43.52600133762031" lon="10.649271272095415"><ele>69.66666666666667</ele><time>2026-04-18T07:01:59.999Z</time></trkpt><trkpt lat="43.5258980227505" lon="10.649191811076784"><ele>71.0</ele><time>2026-04-18T07:02:01.999Z</time></trkpt><trkpt lat="43.52582596128948" lon="10.649126550014726"><ele>71.0</ele><time>2026-04-18T07:02:02.999Z</time></trkpt><trkpt lat="43.525740784386876" lon="10.649045247418856"><ele>71.0</ele><time>2026-04-18T07:02:03.999Z</time></trkpt><trkpt lat="43.52565264753002" lon="10.648963929541496"><ele>71.0</ele><time>2026-04-18T07:02:04.999Z</time></trkpt><trkpt lat="43.52554992220324" lon="10.648894259760668"><ele>71.0</ele><time>2026-04-18T07:02:05.999Z</time></trkpt><trkpt lat="43.525466938417686" lon="10.64878535956039"><ele>71.0</ele><time>2026-04-18T07:02:06.999Z</time></trkpt><trkpt lat="43.52538298849281" lon="10.648673030048341"><ele>69.83333333333334</ele><time>2026-04-18T07:02:07.999Z</time></trkpt><trkpt lat="43.52531204609134" lon="10.64857607312825"><ele>68.66666666666667</ele><time>2026-04-18T07:02:08.999Z</time></trkpt><trkpt lat="43.52525484110118" lon="10.648506127839411"><ele>67.5</ele><time>2026-04-18T07:02:09.999Z</time></trkpt><trkpt lat="43.525187454899104" lon="10.648459925851137"><ele>66.33333333333333</ele><time>2026-04-18T07:02:10.999Z</time></trkpt><trkpt lat="43.52510561602375" lon="10.648435514503403"><ele>65.16666666666666</ele><time>2026-04-18T07:02:11.999Z</time></trkpt><trkpt lat="43.52502022261967" lon="10.648482631343418"><ele>64.0</ele><time>2026-04-18T07:02:12.999Z</time></trkpt><trkpt lat="43.524950621522486" lon="10.648521254217398"><ele>63.99999999999999</ele><time>2026-04-18T07:02:13.999Z</time></trkpt><trkpt lat="43.5249005272725" lon="10.64860669230347"><ele>64.0</ele><time>2026-04-18T07:02:14.999Z</time></trkpt><trkpt lat="43.5248787255327" lon="10.648725024031796"><ele>64.0</ele><time>2026-04-18T07:02:15.999Z</time></trkpt><trkpt lat="43.52490003526074" lon="10.648843687959744"><ele>64.0</ele><time>2026-04-18T07:02:16.999Z</time></trkpt><trkpt lat="43.52491655986674" lon="10.648954606745876"><ele>63.99999999999999</ele><time>2026-04-18T07:02:17.999Z</time></trkpt><trkpt lat="43.524953743065254" lon="10.649064777473853"><ele>64.0</ele><time>2026-04-18T07:02:18.999Z</time></trkpt><trkpt lat="43.52499609105571" lon="10.649173280032182"><ele>65.2</ele><time>2026-04-18T07:02:19.999Z</time></trkpt><trkpt lat="43.52505067327826" lon="10.649299943825907"><ele>66.4</ele><time>2026-04-18T07:02:20.999Z</time></trkpt><trkpt lat="43.525103523849104" lon="10.649427729607691"><ele>67.6</ele><time>2026-04-18T07:02:21.999Z</time></trkpt><trkpt lat="43.525157686686114" lon="10.649560062043163"><ele>68.8</ele><time>2026-04-18T07:02:22.999Z</time></trkpt><trkpt lat="43.525211288064995" lon="10.64969285986254"><ele>70.0</ele><time>2026-04-18T07:02:23.999Z</time></trkpt><trkpt lat="43.52526298403915" lon="10.649835788360143"><ele>70.16666666666666</ele><time>2026-04-18T07:02:24.999Z</time></trkpt><trkpt lat="43.5253149975932" lon="10.64996582536367"><ele>70.33333333333333</ele><time>2026-04-18T07:02:25.999Z</time></trkpt><trkpt lat="43.52536170744659" lon="10.650081448425142"><ele>70.5</ele><time>2026-04-18T07:02:26.999Z</time></trkpt><trkpt lat="43.52540781361987" lon="10.650156749706676"><ele>70.66666666666667</ele><time>2026-04-18T07:02:27.999Z</time></trkpt><trkpt lat="43.525471763870726" lon="10.650220140133221"><ele>70.83333333333334</ele><time>2026-04-18T07:02:28.999Z</time></trkpt><trkpt lat="43.52556141790048" lon="10.65026158669966"><ele>71.0</ele><time>2026-04-18T07:02:29.999Z</time></trkpt><trkpt lat="43.52566665783605" lon="10.65028286733044"><ele>73.0</ele><time>2026-04-18T07:02:30.999Z</time></trkpt><trkpt lat="43.5257668686388" lon="10.650298826684645"><ele>75.0</ele><time>2026-04-18T07:02:31.999Z</time></trkpt><trkpt lat="43.525863670232134" lon="10.650348705054615"><ele>77.0</ele><time>2026-04-18T07:02:32.999Z</time></trkpt><trkpt lat="43.52596226509486" lon="10.650436330554399"><ele>79.0</ele><time>2026-04-18T07:02:33.999Z</time></trkpt><trkpt lat="43.52603636457626" lon="10.650551801796768"><ele>81.0</ele><time>2026-04-18T07:02:34.999Z</time></trkpt><trkpt lat="43.52609614356273" lon="10.650661230958343"><ele>81.0</ele><time>2026-04-18T07:02:36Z</time></trkpt><trkpt lat="43.526126183846245" lon="10.650773415160238"><ele>81.0</ele><time>2026-04-18T07:02:37Z</time></trkpt><trkpt lat="43.52616113408574" lon="10.650900760647906"><ele>81.0</ele><time>2026-04-18T07:02:38Z</time></trkpt><trkpt lat="43.52621852869063" lon="10.65101420941299"><ele>81.0</ele><time>2026-04-18T07:02:39Z</time></trkpt><trkpt lat="43.52628786289334" lon="10.651114875024149"><ele>81.0</ele><time>2026-04-18T07:02:40Z</time></trkpt><trkpt lat="43.52637695685078" lon="10.651201776342216"><ele>82.75</ele><time>2026-04-18T07:02:41Z</time></trkpt><trkpt lat="43.52646393975519" lon="10.651299209770752"><ele>84.5</ele><time>2026-04-18T07:02:42Z</time></trkpt><trkpt lat="43.52651581689257" lon="10.651433564088169"><ele>86.25</ele><time>2026-04-18T07:02:43Z</time></trkpt><trkpt lat="43.526575196057024" lon="10.651569731300176"><ele>88.0</ele><time>2026-04-18T07:02:44Z</time></trkpt><trkpt lat="43.526618684969904" lon="10.651718662733465"><ele>88.0</ele><time>2026-04-18T07:02:45Z</time></trkpt><trkpt lat="43.52664900287945" lon="10.651881367589093"><ele>88.0</ele><time>2026-04-18T07:02:46Z</time></trkpt><trkpt lat="43.52668784088134" lon="10.652048201779152"><ele>88.0</ele><time>2026-04-18T07:02:47Z</time></trkpt><trkpt lat="43.52670162496389" lon="10.652220411649047"><ele>88.0</ele><time>2026-04-18T07:02:48Z</time></trkpt><trkpt lat="43.52672776585396" lon="10.652378906813883"><ele>88.2</ele><time>2026-04-18T07:02:49Z</time></trkpt><trkpt lat="43.52677215358384" lon="10.652518176081903"><ele>88.4</ele><time>2026-04-18T07:02:50Z</time></trkpt><trkpt lat="43.52683177422489" lon="10.652648829951504"><ele>88.60000000000001</ele><time>2026-04-18T07:02:51Z</time></trkpt><trkpt lat="43.526905900084316" lon="10.652780315022952"><ele>88.80000000000001</ele><time>2026-04-18T07:02:52Z</time></trkpt><trkpt lat="43.52698078428806" lon="10.652882944051347"><ele>89.0</ele><time>2026-04-18T07:02:53Z</time></trkpt><trkpt lat="43.52706719101249" lon="10.652963065143286"><ele>90.4</ele><time>2026-04-18T07:02:54Z</time></trkpt><trkpt lat="43.52716446357766" lon="10.6530395057376"><ele>91.80000000000001</ele><time>2026-04-18T07:02:55Z</time></trkpt><trkpt lat="43.52726573384675" lon="10.653108335020445"><ele>93.19999999999999</ele><time>2026-04-18T07:02:56Z</time></trkpt><trkpt lat="43.527355642306084" lon="10.653160530089872"><ele>94.6</ele><time>2026-04-18T07:02:57Z</time></trkpt><trkpt lat="43.52745112245872" lon="10.65318365484852"><ele>96.0</ele><time>2026-04-18T07:02:58Z</time></trkpt><trkpt lat="43.52756160955146" lon="10.653190216248335"><ele>96.0</ele><time>2026-04-18T07:02:59Z</time></trkpt><trkpt lat="43.527676395546685" lon="10.65318064656168"><ele>96.0</ele><time>2026-04-18T07:03:00Z</time></trkpt><trkpt lat="43.52779404768931" lon="10.653165911527681"><ele>96.0</ele><time>2026-04-18T07:03:01Z</time></trkpt><trkpt lat="43.52789742516754" lon="10.653146026642297"><ele>96.0</ele><time>2026-04-18T07:03:02Z</time></trkpt><trkpt lat="43.52799537296138" lon="10.653124616063014"><ele>96.0</ele><time>2026-04-18T07:03:03Z</time></trkpt><trkpt lat="43.528113489231856" lon="10.653149299928378"><ele>97.5</ele><time>2026-04-18T07:03:04Z</time></trkpt><trkpt lat="43.52822699041113" lon="10.65319155300964"><ele>99.0</ele><time>2026-04-18T07:03:05Z</time></trkpt><trkpt lat="43.528329024704746" lon="10.653262053362868"><ele>100.5</ele><time>2026-04-18T07:03:06Z</time></trkpt><trkpt lat="43.52843127265309" lon="10.653359114205102"><ele>102.0</ele><time>2026-04-18T07:03:07Z</time></trkpt><trkpt lat="43.52856744953105" lon="10.653463885035846"><ele>102.0</ele><time>2026-04-18T07:03:08Z</time></trkpt><trkpt lat="43.52870099792737" lon="10.653594162145295"><ele>102.0</ele><time>2026-04-18T07:03:09Z</time></trkpt><trkpt lat="43.528825479815914" lon="10.653715996478054"><ele>102.0</ele><time>2026-04-18T07:03:10Z</time></trkpt><trkpt lat="43.52894236134176" lon="10.65384680432943"><ele>103.5</ele><time>2026-04-18T07:03:11Z</time></trkpt><trkpt lat="43.52904819390235" lon="10.653989000402138"><ele>105.0</ele><time>2026-04-18T07:03:12Z</time></trkpt><trkpt lat="43.52913214199436" lon="10.654156080786569"><ele>106.5</ele><time>2026-04-18T07:03:13Z</time></trkpt><trkpt lat="43.52923276985616" lon="10.654297376486193"><ele>108.0</ele><time>2026-04-18T07:03:14Z</time></trkpt><trkpt lat="43.52931493495829" lon="10.654454431260229"><ele>108.0</ele><time>2026-04-18T07:03:15Z</time></trkpt><trkpt lat="43.529394892270936" lon="10.654609598604162"><ele>108.0</ele><time>2026-04-18T07:03:16Z</time></trkpt><trkpt lat="43.52946992581093" lon="10.6547504301155"><ele>108.0</ele><time>2026-04-18T07:03:17Z</time></trkpt><trkpt lat="43.52953165887459" lon="10.65487757956463"><ele>108.0</ele><time>2026-04-18T07:03:18Z</time></trkpt><trkpt lat="43.52957465133251" lon="10.654992242989707"><ele>108.0</ele><time>2026-04-18T07:03:19Z</time></trkpt><trkpt lat="43.529598812960835" lon="10.655122858259096"><ele>108.00000000000001</ele><time>2026-04-18T07:03:20Z</time></trkpt><trkpt lat="43.529605851143735" lon="10.65527250571809"><ele>108.00000000000001</ele><time>2026-04-18T07:03:21Z</time></trkpt><trkpt lat="43.52959384410843" lon="10.65542464237117"><ele>108.0</ele><time>2026-04-18T07:03:22Z</time></trkpt><trkpt lat="43.52958689062904" lon="10.655586293261592"><ele>108.0</ele><time>2026-04-18T07:03:23Z</time></trkpt><trkpt lat="43.52961098529025" lon="10.655746160510422"><ele>109.75</ele><time>2026-04-18T07:03:24Z</time></trkpt><trkpt lat="43.52966392042909" lon="10.65589512018328"><ele>111.5</ele><time>2026-04-18T07:03:25Z</time></trkpt><trkpt lat="43.52973314663607" lon="10.656055144356381"><ele>113.25</ele><time>2026-04-18T07:03:26Z</time></trkpt><trkpt lat="43.52980202775679" lon="10.656203434043933"><ele>115.0</ele><time>2026-04-18T07:03:27Z</time></trkpt><trkpt lat="43.52986237443496" lon="10.656337439155372"><ele>116.5</ele><time>2026-04-18T07:03:28Z</time></trkpt><trkpt lat="43.52989572921848" lon="10.656476854107105"><ele>118.0</ele><time>2026-04-18T07:03:29Z</time></trkpt><trkpt lat="43.529909004569994" lon="10.656642075874297"><ele>119.5</ele><time>2026-04-18T07:03:30Z</time></trkpt><trkpt lat="43.52990611213964" lon="10.656811547149887"><ele>121.0</ele><time>2026-04-18T07:03:31Z</time></trkpt><trkpt lat="43.52990717894456" lon="10.656953979932357"><ele>121.0</ele><time>2026-04-18T07:03:32Z</time></trkpt><trkpt lat="43.52993269288622" lon="10.657067324681572"><ele>121.0</ele><time>2026-04-18T07:03:32.999Z</time></trkpt><trkpt lat="43.52994839939391" lon="10.65717706638282"><ele>121.0</ele><time>2026-04-18T07:03:33.999Z</time></trkpt><trkpt lat="43.53004554189912" lon="10.657226716530772"><ele>121.0</ele><time>2026-04-18T07:03:34.999Z</time></trkpt><trkpt lat="43.53012705177094" lon="10.657273301219018"><ele>121.0</ele><time>2026-04-18T07:03:35.999Z</time></trkpt><trkpt lat="43.53022712936147" lon="10.657314409221911"><ele>121.0</ele><time>2026-04-18T07:03:36.999Z</time></trkpt><trkpt lat="43.530337552181734" lon="10.657360605553084"><ele>121.0</ele><time>2026-04-18T07:03:37.999Z</time></trkpt><trkpt lat="43.53045006261441" lon="10.657410795416684"><ele>121.0</ele><time>2026-04-18T07:03:38.999Z</time></trkpt><trkpt lat="43.53056772060984" lon="10.657472826946133"><ele>121.0</ele><time>2026-04-18T07:03:39.999Z</time></trkpt><trkpt lat="43.530683895531844" lon="10.657521061998118"><ele>123.8</ele><time>2026-04-18T07:03:40.999Z</time></trkpt><trkpt lat="43.53078532100172" lon="10.65755610330388"><ele>126.6</ele><time>2026-04-18T07:03:41.999Z</time></trkpt><trkpt lat="43.53089644858999" lon="10.657553910523994"><ele>129.4</ele><time>2026-04-18T07:03:42.999Z</time></trkpt><trkpt lat="43.53100248795626" lon="10.6575255618"><ele>132.2</ele><time>2026-04-18T07:03:43.999Z</time></trkpt><trkpt lat="43.53110929918432" lon="10.657468725960324"><ele>135.0</ele><time>2026-04-18T07:03:44.999Z</time></trkpt><trkpt lat="43.53120581443625" lon="10.657409279091402"><ele>137.2</ele><time>2026-04-18T07:03:45.999Z</time></trkpt><trkpt lat="43.531314435041374" lon="10.657318614848284"><ele>139.4</ele><time>2026-04-18T07:03:46.999Z</time></trkpt><trkpt lat="43.53140899595897" lon="10.65725950567746"><ele>141.6</ele><time>2026-04-18T07:03:47.999Z</time></trkpt><trkpt lat="43.53150131674995" lon="10.657297060304854"><ele>143.8</ele><time>2026-04-18T07:03:48.999Z</time></trkpt><trkpt lat="43.531596218064514" lon="10.657357184825095"><ele>146.0</ele><time>2026-04-18T07:03:49.999Z</time></trkpt><trkpt lat="43.531705149226845" lon="10.657409644824744"><ele>146.0</ele><time>2026-04-18T07:03:50.999Z</time></trkpt><trkpt lat="43.53181429954221" lon="10.65749092571179"><ele>146.0</ele><time>2026-04-18T07:03:51.999Z</time></trkpt><trkpt lat="43.531948257622496" lon="10.657585268688766"><ele>146.0</ele><time>2026-04-18T07:03:52.999Z</time></trkpt><trkpt lat="43.53209002475673" lon="10.657658451717086"><ele>146.0</ele><time>2026-04-18T07:03:53.999Z</time></trkpt><trkpt lat="43.53222153289684" lon="10.65771443400467"><ele>144.6</ele><time>2026-04-18T07:03:54.999Z</time></trkpt><trkpt lat="43.53233732147043" lon="10.657743126305327"><ele>143.2</ele><time>2026-04-18T07:03:55.999Z</time></trkpt><trkpt lat="43.532420910440045" lon="10.65779001502626"><ele>141.8</ele><time>2026-04-18T07:03:56.999Z</time></trkpt><trkpt lat="43.53248807800829" lon="10.65782443620344"><ele>140.4</ele><time>2026-04-18T07:03:57.999Z</time></trkpt><trkpt lat="43.53252118084284" lon="10.657975634350315"><ele>139.0</ele><time>2026-04-18T07:03:59.999Z</time></trkpt><trkpt lat="43.53251365075964" lon="10.658070644698626"><ele>141.8</ele><time>2026-04-18T07:04:00.999Z</time></trkpt><trkpt lat="43.5324423389731" lon="10.65816311944263"><ele>144.60000000000002</ele><time>2026-04-18T07:04:01.999Z</time></trkpt><trkpt lat="43.532362410085845" lon="10.658209292836377"><ele>147.4</ele><time>2026-04-18T07:04:02.999Z</time></trkpt><trkpt lat="43.5322769816289" lon="10.658181725994952"><ele>150.20000000000002</ele><time>2026-04-18T07:04:03.999Z</time></trkpt><trkpt lat="43.53220483978254" lon="10.65812362176653"><ele>153.0</ele><time>2026-04-18T07:04:04.999Z</time></trkpt><trkpt lat="43.53210684144514" lon="10.65806782128182"><ele>154.20000000000002</ele><time>2026-04-18T07:04:05.999Z</time></trkpt><trkpt lat="43.53200987958804" lon="10.657998283417127"><ele>155.4</ele><time>2026-04-18T07:04:06.999Z</time></trkpt><trkpt lat="43.53191436039135" lon="10.657937079850317"><ele>156.60000000000002</ele><time>2026-04-18T07:04:07.999Z</time></trkpt><trkpt lat="43.53183678856837" lon="10.657906076190496"><ele>157.8</ele><time>2026-04-18T07:04:08.999Z</time></trkpt><trkpt lat="43.531767857613964" lon="10.65790544665273"><ele>159.0</ele><time>2026-04-18T07:04:09.999Z</time></trkpt><trkpt lat="43.53164060460508" lon="10.658000344674624"><ele>159.0</ele><time>2026-04-18T07:04:11.999Z</time></trkpt><trkpt lat="43.53163671273183" lon="10.658122242803914"><ele>159.0</ele><time>2026-04-18T07:04:12.999Z</time></trkpt><trkpt lat="43.531653368028714" lon="10.658224850025677"><ele>159.0</ele><time>2026-04-18T07:04:13.999Z</time></trkpt><trkpt lat="43.53169772378885" lon="10.658317014150992"><ele>159.0</ele><time>2026-04-18T07:04:14.999Z</time></trkpt><trkpt lat="43.53177959242903" lon="10.658388081150212"><ele>159.0</ele><time>2026-04-18T07:04:15.999Z</time></trkpt><trkpt lat="43.531876559738954" lon="10.658462399435383"><ele>159.0</ele><time>2026-04-18T07:04:16.999Z</time></trkpt><trkpt lat="43.53196487439747" lon="10.658555138546083"><ele>159.0</ele><time>2026-04-18T07:04:17.999Z</time></trkpt><trkpt lat="43.53203944285357" lon="10.658678950149312"><ele>159.0</ele><time>2026-04-18T07:04:18.999Z</time></trkpt><trkpt lat="43.53210453139157" lon="10.658827145192552"><ele>159.0</ele><time>2026-04-18T07:04:19.999Z</time></trkpt><trkpt lat="43.532166397888076" lon="10.658984500906191"><ele>159.66666666666666</ele><time>2026-04-18T07:04:20.999Z</time></trkpt><trkpt lat="43.532245536144394" lon="10.659150980570857"><ele>160.33333333333331</ele><time>2026-04-18T07:04:21.999Z</time></trkpt><trkpt lat="43.53234240754021" lon="10.659318892468534"><ele>161.0</ele><time>2026-04-18T07:04:22.999Z</time></trkpt><trkpt lat="43.53244577356927" lon="10.6594887431269"><ele>165.0</ele><time>2026-04-18T07:04:23.999Z</time></trkpt><trkpt lat="43.53254770416041" lon="10.659655759912715"><ele>169.0</ele><time>2026-04-18T07:04:24.999Z</time></trkpt><trkpt lat="43.53264650149808" lon="10.659810237246198"><ele>173.0</ele><time>2026-04-18T07:04:25.999Z</time></trkpt><trkpt lat="43.53275358036709" lon="10.659977588172758"><ele>173.0</ele><time>2026-04-18T07:04:26.999Z</time></trkpt><trkpt lat="43.532863387520564" lon="10.660145051699434"><ele>173.0</ele><time>2026-04-18T07:04:27.999Z</time></trkpt><trkpt lat="43.532971522494336" lon="10.660305587421934"><ele>173.0</ele><time>2026-04-18T07:04:28.999Z</time></trkpt><trkpt lat="43.53307211790465" lon="10.660468697824347"><ele>172.0</ele><time>2026-04-18T07:04:29.999Z</time></trkpt><trkpt lat="43.53316531417948" lon="10.66061634870156"><ele>171.0</ele><time>2026-04-18T07:04:30.999Z</time></trkpt><trkpt lat="43.53327491177451" lon="10.66075216910237"><ele>170.0</ele><time>2026-04-18T07:04:31.999Z</time></trkpt><trkpt lat="43.533385711090155" lon="10.660843205627382"><ele>169.0</ele><time>2026-04-18T07:04:32.999Z</time></trkpt><trkpt lat="43.53348811590021" lon="10.660913614990328"><ele>169.0</ele><time>2026-04-18T07:04:33.999Z</time></trkpt><trkpt lat="43.533554456383484" lon="10.660970281144808"><ele>169.0</ele><time>2026-04-18T07:04:34.999Z</time></trkpt><trkpt lat="43.53357973875868" lon="10.661057878836713"><ele>169.0</ele><time>2026-04-18T07:04:37.999Z</time></trkpt><trkpt lat="43.533695958966334" lon="10.66112404114268"><ele>169.0</ele><time>2026-04-18T07:04:42Z</time></trkpt><trkpt lat="43.5337810516107" lon="10.661129905814725"><ele>169.0</ele><time>2026-04-18T07:04:43Z</time></trkpt><trkpt lat="43.53387084548528" lon="10.661145730545538"><ele>169.0</ele><time>2026-04-18T07:04:44Z</time></trkpt><trkpt lat="43.533984158663195" lon="10.661168397580017"><ele>167.79999999999998</ele><time>2026-04-18T07:04:45Z</time></trkpt><trkpt lat="43.53409094545099" lon="10.66118854519894"><ele>166.6</ele><time>2026-04-18T07:04:46Z</time></trkpt><trkpt lat="43.534175541610146" lon="10.66120882285756"><ele>165.4</ele><time>2026-04-18T07:04:47Z</time></trkpt><trkpt lat="43.53425954796367" lon="10.661287934523585"><ele>164.2</ele><time>2026-04-18T07:04:49Z</time></trkpt><trkpt lat="43.53421598229836" lon="10.661460930154595"><ele>163.0</ele><time>2026-04-18T07:04:51Z</time></trkpt><trkpt lat="43.53414431247514" lon="10.661593599309075"><ele>163.0</ele><time>2026-04-18T07:04:52Z</time></trkpt><trkpt lat="43.534095677988624" lon="10.661739044936615"><ele>163.0</ele><time>2026-04-18T07:04:53Z</time></trkpt><trkpt lat="43.53403239092044" lon="10.661917866166002"><ele>163.0</ele><time>2026-04-18T07:04:54Z</time></trkpt><trkpt lat="43.53395764895301" lon="10.662114407614867"><ele>163.0</ele><time>2026-04-18T07:04:55Z</time></trkpt><trkpt lat="43.53388541944846" lon="10.662330162042176"><ele>161.0</ele><time>2026-04-18T07:04:56Z</time></trkpt><trkpt lat="43.53380633806101" lon="10.66255664002104"><ele>159.0</ele><time>2026-04-18T07:04:57Z</time></trkpt><trkpt lat="43.53374107744171" lon="10.662793454489107"><ele>157.0</ele><time>2026-04-18T07:04:58Z</time></trkpt><trkpt lat="43.53366928386378" lon="10.663022613248401"><ele>159.66666666666669</ele><time>2026-04-18T07:04:59Z</time></trkpt><trkpt lat="43.53361546247914" lon="10.663260032393564"><ele>162.33333333333334</ele><time>2026-04-18T07:05:00Z</time></trkpt><trkpt lat="43.53356892246501" lon="10.663512991457766"><ele>165.0</ele><time>2026-04-18T07:05:01Z</time></trkpt><trkpt lat="43.533516187170086" lon="10.663751433691404"><ele>165.0</ele><time>2026-04-18T07:05:02Z</time></trkpt><trkpt lat="43.53348093528316" lon="10.663942212966413"><ele>165.0</ele><time>2026-04-18T07:05:03Z</time></trkpt><trkpt lat="43.533459910089604" lon="10.664117384276604"><ele>165.0</ele><time>2026-04-18T07:05:04Z</time></trkpt><trkpt lat="43.5334500270661" lon="10.664307931432909"><ele>165.0</ele><time>2026-04-18T07:05:05Z</time></trkpt><trkpt lat="43.53341130200793" lon="10.664482669613422"><ele>162.5</ele><time>2026-04-18T07:05:06Z</time></trkpt><trkpt lat="43.53336090723885" lon="10.66462818200845"><ele>160.0</ele><time>2026-04-18T07:05:07Z</time></trkpt><trkpt lat="43.533282118799505" lon="10.664743438102786"><ele>157.5</ele><time>2026-04-18T07:05:08Z</time></trkpt><trkpt lat="43.53317813710438" lon="10.664854326214181"><ele>155.0</ele><time>2026-04-18T07:05:09Z</time></trkpt><trkpt lat="43.53306402187627" lon="10.66495644845428"><ele>155.0</ele><time>2026-04-18T07:05:10Z</time></trkpt><trkpt lat="43.532939811282276" lon="10.665033632214948"><ele>155.0</ele><time>2026-04-18T07:05:11Z</time></trkpt><trkpt lat="43.532813928710446" lon="10.665055610007384"><ele>155.0</ele><time>2026-04-18T07:05:12Z</time></trkpt><trkpt lat="43.53269128036687" lon="10.665017810708676"><ele>155.0</ele><time>2026-04-18T07:05:13Z</time></trkpt><trkpt lat="43.532542414229326" lon="10.66498371134212"><ele>154.5</ele><time>2026-04-18T07:05:14Z</time></trkpt><trkpt lat="43.53240636438104" lon="10.66498056491791"><ele>154.0</ele><time>2026-04-18T07:05:15Z</time></trkpt><trkpt lat="43.53227844137844" lon="10.664982744953564"><ele>153.5</ele><time>2026-04-18T07:05:16Z</time></trkpt><trkpt lat="43.53216396503422" lon="10.665044894076404"><ele>153.0</ele><time>2026-04-18T07:05:17Z</time></trkpt><trkpt lat="43.53206907264656" lon="10.665162707459354"><ele>149.66666666666666</ele><time>2026-04-18T07:05:18Z</time></trkpt><trkpt lat="43.53198807911602" lon="10.665333014351054"><ele>146.33333333333331</ele><time>2026-04-18T07:05:19Z</time></trkpt><trkpt lat="43.5319124116475" lon="10.66553666789673"><ele>143.0</ele><time>2026-04-18T07:05:20Z</time></trkpt><trkpt lat="43.531828910683224" lon="10.665751140155118"><ele>143.0</ele><time>2026-04-18T07:05:21Z</time></trkpt><trkpt lat="43.53172829970333" lon="10.66595599775193"><ele>143.0</ele><time>2026-04-18T07:05:22Z</time></trkpt><trkpt lat="43.53163759781631" lon="10.666169063932982"><ele>143.0</ele><time>2026-04-18T07:05:23Z</time></trkpt><trkpt lat="43.531524897914224" lon="10.666371536865507"><ele>144.33333333333331</ele><time>2026-04-18T07:05:24Z</time></trkpt><trkpt lat="43.53140073808662" lon="10.666557243385352"><ele>145.66666666666666</ele><time>2026-04-18T07:05:25Z</time></trkpt><trkpt lat="43.53127471869118" lon="10.666738872770287"><ele>147.0</ele><time>2026-04-18T07:05:26Z</time></trkpt><trkpt lat="43.531151723483724" lon="10.666916142583021"><ele>151.0</ele><time>2026-04-18T07:05:27Z</time></trkpt><trkpt lat="43.53104022491389" lon="10.667111441166478"><ele>155.0</ele><time>2026-04-18T07:05:28Z</time></trkpt><trkpt lat="43.53092077635105" lon="10.667296055994143"><ele>159.0</ele><time>2026-04-18T07:05:29Z</time></trkpt><trkpt lat="43.5307980572889" lon="10.667451308144914"><ele>159.0</ele><time>2026-04-18T07:05:30Z</time></trkpt><trkpt lat="43.53069150104662" lon="10.667584017477294"><ele>159.0</ele><time>2026-04-18T07:05:31Z</time></trkpt><trkpt lat="43.530565835522474" lon="10.66768208376393"><ele>159.0</ele><time>2026-04-18T07:05:32Z</time></trkpt><trkpt lat="43.5304402725965" lon="10.667794190667706"><ele>159.0</ele><time>2026-04-18T07:05:33Z</time></trkpt><trkpt lat="43.530326540797866" lon="10.667907562224245"><ele>160.33333333333334</ele><time>2026-04-18T07:05:34Z</time></trkpt><trkpt lat="43.53023244737063" lon="10.66804204466495"><ele>161.66666666666669</ele><time>2026-04-18T07:05:35Z</time></trkpt><trkpt lat="43.53013619913765" lon="10.668194600851875"><ele>163.0</ele><time>2026-04-18T07:05:36Z</time></trkpt><trkpt lat="43.530025885709264" lon="10.668381024942406"><ele>163.0</ele><time>2026-04-18T07:05:36.999Z</time></trkpt><trkpt lat="43.52990479572188" lon="10.668562728893242"><ele>163.0</ele><time>2026-04-18T07:05:37.999Z</time></trkpt><trkpt lat="43.52978235625508" lon="10.668743050553227"><ele>163.0</ele><time>2026-04-18T07:05:38.999Z</time></trkpt><trkpt lat="43.52965615646831" lon="10.668927884742363"><ele>162.33333333333334</ele><time>2026-04-18T07:05:39.999Z</time></trkpt><trkpt lat="43.52953403087469" lon="10.66910137268003"><ele>161.66666666666666</ele><time>2026-04-18T07:05:40.999Z</time></trkpt><trkpt lat="43.52942211723261" lon="10.669249840640102"><ele>161.0</ele><time>2026-04-18T07:05:41.999Z</time></trkpt><trkpt lat="43.529304283301855" lon="10.669386364375795"><ele>162.0</ele><time>2026-04-18T07:05:42.999Z</time></trkpt><trkpt lat="43.52917349061711" lon="10.66951843373918"><ele>163.0</ele><time>2026-04-18T07:05:43.999Z</time></trkpt><trkpt lat="43.52890058535414" lon="10.669784847317048"><ele>163.0</ele><time>2026-04-18T07:05:45.999Z</time></trkpt><trkpt lat="43.528773390807864" lon="10.669938777535755"><ele>163.0</ele><time>2026-04-18T07:05:46.999Z</time></trkpt><trkpt lat="43.52864577381785" lon="10.670093469030512"><ele>163.0</ele><time>2026-04-18T07:05:47.999Z</time></trkpt><trkpt lat="43.528515181021774" lon="10.670246089542346"><ele>162.33333333333334</ele><time>2026-04-18T07:05:48.999Z</time></trkpt><trkpt lat="43.52838796401343" lon="10.670402837997347"><ele>161.66666666666666</ele><time>2026-04-18T07:05:49.999Z</time></trkpt><trkpt lat="43.52825800452761" lon="10.670565689806208"><ele>161.0</ele><time>2026-04-18T07:05:50.999Z</time></trkpt><trkpt lat="43.528125209746584" lon="10.670730641147491"><ele>161.0</ele><time>2026-04-18T07:05:51.999Z</time></trkpt><trkpt lat="43.52799266818172" lon="10.670899137446945"><ele>161.0</ele><time>2026-04-18T07:05:52.999Z</time></trkpt><trkpt lat="43.527857472269105" lon="10.671067056545102"><ele>161.0</ele><time>2026-04-18T07:05:53.999Z</time></trkpt><trkpt lat="43.52772836770711" lon="10.671235011257279"><ele>162.66666666666666</ele><time>2026-04-18T07:05:54.999Z</time></trkpt><trkpt lat="43.52760763561298" lon="10.671393770337415"><ele>164.33333333333334</ele><time>2026-04-18T07:05:55.999Z</time></trkpt><trkpt lat="43.527502949717764" lon="10.671555142288387"><ele>166.0</ele><time>2026-04-18T07:05:56.999Z</time></trkpt><trkpt lat="43.52740923131122" lon="10.671742208542334"><ele>168.66666666666669</ele><time>2026-04-18T07:05:57.999Z</time></trkpt><trkpt lat="43.527327814604945" lon="10.671954623771315"><ele>171.33333333333334</ele><time>2026-04-18T07:05:58.999Z</time></trkpt><trkpt lat="43.52724590169435" lon="10.672152430948417"><ele>174.0</ele><time>2026-04-18T07:05:59.999Z</time></trkpt><trkpt lat="43.52713906641226" lon="10.67229585569894"><ele>173.25</ele><time>2026-04-18T07:06:00.999Z</time></trkpt><trkpt lat="43.52703292163024" lon="10.67241106741942"><ele>172.5</ele><time>2026-04-18T07:06:01.999Z</time></trkpt><trkpt lat="43.52691204201211" lon="10.672476765429256"><ele>171.75</ele><time>2026-04-18T07:06:02.999Z</time></trkpt><trkpt lat="43.52678361050343" lon="10.672482944018208"><ele>171.0</ele><time>2026-04-18T07:06:03.999Z</time></trkpt><trkpt lat="43.52664210860509" lon="10.672454776941466"><ele>171.0</ele><time>2026-04-18T07:06:04.999Z</time></trkpt><trkpt lat="43.52649530044487" lon="10.672436054251614"><ele>171.0</ele><time>2026-04-18T07:06:05.999Z</time></trkpt><trkpt lat="43.52636364632381" lon="10.67244684976593"><ele>171.0</ele><time>2026-04-18T07:06:06.999Z</time></trkpt><trkpt lat="43.526239321495424" lon="10.672481334024159"><ele>171.0</ele><time>2026-04-18T07:06:07.999Z</time></trkpt><trkpt lat="43.5261325801419" lon="10.672580387750411"><ele>170.75</ele><time>2026-04-18T07:06:08.999Z</time></trkpt><trkpt lat="43.52603537222231" lon="10.672696048007289"><ele>170.5</ele><time>2026-04-18T07:06:09.999Z</time></trkpt><trkpt lat="43.52595092199689" lon="10.672798639284807"><ele>170.25</ele><time>2026-04-18T07:06:10.999Z</time></trkpt><trkpt lat="43.525882771377574" lon="10.672927779655733"><ele>170.0</ele><time>2026-04-18T07:06:11.999Z</time></trkpt><trkpt lat="43.52584249471458" lon="10.673099787542245"><ele>170.0</ele><time>2026-04-18T07:06:12.999Z</time></trkpt><trkpt lat="43.52581897330015" lon="10.673290551516342"><ele>170.0</ele><time>2026-04-18T07:06:13.999Z</time></trkpt><trkpt lat="43.52581735686107" lon="10.673489992264534"><ele>170.0</ele><time>2026-04-18T07:06:14.999Z</time></trkpt><trkpt lat="43.52580864604211" lon="10.67369313040321"><ele>170.0</ele><time>2026-04-18T07:06:15.999Z</time></trkpt><trkpt lat="43.52577515417704" lon="10.673895439835622"><ele>172.66666666666666</ele><time>2026-04-18T07:06:16.999Z</time></trkpt><trkpt lat="43.5257458195869" lon="10.674096053359547"><ele>175.33333333333334</ele><time>2026-04-18T07:06:17.999Z</time></trkpt><trkpt lat="43.525714344818084" lon="10.674301371924052"><ele>178.0</ele><time>2026-04-18T07:06:18.999Z</time></trkpt><trkpt lat="43.525681792027825" lon="10.674509773414355"><ele>179.66666666666669</ele><time>2026-04-18T07:06:19.999Z</time></trkpt><trkpt lat="43.525649180406965" lon="10.674722477300664"><ele>181.33333333333334</ele><time>2026-04-18T07:06:20.999Z</time></trkpt><trkpt lat="43.52561804047078" lon="10.674936446725074"><ele>183.0</ele><time>2026-04-18T07:06:21.999Z</time></trkpt><trkpt lat="43.52558829566619" lon="10.67514017752636"><ele>183.25</ele><time>2026-04-18T07:06:22.999Z</time></trkpt><trkpt lat="43.52555946392656" lon="10.675315244423143"><ele>183.5</ele><time>2026-04-18T07:06:23.999Z</time></trkpt><trkpt lat="43.52551852143869" lon="10.67546704554694"><ele>183.75</ele><time>2026-04-18T07:06:24.999Z</time></trkpt><trkpt lat="43.525459909964816" lon="10.675612553397427"><ele>184.0</ele><time>2026-04-18T07:06:25.999Z</time></trkpt><trkpt lat="43.52540050575148" lon="10.675741913535445"><ele>183.79999999999998</ele><time>2026-04-18T07:06:26.999Z</time></trkpt><trkpt lat="43.52534363282835" lon="10.67583384807935"><ele>183.6</ele><time>2026-04-18T07:06:27.999Z</time></trkpt><trkpt lat="43.52527373689521" lon="10.675908579569127"><ele>183.4</ele><time>2026-04-18T07:06:28.999Z</time></trkpt><trkpt lat="43.525205913204125" lon="10.675972735131962"><ele>183.2</ele><time>2026-04-18T07:06:29.999Z</time></trkpt><trkpt lat="43.52513211074116" lon="10.676069136642916"><ele>183.0</ele><time>2026-04-18T07:06:30.999Z</time></trkpt><trkpt lat="43.52503584412868" lon="10.676128178899665"><ele>182.8</ele><time>2026-04-18T07:06:31.999Z</time></trkpt><trkpt lat="43.524950508585874" lon="10.676202480096661"><ele>182.60000000000002</ele><time>2026-04-18T07:06:32.999Z</time></trkpt><trkpt lat="43.524879600592875" lon="10.67628694176019"><ele>182.39999999999998</ele><time>2026-04-18T07:06:33.999Z</time></trkpt><trkpt lat="43.52480438928229" lon="10.676343235642655"><ele>182.2</ele><time>2026-04-18T07:06:34.999Z</time></trkpt><trkpt lat="43.52472809164137" lon="10.676439052904868"><ele>182.0</ele><time>2026-04-18T07:06:35.999Z</time></trkpt><trkpt lat="43.52466213725512" lon="10.676532732546793"><ele>182.0</ele><time>2026-04-18T07:06:36.999Z</time></trkpt><trkpt lat="43.524609852514104" lon="10.676638576349356"><ele>182.0</ele><time>2026-04-18T07:06:37.999Z</time></trkpt><trkpt lat="43.52457415407581" lon="10.676721949415585"><ele>182.0</ele><time>2026-04-18T07:06:38.999Z</time></trkpt><trkpt lat="43.52453299662704" lon="10.676859065521395"><ele>182.0</ele><time>2026-04-18T07:06:40.999Z</time></trkpt><trkpt lat="43.52451580536349" lon="10.676968076792988"><ele>182.0</ele><time>2026-04-18T07:06:42.999Z</time></trkpt><trkpt lat="43.524509989015684" lon="10.67706223992862"><ele>182.0</ele><time>2026-04-18T07:06:44.999Z</time></trkpt><trkpt lat="43.52454809226625" lon="10.677199802934233"><ele>180.6</ele><time>2026-04-18T07:06:46.999Z</time></trkpt><trkpt lat="43.52461264023933" lon="10.677322392028803"><ele>179.2</ele><time>2026-04-18T07:06:49Z</time></trkpt><trkpt lat="43.52466577743711" lon="10.677375190668815"><ele>177.8</ele><time>2026-04-18T07:06:50Z</time></trkpt><trkpt lat="43.524723758661366" lon="10.677516840524639"><ele>176.4</ele><time>2026-04-18T07:06:52Z</time></trkpt><trkpt lat="43.52472870761474" lon="10.677615185736702"><ele>175.0</ele><time>2026-04-18T07:06:53Z</time></trkpt><trkpt lat="43.524757308154776" lon="10.677779754323812"><ele>174.5</ele><time>2026-04-18T07:06:55Z</time></trkpt><trkpt lat="43.524743240697816" lon="10.677951918162252"><ele>174.0</ele><time>2026-04-18T07:06:57Z</time></trkpt><trkpt lat="43.5247430148483" lon="10.678049879318285"><ele>173.5</ele><time>2026-04-18T07:06:58Z</time></trkpt><trkpt lat="43.52473425114824" lon="10.678155644010351"><ele>173.0</ele><time>2026-04-18T07:06:59Z</time></trkpt><trkpt lat="43.524738475594354" lon="10.678275386447003"><ele>172.5</ele><time>2026-04-18T07:07:00Z</time></trkpt><trkpt lat="43.52475161656912" lon="10.678391352863652"><ele>172.0</ele><time>2026-04-18T07:07:01Z</time></trkpt><trkpt lat="43.524769982454316" lon="10.678495814269848"><ele>172.0</ele><time>2026-04-18T07:07:02Z</time></trkpt><trkpt lat="43.52478578190309" lon="10.678586996508434"><ele>172.0</ele><time>2026-04-18T07:07:03Z</time></trkpt><trkpt lat="43.524805984236224" lon="10.678678381534109"><ele>172.0</ele><time>2026-04-18T07:07:04Z</time></trkpt><trkpt lat="43.524820922522714" lon="10.678826152851473"><ele>172.0</ele><time>2026-04-18T07:07:06Z</time></trkpt><trkpt lat="43.52484605011839" lon="10.6789608483159"><ele>172.0</ele><time>2026-04-18T07:07:10Z</time></trkpt><trkpt lat="43.524854081704774" lon="10.679074664579968"><ele>172.0</ele><time>2026-04-18T07:07:12Z</time></trkpt><trkpt lat="43.52485884517942" lon="10.679162372918146"><ele>173.16666666666669</ele><time>2026-04-18T07:07:13Z</time></trkpt><trkpt lat="43.52486427968662" lon="10.679262436911856"><ele>174.33333333333334</ele><time>2026-04-18T07:07:14Z</time></trkpt><trkpt lat="43.524865148154824" lon="10.679374589336618"><ele>175.5</ele><time>2026-04-18T07:07:15Z</time></trkpt><trkpt lat="43.52485489867689" lon="10.679484801137988"><ele>176.66666666666666</ele><time>2026-04-18T07:07:16Z</time></trkpt><trkpt lat="43.52484057248106" lon="10.679608779399612"><ele>177.83333333333331</ele><time>2026-04-18T07:07:17Z</time></trkpt><trkpt lat="43.524827029172094" lon="10.679737404253238"><ele>179.0</ele><time>2026-04-18T07:07:18Z</time></trkpt><trkpt lat="43.524817030882694" lon="10.679871704097073"><ele>179.6</ele><time>2026-04-18T07:07:19Z</time></trkpt><trkpt lat="43.52484945661985" lon="10.680013925913451"><ele>180.2</ele><time>2026-04-18T07:07:20Z</time></trkpt><trkpt lat="43.52488298823461" lon="10.680156790704071"><ele>180.79999999999998</ele><time>2026-04-18T07:07:21Z</time></trkpt><trkpt lat="43.524916096666814" lon="10.680295241971017"><ele>181.39999999999998</ele><time>2026-04-18T07:07:22Z</time></trkpt><trkpt lat="43.52493016093182" lon="10.680441740656402"><ele>182.0</ele><time>2026-04-18T07:07:23Z</time></trkpt><trkpt lat="43.52494816714446" lon="10.680574444110103"><ele>180.83333333333331</ele><time>2026-04-18T07:07:24Z</time></trkpt><trkpt lat="43.524953989722455" lon="10.680701052756756"><ele>179.66666666666666</ele><time>2026-04-18T07:07:25Z</time></trkpt><trkpt lat="43.5249538754156" lon="10.68082458479517"><ele>178.5</ele><time>2026-04-18T07:07:26Z</time></trkpt><trkpt lat="43.52495338437699" lon="10.68091748938088"><ele>177.33333333333334</ele><time>2026-04-18T07:07:27Z</time></trkpt><trkpt lat="43.5249636408762" lon="10.681083384899733"><ele>176.16666666666669</ele><time>2026-04-18T07:07:29Z</time></trkpt><trkpt lat="43.52495835773444" lon="10.681188753723754"><ele>175.0</ele><time>2026-04-18T07:07:30Z</time></trkpt><trkpt lat="43.52495491919334" lon="10.68130327717034"><ele>174.4</ele><time>2026-04-18T07:07:31Z</time></trkpt><trkpt lat="43.5249538262309" lon="10.681426027422235"><ele>173.8</ele><time>2026-04-18T07:07:32Z</time></trkpt><trkpt lat="43.52495523832286" lon="10.681554467220925"><ele>173.2</ele><time>2026-04-18T07:07:33Z</time></trkpt><trkpt lat="43.5249504148633" lon="10.681698167268237"><ele>172.6</ele><time>2026-04-18T07:07:34Z</time></trkpt><trkpt lat="43.52494789401582" lon="10.6818586993623"><ele>172.0</ele><time>2026-04-18T07:07:35Z</time></trkpt><trkpt lat="43.52494736716175" lon="10.682024232209944"><ele>171.66666666666669</ele><time>2026-04-18T07:07:35.999Z</time></trkpt><trkpt lat="43.52493231207987" lon="10.682186849223074"><ele>171.33333333333334</ele><time>2026-04-18T07:07:36.999Z</time></trkpt><trkpt lat="43.524950390657054" lon="10.682321192418195"><ele>171.0</ele><time>2026-04-18T07:07:37.999Z</time></trkpt><trkpt lat="43.52496161260518" lon="10.68242597181874"><ele>170.66666666666666</ele><time>2026-04-18T07:07:38.999Z</time></trkpt><trkpt lat="43.524998046781356" lon="10.682521285308075"><ele>170.33333333333331</ele><time>2026-04-18T07:07:39.999Z</time></trkpt><trkpt lat="43.5250538406724" lon="10.682588132082522"><ele>170.0</ele><time>2026-04-18T07:07:40.999Z</time></trkpt><trkpt lat="43.52512841198349" lon="10.68262456994159"><ele>170.0</ele><time>2026-04-18T07:07:41.999Z</time></trkpt><trkpt lat="43.52521868600107" lon="10.682635250540379"><ele>170.0</ele><time>2026-04-18T07:07:42.999Z</time></trkpt><trkpt lat="43.52530483148634" lon="10.682685281755647"><ele>170.0</ele><time>2026-04-18T07:07:43.999Z</time></trkpt><trkpt lat="43.525400211903666" lon="10.682741276265276"><ele>170.0</ele><time>2026-04-18T07:07:44.999Z</time></trkpt><trkpt lat="43.52547040827623" lon="10.682836716120361"><ele>170.0</ele><time>2026-04-18T07:07:45.999Z</time></trkpt><trkpt lat="43.525532223479196" lon="10.68294973400867"><ele>168.8</ele><time>2026-04-18T07:07:46.999Z</time></trkpt><trkpt lat="43.52556635081154" lon="10.683062151183238"><ele>167.6</ele><time>2026-04-18T07:07:47.999Z</time></trkpt><trkpt lat="43.525600690050204" lon="10.683157794185002"><ele>166.39999999999998</ele><time>2026-04-18T07:07:48.999Z</time></trkpt><trkpt lat="43.52562516702481" lon="10.683316802996776"><ele>165.2</ele><time>2026-04-18T07:07:50.999Z</time></trkpt><trkpt lat="43.5256026857271" lon="10.68344711318896"><ele>164.0</ele><time>2026-04-18T07:07:52.999Z</time></trkpt><trkpt lat="43.525459060129215" lon="10.683505235171513"><ele>164.0</ele><time>2026-04-18T07:07:53.999Z</time></trkpt><trkpt lat="43.52536817346776" lon="10.683565144674775"><ele>164.0</ele><time>2026-04-18T07:07:54.999Z</time></trkpt><trkpt lat="43.52527248804263" lon="10.683633560307818"><ele>164.0</ele><time>2026-04-18T07:07:55.999Z</time></trkpt><trkpt lat="43.525174473799986" lon="10.683709767049248"><ele>164.0</ele><time>2026-04-18T07:07:56.999Z</time></trkpt><trkpt lat="43.52507047349058" lon="10.683790342781714"><ele>164.0</ele><time>2026-04-18T07:07:57.999Z</time></trkpt><trkpt lat="43.52496603890956" lon="10.683867794835122"><ele>161.79999999999998</ele><time>2026-04-18T07:07:58.999Z</time></trkpt><trkpt lat="43.52486585847126" lon="10.683924059029938"><ele>159.6</ele><time>2026-04-18T07:07:59.999Z</time></trkpt><trkpt lat="43.52478221018998" lon="10.683939420031606"><ele>157.4</ele><time>2026-04-18T07:08:00.999Z</time></trkpt><trkpt lat="43.52471285412515" lon="10.683922547237295"><ele>155.2</ele><time>2026-04-18T07:08:01.999Z</time></trkpt><trkpt lat="43.52463394728225" lon="10.683842338215497"><ele>153.0</ele><time>2026-04-18T07:08:03.999Z</time></trkpt><trkpt lat="43.524540148499725" lon="10.683985977585946"><ele>151.66666666666666</ele><time>2026-04-18T07:08:05.999Z</time></trkpt><trkpt lat="43.52451498770808" lon="10.684073434945173"><ele>150.33333333333334</ele><time>2026-04-18T07:08:06.999Z</time></trkpt><trkpt lat="43.52450554830038" lon="10.684182750335848"><ele>149.0</ele><time>2026-04-18T07:08:07.999Z</time></trkpt><trkpt lat="43.52449673525279" lon="10.684272400211956"><ele>147.66666666666669</ele><time>2026-04-18T07:08:08.999Z</time></trkpt><trkpt lat="43.524516565200386" lon="10.684402492632683"><ele>146.33333333333334</ele><time>2026-04-18T07:08:10.999Z</time></trkpt><trkpt lat="43.52457719443541" lon="10.684481695707639"><ele>145.0</ele><time>2026-04-18T07:08:12.999Z</time></trkpt><trkpt lat="43.524684861730584" lon="10.684524828798073"><ele>145.0</ele><time>2026-04-18T07:08:14.999Z</time></trkpt><trkpt lat="43.5247518364992" lon="10.684530323854021"><ele>145.0</ele><time>2026-04-18T07:08:15.999Z</time></trkpt><trkpt lat="43.52482078574207" lon="10.684543109440297"><ele>145.0</ele><time>2026-04-18T07:08:16.999Z</time></trkpt><trkpt lat="43.52489246152801" lon="10.684558465794252"><ele>145.0</ele><time>2026-04-18T07:08:17.999Z</time></trkpt><trkpt lat="43.52496547864594" lon="10.684581749243733"><ele>145.0</ele><time>2026-04-18T07:08:18.999Z</time></trkpt><trkpt lat="43.525044285450655" lon="10.68463573494203"><ele>145.0</ele><time>2026-04-18T07:08:19.999Z</time></trkpt><trkpt lat="43.52516581426268" lon="10.684732149369282"><ele>145.0</ele><time>2026-04-18T07:08:21.999Z</time></trkpt><trkpt lat="43.52522531930304" lon="10.684811894387021"><ele>145.0</ele><time>2026-04-18T07:08:22.999Z</time></trkpt><trkpt lat="43.525261117240234" lon="10.684916686740397"><ele>145.0</ele><time>2026-04-18T07:08:23.999Z</time></trkpt><trkpt lat="43.52529439800631" lon="10.685035704286644"><ele>145.0</ele><time>2026-04-18T07:08:24.999Z</time></trkpt><trkpt lat="43.5253219410295" lon="10.685174377422248"><ele>145.0</ele><time>2026-04-18T07:08:25.999Z</time></trkpt><trkpt lat="43.525351465744436" lon="10.68534453409021"><ele>146.0</ele><time>2026-04-18T07:08:26.999Z</time></trkpt><trkpt lat="43.5253834243039" lon="10.685510101344711"><ele>147.0</ele><time>2026-04-18T07:08:27.999Z</time></trkpt><trkpt lat="43.52543919599643" lon="10.685666362705886"><ele>148.0</ele><time>2026-04-18T07:08:28.999Z</time></trkpt><trkpt lat="43.525476535304485" lon="10.68583045192551"><ele>149.0</ele><time>2026-04-18T07:08:29.999Z</time></trkpt><trkpt lat="43.52550824214789" lon="10.68600096115645"><ele>146.0</ele><time>2026-04-18T07:08:30.999Z</time></trkpt><trkpt lat="43.525534265467414" lon="10.686171125533365"><ele>143.0</ele><time>2026-04-18T07:08:31.999Z</time></trkpt><trkpt lat="43.52555108454705" lon="10.686352146354032"><ele>140.0</ele><time>2026-04-18T07:08:32.999Z</time></trkpt><trkpt lat="43.52556456734667" lon="10.686532014205204"><ele>137.0</ele><time>2026-04-18T07:08:33.999Z</time></trkpt><trkpt lat="43.52557413631787" lon="10.68670994747463"><ele>137.0</ele><time>2026-04-18T07:08:34.999Z</time></trkpt><trkpt lat="43.525563339874914" lon="10.686884275810648"><ele>137.0</ele><time>2026-04-18T07:08:35.999Z</time></trkpt><trkpt lat="43.52553638164081" lon="10.687040148011839"><ele>137.0</ele><time>2026-04-18T07:08:36.999Z</time></trkpt><trkpt lat="43.525496017465" lon="10.687187679191725"><ele>137.0</ele><time>2026-04-18T07:08:37.999Z</time></trkpt><trkpt lat="43.52544263485152" lon="10.687358558068237"><ele>133.25</ele><time>2026-04-18T07:08:38.999Z</time></trkpt><trkpt lat="43.52538387118073" lon="10.687544223652436"><ele>129.5</ele><time>2026-04-18T07:08:39.999Z</time></trkpt><trkpt lat="43.52532838354556" lon="10.687731786534085"><ele>125.75</ele><time>2026-04-18T07:08:40.999Z</time></trkpt><trkpt lat="43.525292000918576" lon="10.68792463491209"><ele>122.0</ele><time>2026-04-18T07:08:41.999Z</time></trkpt><trkpt lat="43.5252486700695" lon="10.688107233773085"><ele>121.75</ele><time>2026-04-18T07:08:42.999Z</time></trkpt><trkpt lat="43.525192468128544" lon="10.6882821797595"><ele>121.5</ele><time>2026-04-18T07:08:43.999Z</time></trkpt><trkpt lat="43.525175175201205" lon="10.688483584366283"><ele>121.25</ele><time>2026-04-18T07:08:44.998Z</time></trkpt><trkpt lat="43.52515133902181" lon="10.688681178337017"><ele>121.0</ele><time>2026-04-18T07:08:45.999Z</time></trkpt><trkpt lat="43.52513659382333" lon="10.688879121331711"><ele>120.66666666666667</ele><time>2026-04-18T07:08:46.998Z</time></trkpt><trkpt lat="43.5250933778187" lon="10.689076850445472"><ele>120.33333333333334</ele><time>2026-04-18T07:08:47.998Z</time></trkpt><trkpt lat="43.525076679131395" lon="10.689282124905906"><ele>120.0</ele><time>2026-04-18T07:08:48.998Z</time></trkpt><trkpt lat="43.52504519553375" lon="10.68948565387257"><ele>120.0</ele><time>2026-04-18T07:08:49.998Z</time></trkpt><trkpt lat="43.52501461246751" lon="10.689687946006439"><ele>120.0</ele><time>2026-04-18T07:08:50.998Z</time></trkpt><trkpt lat="43.52498852633659" lon="10.689877976700943"><ele>120.0</ele><time>2026-04-18T07:08:51.998Z</time></trkpt><trkpt lat="43.52497218180757" lon="10.690071305901988"><ele>120.0</ele><time>2026-04-18T07:08:53Z</time></trkpt><trkpt lat="43.52498977691809" lon="10.690255541195771"><ele>119.0</ele><time>2026-04-18T07:08:54Z</time></trkpt><trkpt lat="43.52502706430106" lon="10.690440604939848"><ele>118.0</ele><time>2026-04-18T07:08:55Z</time></trkpt><trkpt lat="43.52506607104135" lon="10.690633538826512"><ele>117.0</ele><time>2026-04-18T07:08:56Z</time></trkpt><trkpt lat="43.52507641027005" lon="10.690838898343241"><ele>116.0</ele><time>2026-04-18T07:08:57Z</time></trkpt><trkpt lat="43.52511800719002" lon="10.691041235279917"><ele>114.5</ele><time>2026-04-18T07:08:58Z</time></trkpt><trkpt lat="43.52514031451075" lon="10.69123972190198"><ele>113.0</ele><time>2026-04-18T07:08:59Z</time></trkpt><trkpt lat="43.52516981948956" lon="10.691427518271833"><ele>111.5</ele><time>2026-04-18T07:09:00Z</time></trkpt><trkpt lat="43.52521860017136" lon="10.691610054372479"><ele>110.0</ele><time>2026-04-18T07:09:01Z</time></trkpt><trkpt lat="43.525278417541045" lon="10.691784676954354"><ele>107.75</ele><time>2026-04-18T07:09:02Z</time></trkpt><trkpt lat="43.52531175256253" lon="10.691981463611553"><ele>105.5</ele><time>2026-04-18T07:09:03Z</time></trkpt><trkpt lat="43.525344916116666" lon="10.692177234915693"><ele>103.25</ele><time>2026-04-18T07:09:04Z</time></trkpt><trkpt lat="43.52536712265679" lon="10.692378426651043"><ele>101.0</ele><time>2026-04-18T07:09:05Z</time></trkpt><trkpt lat="43.5253851717614" lon="10.692577698241555"><ele>103.0</ele><time>2026-04-18T07:09:06Z</time></trkpt><trkpt lat="43.52539662181798" lon="10.692768268601176"><ele>105.0</ele><time>2026-04-18T07:09:07Z</time></trkpt><trkpt lat="43.52541128021507" lon="10.692953606314783"><ele>107.0</ele><time>2026-04-18T07:09:08Z</time></trkpt><trkpt lat="43.52541606815302" lon="10.693120666302814"><ele>109.0</ele><time>2026-04-18T07:09:09Z</time></trkpt><trkpt lat="43.52542337481365" lon="10.693280901047572"><ele>109.0</ele><time>2026-04-18T07:09:10Z</time></trkpt><trkpt lat="43.52545171778114" lon="10.693437963287655"><ele>109.0</ele><time>2026-04-18T07:09:11Z</time></trkpt><trkpt lat="43.525506390639194" lon="10.693593207302238"><ele>109.0</ele><time>2026-04-18T07:09:12Z</time></trkpt><trkpt lat="43.52558326090425" lon="10.693750486732041"><ele>109.0</ele><time>2026-04-18T07:09:13Z</time></trkpt><trkpt lat="43.52566503366348" lon="10.69390244798145"><ele>108.5</ele><time>2026-04-18T07:09:14Z</time></trkpt><trkpt lat="43.52572726208579" lon="10.694075280934587"><ele>108.0</ele><time>2026-04-18T07:09:15Z</time></trkpt><trkpt lat="43.525784790918536" lon="10.69423299208889"><ele>107.5</ele><time>2026-04-18T07:09:16Z</time></trkpt><trkpt lat="43.52582808487281" lon="10.694389365712428"><ele>107.0</ele><time>2026-04-18T07:09:17Z</time></trkpt><trkpt lat="43.525847798270256" lon="10.694541821577602"><ele>106.6</ele><time>2026-04-18T07:09:18Z</time></trkpt><trkpt lat="43.525852728008125" lon="10.694702925196799"><ele>106.19999999999999</ele><time>2026-04-18T07:09:19Z</time></trkpt><trkpt lat="43.525839908927615" lon="10.694856557918165"><ele>105.8</ele><time>2026-04-18T07:09:20Z</time></trkpt><trkpt lat="43.525812426019584" lon="10.694991174974772"><ele>105.4</ele><time>2026-04-18T07:09:21Z</time></trkpt><trkpt lat="43.5257715717687" lon="10.695107113477926"><ele>105.0</ele><time>2026-04-18T07:09:22Z</time></trkpt><trkpt lat="43.5257295068768" lon="10.695213882494603"><ele>104.0</ele><time>2026-04-18T07:09:23Z</time></trkpt><trkpt lat="43.52566272516109" lon="10.695289777814365"><ele>103.0</ele><time>2026-04-18T07:09:24Z</time></trkpt><trkpt lat="43.52561561759187" lon="10.695378072885646"><ele>102.0</ele><time>2026-04-18T07:09:25Z</time></trkpt><trkpt lat="43.525601165257186" lon="10.6954990240213"><ele>101.0</ele><time>2026-04-18T07:09:26Z</time></trkpt><trkpt lat="43.52562449454224" lon="10.695636208246867"><ele>100.0</ele><time>2026-04-18T07:09:27Z</time></trkpt><trkpt lat="43.52567071799933" lon="10.695772991563219"><ele>100.0</ele><time>2026-04-18T07:09:28Z</time></trkpt><trkpt lat="43.525703779429584" lon="10.695930370579637"><ele>100.0</ele><time>2026-04-18T07:09:29Z</time></trkpt><trkpt lat="43.52573401943677" lon="10.696095389186976"><ele>100.0</ele><time>2026-04-18T07:09:30Z</time></trkpt><trkpt lat="43.52574685980338" lon="10.696272715492594"><ele>100.0</ele><time>2026-04-18T07:09:31Z</time></trkpt><trkpt lat="43.525729392138956" lon="10.696472770329757"><ele>98.33333333333334</ele><time>2026-04-18T07:09:32Z</time></trkpt><trkpt lat="43.52569230642802" lon="10.6967055635774"><ele>96.66666666666667</ele><time>2026-04-18T07:09:33Z</time></trkpt><trkpt lat="43.52565501943538" lon="10.696937649566793"><ele>95.0</ele><time>2026-04-18T07:09:34Z</time></trkpt><trkpt lat="43.52560769026137" lon="10.697130075215647"><ele>94.6</ele><time>2026-04-18T07:09:34.999Z</time></trkpt><trkpt lat="43.52553709223498" lon="10.697276516584761"><ele>94.2</ele><time>2026-04-18T07:09:35.999Z</time></trkpt><trkpt lat="43.52547447262924" lon="10.69740072544252"><ele>93.80000000000001</ele><time>2026-04-18T07:09:36.999Z</time></trkpt><trkpt lat="43.52543603262292" lon="10.69753431179355"><ele>93.4</ele><time>2026-04-18T07:09:37.999Z</time></trkpt><trkpt lat="43.52539705880965" lon="10.697664325599057"><ele>93.0</ele><time>2026-04-18T07:09:38.999Z</time></trkpt><trkpt lat="43.5253863504868" lon="10.697814330954984"><ele>92.0</ele><time>2026-04-18T07:09:39.999Z</time></trkpt><trkpt lat="43.52538230243025" lon="10.697975426420182"><ele>91.0</ele><time>2026-04-18T07:09:40.999Z</time></trkpt><trkpt lat="43.525429131532505" lon="10.698139121812446"><ele>90.0</ele><time>2026-04-18T07:09:41.999Z</time></trkpt><trkpt lat="43.5254709457598" lon="10.698317371400512"><ele>89.0</ele><time>2026-04-18T07:09:42.999Z</time></trkpt><trkpt lat="43.52549474020877" lon="10.698496909280124"><ele>88.4</ele><time>2026-04-18T07:09:43.999Z</time></trkpt><trkpt lat="43.5255033300301" lon="10.698654472750126"><ele>87.80000000000001</ele><time>2026-04-18T07:09:44.999Z</time></trkpt><trkpt lat="43.52549726829593" lon="10.698807472389873"><ele>87.19999999999999</ele><time>2026-04-18T07:09:45.999Z</time></trkpt><trkpt lat="43.52547689355292" lon="10.69895630769381"><ele>86.6</ele><time>2026-04-18T07:09:46.999Z</time></trkpt><trkpt lat="43.52543947329216" lon="10.699089710685014"><ele>86.0</ele><time>2026-04-18T07:09:47.999Z</time></trkpt><trkpt lat="43.52539482937385" lon="10.699213182165332"><ele>82.5</ele><time>2026-04-18T07:09:48.999Z</time></trkpt><trkpt lat="43.52534827910875" lon="10.699316965723014"><ele>79.0</ele><time>2026-04-18T07:09:49.999Z</time></trkpt><trkpt lat="43.525317270446116" lon="10.699425131909322"><ele>75.5</ele><time>2026-04-18T07:09:50.999Z</time></trkpt><trkpt lat="43.52528275655294" lon="10.699522750891905"><ele>72.0</ele><time>2026-04-18T07:09:51.999Z</time></trkpt><trkpt lat="43.52527248961765" lon="10.699634172971486"><ele>68.5</ele><time>2026-04-18T07:09:52.999Z</time></trkpt><trkpt lat="43.52529643633098" lon="10.699757164854748"><ele>65.0</ele><time>2026-04-18T07:09:53.999Z</time></trkpt><trkpt lat="43.525342557419464" lon="10.699887565765497"><ele>65.25</ele><time>2026-04-18T07:09:54.999Z</time></trkpt><trkpt lat="43.52539937076947" lon="10.700034045182791"><ele>65.5</ele><time>2026-04-18T07:09:55.999Z</time></trkpt><trkpt lat="43.52545028425375" lon="10.700178952398169"><ele>65.75</ele><time>2026-04-18T07:09:56.999Z</time></trkpt><trkpt lat="43.52549831997937" lon="10.700328941997627"><ele>66.0</ele><time>2026-04-18T07:09:57.999Z</time></trkpt><trkpt lat="43.52555094021238" lon="10.70048516677307"><ele>66.0</ele><time>2026-04-18T07:09:58.999Z</time></trkpt><trkpt lat="43.52560512181743" lon="10.700628495738064"><ele>66.0</ele><time>2026-04-18T07:09:59.999Z</time></trkpt><trkpt lat="43.52565475094468" lon="10.70076662350868"><ele>66.0</ele><time>2026-04-18T07:10:00.999Z</time></trkpt><trkpt lat="43.52567850075617" lon="10.700922569930869"><ele>66.0</ele><time>2026-04-18T07:10:01.999Z</time></trkpt><trkpt lat="43.525704674331244" lon="10.7010698952874"><ele>64.8</ele><time>2026-04-18T07:10:02.999Z</time></trkpt><trkpt lat="43.525733929910736" lon="10.701220492921678"><ele>63.599999999999994</ele><time>2026-04-18T07:10:03.999Z</time></trkpt><trkpt lat="43.525736662755975" lon="10.701366014772953"><ele>62.4</ele><time>2026-04-18T07:10:04.999Z</time></trkpt><trkpt lat="43.52573661718762" lon="10.701504810240278"><ele>61.2</ele><time>2026-04-18T07:10:05.999Z</time></trkpt><trkpt lat="43.52573646206393" lon="10.701637029194048"><ele>60.0</ele><time>2026-04-18T07:10:06.999Z</time></trkpt><trkpt lat="43.52573918565613" lon="10.701764245519739"><ele>60.0</ele><time>2026-04-18T07:10:07.999Z</time></trkpt><trkpt lat="43.5257408528335" lon="10.701887337301752"><ele>60.0</ele><time>2026-04-18T07:10:08.999Z</time></trkpt><trkpt lat="43.52575220057798" lon="10.702001617058777"><ele>60.0</ele><time>2026-04-18T07:10:09.999Z</time></trkpt><trkpt lat="43.525776707462" lon="10.702099557154375"><ele>60.0</ele><time>2026-04-18T07:10:10.999Z</time></trkpt><trkpt lat="43.525807173828646" lon="10.702176509570622"><ele>60.0</ele><time>2026-04-18T07:10:11.999Z</time></trkpt><trkpt lat="43.52585515460866" lon="10.70231043282025"><ele>60.0</ele><time>2026-04-18T07:10:13.999Z</time></trkpt><trkpt lat="43.52589647045684" lon="10.702439596150981"><ele>59.4</ele><time>2026-04-18T07:10:15.999Z</time></trkpt><trkpt lat="43.52593447535711" lon="10.702563505576094"><ele>58.8</ele><time>2026-04-18T07:10:17.999Z</time></trkpt><trkpt lat="43.525956503553296" lon="10.702654396522355"><ele>58.2</ele><time>2026-04-18T07:10:19.999Z</time></trkpt><trkpt lat="43.52600148481795" lon="10.702747562464074"><ele>57.6</ele><time>2026-04-18T07:10:31.999Z</time></trkpt><trkpt lat="43.526171632168186" lon="10.702624957667815"><ele>57.0</ele><time>2026-04-18T07:10:32.999Z</time></trkpt><trkpt lat="43.52628274153656" lon="10.70253072271693"><ele>56.75</ele><time>2026-04-18T07:10:33.999Z</time></trkpt><trkpt lat="43.52639997742539" lon="10.702441330103865"><ele>56.5</ele><time>2026-04-18T07:10:34.999Z</time></trkpt><trkpt lat="43.52653273261795" lon="10.702358992170199"><ele>56.25</ele><time>2026-04-18T07:10:35.999Z</time></trkpt><trkpt lat="43.52668128724611" lon="10.702334474626916"><ele>56.0</ele><time>2026-04-18T07:10:36.999Z</time></trkpt><trkpt lat="43.52683038290037" lon="10.702311666230353"><ele>56.0</ele><time>2026-04-18T07:10:37.999Z</time></trkpt><trkpt lat="43.52697828171695" lon="10.70228086371986"><ele>56.0</ele><time>2026-04-18T07:10:38.999Z</time></trkpt><trkpt lat="43.52711383275388" lon="10.702284231782391"><ele>56.0</ele><time>2026-04-18T07:10:39.999Z</time></trkpt><trkpt lat="43.52723012187551" lon="10.702283744817304"><ele>56.0</ele><time>2026-04-18T07:10:40.999Z</time></trkpt><trkpt lat="43.527318861685174" lon="10.702275066476675"><ele>56.0</ele><time>2026-04-18T07:10:41.998Z</time></trkpt><trkpt lat="43.52742233151007" lon="10.702272347594782"><ele>56.0</ele><time>2026-04-18T07:10:43.998Z</time></trkpt><trkpt lat="43.527553884187995" lon="10.70227834798825"><ele>56.0</ele><time>2026-04-18T07:10:45.998Z</time></trkpt><trkpt lat="43.52766192243009" lon="10.702275009921543"><ele>56.0</ele><time>2026-04-18T07:10:46.998Z</time></trkpt><trkpt lat="43.527787010987716" lon="10.702252116977899"><ele>56.4</ele><time>2026-04-18T07:10:47.998Z</time></trkpt><trkpt lat="43.5278937284126" lon="10.702255761705079"><ele>56.8</ele><time>2026-04-18T07:10:48.998Z</time></trkpt><trkpt lat="43.5279830735496" lon="10.702254724149775"><ele>57.199999999999996</ele><time>2026-04-18T07:10:49.998Z</time></trkpt><trkpt lat="43.52808342104088" lon="10.702251489734515"><ele>57.599999999999994</ele><time>2026-04-18T07:10:50.998Z</time></trkpt><trkpt lat="43.52819866280934" lon="10.702250553923907"><ele>58.0</ele><time>2026-04-18T07:10:51.998Z</time></trkpt><trkpt lat="43.52832989672165" lon="10.702243757751097"><ele>58.0</ele><time>2026-04-18T07:10:52.998Z</time></trkpt><trkpt lat="43.5284836268382" lon="10.702233520245969"><ele>58.0</ele><time>2026-04-18T07:10:53.998Z</time></trkpt><trkpt lat="43.5286361643584" lon="10.70222711471997"><ele>58.0</ele><time>2026-04-18T07:10:54.998Z</time></trkpt><trkpt lat="43.52882152257365" lon="10.702241215994265"><ele>57.0</ele><time>2026-04-18T07:10:55.998Z</time></trkpt><trkpt lat="43.52902907570657" lon="10.702228076747277"><ele>56.0</ele><time>2026-04-18T07:10:56.998Z</time></trkpt><trkpt lat="43.529230465576184" lon="10.702209120404918"><ele>55.0</ele><time>2026-04-18T07:10:57.998Z</time></trkpt><trkpt lat="43.52944462774958" lon="10.702167455375902"><ele>54.666666666666664</ele><time>2026-04-18T07:10:59Z</time></trkpt><trkpt lat="43.52967149427358" lon="10.702149526867666"><ele>54.33333333333333</ele><time>2026-04-18T07:11:00Z</time></trkpt><trkpt lat="43.52989195286562" lon="10.702121734301906"><ele>54.0</ele><time>2026-04-18T07:11:01Z</time></trkpt><trkpt lat="43.53011219324751" lon="10.702093951282869"><ele>54.0</ele><time>2026-04-18T07:11:02Z</time></trkpt><trkpt lat="43.53033697838858" lon="10.702068739569018"><ele>54.0</ele><time>2026-04-18T07:11:03Z</time></trkpt><trkpt lat="43.530561863758145" lon="10.702041503691621"><ele>54.5</ele><time>2026-04-18T07:11:04Z</time></trkpt><trkpt lat="43.53078638413982" lon="10.702011609674352"><ele>55.0</ele><time>2026-04-18T07:11:05Z</time></trkpt><trkpt lat="43.531010762889665" lon="10.701977164061525"><ele>55.0</ele><time>2026-04-18T07:11:06Z</time></trkpt><trkpt lat="43.531236919139296" lon="10.701938764503401"><ele>55.0</ele><time>2026-04-18T07:11:07Z</time></trkpt><trkpt lat="43.53146140975926" lon="10.701896958515116"><ele>55.0</ele><time>2026-04-18T07:11:08Z</time></trkpt><trkpt lat="43.53168517003607" lon="10.701845948704076"><ele>55.0</ele><time>2026-04-18T07:11:09Z</time></trkpt><trkpt lat="43.53190560864009" lon="10.701796156417492"><ele>55.0</ele><time>2026-04-18T07:11:10Z</time></trkpt><trkpt lat="43.53212445440936" lon="10.701752082035641"><ele>55.0</ele><time>2026-04-18T07:11:11Z</time></trkpt><trkpt lat="43.53234077639651" lon="10.701711411836172"><ele>55.0</ele><time>2026-04-18T07:11:12Z</time></trkpt><trkpt lat="43.532554230396805" lon="10.701666730992326"><ele>55.0</ele><time>2026-04-18T07:11:13Z</time></trkpt><trkpt lat="43.5327593411104" lon="10.701620080867578"><ele>55.0</ele><time>2026-04-18T07:11:14Z</time></trkpt><trkpt lat="43.532946988127016" lon="10.701579249110075"><ele>55.0</ele><time>2026-04-18T07:11:15Z</time></trkpt><trkpt lat="43.53311739396932" lon="10.701540405180657"><ele>55.33333333333333</ele><time>2026-04-18T07:11:16Z</time></trkpt><trkpt lat="43.533280849942564" lon="10.70150561893631"><ele>55.66666666666667</ele><time>2026-04-18T07:11:17Z</time></trkpt><trkpt lat="43.53343509547558" lon="10.701470393948547"><ele>56.0</ele><time>2026-04-18T07:11:18Z</time></trkpt><trkpt lat="43.53358478359671" lon="10.70145702373117"><ele>56.5</ele><time>2026-04-18T07:11:19Z</time></trkpt><trkpt lat="43.53372975730999" lon="10.70142642147417"><ele>57.0</ele><time>2026-04-18T07:11:20Z</time></trkpt><trkpt lat="43.53387588254022" lon="10.70139557617359"><ele>57.5</ele><time>2026-04-18T07:11:21Z</time></trkpt><trkpt lat="43.53402633598967" lon="10.701363818046103"><ele>58.0</ele><time>2026-04-18T07:11:22Z</time></trkpt><trkpt lat="43.534176818092455" lon="10.701333292686536"><ele>58.0</ele><time>2026-04-18T07:11:23Z</time></trkpt><trkpt lat="43.53433926510362" lon="10.701278696078806"><ele>58.0</ele><time>2026-04-18T07:11:24Z</time></trkpt><trkpt lat="43.53450247274564" lon="10.701249115735171"><ele>58.0</ele><time>2026-04-18T07:11:25Z</time></trkpt><trkpt lat="43.53466861422739" lon="10.701210639361193"><ele>57.33333333333333</ele><time>2026-04-18T07:11:26Z</time></trkpt><trkpt lat="43.5348417416026" lon="10.701175164616064"><ele>56.66666666666667</ele><time>2026-04-18T07:11:27Z</time></trkpt><trkpt lat="43.53502184329776" lon="10.701160043809605"><ele>56.0</ele><time>2026-04-18T07:11:28Z</time></trkpt><trkpt lat="43.53520017698588" lon="10.701101135347047"><ele>56.333333333333336</ele><time>2026-04-18T07:11:29Z</time></trkpt><trkpt lat="43.53538379378477" lon="10.70106332457402"><ele>56.66666666666667</ele><time>2026-04-18T07:11:30Z</time></trkpt><trkpt lat="43.53557118126271" lon="10.701024954622401"><ele>57.0</ele><time>2026-04-18T07:11:31Z</time></trkpt><trkpt lat="43.53575445077212" lon="10.700987074866614"><ele>57.0</ele><time>2026-04-18T07:11:32Z</time></trkpt><trkpt lat="43.53593838473811" lon="10.700970794448956"><ele>57.0</ele><time>2026-04-18T07:11:33Z</time></trkpt><trkpt lat="43.53611166393414" lon="10.700933709816855"><ele>57.0</ele><time>2026-04-18T07:11:34Z</time></trkpt><trkpt lat="43.536268692048914" lon="10.70090134431419"><ele>56.33333333333333</ele><time>2026-04-18T07:11:35Z</time></trkpt><trkpt lat="43.536408201266944" lon="10.70084582375766"><ele>55.666666666666664</ele><time>2026-04-18T07:11:35.999Z</time></trkpt><trkpt lat="43.53667431346715" lon="10.700799989363764"><ele>55.0</ele><time>2026-04-18T07:11:37.999Z</time></trkpt><trkpt lat="43.53679602225635" lon="10.700776551833233"><ele>55.0</ele><time>2026-04-18T07:11:38.999Z</time></trkpt><trkpt lat="43.536911586869124" lon="10.700753824605345"><ele>55.0</ele><time>2026-04-18T07:11:39.999Z</time></trkpt><trkpt lat="43.537022618217776" lon="10.700732318545349"><ele>55.0</ele><time>2026-04-18T07:11:40.999Z</time></trkpt><trkpt lat="43.53712408848886" lon="10.700711762256814"><ele>55.0</ele><time>2026-04-18T07:11:41.999Z</time></trkpt><trkpt lat="43.53721247551798" lon="10.700691285000824"><ele>55.0</ele><time>2026-04-18T07:11:42.999Z</time></trkpt><trkpt lat="43.537281523879976" lon="10.700673628529898"><ele>55.2</ele><time>2026-04-18T07:11:43.999Z</time></trkpt><trkpt lat="43.53736874359481" lon="10.700700139268855"><ele>55.4</ele><time>2026-04-18T07:11:45.999Z</time></trkpt><trkpt lat="43.537397084489655" lon="10.700875876024895"><ele>55.599999999999994</ele><time>2026-04-18T07:11:47.999Z</time></trkpt><trkpt lat="43.53740222798839" lon="10.700987963464556"><ele>55.8</ele><time>2026-04-18T07:11:48.999Z</time></trkpt><trkpt lat="43.537423219390796" lon="10.701110892075713"><ele>56.0</ele><time>2026-04-18T07:11:49.999Z</time></trkpt><trkpt lat="43.537444037789776" lon="10.70124120665313"><ele>56.00000000000001</ele><time>2026-04-18T07:11:50.999Z</time></trkpt><trkpt lat="43.53746400480197" lon="10.701369039483678"><ele>56.0</ele><time>2026-04-18T07:11:51.999Z</time></trkpt><trkpt lat="43.53747415180938" lon="10.701480235812314"><ele>56.0</ele><time>2026-04-18T07:11:52.999Z</time></trkpt><trkpt lat="43.53749371211036" lon="10.70156894553981"><ele>56.0</ele><time>2026-04-18T07:11:53.999Z</time></trkpt><trkpt lat="43.53750765510335" lon="10.70167158389449"><ele>56.00000000000001</ele><time>2026-04-18T07:11:54.999Z</time></trkpt><trkpt lat="43.53752161180783" lon="10.701768286026642"><ele>56.0</ele><time>2026-04-18T07:11:55.999Z</time></trkpt><trkpt lat="43.53753860438921" lon="10.701861550091529"><ele>55.50000000000001</ele><time>2026-04-18T07:11:56.999Z</time></trkpt><trkpt lat="43.53755562340979" lon="10.701969447058572"><ele>55.0</ele><time>2026-04-18T07:11:57.999Z</time></trkpt><trkpt lat="43.537574678965875" lon="10.702082647783207"><ele>54.5</ele><time>2026-04-18T07:11:58.999Z</time></trkpt><trkpt lat="43.53758744824284" lon="10.702194788700943"><ele>54.0</ele><time>2026-04-18T07:11:59.999Z</time></trkpt><trkpt lat="43.53760250666611" lon="10.702284854987765"><ele>53.50000000000001</ele><time>2026-04-18T07:12:00.999Z</time></trkpt><trkpt lat="43.53762860364229" lon="10.702464681175579"><ele>53.0</ele><time>2026-04-18T07:12:02.999Z</time></trkpt><trkpt lat="43.53764416178567" lon="10.702549554127637"><ele>53.0</ele><time>2026-04-18T07:12:03.999Z</time></trkpt><trkpt lat="43.53772312168866" lon="10.702666655297836"><ele>53.0</ele><time>2026-04-18T07:12:05.999Z</time></trkpt><trkpt lat="43.53783783426752" lon="10.70275114414528"><ele>53.0</ele><time>2026-04-18T07:12:07.999Z</time></trkpt><trkpt lat="43.53790283779961" lon="10.702802941693054"><ele>53.0</ele><time>2026-04-18T07:12:08.999Z</time></trkpt><trkpt lat="43.537974309889066" lon="10.702863008686903"><ele>53.0</ele><time>2026-04-18T07:12:09.999Z</time></trkpt><trkpt lat="43.538047265240486" lon="10.702932295432836"><ele>52.8</ele><time>2026-04-18T07:12:10.999Z</time></trkpt><trkpt lat="43.53812167264635" lon="10.702999875749672"><ele>52.599999999999994</ele><time>2026-04-18T07:12:11.999Z</time></trkpt><trkpt lat="43.538200727438884" lon="10.703074496618125"><ele>52.400000000000006</ele><time>2026-04-18T07:12:12.999Z</time></trkpt><trkpt lat="43.53827932966779" lon="10.70314381673999"><ele>52.2</ele><time>2026-04-18T07:12:13.999Z</time></trkpt><trkpt lat="43.538358004181404" lon="10.703213497158066"><ele>52.0</ele><time>2026-04-18T07:12:14.999Z</time></trkpt><trkpt lat="43.53843674892608" lon="10.703286309714095"><ele>51.99999999999999</ele><time>2026-04-18T07:12:15.999Z</time></trkpt><trkpt lat="43.53851246606557" lon="10.703361270418357"><ele>52.0</ele><time>2026-04-18T07:12:16.999Z</time></trkpt><trkpt lat="43.538575028681194" lon="10.703433294612914"><ele>52.0</ele><time>2026-04-18T07:12:17.999Z</time></trkpt><trkpt lat="43.53861555038485" lon="10.70351081115013"><ele>52.0</ele><time>2026-04-18T07:12:18.999Z</time></trkpt><trkpt lat="43.53863595119853" lon="10.703600732367848"><ele>51.99999999999999</ele><time>2026-04-18T07:12:19.999Z</time></trkpt><trkpt lat="43.53862029384871" lon="10.703712447923046"><ele>52.0</ele><time>2026-04-18T07:12:20.999Z</time></trkpt><trkpt lat="43.53863739763476" lon="10.703822122020693"><ele>51.6</ele><time>2026-04-18T07:12:21.999Z</time></trkpt><trkpt lat="43.53863503852956" lon="10.703940746443836"><ele>51.2</ele><time>2026-04-18T07:12:22.999Z</time></trkpt><trkpt lat="43.53865147276512" lon="10.704051365040767"><ele>50.8</ele><time>2026-04-18T07:12:23.999Z</time></trkpt><trkpt lat="43.53868750849278" lon="10.704161457409278"><ele>50.4</ele><time>2026-04-18T07:12:24.999Z</time></trkpt><trkpt lat="43.538744176427606" lon="10.704259081677971"><ele>50.0</ele><time>2026-04-18T07:12:25.999Z</time></trkpt><trkpt lat="43.53882062017039" lon="10.704356152601488"><ele>50.00000000000001</ele><time>2026-04-18T07:12:26.999Z</time></trkpt><trkpt lat="43.53890448759011" lon="10.704447699190561"><ele>50.0</ele><time>2026-04-18T07:12:27.999Z</time></trkpt><trkpt lat="43.538983843263985" lon="10.70453144467104"><ele>50.0</ele><time>2026-04-18T07:12:28.999Z</time></trkpt><trkpt lat="43.5390426105195" lon="10.70461899430802"><ele>50.0</ele><time>2026-04-18T07:12:29.999Z</time></trkpt><trkpt lat="43.53907759823383" lon="10.704709417233541"><ele>50.00000000000001</ele><time>2026-04-18T07:12:30.999Z</time></trkpt><trkpt lat="43.53908692937316" lon="10.704802913370786"><ele>50.0</ele><time>2026-04-18T07:12:31.999Z</time></trkpt><trkpt lat="43.53906141334596" lon="10.704918481137437"><ele>50.00000000000001</ele><time>2026-04-18T07:12:32.999Z</time></trkpt><trkpt lat="43.53906757639888" lon="10.705033964035247"><ele>50.0</ele><time>2026-04-18T07:12:33.999Z</time></trkpt><trkpt lat="43.539051955280065" lon="10.70519347846631"><ele>50.0</ele><time>2026-04-18T07:12:35.999Z</time></trkpt><trkpt lat="43.53904103693752" lon="10.70530500402509"><ele>50.0</ele><time>2026-04-18T07:12:37.999Z</time></trkpt><trkpt lat="43.539037858446505" lon="10.705395736135108"><ele>50.00000000000001</ele><time>2026-04-18T07:12:39.999Z</time></trkpt><trkpt lat="43.53902520420137" lon="10.70550393972543"><ele>50.0</ele><time>2026-04-18T07:14:55.998Z</time></trkpt><trkpt lat="43.53902904753597" lon="10.705595066874704"><ele>50.00000000000001</ele><time>2026-04-18T07:14:59.998Z</time></trkpt><trkpt lat="43.539021487732526" lon="10.705482512311422"><ele>50.0</ele><time>2026-04-18T07:15:18Z</time></trkpt><trkpt lat="43.53904289849553" lon="10.705386210113174"><ele>50.0</ele><time>2026-04-18T07:15:20Z</time></trkpt><trkpt lat="43.53904663332267" lon="10.70527620547568"><ele>50.0</ele><time>2026-04-18T07:15:22Z</time></trkpt><trkpt lat="43.539053540934724" lon="10.70514561279434"><ele>50.00000000000001</ele><time>2026-04-18T07:15:24Z</time></trkpt><trkpt lat="43.53907006575168" lon="10.70500058641984"><ele>50.0</ele><time>2026-04-18T07:15:26Z</time></trkpt><trkpt lat="43.53906531517504" lon="10.704837943243433"><ele>50.0</ele><time>2026-04-18T07:15:28Z</time></trkpt><trkpt lat="43.53907737994109" lon="10.704750854523919"><ele>50.0</ele><time>2026-04-18T07:15:29Z</time></trkpt><trkpt lat="43.53905706270934" lon="10.704658428630246"><ele>50.0</ele><time>2026-04-18T07:15:30Z</time></trkpt><trkpt lat="43.53904035338805" lon="10.70452923864812"><ele>50.0</ele><time>2026-04-18T07:15:31Z</time></trkpt><trkpt lat="43.53903413185481" lon="10.704424306202496"><ele>50.0</ele><time>2026-04-18T07:15:32Z</time></trkpt><trkpt lat="43.538875158485425" lon="10.704371845168204"><ele>50.00000000000001</ele><time>2026-04-18T07:15:33Z</time></trkpt><trkpt lat="43.53880154861325" lon="10.704294827068715"><ele>50.0</ele><time>2026-04-18T07:15:34Z</time></trkpt><trkpt lat="43.538744286346926" lon="10.704219214622498"><ele>50.0</ele><time>2026-04-18T07:15:35Z</time></trkpt><trkpt lat="43.538703232729326" lon="10.704148824704454"><ele>50.0</ele><time>2026-04-18T07:15:36Z</time></trkpt><trkpt lat="43.53866890114982" lon="10.704075648501608"><ele>50.00000000000001</ele><time>2026-04-18T07:15:37Z</time></trkpt><trkpt lat="43.538639382334836" lon="10.703980410312056"><ele>50.0</ele><time>2026-04-18T07:15:38Z</time></trkpt><trkpt lat="43.53862712962937" lon="10.703878035493489"><ele>50.00000000000001</ele><time>2026-04-18T07:15:38.999Z</time></trkpt><trkpt lat="43.53863090616485" lon="10.703769978581294"><ele>50.0</ele><time>2026-04-18T07:15:39.999Z</time></trkpt><trkpt lat="43.538639292307494" lon="10.703663260672897"><ele>50.0</ele><time>2026-04-18T07:15:40.999Z</time></trkpt><trkpt lat="43.53864005076698" lon="10.70356376101713"><ele>50.0</ele><time>2026-04-18T07:15:41.999Z</time></trkpt><trkpt lat="43.538619162097234" lon="10.703474452905313"><ele>50.0</ele><time>2026-04-18T07:15:42.999Z</time></trkpt><trkpt lat="43.5385805263176" lon="10.7033946138203"><ele>50.00000000000001</ele><time>2026-04-18T07:15:43.999Z</time></trkpt><trkpt lat="43.538521878290624" lon="10.70332476621867"><ele>50.0</ele><time>2026-04-18T07:15:44.999Z</time></trkpt><trkpt lat="43.53845707267411" lon="10.703260709461363"><ele>50.333333333333336</ele><time>2026-04-18T07:15:45.999Z</time></trkpt><trkpt lat="43.53838375476829" lon="10.703204912789213"><ele>50.66666666666667</ele><time>2026-04-18T07:15:46.999Z</time></trkpt><trkpt lat="43.53831618775566" lon="10.703151280358197"><ele>51.0</ele><time>2026-04-18T07:15:47.999Z</time></trkpt><trkpt lat="43.53824979379346" lon="10.703099829222218"><ele>51.33333333333333</ele><time>2026-04-18T07:15:48.999Z</time></trkpt><trkpt lat="43.538189259994134" lon="10.70304084065569"><ele>51.666666666666664</ele><time>2026-04-18T07:15:49.999Z</time></trkpt><trkpt lat="43.538127971564926" lon="10.702985777186894"><ele>52.0</ele><time>2026-04-18T07:15:50.999Z</time></trkpt><trkpt lat="43.53806675609662" lon="10.702935036458998"><ele>52.0</ele><time>2026-04-18T07:15:51.999Z</time></trkpt><trkpt lat="43.538012489077126" lon="10.702878255494356"><ele>52.0</ele><time>2026-04-18T07:15:52.999Z</time></trkpt><trkpt lat="43.53795512943303" lon="10.702828203189531"><ele>52.0</ele><time>2026-04-18T07:15:53.999Z</time></trkpt><trkpt lat="43.537900137863666" lon="10.70278155120532"><ele>52.0</ele><time>2026-04-18T07:15:54.999Z</time></trkpt><trkpt lat="43.5378389559797" lon="10.70272924531013"><ele>52.0</ele><time>2026-04-18T07:15:55.999Z</time></trkpt><trkpt lat="43.53777100794947" lon="10.702672387405144"><ele>52.0</ele><time>2026-04-18T07:15:56.999Z</time></trkpt><trkpt lat="43.53770900642443" lon="10.702619572865741"><ele>52.0</ele><time>2026-04-18T07:15:57.999Z</time></trkpt><trkpt lat="43.537637687155915" lon="10.70250217753507"><ele>52.166666666666664</ele><time>2026-04-18T07:15:59.999Z</time></trkpt><trkpt lat="43.53760944642219" lon="10.702332154786616"><ele>52.33333333333333</ele><time>2026-04-18T07:16:01.999Z</time></trkpt><trkpt lat="43.53760474621917" lon="10.702240617150967"><ele>52.5</ele><time>2026-04-18T07:16:02.999Z</time></trkpt><trkpt lat="43.53759375587626" lon="10.702141126076215"><ele>52.66666666666667</ele><time>2026-04-18T07:16:03.999Z</time></trkpt><trkpt lat="43.53757844454877" lon="10.702039514760214"><ele>52.833333333333336</ele><time>2026-04-18T07:16:04.999Z</time></trkpt><trkpt lat="43.53756767723456" lon="10.701934063129281"><ele>53.0</ele><time>2026-04-18T07:16:05.999Z</time></trkpt><trkpt lat="43.537544802249066" lon="10.701828996295841"><ele>53.50000000000001</ele><time>2026-04-18T07:16:06.999Z</time></trkpt><trkpt lat="43.537531696078325" lon="10.70172330235714"><ele>54.0</ele><time>2026-04-18T07:16:07.999Z</time></trkpt><trkpt lat="43.53751461796994" lon="10.701611722362042"><ele>54.5</ele><time>2026-04-18T07:16:08.999Z</time></trkpt><trkpt lat="43.53749845783483" lon="10.70150133972172"><ele>55.0</ele><time>2026-04-18T07:16:09.999Z</time></trkpt><trkpt lat="43.537481913194014" lon="10.701387891595873"><ele>55.50000000000001</ele><time>2026-04-18T07:16:10.999Z</time></trkpt><trkpt lat="43.53746051432635" lon="10.701269781758242"><ele>56.0</ele><time>2026-04-18T07:16:11.999Z</time></trkpt><trkpt lat="43.537451418690345" lon="10.701172018170178"><ele>56.16666666666667</ele><time>2026-04-18T07:16:12.999Z</time></trkpt><trkpt lat="43.537430266808386" lon="10.701029164233605"><ele>56.333333333333336</ele><time>2026-04-18T07:16:14.999Z</time></trkpt><trkpt lat="43.53741694573546" lon="10.700913948861425"><ele>56.5</ele><time>2026-04-18T07:16:16.999Z</time></trkpt><trkpt lat="43.53740071765686" lon="10.700823517207548"><ele>56.66666666666667</ele><time>2026-04-18T07:16:19.999Z</time></trkpt><trkpt lat="43.53738322423161" lon="10.700729660380022"><ele>56.833333333333336</ele><time>2026-04-18T07:16:23.999Z</time></trkpt><trkpt lat="43.53741639175804" lon="10.700642522362834"><ele>57.0</ele><time>2026-04-18T07:16:30.999Z</time></trkpt><trkpt lat="43.53752804659465" lon="10.700626620210796"><ele>57.0</ele><time>2026-04-18T07:16:32.999Z</time></trkpt><trkpt lat="43.537617471554675" lon="10.700621762113764"><ele>57.0</ele><time>2026-04-18T07:16:33.999Z</time></trkpt><trkpt lat="43.5377123298256" lon="10.700601957393928"><ele>57.0</ele><time>2026-04-18T07:16:34.999Z</time></trkpt><trkpt lat="43.53781464726743" lon="10.700583088423809"><ele>57.0</ele><time>2026-04-18T07:16:35.999Z</time></trkpt><trkpt lat="43.53792758078492" lon="10.700572976910346"><ele>57.0</ele><time>2026-04-18T07:16:36.999Z</time></trkpt><trkpt lat="43.53804412176547" lon="10.70055838808821"><ele>57.0</ele><time>2026-04-18T07:16:37.999Z</time></trkpt><trkpt lat="43.538157326922295" lon="10.700540063609655"><ele>57.0</ele><time>2026-04-18T07:16:38.999Z</time></trkpt><trkpt lat="43.538256899141054" lon="10.700524599771326"><ele>57.0</ele><time>2026-04-18T07:16:39.999Z</time></trkpt><trkpt lat="43.53833976655246" lon="10.700515054142892"><ele>57.0</ele><time>2026-04-18T07:16:40.999Z</time></trkpt><trkpt lat="43.53841554195993" lon="10.700504414714844"><ele>57.0</ele><time>2026-04-18T07:16:41.999Z</time></trkpt><trkpt lat="43.53850062763224" lon="10.700492131578539"><ele>57.0</ele><time>2026-04-18T07:16:42.999Z</time></trkpt><trkpt lat="43.53860323522664" lon="10.70047310884432"><ele>57.0</ele><time>2026-04-18T07:16:43.998Z</time></trkpt><trkpt lat="43.53873933448109" lon="10.700456441688514"><ele>57.0</ele><time>2026-04-18T07:16:44.998Z</time></trkpt><trkpt lat="43.53889886259048" lon="10.700430808843619"><ele>57.0</ele><time>2026-04-18T07:16:45.998Z</time></trkpt><trkpt lat="43.53906283478784" lon="10.700428964841644"><ele>57.0</ele><time>2026-04-18T07:16:46.998Z</time></trkpt><trkpt lat="43.53925190273893" lon="10.700404672091901"><ele>57.0</ele><time>2026-04-18T07:16:47.998Z</time></trkpt><trkpt lat="43.53945462084628" lon="10.70033833500188"><ele>57.0</ele><time>2026-04-18T07:16:48.998Z</time></trkpt><trkpt lat="43.539659131232426" lon="10.700335105033645"><ele>57.0</ele><time>2026-04-18T07:16:49.998Z</time></trkpt><trkpt lat="43.54000808075163" lon="10.700307228303894"><ele>57.0</ele><time>2026-04-18T07:16:51.998Z</time></trkpt><trkpt lat="43.54017028016524" lon="10.70028116901354"><ele>57.0</ele><time>2026-04-18T07:16:52.998Z</time></trkpt><trkpt lat="43.54032949371624" lon="10.700257832263251"><ele>57.0</ele><time>2026-04-18T07:16:53.998Z</time></trkpt><trkpt lat="43.540494577818365" lon="10.7002301215271"><ele>57.0</ele><time>2026-04-18T07:16:54.998Z</time></trkpt><trkpt lat="43.54065435215529" lon="10.7002109547372"><ele>57.25</ele><time>2026-04-18T07:16:55.998Z</time></trkpt><trkpt lat="43.54080735529499" lon="10.700186709291085"><ele>57.5</ele><time>2026-04-18T07:16:56.998Z</time></trkpt><trkpt lat="43.54095704212962" lon="10.700163157038773"><ele>57.75</ele><time>2026-04-18T07:16:57.998Z</time></trkpt><trkpt lat="43.54109629432931" lon="10.70014017911711"><ele>58.0</ele><time>2026-04-18T07:16:58.998Z</time></trkpt><trkpt lat="43.54120795052173" lon="10.700118131984011"><ele>57.599999999999994</ele><time>2026-04-18T07:16:59.998Z</time></trkpt><trkpt lat="43.54127891640394" lon="10.70010580613989"><ele>57.199999999999996</ele><time>2026-04-18T07:17:00.998Z</time></trkpt><trkpt lat="43.54140008629786" lon="10.700087222723095"><ele>56.8</ele><time>2026-04-18T07:17:02.998Z</time></trkpt><trkpt lat="43.541485779939414" lon="10.700081991116662"><ele>56.4</ele><time>2026-04-18T07:17:03.998Z</time></trkpt><trkpt lat="43.54157620521002" lon="10.700098897550797"><ele>56.0</ele><time>2026-04-18T07:17:04.998Z</time></trkpt><trkpt lat="43.54165381383259" lon="10.70014954395335"><ele>56.0</ele><time>2026-04-18T07:17:05.998Z</time></trkpt><trkpt lat="43.54172516687832" lon="10.700207125544246"><ele>55.99999999999999</ele><time>2026-04-18T07:17:06.998Z</time></trkpt><trkpt lat="43.541785715084856" lon="10.700305312385444"><ele>55.99999999999999</ele><time>2026-04-18T07:17:07.998Z</time></trkpt><trkpt lat="43.5417687159227" lon="10.700511953264867"><ele>56.0</ele><time>2026-04-18T07:17:08.998Z</time></trkpt><trkpt lat="43.54178209300017" lon="10.70067510665418"><ele>56.0</ele><time>2026-04-18T07:17:09.998Z</time></trkpt><trkpt lat="43.54180567533163" lon="10.700853309432413"><ele>56.0</ele><time>2026-04-18T07:17:10.998Z</time></trkpt><trkpt lat="43.54183460511908" lon="10.701037277239331"><ele>56.0</ele><time>2026-04-18T07:17:11.998Z</time></trkpt><trkpt lat="43.541858334309126" lon="10.701202730839606"><ele>56.0</ele><time>2026-04-18T07:17:12.998Z</time></trkpt><trkpt lat="43.541880817102744" lon="10.701356212945399"><ele>56.0</ele><time>2026-04-18T07:17:13.998Z</time></trkpt><trkpt lat="43.54190509853821" lon="10.701510476176013"><ele>55.5</ele><time>2026-04-18T07:17:14.998Z</time></trkpt><trkpt lat="43.54193061944239" lon="10.70167115054386"><ele>55.0</ele><time>2026-04-18T07:17:15.998Z</time></trkpt><trkpt lat="43.54195884001696" lon="10.701850757904996"><ele>54.5</ele><time>2026-04-18T07:17:17Z</time></trkpt><trkpt lat="43.54198666194113" lon="10.70203861145801"><ele>54.0</ele><time>2026-04-18T07:17:18Z</time></trkpt><trkpt lat="43.54199349869658" lon="10.702225844039512"><ele>54.0</ele><time>2026-04-18T07:17:19Z</time></trkpt><trkpt lat="43.54203419004107" lon="10.702409561212962"><ele>54.0</ele><time>2026-04-18T07:17:20Z</time></trkpt><trkpt lat="43.54205514661972" lon="10.702608743776976"><ele>54.0</ele><time>2026-04-18T07:17:21Z</time></trkpt><trkpt lat="43.542078587543315" lon="10.702811725230514"><ele>54.0</ele><time>2026-04-18T07:17:22Z</time></trkpt><trkpt lat="43.54210446466662" lon="10.703021280313003"><ele>53.0</ele><time>2026-04-18T07:17:23Z</time></trkpt><trkpt lat="43.542133792696475" lon="10.703233535709531"><ele>52.0</ele><time>2026-04-18T07:17:24Z</time></trkpt><trkpt lat="43.54216385031127" lon="10.703450283589556"><ele>51.0</ele><time>2026-04-18T07:17:25Z</time></trkpt><trkpt lat="43.542192394305395" lon="10.703658298800264"><ele>51.0</ele><time>2026-04-18T07:17:26Z</time></trkpt><trkpt lat="43.54221956039785" lon="10.703861078688384"><ele>51.0</ele><time>2026-04-18T07:17:27Z</time></trkpt><trkpt lat="43.542246867285876" lon="10.70405909181969"><ele>51.0</ele><time>2026-04-18T07:17:28Z</time></trkpt><trkpt lat="43.54227402317556" lon="10.704256091485435"><ele>51.0</ele><time>2026-04-18T07:17:29Z</time></trkpt><trkpt lat="43.54230027184615" lon="10.704446708503337"><ele>50.5</ele><time>2026-04-18T07:17:30Z</time></trkpt><trkpt lat="43.542326688016644" lon="10.704626402968922"><ele>50.0</ele><time>2026-04-18T07:17:31Z</time></trkpt><trkpt lat="43.542355201255475" lon="10.704810935539854"><ele>49.5</ele><time>2026-04-18T07:17:32Z</time></trkpt><trkpt lat="43.542386021049445" lon="10.705002389448898"><ele>49.0</ele><time>2026-04-18T07:17:33Z</time></trkpt><trkpt lat="43.54239516207358" lon="10.705214087601078"><ele>49.33333333333333</ele><time>2026-04-18T07:17:34Z</time></trkpt><trkpt lat="43.54242494250233" lon="10.705434603424669"><ele>49.66666666666667</ele><time>2026-04-18T07:17:35Z</time></trkpt><trkpt lat="43.54247770751415" lon="10.70565163971756"><ele>50.0</ele><time>2026-04-18T07:17:36Z</time></trkpt><trkpt lat="43.54249926607333" lon="10.705886568033147"><ele>50.333333333333336</ele><time>2026-04-18T07:17:37Z</time></trkpt><trkpt lat="43.5425241618086" lon="10.70611701524787"><ele>50.66666666666667</ele><time>2026-04-18T07:17:38Z</time></trkpt><trkpt lat="43.54255402654905" lon="10.706348143851457"><ele>51.0</ele><time>2026-04-18T07:17:39Z</time></trkpt><trkpt lat="43.54258240974449" lon="10.706576239546514"><ele>51.0</ele><time>2026-04-18T07:17:40Z</time></trkpt><trkpt lat="43.54261234522238" lon="10.706800790895931"><ele>51.0</ele><time>2026-04-18T07:17:41Z</time></trkpt><trkpt lat="43.54264161458972" lon="10.707018210827922"><ele>51.0</ele><time>2026-04-18T07:17:42Z</time></trkpt><trkpt lat="43.54267344385452" lon="10.707241131122256"><ele>50.33333333333333</ele><time>2026-04-18T07:17:42.999Z</time></trkpt><trkpt lat="43.54270381075075" lon="10.707455764544012"><ele>49.666666666666664</ele><time>2026-04-18T07:17:43.999Z</time></trkpt><trkpt lat="43.54273355604946" lon="10.707673656662944"><ele>49.0</ele><time>2026-04-18T07:17:44.999Z</time></trkpt><trkpt lat="43.542765328990825" lon="10.707894469454697"><ele>49.0</ele><time>2026-04-18T07:17:45.999Z</time></trkpt><trkpt lat="43.54279620032794" lon="10.708121428359016"><ele>49.0</ele><time>2026-04-18T07:17:46.999Z</time></trkpt><trkpt lat="43.542822953713085" lon="10.70835200145123"><ele>49.0</ele><time>2026-04-18T07:17:47.999Z</time></trkpt><trkpt lat="43.54285525779167" lon="10.708588336393326"><ele>49.0</ele><time>2026-04-18T07:17:48.999Z</time></trkpt><trkpt lat="43.54288726702251" lon="10.708824519374128"><ele>49.0</ele><time>2026-04-18T07:17:49.999Z</time></trkpt><trkpt lat="43.54291925387135" lon="10.709066798129557"><ele>49.0</ele><time>2026-04-18T07:17:50.999Z</time></trkpt><trkpt lat="43.54295168807293" lon="10.709307474873313"><ele>48.666666666666664</ele><time>2026-04-18T07:17:51.999Z</time></trkpt><trkpt lat="43.54298377535823" lon="10.70955044786154"><ele>48.33333333333333</ele><time>2026-04-18T07:17:52.999Z</time></trkpt><trkpt lat="43.543019038631044" lon="10.709790110104093"><ele>48.0</ele><time>2026-04-18T07:17:53.999Z</time></trkpt><trkpt lat="43.543051860539414" lon="10.710041226679994"><ele>47.0</ele><time>2026-04-18T07:17:54.999Z</time></trkpt><trkpt lat="43.543087210199786" lon="10.710286769795875"><ele>46.0</ele><time>2026-04-18T07:17:55.999Z</time></trkpt><trkpt lat="43.543123737556805" lon="10.71053905504321"><ele>45.0</ele><time>2026-04-18T07:17:56.999Z</time></trkpt><trkpt lat="43.54315892466925" lon="10.710787087787246"><ele>45.0</ele><time>2026-04-18T07:17:57.999Z</time></trkpt><trkpt lat="43.54319592620937" lon="10.711050893146346"><ele>45.0</ele><time>2026-04-18T07:17:58.999Z</time></trkpt><trkpt lat="43.543231490652815" lon="10.711311577261558"><ele>45.0</ele><time>2026-04-18T07:17:59.999Z</time></trkpt><trkpt lat="43.54326338127067" lon="10.71155673147778"><ele>44.333333333333336</ele><time>2026-04-18T07:18:00.999Z</time></trkpt><trkpt lat="43.54329553980555" lon="10.711786166238879"><ele>43.66666666666667</ele><time>2026-04-18T07:18:01.999Z</time></trkpt><trkpt lat="43.54332436135221" lon="10.712020183207192"><ele>43.0</ele><time>2026-04-18T07:18:02.999Z</time></trkpt><trkpt lat="43.54335602934549" lon="10.712247674713591"><ele>43.0</ele><time>2026-04-18T07:18:03.999Z</time></trkpt><trkpt lat="43.54338359734079" lon="10.712475926044757"><ele>43.0</ele><time>2026-04-18T07:18:04.999Z</time></trkpt><trkpt lat="43.54341415968163" lon="10.71269664662632"><ele>43.0</ele><time>2026-04-18T07:18:05.999Z</time></trkpt><trkpt lat="43.5434448685382" lon="10.712912678652037"><ele>42.66666666666667</ele><time>2026-04-18T07:18:06.999Z</time></trkpt><trkpt lat="43.54347657653279" lon="10.713127656003019"><ele>42.333333333333336</ele><time>2026-04-18T07:18:07.999Z</time></trkpt><trkpt lat="43.54350655812918" lon="10.713345201901909"><ele>42.0</ele><time>2026-04-18T07:18:08.999Z</time></trkpt><trkpt lat="43.54353477538859" lon="10.713566141252336"><ele>41.666666666666664</ele><time>2026-04-18T07:18:09.999Z</time></trkpt><trkpt lat="43.54356419725386" lon="10.713786893535238"><ele>41.33333333333333</ele><time>2026-04-18T07:18:10.999Z</time></trkpt><trkpt lat="43.543590705226364" lon="10.713999980924937"><ele>41.0</ele><time>2026-04-18T07:18:11.999Z</time></trkpt><trkpt lat="43.54362182246514" lon="10.71420176251617"><ele>41.0</ele><time>2026-04-18T07:18:12.999Z</time></trkpt><trkpt lat="43.543645680005966" lon="10.714396115128052"><ele>41.0</ele><time>2026-04-18T07:18:13.999Z</time></trkpt><trkpt lat="43.543671666230246" lon="10.714570011677022"><ele>41.0</ele><time>2026-04-18T07:18:14.999Z</time></trkpt><trkpt lat="43.54369978719266" lon="10.714727880002524"><ele>41.0</ele><time>2026-04-18T07:18:15.999Z</time></trkpt><trkpt lat="43.54373287237649" lon="10.714862824543113"><ele>42.0</ele><time>2026-04-18T07:18:16.999Z</time></trkpt><trkpt lat="43.5437599497095" lon="10.71496978413308"><ele>43.0</ele><time>2026-04-18T07:18:17.999Z</time></trkpt><trkpt lat="43.5437611971354" lon="10.715113751646088"><ele>44.0</ele><time>2026-04-18T07:18:19.999Z</time></trkpt><trkpt lat="43.54367037472579" lon="10.7151414196362"><ele>45.0</ele><time>2026-04-18T07:18:22.999Z</time></trkpt><trkpt lat="43.54363324868193" lon="10.715040003517634"><ele>46.0</ele><time>2026-04-18T07:18:23.999Z</time></trkpt><trkpt lat="43.543627600441226" lon="10.714902390207989"><ele>46.0</ele><time>2026-04-18T07:18:24.999Z</time></trkpt><trkpt lat="43.54359470705577" lon="10.714755193712765"><ele>46.0</ele><time>2026-04-18T07:18:25.999Z</time></trkpt><trkpt lat="43.54354357352443" lon="10.714616562842913"><ele>46.0</ele><time>2026-04-18T07:18:26.999Z</time></trkpt><trkpt lat="43.54350057996105" lon="10.71446916194904"><ele>46.0</ele><time>2026-04-18T07:18:27.999Z</time></trkpt><trkpt lat="43.543459730815165" lon="10.714337993017821"><ele>46.0</ele><time>2026-04-18T07:18:28.999Z</time></trkpt><trkpt lat="43.543406079840715" lon="10.71424331037313"><ele>45.0</ele><time>2026-04-18T07:18:29.999Z</time></trkpt><trkpt lat="43.54333214900349" lon="10.714146712684245"><ele>44.0</ele><time>2026-04-18T07:18:30.999Z</time></trkpt><trkpt lat="43.54325280513637" lon="10.714085085120336"><ele>43.0</ele><time>2026-04-18T07:18:31.999Z</time></trkpt><trkpt lat="43.543166441270216" lon="10.714054018072115"><ele>42.0</ele><time>2026-04-18T07:18:32.999Z</time></trkpt><trkpt lat="43.54306569172017" lon="10.71403553850494"><ele>41.0</ele><time>2026-04-18T07:18:33.999Z</time></trkpt><trkpt lat="43.54296513624501" lon="10.714038345068921"><ele>41.0</ele><time>2026-04-18T07:18:34.999Z</time></trkpt><trkpt lat="43.54287787338191" lon="10.714023683184726"><ele>41.0</ele><time>2026-04-18T07:18:35.999Z</time></trkpt><trkpt lat="43.54277971297019" lon="10.714027941884991"><ele>41.0</ele><time>2026-04-18T07:18:36.999Z</time></trkpt><trkpt lat="43.54267358041022" lon="10.714033925730556"><ele>41.0</ele><time>2026-04-18T07:18:37.999Z</time></trkpt><trkpt lat="43.542557393688384" lon="10.714042411676088"><ele>41.0</ele><time>2026-04-18T07:18:38.999Z</time></trkpt><trkpt lat="43.542430272305495" lon="10.714072077233636"><ele>41.0</ele><time>2026-04-18T07:18:39.999Z</time></trkpt><trkpt lat="43.54231722261645" lon="10.71408599665976"><ele>41.0</ele><time>2026-04-18T07:18:40.999Z</time></trkpt><trkpt lat="43.54221894957426" lon="10.7140967938402"><ele>41.0</ele><time>2026-04-18T07:18:41.999Z</time></trkpt><trkpt lat="43.54212556053593" lon="10.714111033432506"><ele>41.0</ele><time>2026-04-18T07:18:42.999Z</time></trkpt><trkpt lat="43.54200702315687" lon="10.714120326531908"><ele>41.0</ele><time>2026-04-18T07:18:43.999Z</time></trkpt><trkpt lat="43.5418779043203" lon="10.71417102492912"><ele>40.75</ele><time>2026-04-18T07:18:44.999Z</time></trkpt><trkpt lat="43.54174868621176" lon="10.71419657523733"><ele>40.5</ele><time>2026-04-18T07:18:45.999Z</time></trkpt><trkpt lat="43.541636562779985" lon="10.714252961188192"><ele>40.25</ele><time>2026-04-18T07:18:46.999Z</time></trkpt><trkpt lat="43.54152111393427" lon="10.714300357277684"><ele>40.0</ele><time>2026-04-18T07:18:47.999Z</time></trkpt><trkpt lat="43.54140163897445" lon="10.714344024935953"><ele>40.0</ele><time>2026-04-18T07:18:48.998Z</time></trkpt><trkpt lat="43.541279483159066" lon="10.714365578870495"><ele>40.0</ele><time>2026-04-18T07:18:49.998Z</time></trkpt><trkpt lat="43.541170341677415" lon="10.714425915467034"><ele>40.0</ele><time>2026-04-18T07:18:50.998Z</time></trkpt><trkpt lat="43.54106525034421" lon="10.71444725172772"><ele>40.0</ele><time>2026-04-18T07:18:51.998Z</time></trkpt><trkpt lat="43.54097494163777" lon="10.714495147263754"><ele>40.0</ele><time>2026-04-18T07:18:52.998Z</time></trkpt><trkpt lat="43.54086254695294" lon="10.714505441983118"><ele>41.2</ele><time>2026-04-18T07:18:53.998Z</time></trkpt><trkpt lat="43.54074874618196" lon="10.7145113024254"><ele>42.4</ele><time>2026-04-18T07:18:54.998Z</time></trkpt><trkpt lat="43.540642870679065" lon="10.714531433160682"><ele>43.599999999999994</ele><time>2026-04-18T07:18:55.998Z</time></trkpt><trkpt lat="43.540538470048595" lon="10.714522107552598"><ele>44.8</ele><time>2026-04-18T07:18:56.998Z</time></trkpt><trkpt lat="43.5404412997693" lon="10.714538016473956"><ele>46.0</ele><time>2026-04-18T07:18:57.998Z</time></trkpt><trkpt lat="43.540342588807825" lon="10.714524452030856"><ele>47.199999999999996</ele><time>2026-04-18T07:18:58.998Z</time></trkpt><trkpt lat="43.54024630053124" lon="10.714518667927958"><ele>48.4</ele><time>2026-04-18T07:18:59.998Z</time></trkpt><trkpt lat="43.54015196382319" lon="10.714505642325141"><ele>49.6</ele><time>2026-04-18T07:19:00.998Z</time></trkpt><trkpt lat="43.54006568209829" lon="10.714490557950446"><ele>50.8</ele><time>2026-04-18T07:19:01.998Z</time></trkpt><trkpt lat="43.53997101789026" lon="10.714473456844216"><ele>52.0</ele><time>2026-04-18T07:19:02.998Z</time></trkpt><trkpt lat="43.53988661996298" lon="10.714451564060074"><ele>51.99999999999999</ele><time>2026-04-18T07:19:03.998Z</time></trkpt><trkpt lat="43.53979918729896" lon="10.714429833812044"><ele>52.0</ele><time>2026-04-18T07:19:04.998Z</time></trkpt><trkpt lat="43.53970731276711" lon="10.714415283842708"><ele>52.0</ele><time>2026-04-18T07:19:05.998Z</time></trkpt><trkpt lat="43.53963476161124" lon="10.714418109232692"><ele>52.0</ele><time>2026-04-18T07:19:06.998Z</time></trkpt><trkpt lat="43.53956666928294" lon="10.714438479609889"><ele>51.99999999999999</ele><time>2026-04-18T07:19:07.998Z</time></trkpt><trkpt lat="43.53951926325561" lon="10.71449817040351"><ele>52.0</ele><time>2026-04-18T07:19:08.998Z</time></trkpt><trkpt lat="43.539467572791224" lon="10.714560062325463"><ele>51.83333333333333</ele><time>2026-04-18T07:19:09.998Z</time></trkpt><trkpt lat="43.53940959268051" lon="10.714653359410454"><ele>51.666666666666664</ele><time>2026-04-18T07:19:10.998Z</time></trkpt><trkpt lat="43.539349653486546" lon="10.71475943663046"><ele>51.5</ele><time>2026-04-18T07:19:11.998Z</time></trkpt><trkpt lat="43.53929234261599" lon="10.714872618607746"><ele>51.33333333333333</ele><time>2026-04-18T07:19:12.998Z</time></trkpt><trkpt lat="43.539251183531064" lon="10.714946408075143"><ele>51.166666666666664</ele><time>2026-04-18T07:19:13.998Z</time></trkpt><trkpt lat="43.539157859760024" lon="10.714962055770247"><ele>51.0</ele><time>2026-04-18T07:19:15.998Z</time></trkpt><trkpt lat="43.53912732405395" lon="10.714885365806515"><ele>51.0</ele><time>2026-04-18T07:19:16.998Z</time></trkpt><trkpt lat="43.53908940356146" lon="10.714712864486396"><ele>51.0</ele><time>2026-04-18T07:19:18.998Z</time></trkpt><trkpt lat="43.53907411509633" lon="10.714592585574929"><ele>51.0</ele><time>2026-04-18T07:19:19.998Z</time></trkpt><trkpt lat="43.53902112705111" lon="10.714478894323296"><ele>51.0</ele><time>2026-04-18T07:19:20.998Z</time></trkpt><trkpt lat="43.5389577710679" lon="10.714371729991457"><ele>51.0</ele><time>2026-04-18T07:19:21.998Z</time></trkpt><trkpt lat="43.53888676962247" lon="10.714244541494605"><ele>49.4</ele><time>2026-04-18T07:19:23Z</time></trkpt><trkpt lat="43.53877668374292" lon="10.714137037971282"><ele>47.8</ele><time>2026-04-18T07:19:24Z</time></trkpt><trkpt lat="43.53868576653546" lon="10.714060873183213"><ele>46.199999999999996</ele><time>2026-04-18T07:19:25Z</time></trkpt><trkpt lat="43.53861499883581" lon="10.713992357059038"><ele>44.599999999999994</ele><time>2026-04-18T07:19:26Z</time></trkpt><trkpt lat="43.53856145344914" lon="10.713931456302042"><ele>43.0</ele><time>2026-04-18T07:19:27Z</time></trkpt><trkpt lat="43.538502497985355" lon="10.713860598556444"><ele>43.0</ele><time>2026-04-18T07:19:28Z</time></trkpt><trkpt lat="43.53844790132136" lon="10.713793020225111"><ele>43.0</ele><time>2026-04-18T07:19:29Z</time></trkpt><trkpt lat="43.5383996529493" lon="10.71373272412509"><ele>43.0</ele><time>2026-04-18T07:19:30Z</time></trkpt><trkpt lat="43.53835238291223" lon="10.713669491177367"><ele>43.0</ele><time>2026-04-18T07:19:31Z</time></trkpt><trkpt lat="43.53830002937378" lon="10.713554316441256"><ele>43.0</ele><time>2026-04-18T07:19:33Z</time></trkpt><trkpt lat="43.53829505319966" lon="10.713399735342888"><ele>43.0</ele><time>2026-04-18T07:19:35Z</time></trkpt><trkpt lat="43.53834031983284" lon="10.713259754856447"><ele>42.8</ele><time>2026-04-18T07:19:37Z</time></trkpt><trkpt lat="43.538284789846486" lon="10.713152983225896"><ele>42.599999999999994</ele><time>2026-04-18T07:19:39Z</time></trkpt><trkpt lat="43.538200692180794" lon="10.713095006256122"><ele>42.400000000000006</ele><time>2026-04-18T07:19:42Z</time></trkpt><trkpt lat="43.53813762798473" lon="10.713046148507775"><ele>42.2</ele><time>2026-04-18T07:19:43Z</time></trkpt><trkpt lat="43.53803704526255" lon="10.71294883164378"><ele>42.0</ele><time>2026-04-18T07:19:45Z</time></trkpt><trkpt lat="43.537976815581004" lon="10.712871439551376"><ele>42.0</ele><time>2026-04-18T07:19:46Z</time></trkpt><trkpt lat="43.53790546372845" lon="10.712787815269703"><ele>42.0</ele><time>2026-04-18T07:19:47Z</time></trkpt><trkpt lat="43.537825964316355" lon="10.712715756041252"><ele>42.0</ele><time>2026-04-18T07:19:47.999Z</time></trkpt><trkpt lat="43.537743360021054" lon="10.7126502031488"><ele>42.0</ele><time>2026-04-18T07:19:48.999Z</time></trkpt><trkpt lat="43.5376653346953" lon="10.712559155151377"><ele>42.0</ele><time>2026-04-18T07:19:49.999Z</time></trkpt><trkpt lat="43.53757731276863" lon="10.712470563173575"><ele>42.0</ele><time>2026-04-18T07:19:50.999Z</time></trkpt><trkpt lat="43.537485784015715" lon="10.712378441683072"><ele>42.0</ele><time>2026-04-18T07:19:51.999Z</time></trkpt><trkpt lat="43.5373999992436" lon="10.712292643912619"><ele>42.0</ele><time>2026-04-18T07:19:52.999Z</time></trkpt><trkpt lat="43.53731308703483" lon="10.71220675239369"><ele>42.0</ele><time>2026-04-18T07:19:53.999Z</time></trkpt><trkpt lat="43.537221780572025" lon="10.71211651820514"><ele>42.0</ele><time>2026-04-18T07:19:54.999Z</time></trkpt><trkpt lat="43.53714091903329" lon="10.71203713476235"><ele>42.0</ele><time>2026-04-18T07:19:55.999Z</time></trkpt><trkpt lat="43.53705827637976" lon="10.711984481772921"><ele>42.0</ele><time>2026-04-18T07:19:56.999Z</time></trkpt><trkpt lat="43.53699577444985" lon="10.711922403143527"><ele>42.0</ele><time>2026-04-18T07:19:57.999Z</time></trkpt><trkpt lat="43.53692127659927" lon="10.711867408697538"><ele>42.0</ele><time>2026-04-18T07:19:58.999Z</time></trkpt><trkpt lat="43.53683331462082" lon="10.711843541873417"><ele>42.0</ele><time>2026-04-18T07:19:59.999Z</time></trkpt><trkpt lat="43.53674701243023" lon="10.711812303265623"><ele>42.0</ele><time>2026-04-18T07:20:00.999Z</time></trkpt><trkpt lat="43.53665525749041" lon="10.711789575814992"><ele>42.0</ele><time>2026-04-18T07:20:01.999Z</time></trkpt><trkpt lat="43.53655857094846" lon="10.71177506281515"><ele>42.0</ele><time>2026-04-18T07:20:02.999Z</time></trkpt><trkpt lat="43.53647032549116" lon="10.711762160180708"><ele>42.0</ele><time>2026-04-18T07:20:03.999Z</time></trkpt><trkpt lat="43.536396099950096" lon="10.711749956782336"><ele>42.0</ele><time>2026-04-18T07:20:04.999Z</time></trkpt><trkpt lat="43.53632342181876" lon="10.711736973216084"><ele>42.0</ele><time>2026-04-18T07:20:05.999Z</time></trkpt><trkpt lat="43.53623928630104" lon="10.711709169190502"><ele>42.0</ele><time>2026-04-18T07:20:06.999Z</time></trkpt><trkpt lat="43.53615435870975" lon="10.711721123700503"><ele>41.833333333333336</ele><time>2026-04-18T07:20:07.999Z</time></trkpt><trkpt lat="43.536067496939275" lon="10.711705479912634"><ele>41.666666666666664</ele><time>2026-04-18T07:20:08.999Z</time></trkpt><trkpt lat="43.53597833646104" lon="10.711696031644296"><ele>41.5</ele><time>2026-04-18T07:20:09.999Z</time></trkpt><trkpt lat="43.53588946121078" lon="10.711681195994744"><ele>41.33333333333333</ele><time>2026-04-18T07:20:10.999Z</time></trkpt><trkpt lat="43.53580667586964" lon="10.711636071605106"><ele>41.166666666666664</ele><time>2026-04-18T07:20:11.999Z</time></trkpt><trkpt lat="43.53573317587504" lon="10.711610425227201"><ele>41.0</ele><time>2026-04-18T07:20:12.999Z</time></trkpt><trkpt lat="43.535659529574275" lon="10.711594268091988"><ele>41.0</ele><time>2026-04-18T07:20:13.999Z</time></trkpt><trkpt lat="43.53557865324463" lon="10.711558746561971"><ele>41.0</ele><time>2026-04-18T07:20:14.999Z</time></trkpt><trkpt lat="43.53549021493313" lon="10.711516231067451"><ele>41.0</ele><time>2026-04-18T07:20:15.999Z</time></trkpt><trkpt lat="43.535399258115504" lon="10.71147256528184"><ele>41.0</ele><time>2026-04-18T07:20:16.999Z</time></trkpt><trkpt lat="43.53530824423392" lon="10.71143519810598"><ele>41.0</ele><time>2026-04-18T07:20:17.999Z</time></trkpt><trkpt lat="43.53521910729538" lon="10.711388220550955"><ele>41.166666666666664</ele><time>2026-04-18T07:20:18.999Z</time></trkpt><trkpt lat="43.535134778803354" lon="10.711328000603682"><ele>41.33333333333333</ele><time>2026-04-18T07:20:19.999Z</time></trkpt><trkpt lat="43.53504298174935" lon="10.711304950150138"><ele>41.5</ele><time>2026-04-18T07:20:20.999Z</time></trkpt><trkpt lat="43.53496205404544" lon="10.711239632629443"><ele>41.666666666666664</ele><time>2026-04-18T07:20:21.999Z</time></trkpt><trkpt lat="43.534885265932274" lon="10.711199320318867"><ele>41.833333333333336</ele><time>2026-04-18T07:20:22.999Z</time></trkpt><trkpt lat="43.534809519586084" lon="10.711157746854987"><ele>42.0</ele><time>2026-04-18T07:20:23.999Z</time></trkpt><trkpt lat="43.53472468687472" lon="10.711110666421737"><ele>42.0</ele><time>2026-04-18T07:20:24.999Z</time></trkpt><trkpt lat="43.53465000468013" lon="10.711068863323975"><ele>42.0</ele><time>2026-04-18T07:20:25.999Z</time></trkpt><trkpt lat="43.534576166600864" lon="10.711027482614819"><ele>42.0</ele><time>2026-04-18T07:20:26.999Z</time></trkpt><trkpt lat="43.534445479445736" lon="10.710951709673605"><ele>42.0</ele><time>2026-04-18T07:20:28.999Z</time></trkpt><trkpt lat="43.534367021233514" lon="10.7109182802941"><ele>42.0</ele><time>2026-04-18T07:20:29.999Z</time></trkpt><trkpt lat="43.53426819890781" lon="10.710866880575312"><ele>42.0</ele><time>2026-04-18T07:20:31.999Z</time></trkpt><trkpt lat="43.5342045108242" lon="10.71100984274832"><ele>42.0</ele><time>2026-04-18T07:20:33.999Z</time></trkpt><trkpt lat="43.53418968720887" lon="10.71109581053519"><ele>42.0</ele><time>2026-04-18T07:20:34.999Z</time></trkpt><trkpt lat="43.534172479231515" lon="10.711206205685547"><ele>42.0</ele><time>2026-04-18T07:20:35.999Z</time></trkpt><trkpt lat="43.53414652836159" lon="10.711325399480543"><ele>42.0</ele><time>2026-04-18T07:20:36.999Z</time></trkpt><trkpt lat="43.5340983839215" lon="10.711426719259807"><ele>42.0</ele><time>2026-04-18T07:20:37.999Z</time></trkpt><trkpt lat="43.53406415023779" lon="10.711528808643992"><ele>41.8</ele><time>2026-04-18T07:20:38.999Z</time></trkpt><trkpt lat="43.53402978895396" lon="10.711608571130295"><ele>41.6</ele><time>2026-04-18T07:20:39.999Z</time></trkpt><trkpt lat="43.53400796768378" lon="10.711704590287498"><ele>41.4</ele><time>2026-04-18T07:20:40.999Z</time></trkpt><trkpt lat="43.53394633688819" lon="10.711802087255379"><ele>41.199999999999996</ele><time>2026-04-18T07:20:42.999Z</time></trkpt><trkpt lat="43.53390793925964" lon="10.71189768808806"><ele>41.0</ele><time>2026-04-18T07:20:44.999Z</time></trkpt><trkpt lat="43.533582008288924" lon="10.711873750463909"><ele>42.0</ele><time>2026-04-18T07:20:46.999Z</time></trkpt><trkpt lat="43.533470291829694" lon="10.71192346191179"><ele>43.0</ele><time>2026-04-18T07:20:47.999Z</time></trkpt><trkpt lat="43.533352788615005" lon="10.711970587914477"><ele>44.0</ele><time>2026-04-18T07:20:48.999Z</time></trkpt><trkpt lat="43.533227631616235" lon="10.712017213824115"><ele>45.0</ele><time>2026-04-18T07:20:49.999Z</time></trkpt><trkpt lat="43.53309821348427" lon="10.712064735176492"><ele>45.0</ele><time>2026-04-18T07:20:50.999Z</time></trkpt><trkpt lat="43.53296523884731" lon="10.712116421383818"><ele>45.0</ele><time>2026-04-18T07:20:51.999Z</time></trkpt><trkpt lat="43.53282777848606" lon="10.71216694484215"><ele>45.0</ele><time>2026-04-18T07:20:52.998Z</time></trkpt><trkpt lat="43.53268913814664" lon="10.71222124075307"><ele>45.0</ele><time>2026-04-18T07:20:53.998Z</time></trkpt><trkpt lat="43.532551798554984" lon="10.712274061790525"><ele>44.75</ele><time>2026-04-18T07:20:54.998Z</time></trkpt><trkpt lat="43.53241399049795" lon="10.712327264754265"><ele>44.5</ele><time>2026-04-18T07:20:55.998Z</time></trkpt><trkpt lat="43.53227851856796" lon="10.712382966065913"><ele>44.25</ele><time>2026-04-18T07:20:56.998Z</time></trkpt><trkpt lat="43.53214442912614" lon="10.712437151710583"><ele>44.0</ele><time>2026-04-18T07:20:57.998Z</time></trkpt><trkpt lat="43.53200768647455" lon="10.712492995277417"><ele>43.5</ele><time>2026-04-18T07:20:58.998Z</time></trkpt><trkpt lat="43.53187228401337" lon="10.712546365330716"><ele>43.0</ele><time>2026-04-18T07:20:59.998Z</time></trkpt><trkpt lat="43.531738808721755" lon="10.712600456048461"><ele>42.5</ele><time>2026-04-18T07:21:00.998Z</time></trkpt><trkpt lat="43.53160566304877" lon="10.712655248916757"><ele>42.0</ele><time>2026-04-18T07:21:01.998Z</time></trkpt><trkpt lat="43.53147017500969" lon="10.712712226644864"><ele>42.25</ele><time>2026-04-18T07:21:02.998Z</time></trkpt><trkpt lat="43.531338730644165" lon="10.712764202695487"><ele>42.5</ele><time>2026-04-18T07:21:03.998Z</time></trkpt><trkpt lat="43.53121623345221" lon="10.712814189149599"><ele>42.75</ele><time>2026-04-18T07:21:04.998Z</time></trkpt><trkpt lat="43.53110528500056" lon="10.712856585588575"><ele>43.0</ele><time>2026-04-18T07:21:05.998Z</time></trkpt><trkpt lat="43.53098501276196" lon="10.71290932235898"><ele>43.0</ele><time>2026-04-18T07:21:06.998Z</time></trkpt><trkpt lat="43.53084928280007" lon="10.71296607378913"><ele>43.0</ele><time>2026-04-18T07:21:07.998Z</time></trkpt><trkpt lat="43.530711880927896" lon="10.713028745973794"><ele>43.0</ele><time>2026-04-18T07:21:08.998Z</time></trkpt><trkpt lat="43.530568659188305" lon="10.713089682045295"><ele>43.0</ele><time>2026-04-18T07:21:09.998Z</time></trkpt><trkpt lat="43.530422644909045" lon="10.713151403136415"><ele>43.25</ele><time>2026-04-18T07:21:10.998Z</time></trkpt><trkpt lat="43.53027667125923" lon="10.713209877580296"><ele>43.5</ele><time>2026-04-18T07:21:11.998Z</time></trkpt><trkpt lat="43.53013371191881" lon="10.713263039482566"><ele>43.75</ele><time>2026-04-18T07:21:12.998Z</time></trkpt><trkpt lat="43.52999355762381" lon="10.713310933604824"><ele>44.0</ele><time>2026-04-18T07:21:13.998Z</time></trkpt><trkpt lat="43.52984978874044" lon="10.713371268170304"><ele>44.0</ele><time>2026-04-18T07:21:14.998Z</time></trkpt><trkpt lat="43.52970847033683" lon="10.713423845579284"><ele>44.0</ele><time>2026-04-18T07:21:15.998Z</time></trkpt><trkpt lat="43.52956783855282" lon="10.713481128411756"><ele>44.0</ele><time>2026-04-18T07:21:16.998Z</time></trkpt><trkpt lat="43.52942901490547" lon="10.713537099662618"><ele>44.0</ele><time>2026-04-18T07:21:17.998Z</time></trkpt><trkpt lat="43.52928623078649" lon="10.713589753979079"><ele>43.75</ele><time>2026-04-18T07:21:18.998Z</time></trkpt><trkpt lat="43.52914302379146" lon="10.713649161609208"><ele>43.5</ele><time>2026-04-18T07:21:19.998Z</time></trkpt><trkpt lat="43.52900460641436" lon="10.713700525314477"><ele>43.25</ele><time>2026-04-18T07:21:20.998Z</time></trkpt><trkpt lat="43.528863406384254" lon="10.713757816834054"><ele>43.0</ele><time>2026-04-18T07:21:21.998Z</time></trkpt><trkpt lat="43.52872807179225" lon="10.713813455867202"><ele>43.66666666666667</ele><time>2026-04-18T07:21:22.998Z</time></trkpt><trkpt lat="43.52858843839107" lon="10.713871322020601"><ele>44.333333333333336</ele><time>2026-04-18T07:21:23.998Z</time></trkpt><trkpt lat="43.528439941633835" lon="10.713929875607088"><ele>45.0</ele><time>2026-04-18T07:21:24.998Z</time></trkpt><trkpt lat="43.52828855731851" lon="10.713989030059345"><ele>45.0</ele><time>2026-04-18T07:21:25.998Z</time></trkpt><trkpt lat="43.528136494268864" lon="10.714048369005814"><ele>45.0</ele><time>2026-04-18T07:21:26.998Z</time></trkpt><trkpt lat="43.52798361110332" lon="10.714109303074755"><ele>45.0</ele><time>2026-04-18T07:21:27.998Z</time></trkpt><trkpt lat="43.52782690266737" lon="10.71416995944053"><ele>45.0</ele><time>2026-04-18T07:21:29Z</time></trkpt><trkpt lat="43.52767086951889" lon="10.714232814770014"><ele>45.0</ele><time>2026-04-18T07:21:30Z</time></trkpt><trkpt lat="43.527513054315286" lon="10.714299662738961"><ele>45.0</ele><time>2026-04-18T07:21:31Z</time></trkpt><trkpt lat="43.527353820316975" lon="10.714363552066791"><ele>47.33333333333333</ele><time>2026-04-18T07:21:32Z</time></trkpt><trkpt lat="43.52719791931596" lon="10.714427489036533"><ele>49.666666666666664</ele><time>2026-04-18T07:21:33Z</time></trkpt><trkpt lat="43.52703869401534" lon="10.71449065148584"><ele>52.0</ele><time>2026-04-18T07:21:34Z</time></trkpt><trkpt lat="43.526884623459836" lon="10.714553725852413"><ele>52.0</ele><time>2026-04-18T07:21:35Z</time></trkpt><trkpt lat="43.52673051879927" lon="10.714615001474035"><ele>52.0</ele><time>2026-04-18T07:21:36Z</time></trkpt><trkpt lat="43.526585912477735" lon="10.714674784807231"><ele>52.0</ele><time>2026-04-18T07:21:37Z</time></trkpt><trkpt lat="43.52644146817493" lon="10.714733175678852"><ele>52.0</ele><time>2026-04-18T07:21:38Z</time></trkpt><trkpt lat="43.526293519927144" lon="10.714796941116285"><ele>52.0</ele><time>2026-04-18T07:21:39Z</time></trkpt><trkpt lat="43.52614625859495" lon="10.714860060867979"><ele>52.0</ele><time>2026-04-18T07:21:40Z</time></trkpt><trkpt lat="43.52600082328807" lon="10.71492116752551"><ele>50.5</ele><time>2026-04-18T07:21:41Z</time></trkpt><trkpt lat="43.525851966860984" lon="10.714973401837076"><ele>49.0</ele><time>2026-04-18T07:21:42Z</time></trkpt><trkpt lat="43.52571226312008" lon="10.71502763341286"><ele>47.5</ele><time>2026-04-18T07:21:43Z</time></trkpt><trkpt lat="43.52556964575311" lon="10.715081174046688"><ele>46.0</ele><time>2026-04-18T07:21:44Z</time></trkpt><trkpt lat="43.525418804783705" lon="10.715140023667209"><ele>45.5</ele><time>2026-04-18T07:21:45Z</time></trkpt><trkpt lat="43.5252833286959" lon="10.715195440903267"><ele>45.0</ele><time>2026-04-18T07:21:46Z</time></trkpt><trkpt lat="43.52516093269791" lon="10.71524464940576"><ele>44.5</ele><time>2026-04-18T07:21:47Z</time></trkpt><trkpt lat="43.52504492673746" lon="10.715295624045027"><ele>44.0</ele><time>2026-04-18T07:21:48Z</time></trkpt><trkpt lat="43.52494788221827" lon="10.715341990145918"><ele>44.666666666666664</ele><time>2026-04-18T07:21:49Z</time></trkpt><trkpt lat="43.524864061267834" lon="10.715372010900433"><ele>45.33333333333333</ele><time>2026-04-18T07:21:50Z</time></trkpt><trkpt lat="43.52478899854765" lon="10.715387292319871"><ele>46.0</ele><time>2026-04-18T07:21:51Z</time></trkpt><trkpt lat="43.52472722638648" lon="10.715407960722745"><ele>46.666666666666664</ele><time>2026-04-18T07:21:51.999Z</time></trkpt><trkpt lat="43.52464497443479" lon="10.715539610856885"><ele>47.333333333333336</ele><time>2026-04-18T07:21:53.999Z</time></trkpt><trkpt lat="43.524619612230495" lon="10.715639774009585"><ele>48.0</ele><time>2026-04-18T07:21:54.999Z</time></trkpt><trkpt lat="43.52459657564286" lon="10.715769216107587"><ele>48.0</ele><time>2026-04-18T07:21:55.999Z</time></trkpt><trkpt lat="43.52458038514444" lon="10.715922030040732"><ele>48.0</ele><time>2026-04-18T07:21:56.999Z</time></trkpt><trkpt lat="43.52457250766772" lon="10.716075344679087"><ele>48.0</ele><time>2026-04-18T07:21:57.999Z</time></trkpt><trkpt lat="43.52457333169741" lon="10.716204209741466"><ele>48.0</ele><time>2026-04-18T07:21:58.999Z</time></trkpt><trkpt lat="43.524577262345964" lon="10.716309065498745"><ele>48.0</ele><time>2026-04-18T07:21:59.999Z</time></trkpt><trkpt lat="43.52457240841628" lon="10.7164348077965"><ele>47.0</ele><time>2026-04-18T07:22:00.999Z</time></trkpt><trkpt lat="43.524555151262774" lon="10.71658457675229"><ele>46.0</ele><time>2026-04-18T07:22:01.999Z</time></trkpt><trkpt lat="43.52452577472956" lon="10.716742162335496"><ele>45.0</ele><time>2026-04-18T07:22:02.999Z</time></trkpt><trkpt lat="43.52448589214783" lon="10.71690239748609"><ele>44.0</ele><time>2026-04-18T07:22:03.999Z</time></trkpt><trkpt lat="43.524432243867516" lon="10.717058923960959"><ele>44.0</ele><time>2026-04-18T07:22:04.999Z</time></trkpt><trkpt lat="43.52436975181531" lon="10.717217619395328"><ele>44.0</ele><time>2026-04-18T07:22:05.999Z</time></trkpt><trkpt lat="43.52431468196084" lon="10.717381187227987"><ele>44.0</ele><time>2026-04-18T07:22:06.999Z</time></trkpt><trkpt lat="43.52425958057236" lon="10.717539301490477"><ele>44.0</ele><time>2026-04-18T07:22:07.999Z</time></trkpt><trkpt lat="43.52421010278251" lon="10.717698056805132"><ele>44.75</ele><time>2026-04-18T07:22:08.999Z</time></trkpt><trkpt lat="43.52416467449356" lon="10.717857253600682"><ele>45.5</ele><time>2026-04-18T07:22:09.999Z</time></trkpt><trkpt lat="43.524123636006145" lon="10.718017150313903"><ele>46.25</ele><time>2026-04-18T07:22:10.999Z</time></trkpt><trkpt lat="43.52409307780154" lon="10.718160687631473"><ele>47.0</ele><time>2026-04-18T07:22:11.999Z</time></trkpt><trkpt lat="43.52405779269932" lon="10.718308623007891"><ele>47.0</ele><time>2026-04-18T07:22:12.999Z</time></trkpt><trkpt lat="43.52402230284606" lon="10.718471631019042"><ele>47.0</ele><time>2026-04-18T07:22:13.999Z</time></trkpt><trkpt lat="43.52397932656133" lon="10.718640915345324"><ele>47.0</ele><time>2026-04-18T07:22:14.999Z</time></trkpt><trkpt lat="43.52393134697796" lon="10.71880611596871"><ele>47.0</ele><time>2026-04-18T07:22:15.999Z</time></trkpt><trkpt lat="43.52388197931612" lon="10.718964624123291"><ele>47.25</ele><time>2026-04-18T07:22:16.999Z</time></trkpt><trkpt lat="43.523828093664164" lon="10.719122496968868"><ele>47.5</ele><time>2026-04-18T07:22:17.999Z</time></trkpt><trkpt lat="43.52378335600335" lon="10.719265214016687"><ele>47.75</ele><time>2026-04-18T07:22:18.999Z</time></trkpt><trkpt lat="43.5237503546437" lon="10.719407014493973"><ele>48.0</ele><time>2026-04-18T07:22:19.999Z</time></trkpt><trkpt lat="43.52372146756427" lon="10.719550389921594"><ele>47.25</ele><time>2026-04-18T07:22:20.999Z</time></trkpt><trkpt lat="43.523675503840806" lon="10.719692495500448"><ele>46.5</ele><time>2026-04-18T07:22:21.999Z</time></trkpt><trkpt lat="43.52362183286892" lon="10.719836290360593"><ele>45.75</ele><time>2026-04-18T07:22:22.999Z</time></trkpt><trkpt lat="43.52356327202953" lon="10.720003818595403"><ele>45.0</ele><time>2026-04-18T07:22:23.999Z</time></trkpt><trkpt lat="43.52350625752433" lon="10.720158930177586"><ele>45.25</ele><time>2026-04-18T07:22:24.999Z</time></trkpt><trkpt lat="43.52344328636087" lon="10.720300010585083"><ele>45.5</ele><time>2026-04-18T07:22:25.999Z</time></trkpt><trkpt lat="43.52337820443317" lon="10.720451119756328"><ele>45.75</ele><time>2026-04-18T07:22:26.999Z</time></trkpt><trkpt lat="43.52333547977087" lon="10.7206115618756"><ele>46.0</ele><time>2026-04-18T07:22:27.999Z</time></trkpt><trkpt lat="43.52330834582498" lon="10.720775031827838"><ele>46.0</ele><time>2026-04-18T07:22:28.999Z</time></trkpt><trkpt lat="43.52328254553583" lon="10.720941629822581"><ele>46.0</ele><time>2026-04-18T07:22:29.999Z</time></trkpt><trkpt lat="43.52324824128084" lon="10.721108538873795"><ele>46.0</ele><time>2026-04-18T07:22:30.999Z</time></trkpt><trkpt lat="43.52320350442837" lon="10.721271826584086"><ele>46.0</ele><time>2026-04-18T07:22:31.999Z</time></trkpt><trkpt lat="43.52315845539761" lon="10.721404141721798"><ele>46.0</ele><time>2026-04-18T07:22:32.999Z</time></trkpt><trkpt lat="43.523103011645375" lon="10.721533211734338"><ele>46.0</ele><time>2026-04-18T07:22:33.999Z</time></trkpt><trkpt lat="43.52303523225869" lon="10.721676577815167"><ele>46.0</ele><time>2026-04-18T07:22:34.999Z</time></trkpt><trkpt lat="43.52296378683886" lon="10.721808337169621"><ele>46.0</ele><time>2026-04-18T07:22:35.999Z</time></trkpt><trkpt lat="43.52290105627765" lon="10.72191778187186"><ele>46.8</ele><time>2026-04-18T07:22:36.999Z</time></trkpt><trkpt lat="43.522834022852244" lon="10.722029383694215"><ele>47.599999999999994</ele><time>2026-04-18T07:22:37.999Z</time></trkpt><trkpt lat="43.522769052629684" lon="10.722142483857297"><ele>48.4</ele><time>2026-04-18T07:22:38.999Z</time></trkpt><trkpt lat="43.52270870845072" lon="10.72225407453546"><ele>49.2</ele><time>2026-04-18T07:22:39.999Z</time></trkpt><trkpt lat="43.5226372601638" lon="10.722363292307888"><ele>50.0</ele><time>2026-04-18T07:22:40.999Z</time></trkpt><trkpt lat="43.52253427300095" lon="10.722472142010838"><ele>50.0</ele><time>2026-04-18T07:22:41.999Z</time></trkpt><trkpt lat="43.52242647370832" lon="10.722572160247271"><ele>50.0</ele><time>2026-04-18T07:22:42.999Z</time></trkpt><trkpt lat="43.522348117353474" lon="10.722648977243594"><ele>50.0</ele><time>2026-04-18T07:22:43.999Z</time></trkpt><trkpt lat="43.52226335175772" lon="10.722750205728703"><ele>50.0</ele><time>2026-04-18T07:22:44.999Z</time></trkpt><trkpt lat="43.52215513248497" lon="10.722849990259846"><ele>50.0</ele><time>2026-04-18T07:22:45.999Z</time></trkpt><trkpt lat="43.522042451251764" lon="10.722944203472272"><ele>50.0</ele><time>2026-04-18T07:22:46.999Z</time></trkpt><trkpt lat="43.521948401411485" lon="10.723024241855482"><ele>50.0</ele><time>2026-04-18T07:22:47.999Z</time></trkpt><trkpt lat="43.521866378240645" lon="10.723087654922143"><ele>50.0</ele><time>2026-04-18T07:22:48.999Z</time></trkpt><trkpt lat="43.521771770639006" lon="10.72316492703561"><ele>50.0</ele><time>2026-04-18T07:22:49.999Z</time></trkpt><trkpt lat="43.521666039055894" lon="10.723258312211462"><ele>50.0</ele><time>2026-04-18T07:22:50.999Z</time></trkpt><trkpt lat="43.521575096400134" lon="10.723344362046095"><ele>50.0</ele><time>2026-04-18T07:22:51.999Z</time></trkpt><trkpt lat="43.52147569462532" lon="10.723484966769451"><ele>50.0</ele><time>2026-04-18T07:22:52.999Z</time></trkpt><trkpt lat="43.5213922713168" lon="10.72360182525383"><ele>50.0</ele><time>2026-04-18T07:22:53.999Z</time></trkpt><trkpt lat="43.52132701612557" lon="10.723712862929276"><ele>49.75</ele><time>2026-04-18T07:22:54.999Z</time></trkpt><trkpt lat="43.52126367687405" lon="10.723831744322986"><ele>49.5</ele><time>2026-04-18T07:22:55.999Z</time></trkpt><trkpt lat="43.52119215248162" lon="10.723959420887823"><ele>49.25</ele><time>2026-04-18T07:22:56.998Z</time></trkpt><trkpt lat="43.521125123702596" lon="10.724101914583434"><ele>49.0</ele><time>2026-04-18T07:22:57.998Z</time></trkpt><trkpt lat="43.52104434193093" lon="10.724247109484466"><ele>48.800000000000004</ele><time>2026-04-18T07:22:58.998Z</time></trkpt><trkpt lat="43.52094709921649" lon="10.724386384529785"><ele>48.6</ele><time>2026-04-18T07:22:59.998Z</time></trkpt><trkpt lat="43.52086458434928" lon="10.724507359651586"><ele>48.4</ele><time>2026-04-18T07:23:00.998Z</time></trkpt><trkpt lat="43.52080410755262" lon="10.724604332612074"><ele>48.2</ele><time>2026-04-18T07:23:01.998Z</time></trkpt><trkpt lat="43.52076987458441" lon="10.724703895123739"><ele>48.0</ele><time>2026-04-18T07:23:02.998Z</time></trkpt><trkpt lat="43.520755545203684" lon="10.724813967279626"><ele>48.0</ele><time>2026-04-18T07:23:03.998Z</time></trkpt><trkpt lat="43.52075943347476" lon="10.724923561893897"><ele>48.0</ele><time>2026-04-18T07:23:04.998Z</time></trkpt><trkpt lat="43.52077409126701" lon="10.725064174523625"><ele>48.0</ele><time>2026-04-18T07:23:05.998Z</time></trkpt><trkpt lat="43.52079363931491" lon="10.72522369153714"><ele>48.0</ele><time>2026-04-18T07:23:06.998Z</time></trkpt><trkpt lat="43.520806121222165" lon="10.725391154798416"><ele>48.0</ele><time>2026-04-18T07:23:07.998Z</time></trkpt><trkpt lat="43.52081417568215" lon="10.725536628320324"><ele>48.25</ele><time>2026-04-18T07:23:08.998Z</time></trkpt><trkpt lat="43.520836394637925" lon="10.725684160847495"><ele>48.5</ele><time>2026-04-18T07:23:09.998Z</time></trkpt><trkpt lat="43.52087135082554" lon="10.725846613883412"><ele>48.75</ele><time>2026-04-18T07:23:10.998Z</time></trkpt><trkpt lat="43.52091892415191" lon="10.726005889508134"><ele>49.0</ele><time>2026-04-18T07:23:11.998Z</time></trkpt><trkpt lat="43.52095559424214" lon="10.726141061288224"><ele>49.33333333333333</ele><time>2026-04-18T07:23:12.998Z</time></trkpt><trkpt lat="43.52098308869008" lon="10.72624507446163"><ele>49.666666666666664</ele><time>2026-04-18T07:23:13.998Z</time></trkpt><trkpt lat="43.52095305989234" lon="10.72635476809031"><ele>50.0</ele><time>2026-04-18T07:23:15.998Z</time></trkpt><trkpt lat="43.5208928261057" lon="10.726401698285216"><ele>50.33333333333333</ele><time>2026-04-18T07:23:16.998Z</time></trkpt><trkpt lat="43.52081723225069" lon="10.726461084208301"><ele>50.666666666666664</ele><time>2026-04-18T07:23:17.998Z</time></trkpt><trkpt lat="43.52074038631475" lon="10.726530937035891"><ele>51.0</ele><time>2026-04-18T07:23:18.998Z</time></trkpt><trkpt lat="43.52067195431247" lon="10.726588630720546"><ele>51.0</ele><time>2026-04-18T07:23:19.998Z</time></trkpt><trkpt lat="43.520600245540614" lon="10.726624539646977"><ele>51.0</ele><time>2026-04-18T07:23:20.998Z</time></trkpt><trkpt lat="43.52051314470199" lon="10.726671255925588"><ele>51.0</ele><time>2026-04-18T07:23:21.998Z</time></trkpt><trkpt lat="43.52041861893523" lon="10.726728758471392"><ele>51.0</ele><time>2026-04-18T07:23:22.998Z</time></trkpt><trkpt lat="43.520318245482265" lon="10.726815437451918"><ele>51.0</ele><time>2026-04-18T07:23:23.998Z</time></trkpt><trkpt lat="43.520217777502666" lon="10.726910000047546"><ele>51.0</ele><time>2026-04-18T07:23:24.998Z</time></trkpt><trkpt lat="43.52011584755367" lon="10.72700294497882"><ele>51.0</ele><time>2026-04-18T07:23:25.998Z</time></trkpt><trkpt lat="43.52001809664019" lon="10.727092539488622"><ele>51.0</ele><time>2026-04-18T07:23:26.998Z</time></trkpt><trkpt lat="43.51992978106602" lon="10.727168784498826"><ele>51.0</ele><time>2026-04-18T07:23:27.998Z</time></trkpt><trkpt lat="43.519832677730996" lon="10.727250110172198"><ele>51.0</ele><time>2026-04-18T07:23:28.998Z</time></trkpt><trkpt lat="43.519754666041536" lon="10.727332069174855"><ele>51.0</ele><time>2026-04-18T07:23:29.998Z</time></trkpt><trkpt lat="43.5197084739429" lon="10.727417734166309"><ele>51.0</ele><time>2026-04-18T07:23:30.998Z</time></trkpt><trkpt lat="43.51968622728177" lon="10.727515822806726"><ele>51.0</ele><time>2026-04-18T07:23:31.998Z</time></trkpt><trkpt lat="43.51966408482034" lon="10.72762487587463"><ele>51.0</ele><time>2026-04-18T07:23:32.998Z</time></trkpt><trkpt lat="43.51964702656431" lon="10.72773492095924"><ele>51.0</ele><time>2026-04-18T07:23:33.998Z</time></trkpt><trkpt lat="43.519643834727766" lon="10.727833156649805"><ele>52.0</ele><time>2026-04-18T07:23:35Z</time></trkpt><trkpt lat="43.51965055929878" lon="10.727987278930703"><ele>53.0</ele><time>2026-04-18T07:23:37Z</time></trkpt><trkpt lat="43.51964470291723" lon="10.728090822396576"><ele>53.99999999999999</ele><time>2026-04-18T07:23:38Z</time></trkpt><trkpt lat="43.51963205489723" lon="10.728239879061308"><ele>55.0</ele><time>2026-04-18T07:23:39Z</time></trkpt><trkpt lat="43.51962248424644" lon="10.728373064099191"><ele>56.0</ele><time>2026-04-18T07:23:40Z</time></trkpt><trkpt lat="43.51962274060253" lon="10.728493804735088"><ele>56.8</ele><time>2026-04-18T07:23:41Z</time></trkpt><trkpt lat="43.5196006564741" lon="10.728616914581508"><ele>57.599999999999994</ele><time>2026-04-18T07:23:42Z</time></trkpt><trkpt lat="43.51959301825836" lon="10.728704112349272"><ele>58.4</ele><time>2026-04-18T07:23:43Z</time></trkpt><trkpt lat="43.519616354900506" lon="10.72889851149076"><ele>59.2</ele><time>2026-04-18T07:23:45Z</time></trkpt><trkpt lat="43.519634296607286" lon="10.729019828494804"><ele>60.0</ele><time>2026-04-18T07:23:46Z</time></trkpt><trkpt lat="43.51964684147571" lon="10.729127192688248"><ele>60.0</ele><time>2026-04-18T07:23:47Z</time></trkpt><trkpt lat="43.51966049517829" lon="10.729230401623147"><ele>60.0</ele><time>2026-04-18T07:23:48Z</time></trkpt><trkpt lat="43.51967116586329" lon="10.729347501681632"><ele>60.0</ele><time>2026-04-18T07:23:49Z</time></trkpt><trkpt lat="43.519683545583796" lon="10.729460341110178"><ele>60.0</ele><time>2026-04-18T07:23:50Z</time></trkpt><trkpt lat="43.51969947655486" lon="10.729569744239734"><ele>60.0</ele><time>2026-04-18T07:23:51Z</time></trkpt><trkpt lat="43.519705730789035" lon="10.72967169433133"><ele>60.0</ele><time>2026-04-18T07:23:52Z</time></trkpt><trkpt lat="43.51969123496076" lon="10.729766552631192"><ele>60.333333333333336</ele><time>2026-04-18T07:23:53Z</time></trkpt><trkpt lat="43.51965589646116" lon="10.729869169798551"><ele>60.66666666666667</ele><time>2026-04-18T07:23:54Z</time></trkpt><trkpt lat="43.519632444622" lon="10.729954533850044"><ele>61.0</ele><time>2026-04-18T07:23:55Z</time></trkpt><trkpt lat="43.51960201236702" lon="10.730046353448804"><ele>61.333333333333336</ele><time>2026-04-18T07:23:56Z</time></trkpt><trkpt lat="43.51957234008076" lon="10.73015643106021"><ele>61.66666666666667</ele><time>2026-04-18T07:23:56.999Z</time></trkpt><trkpt lat="43.51956616363836" lon="10.73024748245911"><ele>62.0</ele><time>2026-04-18T07:23:57.999Z</time></trkpt><trkpt lat="43.51960335384121" lon="10.730442349194476"><ele>62.833333333333336</ele><time>2026-04-18T07:23:59.999Z</time></trkpt><trkpt lat="43.51962857318935" lon="10.730546282264084"><ele>63.66666666666667</ele><time>2026-04-18T07:24:00.999Z</time></trkpt><trkpt lat="43.51963520474745" lon="10.730667966712893"><ele>64.5</ele><time>2026-04-18T07:24:01.999Z</time></trkpt><trkpt lat="43.51964021415313" lon="10.730780936480732"><ele>65.33333333333333</ele><time>2026-04-18T07:24:02.999Z</time></trkpt><trkpt lat="43.51964404453967" lon="10.730883611379799"><ele>66.16666666666666</ele><time>2026-04-18T07:24:03.999Z</time></trkpt><trkpt lat="43.51965390787577" lon="10.730973386213257"><ele>67.0</ele><time>2026-04-18T07:24:04.999Z</time></trkpt><trkpt lat="43.51966528432731" lon="10.731076108970768"><ele>69.0</ele><time>2026-04-18T07:24:05.999Z</time></trkpt><trkpt lat="43.51966274062748" lon="10.73118132426247"><ele>71.0</ele><time>2026-04-18T07:24:06.999Z</time></trkpt><trkpt lat="43.5196614480523" lon="10.731275508845618"><ele>73.0</ele><time>2026-04-18T07:24:07.999Z</time></trkpt><trkpt lat="43.51968359579005" lon="10.73144657033029"><ele>75.0</ele><time>2026-04-18T07:24:09.999Z</time></trkpt><trkpt lat="43.51969005235689" lon="10.73156334434839"><ele>77.0</ele><time>2026-04-18T07:24:11.999Z</time></trkpt><trkpt lat="43.51972723728277" lon="10.731659806783936"><ele>79.0</ele><time>2026-04-18T07:24:13.999Z</time></trkpt><trkpt lat="43.51975162232793" lon="10.731754085219524"><ele>79.0</ele><time>2026-04-18T07:24:15.999Z</time></trkpt><trkpt lat="43.51979216459125" lon="10.731876939601815"><ele>79.0</ele><time>2026-04-18T07:24:17.999Z</time></trkpt><trkpt lat="43.51982529104344" lon="10.732036708206765"><ele>79.0</ele><time>2026-04-18T07:24:19.999Z</time></trkpt><trkpt lat="43.519851619584145" lon="10.73212085906749"><ele>79.0</ele><time>2026-04-18T07:24:20.999Z</time></trkpt><trkpt lat="43.5198717706952" lon="10.732220504822047"><ele>79.0</ele><time>2026-04-18T07:24:21.999Z</time></trkpt><trkpt lat="43.51988456024586" lon="10.732309303116953"><ele>79.0</ele><time>2026-04-18T07:24:22.999Z</time></trkpt><trkpt lat="43.519879380440734" lon="10.732459118639312"><ele>80.16666666666666</ele><time>2026-04-18T07:24:24.999Z</time></trkpt><trkpt lat="43.519879954637176" lon="10.732559016164764"><ele>81.33333333333333</ele><time>2026-04-18T07:24:25.999Z</time></trkpt><trkpt lat="43.5198690206015" lon="10.732660634432309"><ele>82.5</ele><time>2026-04-18T07:24:26.999Z</time></trkpt><trkpt lat="43.519848091541654" lon="10.73276028052628"><ele>83.66666666666667</ele><time>2026-04-18T07:24:27.999Z</time></trkpt><trkpt lat="43.51984011848976" lon="10.732940731356535"><ele>84.83333333333334</ele><time>2026-04-18T07:24:29.999Z</time></trkpt><trkpt lat="43.51985113894084" lon="10.733036659509974"><ele>86.0</ele><time>2026-04-18T07:24:30.999Z</time></trkpt><trkpt lat="43.5198646240358" lon="10.733142245414852"><ele>87.66666666666667</ele><time>2026-04-18T07:24:31.999Z</time></trkpt><trkpt lat="43.51987191222898" lon="10.733243198631989"><ele>89.33333333333334</ele><time>2026-04-18T07:24:32.999Z</time></trkpt><trkpt lat="43.51987437824971" lon="10.73335246339548"><ele>91.0</ele><time>2026-04-18T07:24:33.999Z</time></trkpt><trkpt lat="43.51987966423265" lon="10.733465078905775"><ele>92.66666666666667</ele><time>2026-04-18T07:24:34.999Z</time></trkpt><trkpt lat="43.51987934608499" lon="10.733573170999149"><ele>94.33333333333333</ele><time>2026-04-18T07:24:35.999Z</time></trkpt><trkpt lat="43.51986401411876" lon="10.73368609267387"><ele>96.0</ele><time>2026-04-18T07:24:36.999Z</time></trkpt><trkpt lat="43.51983505399257" lon="10.733798650348604"><ele>96.33333333333333</ele><time>2026-04-18T07:24:37.999Z</time></trkpt><trkpt lat="43.51981867715955" lon="10.733917435164189"><ele>96.66666666666666</ele><time>2026-04-18T07:24:38.999Z</time></trkpt><trkpt lat="43.51981344698596" lon="10.734048195216692"><ele>97.0</ele><time>2026-04-18T07:24:39.999Z</time></trkpt><trkpt lat="43.51981084361221" lon="10.734159351308195"><ele>97.33333333333333</ele><time>2026-04-18T07:24:40.999Z</time></trkpt><trkpt lat="43.51980567995092" lon="10.734252401549567"><ele>97.66666666666666</ele><time>2026-04-18T07:24:41.999Z</time></trkpt><trkpt lat="43.519842601177956" lon="10.73437497834602"><ele>98.0</ele><time>2026-04-18T07:24:43.999Z</time></trkpt><trkpt lat="43.51993196685891" lon="10.73440259315933"><ele>97.99999999999999</ele><time>2026-04-18T07:24:45.999Z</time></trkpt><trkpt lat="43.520007939961346" lon="10.734444488537076"><ele>98.0</ele><time>2026-04-18T07:25:26.998Z</time></trkpt><trkpt lat="43.52011887385451" lon="10.734528434224014"><ele>98.0</ele><time>2026-04-18T07:25:28.998Z</time></trkpt><trkpt lat="43.52017407141002" lon="10.734582641906421"><ele>98.0</ele><time>2026-04-18T07:25:29.998Z</time></trkpt><trkpt lat="43.520238438779735" lon="10.734636617931116"><ele>97.99999999999999</ele><time>2026-04-18T07:25:31.998Z</time></trkpt><trkpt lat="43.520291284909774" lon="10.734686490564423"><ele>98.0</ele><time>2026-04-18T07:25:39.998Z</time></trkpt><trkpt lat="43.52040416549975" lon="10.734785636313433"><ele>100.33333333333333</ele><time>2026-04-18T07:25:42Z</time></trkpt><trkpt lat="43.52046859190676" lon="10.734837897908532"><ele>102.66666666666666</ele><time>2026-04-18T07:25:43Z</time></trkpt><trkpt lat="43.520540880152325" lon="10.734899197714096"><ele>105.0</ele><time>2026-04-18T07:25:44Z</time></trkpt><trkpt lat="43.52060993614897" lon="10.734971142725021"><ele>107.33333333333334</ele><time>2026-04-18T07:25:45Z</time></trkpt><trkpt lat="43.52065579596013" lon="10.735033591388422"><ele>109.66666666666667</ele><time>2026-04-18T07:25:46Z</time></trkpt><trkpt lat="43.52069506502591" lon="10.735113216263288"><ele>112.0</ele><time>2026-04-18T07:25:47Z</time></trkpt><trkpt lat="43.52071797629733" lon="10.735218520958373"><ele>112.50000000000001</ele><time>2026-04-18T07:25:48Z</time></trkpt><trkpt lat="43.52072988763935" lon="10.73532741193455"><ele>113.0</ele><time>2026-04-18T07:25:49Z</time></trkpt><trkpt lat="43.52074388475322" lon="10.735437547117659"><ele>113.5</ele><time>2026-04-18T07:25:50Z</time></trkpt><trkpt lat="43.520830890297724" lon="10.735556423075929"><ele>114.0</ele><time>2026-04-18T07:25:52Z</time></trkpt><trkpt lat="43.520881590200666" lon="10.735608854282395"><ele>114.50000000000001</ele><time>2026-04-18T07:25:53Z</time></trkpt><trkpt lat="43.520929100574484" lon="10.73567070183847"><ele>115.0</ele><time>2026-04-18T07:25:54Z</time></trkpt><trkpt lat="43.52097557940362" lon="10.735742478121516"><ele>115.00000000000001</ele><time>2026-04-18T07:25:55Z</time></trkpt><trkpt lat="43.52103016640965" lon="10.735809128550802"><ele>115.0</ele><time>2026-04-18T07:25:56Z</time></trkpt><trkpt lat="43.521082613035965" lon="10.735859271626696"><ele>115.0</ele><time>2026-04-18T07:25:57Z</time></trkpt><trkpt lat="43.521151912866955" lon="10.73590411236401"><ele>115.0</ele><time>2026-04-18T07:25:58Z</time></trkpt><trkpt lat="43.52122329604234" lon="10.73595987660762"><ele>115.00000000000001</ele><time>2026-04-18T07:25:59Z</time></trkpt><trkpt lat="43.52130530512151" lon="10.736035698404034"><ele>115.0</ele><time>2026-04-18T07:26:00Z</time></trkpt><trkpt lat="43.52137571098898" lon="10.736110126452273"><ele>118.16666666666667</ele><time>2026-04-18T07:26:01Z</time></trkpt><trkpt lat="43.52144232207923" lon="10.736172304664912"><ele>121.33333333333334</ele><time>2026-04-18T07:26:01.999Z</time></trkpt><trkpt lat="43.52150174827945" lon="10.736240993051917"><ele>124.5</ele><time>2026-04-18T07:26:02.999Z</time></trkpt><trkpt lat="43.5215599077584" lon="10.736327848694096"><ele>127.66666666666666</ele><time>2026-04-18T07:26:03.999Z</time></trkpt><trkpt lat="43.521624516917484" lon="10.73641532509624"><ele>130.83333333333331</ele><time>2026-04-18T07:26:04.999Z</time></trkpt><trkpt lat="43.52167988108306" lon="10.73649760805708"><ele>134.0</ele><time>2026-04-18T07:26:05.999Z</time></trkpt><trkpt lat="43.521679855493346" lon="10.736642702997564"><ele>134.0</ele><time>2026-04-18T07:26:06.999Z</time></trkpt><trkpt lat="43.52173494291574" lon="10.736689597686025"><ele>134.0</ele><time>2026-04-18T07:26:07.999Z</time></trkpt><trkpt lat="43.52180529848698" lon="10.736756442419207"><ele>134.0</ele><time>2026-04-18T07:26:08.999Z</time></trkpt><trkpt lat="43.52187961064531" lon="10.73681409124803"><ele>134.0</ele><time>2026-04-18T07:26:09.999Z</time></trkpt><trkpt lat="43.52194485533371" lon="10.736875649340103"><ele>134.0</ele><time>2026-04-18T07:26:10.999Z</time></trkpt><trkpt lat="43.522001111179925" lon="10.736954954142691"><ele>134.0</ele><time>2026-04-18T07:26:11.999Z</time></trkpt><trkpt lat="43.5220670367091" lon="10.73702260970288"><ele>133.6</ele><time>2026-04-18T07:26:12.999Z</time></trkpt><trkpt lat="43.52211151952014" lon="10.737090611789062"><ele>133.2</ele><time>2026-04-18T07:26:13.999Z</time></trkpt><trkpt lat="43.52209541510826" lon="10.737282045735334"><ele>132.79999999999998</ele><time>2026-04-18T07:26:16.999Z</time></trkpt><trkpt lat="43.52208063283907" lon="10.737403320401208"><ele>132.4</ele><time>2026-04-18T07:26:17.999Z</time></trkpt><trkpt lat="43.522039466049215" lon="10.737541053537663"><ele>132.0</ele><time>2026-04-18T07:26:18.999Z</time></trkpt><trkpt lat="43.521985428704575" lon="10.737682274111563"><ele>134.4</ele><time>2026-04-18T07:26:19.999Z</time></trkpt><trkpt lat="43.52192319038926" lon="10.737800350350275"><ele>136.79999999999998</ele><time>2026-04-18T07:26:20.999Z</time></trkpt><trkpt lat="43.521847601324154" lon="10.737902765467426"><ele>139.2</ele><time>2026-04-18T07:26:21.999Z</time></trkpt><trkpt lat="43.521775101560344" lon="10.73798541670011"><ele>141.6</ele><time>2026-04-18T07:26:22.999Z</time></trkpt><trkpt lat="43.521715614290564" lon="10.7380480931352"><ele>144.0</ele><time>2026-04-18T07:26:23.999Z</time></trkpt><trkpt lat="43.521650393569985" lon="10.738089687332359"><ele>144.0</ele><time>2026-04-18T07:26:26.999Z</time></trkpt><trkpt lat="43.52169185139029" lon="10.738227492408521"><ele>144.0</ele><time>2026-04-18T07:26:27.999Z</time></trkpt><trkpt lat="43.52172385164044" lon="10.738339452747832"><ele>144.0</ele><time>2026-04-18T07:26:28.999Z</time></trkpt><trkpt lat="43.521757774160605" lon="10.738471034339712"><ele>144.0</ele><time>2026-04-18T07:26:29.999Z</time></trkpt><trkpt lat="43.521781734181154" lon="10.738633049940402"><ele>144.0</ele><time>2026-04-18T07:26:30.999Z</time></trkpt><trkpt lat="43.52181279738312" lon="10.738804088266315"><ele>144.0</ele><time>2026-04-18T07:26:31.999Z</time></trkpt><trkpt lat="43.52185527559123" lon="10.738974103288733"><ele>144.0</ele><time>2026-04-18T07:26:32.999Z</time></trkpt><trkpt lat="43.52191346772566" lon="10.739143074939426"><ele>144.0</ele><time>2026-04-18T07:26:33.999Z</time></trkpt><trkpt lat="43.521979417577874" lon="10.739313484867642"><ele>144.0</ele><time>2026-04-18T07:26:34.999Z</time></trkpt><trkpt lat="43.52204119455113" lon="10.73948997978262"><ele>147.0</ele><time>2026-04-18T07:26:35.999Z</time></trkpt><trkpt lat="43.52210308248224" lon="10.739670230729917"><ele>150.0</ele><time>2026-04-18T07:26:36.999Z</time></trkpt><trkpt lat="43.52216922745042" lon="10.73985556662287"><ele>153.0</ele><time>2026-04-18T07:26:37.999Z</time></trkpt><trkpt lat="43.52223944005502" lon="10.740044900492972"><ele>156.0</ele><time>2026-04-18T07:26:38.999Z</time></trkpt><trkpt lat="43.52230942687554" lon="10.740220779669615"><ele>157.0</ele><time>2026-04-18T07:26:39.999Z</time></trkpt><trkpt lat="43.52238389463312" lon="10.740396343827335"><ele>158.0</ele><time>2026-04-18T07:26:40.999Z</time></trkpt><trkpt lat="43.522458934374626" lon="10.740572782926273"><ele>159.0</ele><time>2026-04-18T07:26:41.999Z</time></trkpt><trkpt lat="43.52253159350445" lon="10.74074051156718"><ele>160.0</ele><time>2026-04-18T07:26:42.999Z</time></trkpt><trkpt lat="43.522594317910205" lon="10.740875038123502"><ele>160.0</ele><time>2026-04-18T07:26:43.999Z</time></trkpt><trkpt lat="43.52265836145914" lon="10.740994896311356"><ele>160.0</ele><time>2026-04-18T07:26:44.999Z</time></trkpt><trkpt lat="43.52272886271891" lon="10.741132460229512"><ele>160.0</ele><time>2026-04-18T07:26:45.999Z</time></trkpt><trkpt lat="43.522807290841854" lon="10.741269928407528"><ele>160.0</ele><time>2026-04-18T07:26:46.999Z</time></trkpt><trkpt lat="43.52290327513743" lon="10.741390018398148"><ele>159.75</ele><time>2026-04-18T07:26:47.999Z</time></trkpt><trkpt lat="43.52301139783019" lon="10.741496102190917"><ele>159.5</ele><time>2026-04-18T07:26:48.999Z</time></trkpt><trkpt lat="43.52312696274539" lon="10.741600362558316"><ele>159.25</ele><time>2026-04-18T07:26:49.999Z</time></trkpt><trkpt lat="43.5232426503749" lon="10.741707936143706"><ele>159.0</ele><time>2026-04-18T07:26:50.999Z</time></trkpt><trkpt lat="43.52335411871425" lon="10.741817590721652"><ele>159.6</ele><time>2026-04-18T07:26:51.999Z</time></trkpt><trkpt lat="43.523456746034704" lon="10.74191447213029"><ele>160.2</ele><time>2026-04-18T07:26:52.999Z</time></trkpt><trkpt lat="43.523547956369576" lon="10.741987900251898"><ele>160.79999999999998</ele><time>2026-04-18T07:26:53.999Z</time></trkpt><trkpt lat="43.52363704099072" lon="10.742027710025766"><ele>161.4</ele><time>2026-04-18T07:26:54.999Z</time></trkpt><trkpt lat="43.52373146632975" lon="10.74203989047263"><ele>162.0</ele><time>2026-04-18T07:26:55.999Z</time></trkpt><trkpt lat="43.52383749267543" lon="10.74201634676701"><ele>162.0</ele><time>2026-04-18T07:26:56.999Z</time></trkpt><trkpt lat="43.52395038505087" lon="10.741966253787535"><ele>162.0</ele><time>2026-04-18T07:26:57.999Z</time></trkpt><trkpt lat="43.52406649843502" lon="10.74191784549376"><ele>162.0</ele><time>2026-04-18T07:26:58.999Z</time></trkpt><trkpt lat="43.524176693839586" lon="10.741866097654999"><ele>162.0</ele><time>2026-04-18T07:26:59.999Z</time></trkpt><trkpt lat="43.524293976163804" lon="10.741823293065677"><ele>162.6</ele><time>2026-04-18T07:27:00.999Z</time></trkpt><trkpt lat="43.52440855851993" lon="10.741778525611588"><ele>163.2</ele><time>2026-04-18T07:27:01.999Z</time></trkpt><trkpt lat="43.524525383145814" lon="10.741770973122996"><ele>163.8</ele><time>2026-04-18T07:27:02.999Z</time></trkpt><trkpt lat="43.52462943084678" lon="10.741773259449891"><ele>164.4</ele><time>2026-04-18T07:27:03.999Z</time></trkpt><trkpt lat="43.524715084113836" lon="10.741792853409232"><ele>165.0</ele><time>2026-04-18T07:27:04.999Z</time></trkpt><trkpt lat="43.524796504758754" lon="10.74181632609574"><ele>166.75</ele><time>2026-04-18T07:27:05.999Z</time></trkpt><trkpt lat="43.52489331299492" lon="10.74183049871311"><ele>168.5</ele><time>2026-04-18T07:27:06.999Z</time></trkpt><trkpt lat="43.52500501271203" lon="10.741821344663364"><ele>170.25</ele><time>2026-04-18T07:27:07.998Z</time></trkpt><trkpt lat="43.52512899200569" lon="10.741806238694634"><ele>172.0</ele><time>2026-04-18T07:27:08.998Z</time></trkpt><trkpt lat="43.525264537223684" lon="10.741768385122251"><ele>171.25</ele><time>2026-04-18T07:27:09.998Z</time></trkpt><trkpt lat="43.52540403629529" lon="10.741704448982974"><ele>170.5</ele><time>2026-04-18T07:27:10.998Z</time></trkpt><trkpt lat="43.525529114280864" lon="10.74161646152817"><ele>169.75</ele><time>2026-04-18T07:27:11.998Z</time></trkpt><trkpt lat="43.52563946777786" lon="10.741522027447296"><ele>169.0</ele><time>2026-04-18T07:27:12.998Z</time></trkpt><trkpt lat="43.52573937164453" lon="10.741433312728446"><ele>169.0</ele><time>2026-04-18T07:27:13.998Z</time></trkpt><trkpt lat="43.52582030887213" lon="10.741360654089485"><ele>169.0</ele><time>2026-04-18T07:27:14.998Z</time></trkpt><trkpt lat="43.525890297968765" lon="10.741296120921392"><ele>169.0</ele><time>2026-04-18T07:27:15.998Z</time></trkpt><trkpt lat="43.52594700393751" lon="10.741245763612998"><ele>169.0</ele><time>2026-04-18T07:27:17.998Z</time></trkpt><trkpt lat="43.525998150647354" lon="10.741386083261943"><ele>169.0</ele><time>2026-04-18T07:27:19.998Z</time></trkpt><trkpt lat="43.52605809679862" lon="10.741473981780457"><ele>169.0</ele><time>2026-04-18T07:27:20.998Z</time></trkpt><trkpt lat="43.52610945165906" lon="10.74156818076297"><ele>169.0</ele><time>2026-04-18T07:27:21.998Z</time></trkpt><trkpt lat="43.52619000138293" lon="10.741642342266797"><ele>169.0</ele><time>2026-04-18T07:27:22.998Z</time></trkpt><trkpt lat="43.526270752535396" lon="10.74173160316693"><ele>169.0</ele><time>2026-04-18T07:27:23.998Z</time></trkpt><trkpt lat="43.52635455046652" lon="10.741832023079489"><ele>169.0</ele><time>2026-04-18T07:27:24.998Z</time></trkpt><trkpt lat="43.52644089360108" lon="10.741949203855585"><ele>169.5</ele><time>2026-04-18T07:27:25.998Z</time></trkpt><trkpt lat="43.52652218144039" lon="10.742070568761223"><ele>170.0</ele><time>2026-04-18T07:27:26.998Z</time></trkpt><trkpt lat="43.526606271899645" lon="10.742197723939446"><ele>170.5</ele><time>2026-04-18T07:27:27.998Z</time></trkpt><trkpt lat="43.526693712497824" lon="10.742325121838391"><ele>171.0</ele><time>2026-04-18T07:27:28.998Z</time></trkpt><trkpt lat="43.526786367832" lon="10.742451522353205"><ele>171.0</ele><time>2026-04-18T07:27:29.998Z</time></trkpt><trkpt lat="43.52687921689456" lon="10.742589296025377"><ele>171.0</ele><time>2026-04-18T07:27:30.998Z</time></trkpt><trkpt lat="43.52695767216382" lon="10.74274928642824"><ele>171.0</ele><time>2026-04-18T07:27:31.998Z</time></trkpt><trkpt lat="43.52701577403934" lon="10.74292072275342"><ele>171.0</ele><time>2026-04-18T07:27:32.998Z</time></trkpt><trkpt lat="43.52705725214679" lon="10.743082122914519"><ele>171.0</ele><time>2026-04-18T07:27:33.998Z</time></trkpt><trkpt lat="43.527105043537766" lon="10.743243357296086"><ele>171.0</ele><time>2026-04-18T07:27:34.998Z</time></trkpt><trkpt lat="43.52715527301997" lon="10.74339413288647"><ele>171.0</ele><time>2026-04-18T07:27:35.998Z</time></trkpt><trkpt lat="43.52718959281554" lon="10.743541352948208"><ele>171.0</ele><time>2026-04-18T07:27:36.998Z</time></trkpt><trkpt lat="43.52722248766254" lon="10.743701125943865"><ele>171.0</ele><time>2026-04-18T07:27:37.998Z</time></trkpt><trkpt lat="43.527251046322924" lon="10.743846932578771"><ele>171.0</ele><time>2026-04-18T07:27:38.998Z</time></trkpt><trkpt lat="43.527264572235055" lon="10.743964189838474"><ele>171.0</ele><time>2026-04-18T07:27:39.998Z</time></trkpt><trkpt lat="43.52730453209061" lon="10.744061325266243"><ele>171.0</ele><time>2026-04-18T07:27:40.998Z</time></trkpt><trkpt lat="43.52736309852723" lon="10.744153282871634"><ele>171.0</ele><time>2026-04-18T07:27:41.998Z</time></trkpt><trkpt lat="43.527436014639896" lon="10.744236386611426"><ele>171.0</ele><time>2026-04-18T07:27:42.998Z</time></trkpt><trkpt lat="43.52750925175229" lon="10.74427711378651"><ele>171.0</ele><time>2026-04-18T07:27:43.998Z</time></trkpt><trkpt lat="43.527595797067264" lon="10.744301596954926"><ele>171.0</ele><time>2026-04-18T07:27:44.998Z</time></trkpt><trkpt lat="43.527692999317054" lon="10.744357962484091"><ele>171.0</ele><time>2026-04-18T07:27:45.998Z</time></trkpt><trkpt lat="43.52780140428748" lon="10.74443526754899"><ele>171.0</ele><time>2026-04-18T07:27:47Z</time></trkpt><trkpt lat="43.52790249687813" lon="10.744507095982604"><ele>169.8</ele><time>2026-04-18T07:27:48Z</time></trkpt><trkpt lat="43.527984436880544" lon="10.744568110833692"><ele>168.60000000000002</ele><time>2026-04-18T07:27:49Z</time></trkpt><trkpt lat="43.52807572172146" lon="10.744640084868951"><ele>167.4</ele><time>2026-04-18T07:27:50Z</time></trkpt><trkpt lat="43.52815534337819" lon="10.744703278988293"><ele>166.2</ele><time>2026-04-18T07:27:51Z</time></trkpt><trkpt lat="43.52821311978555" lon="10.744821852922719"><ele>165.0</ele><time>2026-04-18T07:27:52Z</time></trkpt><trkpt lat="43.528267343747515" lon="10.744943808133838"><ele>165.0</ele><time>2026-04-18T07:27:53Z</time></trkpt><trkpt lat="43.528293598669705" lon="10.745097629177218"><ele>165.0</ele><time>2026-04-18T07:27:54Z</time></trkpt><trkpt lat="43.52834605088545" lon="10.745178928290112"><ele>165.0</ele><time>2026-04-18T07:27:55Z</time></trkpt><trkpt lat="43.52837848104422" lon="10.745264154019795"><ele>165.0</ele><time>2026-04-18T07:27:56Z</time></trkpt><trkpt lat="43.52844657675848" lon="10.745380317914798"><ele>165.0</ele><time>2026-04-18T07:27:58Z</time></trkpt><trkpt lat="43.52849952628819" lon="10.745439772674986"><ele>165.0</ele><time>2026-04-18T07:28:01Z</time></trkpt><trkpt lat="43.52859417654565" lon="10.745476849735143"><ele>165.0</ele><time>2026-04-18T07:28:04Z</time></trkpt><trkpt lat="43.528643516112915" lon="10.745376620218863"><ele>165.0</ele><time>2026-04-18T07:28:06Z</time></trkpt><trkpt lat="43.5286949396659" lon="10.745316632540595"><ele>165.0</ele><time>2026-04-18T07:28:10.999Z</time></trkpt><trkpt lat="43.52877160137172" lon="10.745277395886866"><ele>165.0</ele><time>2026-04-18T07:28:12.999Z</time></trkpt><trkpt lat="43.52887181110104" lon="10.745277484559475"><ele>165.0</ele><time>2026-04-18T07:28:14.999Z</time></trkpt><trkpt lat="43.5289713136195" lon="10.745265519069491"><ele>165.0</ele><time>2026-04-18T07:28:16.999Z</time></trkpt><trkpt lat="43.52906881254435" lon="10.745251422286275"><ele>165.0</ele><time>2026-04-18T07:28:18.999Z</time></trkpt><trkpt lat="43.52916625347615" lon="10.745224517874586"><ele>165.0</ele><time>2026-04-18T07:28:20.999Z</time></trkpt><trkpt lat="43.5292616728721" lon="10.745189294272821"><ele>165.0</ele><time>2026-04-18T07:28:22.999Z</time></trkpt><trkpt lat="43.52934054122054" lon="10.74517403941365"><ele>165.0</ele><time>2026-04-18T07:28:24.999Z</time></trkpt><trkpt lat="43.529417282384266" lon="10.745189266011511"><ele>165.0</ele><time>2026-04-18T07:28:27.999Z</time></trkpt><trkpt lat="43.52950916269905" lon="10.745239183075629"><ele>163.66666666666666</ele><time>2026-04-18T07:28:30.999Z</time></trkpt><trkpt lat="43.52960714254787" lon="10.74529177896616"><ele>162.33333333333334</ele><time>2026-04-18T07:28:32.999Z</time></trkpt><trkpt lat="43.52969744471053" lon="10.745315692746635"><ele>161.0</ele><time>2026-04-18T07:28:34.999Z</time></trkpt><trkpt lat="43.52977668336188" lon="10.745327991980854"><ele>159.66666666666669</ele><time>2026-04-18T07:28:41.999Z</time></trkpt><trkpt lat="43.52988146393246" lon="10.745307583510591"><ele>158.33333333333334</ele><time>2026-04-18T07:28:43.999Z</time></trkpt><trkpt lat="43.5299439364433" lon="10.745278715314303"><ele>157.0</ele><time>2026-04-18T07:28:44.999Z</time></trkpt><trkpt lat="43.53001161982904" lon="10.745241523708733"><ele>156.2</ele><time>2026-04-18T07:28:45.999Z</time></trkpt><trkpt lat="43.5300941360803" lon="10.745189354186067"><ele>155.39999999999998</ele><time>2026-04-18T07:28:46.999Z</time></trkpt><trkpt lat="43.53017245917382" lon="10.74512891011702"><ele>154.60000000000002</ele><time>2026-04-18T07:28:47.999Z</time></trkpt><trkpt lat="43.53025201862705" lon="10.745050314608305"><ele>153.8</ele><time>2026-04-18T07:28:48.999Z</time></trkpt><trkpt lat="43.53033185356873" lon="10.744959543256861"><ele>153.0</ele><time>2026-04-18T07:28:49.999Z</time></trkpt><trkpt lat="43.530389174688175" lon="10.744876012402333"><ele>153.6</ele><time>2026-04-18T07:28:50.999Z</time></trkpt><trkpt lat="43.53044990770939" lon="10.744792023241406"><ele>154.20000000000002</ele><time>2026-04-18T07:28:51.999Z</time></trkpt><trkpt lat="43.530542937268606" lon="10.744781092857037"><ele>154.8</ele><time>2026-04-18T07:28:52.999Z</time></trkpt><trkpt lat="43.53063936448014" lon="10.744756859787861"><ele>155.4</ele><time>2026-04-18T07:28:53.999Z</time></trkpt><trkpt lat="43.53072578121268" lon="10.744716073351885"><ele>156.0</ele><time>2026-04-18T07:28:54.999Z</time></trkpt><trkpt lat="43.530802967935315" lon="10.744654907698525"><ele>156.0</ele><time>2026-04-18T07:28:55.999Z</time></trkpt><trkpt lat="43.530859221418716" lon="10.744575400345745"><ele>156.0</ele><time>2026-04-18T07:28:56.999Z</time></trkpt><trkpt lat="43.53090443639121" lon="10.744479011910522"><ele>156.0</ele><time>2026-04-18T07:28:57.999Z</time></trkpt><trkpt lat="43.530931123674605" lon="10.744381629513164"><ele>156.0</ele><time>2026-04-18T07:28:58.999Z</time></trkpt><trkpt lat="43.53094328188815" lon="10.744273806891615"><ele>156.0</ele><time>2026-04-18T07:28:59.999Z</time></trkpt><trkpt lat="43.530955892581616" lon="10.744175564066712"><ele>156.0</ele><time>2026-04-18T07:29:00.999Z</time></trkpt><trkpt lat="43.53095405922246" lon="10.74406325334685"><ele>156.0</ele><time>2026-04-18T07:29:01.999Z</time></trkpt><trkpt lat="43.53097854875096" lon="10.743952167250852"><ele>156.0</ele><time>2026-04-18T07:29:02.999Z</time></trkpt><trkpt lat="43.53097796571826" lon="10.743829233723014"><ele>156.0</ele><time>2026-04-18T07:29:03.999Z</time></trkpt><trkpt lat="43.530965774595124" lon="10.743709883612624"><ele>156.0</ele><time>2026-04-18T07:29:04.999Z</time></trkpt><trkpt lat="43.53094305903204" lon="10.743579416377353"><ele>156.0</ele><time>2026-04-18T07:29:05.999Z</time></trkpt><trkpt lat="43.530917708091366" lon="10.743447557633967"><ele>157.0</ele><time>2026-04-18T07:29:06.999Z</time></trkpt><trkpt lat="43.53089252648995" lon="10.743322013692607"><ele>158.0</ele><time>2026-04-18T07:29:07.999Z</time></trkpt><trkpt lat="43.530870799162976" lon="10.743197979694472"><ele>159.0</ele><time>2026-04-18T07:29:08.999Z</time></trkpt><trkpt lat="43.53085333165056" lon="10.74308255231204"><ele>160.0</ele><time>2026-04-18T07:29:09.999Z</time></trkpt><trkpt lat="43.53084591638836" lon="10.742976171512412"><ele>161.0</ele><time>2026-04-18T07:29:10.999Z</time></trkpt><trkpt lat="43.530857463287376" lon="10.742878436794454"><ele>162.0</ele><time>2026-04-18T07:29:11.999Z</time></trkpt><trkpt lat="43.53088106579377" lon="10.742779654589903"><ele>162.8</ele><time>2026-04-18T07:29:12.999Z</time></trkpt><trkpt lat="43.530904976577" lon="10.742698207740474"><ele>163.6</ele><time>2026-04-18T07:29:13.998Z</time></trkpt><trkpt lat="43.53094270994761" lon="10.742592305562438"><ele>164.4</ele><time>2026-04-18T07:29:15.998Z</time></trkpt><trkpt lat="43.53092353533215" lon="10.742376744907649"><ele>165.20000000000002</ele><time>2026-04-18T07:29:17.998Z</time></trkpt><trkpt lat="43.53089450450817" lon="10.742256860665861"><ele>166.0</ele><time>2026-04-18T07:29:18.998Z</time></trkpt><trkpt lat="43.53085685319116" lon="10.742111126155788"><ele>166.0</ele><time>2026-04-18T07:29:19.998Z</time></trkpt><trkpt lat="43.53081744716821" lon="10.741966968002467"><ele>166.0</ele><time>2026-04-18T07:29:20.998Z</time></trkpt><trkpt lat="43.53077881311569" lon="10.741830691245145"><ele>166.0</ele><time>2026-04-18T07:29:21.998Z</time></trkpt><trkpt lat="43.530748715604396" lon="10.741709204822692"><ele>166.0</ele><time>2026-04-18T07:29:22.998Z</time></trkpt><trkpt lat="43.53073150675396" lon="10.74162256503007"><ele>166.0</ele><time>2026-04-18T07:29:23.998Z</time></trkpt><trkpt lat="43.530694677339504" lon="10.741486673482724"><ele>166.33333333333334</ele><time>2026-04-18T07:29:25.998Z</time></trkpt><trkpt lat="43.5307060146176" lon="10.741341087844441"><ele>166.66666666666669</ele><time>2026-04-18T07:29:27.998Z</time></trkpt><trkpt lat="43.53074123258136" lon="10.74124272548289"><ele>167.0</ele><time>2026-04-18T07:29:28.998Z</time></trkpt><trkpt lat="43.53082724549648" lon="10.741188507342153"><ele>167.33333333333334</ele><time>2026-04-18T07:29:29.998Z</time></trkpt><trkpt lat="43.53086963308159" lon="10.741090767492414"><ele>167.66666666666666</ele><time>2026-04-18T07:29:30.998Z</time></trkpt><trkpt lat="43.53090279780324" lon="10.741005652681356"><ele>168.0</ele><time>2026-04-18T07:29:31.998Z</time></trkpt><trkpt lat="43.53093124548991" lon="10.74092594324983"><ele>168.0</ele><time>2026-04-18T07:29:32.998Z</time></trkpt><trkpt lat="43.530956734183434" lon="10.740843137225058"><ele>168.0</ele><time>2026-04-18T07:29:33.998Z</time></trkpt><trkpt lat="43.53098198222611" lon="10.74072744042515"><ele>168.0</ele><time>2026-04-18T07:29:34.998Z</time></trkpt><trkpt lat="43.530993906718976" lon="10.740591590667371"><ele>168.0</ele><time>2026-04-18T07:29:35.998Z</time></trkpt><trkpt lat="43.53102396417348" lon="10.740475848831302"><ele>168.0</ele><time>2026-04-18T07:29:36.998Z</time></trkpt><trkpt lat="43.53104740002834" lon="10.740368103490747"><ele>168.0</ele><time>2026-04-18T07:29:37.998Z</time></trkpt><trkpt lat="43.53107328172851" lon="10.74025843251119"><ele>168.16666666666666</ele><time>2026-04-18T07:29:38.998Z</time></trkpt><trkpt lat="43.5311017148128" lon="10.740151119805063"><ele>168.33333333333334</ele><time>2026-04-18T07:29:39.998Z</time></trkpt><trkpt lat="43.5311353467713" lon="10.740060081320731"><ele>168.5</ele><time>2026-04-18T07:29:40.998Z</time></trkpt><trkpt lat="43.53116584821249" lon="10.739971233185718"><ele>168.66666666666669</ele><time>2026-04-18T07:29:41.998Z</time></trkpt><trkpt lat="43.531231535445094" lon="10.739822315879914"><ele>168.83333333333334</ele><time>2026-04-18T07:29:43.998Z</time></trkpt><trkpt lat="43.531269394756436" lon="10.739747395856735"><ele>169.0</ele><time>2026-04-18T07:29:44.998Z</time></trkpt><trkpt lat="43.53131723875274" lon="10.73966605470922"><ele>166.79999999999998</ele><time>2026-04-18T07:29:45.998Z</time></trkpt><trkpt lat="43.531379435496255" lon="10.739580385589367"><ele>164.6</ele><time>2026-04-18T07:29:46.998Z</time></trkpt><trkpt lat="43.53145301996813" lon="10.739460239018674"><ele>162.4</ele><time>2026-04-18T07:29:47.998Z</time></trkpt><trkpt lat="43.53154972545675" lon="10.739358986825584"><ele>160.2</ele><time>2026-04-18T07:29:48.998Z</time></trkpt><trkpt lat="43.53163982019984" lon="10.739260518398009"><ele>158.0</ele><time>2026-04-18T07:29:49.998Z</time></trkpt><trkpt lat="43.531723427959385" lon="10.739166652176403"><ele>158.0</ele><time>2026-04-18T07:29:50.998Z</time></trkpt><trkpt lat="43.5318125770726" lon="10.739076759050104"><ele>158.0</ele><time>2026-04-18T07:29:51.998Z</time></trkpt><trkpt lat="43.53189200954466" lon="10.73900366372349"><ele>158.0</ele><time>2026-04-18T07:29:53Z</time></trkpt><trkpt lat="43.53197019678052" lon="10.738932894159179"><ele>158.0</ele><time>2026-04-18T07:29:54Z</time></trkpt><trkpt lat="43.532059235361395" lon="10.738855357709694"><ele>158.0</ele><time>2026-04-18T07:29:55Z</time></trkpt><trkpt lat="43.53216940308004" lon="10.738774524056579"><ele>156.5</ele><time>2026-04-18T07:29:56Z</time></trkpt><trkpt lat="43.53228769175123" lon="10.73871799812999"><ele>155.0</ele><time>2026-04-18T07:29:57Z</time></trkpt><trkpt lat="43.53240956623066" lon="10.738637160833658"><ele>153.5</ele><time>2026-04-18T07:29:58Z</time></trkpt><trkpt lat="43.53252412854408" lon="10.738540004604914"><ele>152.0</ele><time>2026-04-18T07:29:59Z</time></trkpt><trkpt lat="43.53263811741901" lon="10.738456626621883"><ele>152.0</ele><time>2026-04-18T07:30:00Z</time></trkpt><trkpt lat="43.53275251694602" lon="10.738368662855308"><ele>152.0</ele><time>2026-04-18T07:30:01Z</time></trkpt><trkpt lat="43.532858381825235" lon="10.738288408699576"><ele>152.0</ele><time>2026-04-18T07:30:02Z</time></trkpt><trkpt lat="43.53296448774261" lon="10.738199665644064"><ele>152.0</ele><time>2026-04-18T07:30:03Z</time></trkpt><trkpt lat="43.53306587692178" lon="10.738093690391555"><ele>151.0</ele><time>2026-04-18T07:30:04Z</time></trkpt><trkpt lat="43.53316844574507" lon="10.737977806083245"><ele>150.0</ele><time>2026-04-18T07:30:05Z</time></trkpt><trkpt lat="43.53327116328795" lon="10.737889748170508"><ele>149.0</ele><time>2026-04-18T07:30:06Z</time></trkpt><trkpt lat="43.53334069428517" lon="10.737794929202126"><ele>148.0</ele><time>2026-04-18T07:30:07Z</time></trkpt><trkpt lat="43.5334323518906" lon="10.737736889365971"><ele>147.8</ele><time>2026-04-18T07:30:08Z</time></trkpt><trkpt lat="43.53351179870689" lon="10.737699718825638"><ele>147.60000000000002</ele><time>2026-04-18T07:30:09Z</time></trkpt><trkpt lat="43.53360836528407" lon="10.737663715284963"><ele>147.39999999999998</ele><time>2026-04-18T07:30:10Z</time></trkpt><trkpt lat="43.53369581506699" lon="10.737629463297043"><ele>147.2</ele><time>2026-04-18T07:30:11Z</time></trkpt><trkpt lat="43.533802315971904" lon="10.737588869769175"><ele>147.0</ele><time>2026-04-18T07:30:12Z</time></trkpt><trkpt lat="43.533915551607656" lon="10.737539267439203"><ele>146.25</ele><time>2026-04-18T07:30:13Z</time></trkpt><trkpt lat="43.53402620199788" lon="10.737483834743234"><ele>145.5</ele><time>2026-04-18T07:30:13.999Z</time></trkpt><trkpt lat="43.534125905458474" lon="10.73742877546966"><ele>144.75</ele><time>2026-04-18T07:30:14.999Z</time></trkpt><trkpt lat="43.53422747223805" lon="10.737369045733711"><ele>144.0</ele><time>2026-04-18T07:30:15.999Z</time></trkpt><trkpt lat="43.53434251580059" lon="10.73731167207195"><ele>144.0</ele><time>2026-04-18T07:30:16.999Z</time></trkpt><trkpt lat="43.534463325613416" lon="10.73724465601767"><ele>144.0</ele><time>2026-04-18T07:30:17.999Z</time></trkpt><trkpt lat="43.53459040024639" lon="10.737171734686358"><ele>144.0</ele><time>2026-04-18T07:30:18.999Z</time></trkpt><trkpt lat="43.534724816708014" lon="10.737127425641848"><ele>144.0</ele><time>2026-04-18T07:30:19.999Z</time></trkpt><trkpt lat="43.53483868510966" lon="10.737050257899549"><ele>142.75</ele><time>2026-04-18T07:30:20.999Z</time></trkpt><trkpt lat="43.53494281120486" lon="10.736989264104874"><ele>141.5</ele><time>2026-04-18T07:30:21.999Z</time></trkpt><trkpt lat="43.53503219381841" lon="10.736914526248484"><ele>140.25</ele><time>2026-04-18T07:30:22.999Z</time></trkpt><trkpt lat="43.53512470283478" lon="10.736831823625293"><ele>139.0</ele><time>2026-04-18T07:30:23.999Z</time></trkpt><trkpt lat="43.53522793341317" lon="10.73673506060849"><ele>138.75</ele><time>2026-04-18T07:30:24.999Z</time></trkpt><trkpt lat="43.535335502701344" lon="10.736629701548688"><ele>138.5</ele><time>2026-04-18T07:30:25.999Z</time></trkpt><trkpt lat="43.535443873663965" lon="10.736524292955623"><ele>138.25</ele><time>2026-04-18T07:30:26.999Z</time></trkpt><trkpt lat="43.535546038552084" lon="10.736427405941557"><ele>138.0</ele><time>2026-04-18T07:30:27.999Z</time></trkpt><trkpt lat="43.535644355272886" lon="10.736332216056766"><ele>137.5</ele><time>2026-04-18T07:30:28.999Z</time></trkpt><trkpt lat="43.53575658788144" lon="10.736258142466212"><ele>137.0</ele><time>2026-04-18T07:30:29.999Z</time></trkpt><trkpt lat="43.5358515936019" lon="10.736147109367481"><ele>136.5</ele><time>2026-04-18T07:30:30.999Z</time></trkpt><trkpt lat="43.53595393705168" lon="10.736076369848806"><ele>136.0</ele><time>2026-04-18T07:30:31.999Z</time></trkpt><trkpt lat="43.53602803976456" lon="10.735980076546163"><ele>135.2</ele><time>2026-04-18T07:30:32.999Z</time></trkpt><trkpt lat="43.53609083617766" lon="10.735934919007988"><ele>134.39999999999998</ele><time>2026-04-18T07:30:33.999Z</time></trkpt><trkpt lat="43.53618346627698" lon="10.735849108014724"><ele>133.6</ele><time>2026-04-18T07:30:35.999Z</time></trkpt><trkpt lat="43.53629459164795" lon="10.735744248206743"><ele>132.79999999999998</ele><time>2026-04-18T07:30:37.999Z</time></trkpt><trkpt lat="43.53638001874984" lon="10.735662048242302"><ele>132.0</ele><time>2026-04-18T07:30:38.999Z</time></trkpt><trkpt lat="43.53646767275232" lon="10.735576829685538"><ele>130.79999999999998</ele><time>2026-04-18T07:30:39.999Z</time></trkpt><trkpt lat="43.53655534551041" lon="10.73549403350392"><ele>129.6</ele><time>2026-04-18T07:30:40.999Z</time></trkpt><trkpt lat="43.53661859898684" lon="10.735433889901477"><ele>128.39999999999998</ele><time>2026-04-18T07:30:41.999Z</time></trkpt><trkpt lat="43.53668595107274" lon="10.735393137887673"><ele>127.19999999999999</ele><time>2026-04-18T07:30:42.999Z</time></trkpt><trkpt lat="43.53677068905916" lon="10.735293681530086"><ele>126.0</ele><time>2026-04-18T07:30:43.999Z</time></trkpt><trkpt lat="43.536861964208896" lon="10.735199870896903"><ele>125.19999999999999</ele><time>2026-04-18T07:30:44.999Z</time></trkpt><trkpt lat="43.53695251607524" lon="10.735114885766814"><ele>124.39999999999999</ele><time>2026-04-18T07:30:45.999Z</time></trkpt><trkpt lat="43.53703881815516" lon="10.73502726917933"><ele>123.6</ele><time>2026-04-18T07:30:46.999Z</time></trkpt><trkpt lat="43.53713183582406" lon="10.73496279443756"><ele>122.8</ele><time>2026-04-18T07:30:47.999Z</time></trkpt><trkpt lat="43.53720362881714" lon="10.734874185119796"><ele>122.0</ele><time>2026-04-18T07:30:48.999Z</time></trkpt><trkpt lat="43.53728899407376" lon="10.734809328650893"><ele>122.0</ele><time>2026-04-18T07:30:49.999Z</time></trkpt><trkpt lat="43.53735751805369" lon="10.73474009818344"><ele>121.99999999999999</ele><time>2026-04-18T07:30:50.999Z</time></trkpt><trkpt lat="43.53742347204796" lon="10.73465536574887"><ele>121.99999999999999</ele><time>2026-04-18T07:30:51.999Z</time></trkpt><trkpt lat="43.537491466163374" lon="10.734574605235702"><ele>122.0</ele><time>2026-04-18T07:30:52.999Z</time></trkpt><trkpt lat="43.53756092174568" lon="10.734499822115659"><ele>122.0</ele><time>2026-04-18T07:30:53.999Z</time></trkpt><trkpt lat="43.53764452507869" lon="10.734422186754623"><ele>120.19999999999999</ele><time>2026-04-18T07:30:54.999Z</time></trkpt><trkpt lat="43.53771018728722" lon="10.73432120834752"><ele>118.39999999999999</ele><time>2026-04-18T07:30:55.999Z</time></trkpt><trkpt lat="43.537738439293165" lon="10.734191320170302"><ele>116.60000000000001</ele><time>2026-04-18T07:30:56.999Z</time></trkpt><trkpt lat="43.537763064490264" lon="10.734076304452584"><ele>114.80000000000001</ele><time>2026-04-18T07:30:57.999Z</time></trkpt><trkpt lat="43.53777782327094" lon="10.733958586043272"><ele>113.0</ele><time>2026-04-18T07:30:58.999Z</time></trkpt><trkpt lat="43.53781220226671" lon="10.733836225751762"><ele>113.0</ele><time>2026-04-18T07:30:59.999Z</time></trkpt><trkpt lat="43.537831917081974" lon="10.733693737340568"><ele>113.00000000000001</ele><time>2026-04-18T07:31:00.999Z</time></trkpt><trkpt lat="43.53782967017016" lon="10.73354347969977"><ele>113.00000000000001</ele><time>2026-04-18T07:31:01.999Z</time></trkpt><trkpt lat="43.53782317016281" lon="10.733401510990955"><ele>113.0</ele><time>2026-04-18T07:31:02.999Z</time></trkpt><trkpt lat="43.53780379082903" lon="10.733265428650634"><ele>113.0</ele><time>2026-04-18T07:31:03.999Z</time></trkpt><trkpt lat="43.53777868901745" lon="10.733111446134243"><ele>111.4</ele><time>2026-04-18T07:31:04.999Z</time></trkpt><trkpt lat="43.53775500022225" lon="10.73296634819746"><ele>109.80000000000001</ele><time>2026-04-18T07:31:05.999Z</time></trkpt><trkpt lat="43.53775893125433" lon="10.732823751814378"><ele>108.2</ele><time>2026-04-18T07:31:06.999Z</time></trkpt><trkpt lat="43.537756550897875" lon="10.732681172126926"><ele>106.6</ele><time>2026-04-18T07:31:07.999Z</time></trkpt><trkpt lat="43.53776262326398" lon="10.732529850048964"><ele>105.0</ele><time>2026-04-18T07:31:08.999Z</time></trkpt><trkpt lat="43.537773256962794" lon="10.732378050662401"><ele>104.6</ele><time>2026-04-18T07:31:09.999Z</time></trkpt><trkpt lat="43.5377952278388" lon="10.732237056531691"><ele>104.2</ele><time>2026-04-18T07:31:10.999Z</time></trkpt><trkpt lat="43.537833698284345" lon="10.732113531883435"><ele>103.80000000000001</ele><time>2026-04-18T07:31:11.999Z</time></trkpt><trkpt lat="43.53788660439558" lon="10.732005990506234"><ele>103.4</ele><time>2026-04-18T07:31:12.999Z</time></trkpt><trkpt lat="43.537943469127576" lon="10.73189712755493"><ele>103.0</ele><time>2026-04-18T07:31:13.999Z</time></trkpt><trkpt lat="43.538005315105686" lon="10.73178895899528"><ele>103.0</ele><time>2026-04-18T07:31:14.999Z</time></trkpt><trkpt lat="43.53806778324038" lon="10.73170158429473"><ele>103.0</ele><time>2026-04-18T07:31:15.999Z</time></trkpt><trkpt lat="43.5381361339907" lon="10.731631072470522"><ele>103.0</ele><time>2026-04-18T07:31:16.999Z</time></trkpt><trkpt lat="43.53821856313252" lon="10.731574726832667"><ele>103.0</ele><time>2026-04-18T07:31:17.999Z</time></trkpt><trkpt lat="43.53831509601563" lon="10.731519974854479"><ele>103.0</ele><time>2026-04-18T07:31:18.999Z</time></trkpt><trkpt lat="43.538405796244184" lon="10.731459657350667"><ele>103.0</ele><time>2026-04-18T07:31:19.999Z</time></trkpt><trkpt lat="43.53849058442533" lon="10.731397940278598"><ele>103.0</ele><time>2026-04-18T07:31:20.998Z</time></trkpt><trkpt lat="43.53858242363275" lon="10.731330112122508"><ele>103.0</ele><time>2026-04-18T07:31:21.998Z</time></trkpt><trkpt lat="43.538667751438325" lon="10.731263824403072"><ele>103.0</ele><time>2026-04-18T07:31:22.998Z</time></trkpt><trkpt lat="43.538736419399356" lon="10.731191825407334"><ele>103.0</ele><time>2026-04-18T07:31:23.998Z</time></trkpt><trkpt lat="43.53880389945627" lon="10.731141973415813"><ele>103.50000000000001</ele><time>2026-04-18T07:31:24.998Z</time></trkpt><trkpt lat="43.53886801164852" lon="10.731105477833296"><ele>104.0</ele><time>2026-04-18T07:31:25.998Z</time></trkpt><trkpt lat="43.53892816198127" lon="10.73105220619228"><ele>104.5</ele><time>2026-04-18T07:31:26.998Z</time></trkpt><trkpt lat="43.538986117334424" lon="10.730995666288527"><ele>105.0</ele><time>2026-04-18T07:31:27.998Z</time></trkpt><trkpt lat="43.53905128020064" lon="10.730924870428547"><ele>105.50000000000001</ele><time>2026-04-18T07:31:28.998Z</time></trkpt><trkpt lat="43.53912586193037" lon="10.730828226885869"><ele>106.0</ele><time>2026-04-18T07:31:29.998Z</time></trkpt><trkpt lat="43.53918288763617" lon="10.73070439326509"><ele>103.19999999999999</ele><time>2026-04-18T07:31:30.998Z</time></trkpt><trkpt lat="43.53924534908976" lon="10.730597173138706"><ele>100.39999999999999</ele><time>2026-04-18T07:31:31.998Z</time></trkpt><trkpt lat="43.539313949042274" lon="10.73050321068206"><ele>97.6</ele><time>2026-04-18T07:31:32.998Z</time></trkpt><trkpt lat="43.539361977267944" lon="10.730388830308462"><ele>94.8</ele><time>2026-04-18T07:31:33.998Z</time></trkpt><trkpt lat="43.539421886245414" lon="10.730275382745845"><ele>92.0</ele><time>2026-04-18T07:31:34.998Z</time></trkpt><trkpt lat="43.539482282676865" lon="10.730171528970194"><ele>89.8</ele><time>2026-04-18T07:31:35.998Z</time></trkpt><trkpt lat="43.539545240088145" lon="10.730074801351238"><ele>87.6</ele><time>2026-04-18T07:31:36.998Z</time></trkpt><trkpt lat="43.53962141519084" lon="10.730001234809512"><ele>85.39999999999999</ele><time>2026-04-18T07:31:37.998Z</time></trkpt><trkpt lat="43.53968757150502" lon="10.729931812323139"><ele>83.19999999999999</ele><time>2026-04-18T07:31:38.998Z</time></trkpt><trkpt lat="43.53976964660122" lon="10.72986073615371"><ele>81.0</ele><time>2026-04-18T07:31:39.998Z</time></trkpt><trkpt lat="43.53986340432772" lon="10.72980484496584"><ele>80.39999999999999</ele><time>2026-04-18T07:31:40.998Z</time></trkpt><trkpt lat="43.53996868712488" lon="10.72975523348609"><ele>79.8</ele><time>2026-04-18T07:31:41.998Z</time></trkpt><trkpt lat="43.54006701781406" lon="10.729675163081074"><ele>79.19999999999999</ele><time>2026-04-18T07:31:42.998Z</time></trkpt><trkpt lat="43.54015486269429" lon="10.729620196020077"><ele>78.6</ele><time>2026-04-18T07:31:43.998Z</time></trkpt><trkpt lat="43.54023765559938" lon="10.729574371007212"><ele>78.0</ele><time>2026-04-18T07:31:44.998Z</time></trkpt><trkpt lat="43.54031511682622" lon="10.729548406353189"><ele>78.0</ele><time>2026-04-18T07:31:45.998Z</time></trkpt><trkpt lat="43.54038380783454" lon="10.729534174924288"><ele>78.0</ele><time>2026-04-18T07:31:46.998Z</time></trkpt><trkpt lat="43.540468017860334" lon="10.72951710220053"><ele>78.0</ele><time>2026-04-18T07:31:47.998Z</time></trkpt><trkpt lat="43.54054385584837" lon="10.729504026693451"><ele>78.0</ele><time>2026-04-18T07:31:48.998Z</time></trkpt><trkpt lat="43.540648677838234" lon="10.729481739569461"><ele>78.0</ele><time>2026-04-18T07:31:50.998Z</time></trkpt><trkpt lat="43.540737784705115" lon="10.729448916749904"><ele>78.0</ele><time>2026-04-18T07:31:52.998Z</time></trkpt><trkpt lat="43.540834125965524" lon="10.7293316889241"><ele>76.33333333333333</ele><time>2026-04-18T07:31:54.998Z</time></trkpt><trkpt lat="43.540872411184324" lon="10.729250114040232"><ele>74.66666666666667</ele><time>2026-04-18T07:31:55.998Z</time></trkpt><trkpt lat="43.54090785100045" lon="10.729163696825418"><ele>73.0</ele><time>2026-04-18T07:31:56.998Z</time></trkpt><trkpt lat="43.54094737379335" lon="10.729051996243713"><ele>71.33333333333334</ele><time>2026-04-18T07:31:58Z</time></trkpt><trkpt lat="43.54098960717544" lon="10.728925515204613"><ele>69.66666666666667</ele><time>2026-04-18T07:31:59Z</time></trkpt><trkpt lat="43.54103108600305" lon="10.728795659828098"><ele>68.0</ele><time>2026-04-18T07:32:00Z</time></trkpt><trkpt lat="43.541069634471306" lon="10.72867497831139"><ele>66.6</ele><time>2026-04-18T07:32:01Z</time></trkpt><trkpt lat="43.541095995928416" lon="10.728537908158595"><ele>65.19999999999999</ele><time>2026-04-18T07:32:02Z</time></trkpt><trkpt lat="43.5411409626007" lon="10.728429051522355"><ele>63.8</ele><time>2026-04-18T07:32:03Z</time></trkpt><trkpt lat="43.54117701253026" lon="10.728303898542553"><ele>62.4</ele><time>2026-04-18T07:32:04Z</time></trkpt><trkpt lat="43.54122501753749" lon="10.728186692931564"><ele>61.0</ele><time>2026-04-18T07:32:05Z</time></trkpt><trkpt lat="43.54125549225897" lon="10.728044197205655"><ele>60.599999999999994</ele><time>2026-04-18T07:32:06Z</time></trkpt><trkpt lat="43.541305500023576" lon="10.727904341811021"><ele>60.199999999999996</ele><time>2026-04-18T07:32:07Z</time></trkpt><trkpt lat="43.54134673656282" lon="10.727778856226754"><ele>59.800000000000004</ele><time>2026-04-18T07:32:08Z</time></trkpt><trkpt lat="43.54135994063009" lon="10.727641409399213"><ele>59.400000000000006</ele><time>2026-04-18T07:32:09Z</time></trkpt><trkpt lat="43.541370559690115" lon="10.727501670610858"><ele>59.0</ele><time>2026-04-18T07:32:10Z</time></trkpt><trkpt lat="43.54139254864662" lon="10.727367850974424"><ele>59.0</ele><time>2026-04-18T07:32:11Z</time></trkpt><trkpt lat="43.54142945358259" lon="10.727243676350481"><ele>59.00000000000001</ele><time>2026-04-18T07:32:12Z</time></trkpt><trkpt lat="43.541500877801184" lon="10.72714144328862"><ele>59.00000000000001</ele><time>2026-04-18T07:32:13Z</time></trkpt><trkpt lat="43.54155889098579" lon="10.727024021792799"><ele>59.0</ele><time>2026-04-18T07:32:14Z</time></trkpt><trkpt lat="43.54163356169241" lon="10.726923714840366"><ele>59.0</ele><time>2026-04-18T07:32:15Z</time></trkpt><trkpt lat="43.54171160982143" lon="10.726812805441176"><ele>59.0</ele><time>2026-04-18T07:32:16Z</time></trkpt><trkpt lat="43.541795509062354" lon="10.72668744922262"><ele>59.0</ele><time>2026-04-18T07:32:17Z</time></trkpt><trkpt lat="43.54188146577536" lon="10.726555276762092"><ele>59.0</ele><time>2026-04-18T07:32:18Z</time></trkpt><trkpt lat="43.54197581265017" lon="10.726412570931986"><ele>59.0</ele><time>2026-04-18T07:32:18.999Z</time></trkpt><trkpt lat="43.542073881240384" lon="10.726255429288548"><ele>59.0</ele><time>2026-04-18T07:32:19.999Z</time></trkpt><trkpt lat="43.542178435827815" lon="10.726094012372592"><ele>59.0</ele><time>2026-04-18T07:32:20.999Z</time></trkpt><trkpt lat="43.54226064947292" lon="10.725968073576977"><ele>59.0</ele><time>2026-04-18T07:32:21.999Z</time></trkpt><trkpt lat="43.54233049293811" lon="10.725864107112269"><ele>59.0</ele><time>2026-04-18T07:32:22.999Z</time></trkpt><trkpt lat="43.542391399329986" lon="10.725773908469884"><ele>60.16666666666667</ele><time>2026-04-18T07:32:23.999Z</time></trkpt><trkpt lat="43.5424442273194" lon="10.72570852709128"><ele>61.333333333333336</ele><time>2026-04-18T07:32:24.999Z</time></trkpt><trkpt lat="43.54253437318255" lon="10.725644774766911"><ele>62.5</ele><time>2026-04-18T07:32:26.999Z</time></trkpt><trkpt lat="43.542604870438765" lon="10.725717484380038"><ele>63.66666666666667</ele><time>2026-04-18T07:32:27.999Z</time></trkpt><trkpt lat="43.542667539518554" lon="10.725702047591122"><ele>64.83333333333333</ele><time>2026-04-18T07:32:28.999Z</time></trkpt><trkpt lat="43.542744007759886" lon="10.725694853653907"><ele>66.0</ele><time>2026-04-18T07:32:29.999Z</time></trkpt><trkpt lat="43.54280941674334" lon="10.725638131625985"><ele>66.0</ele><time>2026-04-18T07:32:30.999Z</time></trkpt><trkpt lat="43.54286216574979" lon="10.725551338998432"><ele>66.0</ele><time>2026-04-18T07:32:31.999Z</time></trkpt><trkpt lat="43.54290748305643" lon="10.725443823857615"><ele>66.0</ele><time>2026-04-18T07:32:32.999Z</time></trkpt><trkpt lat="43.54292053099915" lon="10.725316565214596"><ele>66.0</ele><time>2026-04-18T07:32:33.999Z</time></trkpt><trkpt lat="43.54293662386329" lon="10.72520085833816"><ele>66.0</ele><time>2026-04-18T07:32:34.999Z</time></trkpt><trkpt lat="43.54293740399806" lon="10.72507288165797"><ele>66.0</ele><time>2026-04-18T07:32:35.999Z</time></trkpt><trkpt lat="43.542961139942875" lon="10.72493582424626"><ele>71.8</ele><time>2026-04-18T07:32:36.999Z</time></trkpt><trkpt lat="43.542978500009106" lon="10.724810380380035"><ele>77.6</ele><time>2026-04-18T07:32:37.999Z</time></trkpt><trkpt lat="43.54300738026846" lon="10.72471365881009"><ele>83.4</ele><time>2026-04-18T07:32:38.999Z</time></trkpt><trkpt lat="43.54306803690983" lon="10.724583472637539"><ele>89.2</ele><time>2026-04-18T07:32:40.999Z</time></trkpt><trkpt lat="43.543178489337684" lon="10.724502458552001"><ele>95.0</ele><time>2026-04-18T07:32:42.999Z</time></trkpt><trkpt lat="43.543243192581684" lon="10.724470835364635"><ele>95.0</ele><time>2026-04-18T07:32:43.999Z</time></trkpt><trkpt lat="43.54331338992422" lon="10.724430695128293"><ele>95.0</ele><time>2026-04-18T07:32:44.999Z</time></trkpt><trkpt lat="43.543385312872495" lon="10.724385225881736"><ele>95.0</ele><time>2026-04-18T07:32:45.999Z</time></trkpt><trkpt lat="43.5434512345576" lon="10.724330736584555"><ele>95.0</ele><time>2026-04-18T07:32:46.999Z</time></trkpt><trkpt lat="43.543493421861434" lon="10.724234122503635"><ele>95.0</ele><time>2026-04-18T07:32:47.999Z</time></trkpt><trkpt lat="43.54350239473938" lon="10.724125345428858"><ele>95.0</ele><time>2026-04-18T07:32:48.999Z</time></trkpt><trkpt lat="43.54352816802902" lon="10.724020099955675"><ele>95.5</ele><time>2026-04-18T07:32:49.999Z</time></trkpt><trkpt lat="43.543580575115236" lon="10.723937956053058"><ele>96.0</ele><time>2026-04-18T07:32:50.999Z</time></trkpt><trkpt lat="43.54362858301421" lon="10.723833821777982"><ele>96.5</ele><time>2026-04-18T07:32:51.999Z</time></trkpt><trkpt lat="43.54369197231024" lon="10.723765822390405"><ele>97.0</ele><time>2026-04-18T07:32:52.999Z</time></trkpt><trkpt lat="43.54376534316083" lon="10.723676609574227"><ele>97.49999999999999</ele><time>2026-04-18T07:32:53.999Z</time></trkpt><trkpt lat="43.54383359856279" lon="10.723587294073225"><ele>98.0</ele><time>2026-04-18T07:32:54.999Z</time></trkpt><trkpt lat="43.54389290566628" lon="10.72347147503991"><ele>101.16666666666666</ele><time>2026-04-18T07:32:55.999Z</time></trkpt><trkpt lat="43.543958188478065" lon="10.72338191695035"><ele>104.33333333333333</ele><time>2026-04-18T07:32:56.999Z</time></trkpt><trkpt lat="43.54399900980745" lon="10.723305718815189"><ele>107.5</ele><time>2026-04-18T07:32:57.999Z</time></trkpt><trkpt lat="43.5440519186839" lon="10.723167444495951"><ele>110.66666666666666</ele><time>2026-04-18T07:32:59.999Z</time></trkpt><trkpt lat="43.544074014966995" lon="10.723079461468158"><ele>113.83333333333333</ele><time>2026-04-18T07:33:00.999Z</time></trkpt><trkpt lat="43.544088259885505" lon="10.722968242494227"><ele>117.0</ele><time>2026-04-18T07:33:01.999Z</time></trkpt><trkpt lat="43.54411658305129" lon="10.72286092867274"><ele>117.0</ele><time>2026-04-18T07:33:02.999Z</time></trkpt><trkpt lat="43.54414615474181" lon="10.722732696535772"><ele>116.99999999999999</ele><time>2026-04-18T07:33:03.999Z</time></trkpt><trkpt lat="43.54420245507336" lon="10.722606718479046"><ele>116.99999999999999</ele><time>2026-04-18T07:33:04.999Z</time></trkpt><trkpt lat="43.54426053828037" lon="10.722485429205372"><ele>117.0</ele><time>2026-04-18T07:33:05.999Z</time></trkpt><trkpt lat="43.54431797819827" lon="10.722359791031554"><ele>117.0</ele><time>2026-04-18T07:33:06.999Z</time></trkpt><trkpt lat="43.54438306214055" lon="10.72223145987286"><ele>117.75</ele><time>2026-04-18T07:33:07.999Z</time></trkpt><trkpt lat="43.54445075428824" lon="10.722102382770778"><ele>118.5</ele><time>2026-04-18T07:33:08.999Z</time></trkpt><trkpt lat="43.544523773294344" lon="10.721982465503242"><ele>119.25</ele><time>2026-04-18T07:33:09.999Z</time></trkpt><trkpt lat="43.54461898998363" lon="10.721869878985872"><ele>120.0</ele><time>2026-04-18T07:33:10.999Z</time></trkpt><trkpt lat="43.54471303144525" lon="10.721778443196891"><ele>120.0</ele><time>2026-04-18T07:33:11.999Z</time></trkpt><trkpt lat="43.54480122982308" lon="10.721695881120562"><ele>120.0</ele><time>2026-04-18T07:33:12.999Z</time></trkpt><trkpt lat="43.544902893858534" lon="10.721627082406059"><ele>120.0</ele><time>2026-04-18T07:33:13.999Z</time></trkpt><trkpt lat="43.545019591173805" lon="10.721585493553532"><ele>120.0</ele><time>2026-04-18T07:33:14.999Z</time></trkpt><trkpt lat="43.54513447820018" lon="10.721533685949547"><ele>120.0</ele><time>2026-04-18T07:33:15.999Z</time></trkpt><trkpt lat="43.545255680334805" lon="10.721469870565686"><ele>120.0</ele><time>2026-04-18T07:33:16.999Z</time></trkpt><trkpt lat="43.54536988564079" lon="10.721407505315012"><ele>120.0</ele><time>2026-04-18T07:33:17.999Z</time></trkpt><trkpt lat="43.54546800316081" lon="10.721345248434863"><ele>120.0</ele><time>2026-04-18T07:33:18.999Z</time></trkpt><trkpt lat="43.54556574823942" lon="10.721296987946065"><ele>119.5</ele><time>2026-04-18T07:33:19.999Z</time></trkpt><trkpt lat="43.54565113498607" lon="10.721258403980832"><ele>119.0</ele><time>2026-04-18T07:33:20.999Z</time></trkpt><trkpt lat="43.545723016754565" lon="10.721230485655648"><ele>118.5</ele><time>2026-04-18T07:33:21.999Z</time></trkpt><trkpt lat="43.54577671250814" lon="10.721172183769056"><ele>118.0</ele><time>2026-04-18T07:33:23.999Z</time></trkpt><trkpt lat="43.54581721041191" lon="10.721071912923515"><ele>117.5</ele><time>2026-04-18T07:33:43.998Z</time></trkpt><trkpt lat="43.54571286800969" lon="10.720972742787108"><ele>117.0</ele><time>2026-04-18T07:33:44.998Z</time></trkpt><trkpt lat="43.54564349475078" lon="10.72094002553477"><ele>117.8</ele><time>2026-04-18T07:33:45.998Z</time></trkpt><trkpt lat="43.54558151881672" lon="10.720886405294841"><ele>118.6</ele><time>2026-04-18T07:33:46.998Z</time></trkpt><trkpt lat="43.54551023555533" lon="10.720822094161703"><ele>119.39999999999999</ele><time>2026-04-18T07:33:47.998Z</time></trkpt><trkpt lat="43.545418020386464" lon="10.720769378460469"><ele>120.19999999999999</ele><time>2026-04-18T07:33:48.998Z</time></trkpt><trkpt lat="43.54531573189051" lon="10.720736844347702"><ele>121.0</ele><time>2026-04-18T07:33:49.998Z</time></trkpt><trkpt lat="43.545207647849544" lon="10.720715305400175"><ele>121.00000000000001</ele><time>2026-04-18T07:33:50.998Z</time></trkpt><trkpt lat="43.54512365268553" lon="10.720655013359739"><ele>121.0</ele><time>2026-04-18T07:33:51.998Z</time></trkpt><trkpt lat="43.545056563582335" lon="10.720634354662302"><ele>121.0</ele><time>2026-04-18T07:33:52.998Z</time></trkpt><trkpt lat="43.54501744411141" lon="10.720502929766749"><ele>121.0</ele><time>2026-04-18T07:33:54.998Z</time></trkpt><trkpt lat="43.545032302416075" lon="10.72040670537978"><ele>121.00000000000001</ele><time>2026-04-18T07:33:55.998Z</time></trkpt><trkpt lat="43.54507554133059" lon="10.720306601530622"><ele>121.0</ele><time>2026-04-18T07:33:56.998Z</time></trkpt><trkpt lat="43.545131930754145" lon="10.720198515310654"><ele>120.5</ele><time>2026-04-18T07:33:57.998Z</time></trkpt><trkpt lat="43.54520706511721" lon="10.720090932312864"><ele>120.0</ele><time>2026-04-18T07:33:58.998Z</time></trkpt><trkpt lat="43.545283923073505" lon="10.719992627501885"><ele>119.5</ele><time>2026-04-18T07:33:59.998Z</time></trkpt><trkpt lat="43.545378158528514" lon="10.719892750281955"><ele>119.0</ele><time>2026-04-18T07:34:00.998Z</time></trkpt><trkpt lat="43.5454786818166" lon="10.719804025398991"><ele>119.0</ele><time>2026-04-18T07:34:01.998Z</time></trkpt><trkpt lat="43.54559035033962" lon="10.719738892462926"><ele>119.0</ele><time>2026-04-18T07:34:02.998Z</time></trkpt><trkpt lat="43.54570685433597" lon="10.719691000410803"><ele>119.0</ele><time>2026-04-18T07:34:04Z</time></trkpt><trkpt lat="43.545830078144135" lon="10.719639712748778"><ele>119.0</ele><time>2026-04-18T07:34:05Z</time></trkpt><trkpt lat="43.545952098530094" lon="10.719573303967827"><ele>119.0</ele><time>2026-04-18T07:34:06Z</time></trkpt><trkpt lat="43.54607699194423" lon="10.719510790226938"><ele>119.0</ele><time>2026-04-18T07:34:07Z</time></trkpt><trkpt lat="43.546203914500616" lon="10.719455530839603"><ele>119.0</ele><time>2026-04-18T07:34:08Z</time></trkpt><trkpt lat="43.546328559666904" lon="10.719412304725868"><ele>119.0</ele><time>2026-04-18T07:34:09Z</time></trkpt><trkpt lat="43.546437844082334" lon="10.71937610741742"><ele>117.2</ele><time>2026-04-18T07:34:10Z</time></trkpt><trkpt lat="43.54653481726934" lon="10.719359251971163"><ele>115.4</ele><time>2026-04-18T07:34:11Z</time></trkpt><trkpt lat="43.54663877241506" lon="10.719354844683098"><ele>113.6</ele><time>2026-04-18T07:34:12Z</time></trkpt><trkpt lat="43.54675020427356" lon="10.71936089531466"><ele>111.8</ele><time>2026-04-18T07:34:13Z</time></trkpt><trkpt lat="43.54686478179728" lon="10.719391852170265"><ele>110.0</ele><time>2026-04-18T07:34:14Z</time></trkpt><trkpt lat="43.54698344343755" lon="10.719392118960364"><ele>109.5</ele><time>2026-04-18T07:34:15Z</time></trkpt><trkpt lat="43.54710624628158" lon="10.719380990034981"><ele>109.0</ele><time>2026-04-18T07:34:16Z</time></trkpt><trkpt lat="43.54723661897675" lon="10.719370144184198"><ele>108.5</ele><time>2026-04-18T07:34:17Z</time></trkpt><trkpt lat="43.54737040276423" lon="10.71933901285812"><ele>108.0</ele><time>2026-04-18T07:34:18Z</time></trkpt><trkpt lat="43.54750527914536" lon="10.719336306734313"><ele>108.0</ele><time>2026-04-18T07:34:19Z</time></trkpt><trkpt lat="43.54764320241454" lon="10.719329702650565"><ele>108.0</ele><time>2026-04-18T07:34:20Z</time></trkpt><trkpt lat="43.547782662276816" lon="10.719323175060469"><ele>108.0</ele><time>2026-04-18T07:34:21Z</time></trkpt><trkpt lat="43.547920114757176" lon="10.719317031345874"><ele>108.0</ele><time>2026-04-18T07:34:22Z</time></trkpt><trkpt lat="43.548059836574566" lon="10.71931285045931"><ele>109.5</ele><time>2026-04-18T07:34:23Z</time></trkpt><trkpt lat="43.54819906424191" lon="10.719309101078766"><ele>111.0</ele><time>2026-04-18T07:34:23.999Z</time></trkpt><trkpt lat="43.548337993168346" lon="10.719302906920012"><ele>112.5</ele><time>2026-04-18T07:34:24.999Z</time></trkpt><trkpt lat="43.5484757395279" lon="10.719301294688359"><ele>114.0</ele><time>2026-04-18T07:34:25.999Z</time></trkpt><trkpt lat="43.54861437940962" lon="10.71929853507748"><ele>114.5</ele><time>2026-04-18T07:34:26.999Z</time></trkpt><trkpt lat="43.5487508129253" lon="10.719299509341496"><ele>115.0</ele><time>2026-04-18T07:34:27.999Z</time></trkpt><trkpt lat="43.54888749543262" lon="10.719329013009562"><ele>115.5</ele><time>2026-04-18T07:34:28.999Z</time></trkpt><trkpt lat="43.54901549333884" lon="10.719394312666047"><ele>116.0</ele><time>2026-04-18T07:34:29.999Z</time></trkpt><trkpt lat="43.549147214988686" lon="10.719429865591168"><ele>121.5</ele><time>2026-04-18T07:34:30.999Z</time></trkpt><trkpt lat="43.54926231850895" lon="10.71951350373184"><ele>127.0</ele><time>2026-04-18T07:34:31.999Z</time></trkpt><trkpt lat="43.549349609411045" lon="10.719626610656753"><ele>132.5</ele><time>2026-04-18T07:34:32.999Z</time></trkpt><trkpt lat="43.54942193202441" lon="10.719755903984707"><ele>138.0</ele><time>2026-04-18T07:34:33.999Z</time></trkpt><trkpt lat="43.54949223916719" lon="10.71988145632707"><ele>136.0</ele><time>2026-04-18T07:34:34.999Z</time></trkpt><trkpt lat="43.54956396052585" lon="10.72000417907559"><ele>134.0</ele><time>2026-04-18T07:34:35.999Z</time></trkpt><trkpt lat="43.54963124558513" lon="10.72012596044754"><ele>132.0</ele><time>2026-04-18T07:34:36.999Z</time></trkpt><trkpt lat="43.54967747985067" lon="10.720260019494638"><ele>130.0</ele><time>2026-04-18T07:34:37.999Z</time></trkpt><trkpt lat="43.54967856698112" lon="10.720411145034547"><ele>128.0</ele><time>2026-04-18T07:34:38.999Z</time></trkpt><trkpt lat="43.54967033154945" lon="10.720564901544725"><ele>128.0</ele><time>2026-04-18T07:34:39.999Z</time></trkpt><trkpt lat="43.54967654417581" lon="10.720731186363407"><ele>128.0</ele><time>2026-04-18T07:34:40.999Z</time></trkpt><trkpt lat="43.54966727752405" lon="10.720901479808504"><ele>128.0</ele><time>2026-04-18T07:34:41.999Z</time></trkpt><trkpt lat="43.54965710311039" lon="10.721070046515822"><ele>128.0</ele><time>2026-04-18T07:34:42.999Z</time></trkpt><trkpt lat="43.54963972787114" lon="10.72122620606843"><ele>129.20000000000002</ele><time>2026-04-18T07:34:43.999Z</time></trkpt><trkpt lat="43.54957534637116" lon="10.721329093433647"><ele>130.4</ele><time>2026-04-18T07:34:44.999Z</time></trkpt><trkpt lat="43.549548540492005" lon="10.721428333447891"><ele>131.60000000000002</ele><time>2026-04-18T07:34:45.999Z</time></trkpt><trkpt lat="43.549581556713974" lon="10.721552966364845"><ele>132.8</ele><time>2026-04-18T07:34:46.999Z</time></trkpt><trkpt lat="43.54961565666964" lon="10.721684298765878"><ele>134.0</ele><time>2026-04-18T07:34:47.999Z</time></trkpt><trkpt lat="43.54966224165464" lon="10.721826641839177"><ele>134.5</ele><time>2026-04-18T07:34:48.999Z</time></trkpt><trkpt lat="43.54971021307272" lon="10.721984444058219"><ele>135.0</ele><time>2026-04-18T07:34:49.999Z</time></trkpt><trkpt lat="43.54976390825821" lon="10.722149861333381"><ele>135.5</ele><time>2026-04-18T07:34:50.999Z</time></trkpt><trkpt lat="43.54981253188253" lon="10.722298512108045"><ele>136.0</ele><time>2026-04-18T07:34:51.999Z</time></trkpt><trkpt lat="43.549849194067605" lon="10.722441113016247"><ele>136.0</ele><time>2026-04-18T07:34:52.999Z</time></trkpt><trkpt lat="43.549864768105756" lon="10.72259652493829"><ele>136.0</ele><time>2026-04-18T07:34:53.999Z</time></trkpt><trkpt lat="43.54985137201942" lon="10.722753560889782"><ele>136.0</ele><time>2026-04-18T07:34:54.999Z</time></trkpt><trkpt lat="43.54984825247977" lon="10.722899435957473"><ele>136.0</ele><time>2026-04-18T07:34:55.999Z</time></trkpt><trkpt lat="43.54988622717215" lon="10.723045387481026"><ele>136.0</ele><time>2026-04-18T07:34:56.999Z</time></trkpt><trkpt lat="43.549950296139656" lon="10.723203453889132"><ele>135.25</ele><time>2026-04-18T07:34:57.999Z</time></trkpt><trkpt lat="43.549985223971454" lon="10.72338022843282"><ele>134.5</ele><time>2026-04-18T07:34:58.999Z</time></trkpt><trkpt lat="43.5500007625689" lon="10.723539244196955"><ele>133.75</ele><time>2026-04-18T07:34:59.999Z</time></trkpt><trkpt lat="43.55001968017289" lon="10.723699959350048"><ele>133.0</ele><time>2026-04-18T07:35:00.999Z</time></trkpt><trkpt lat="43.55007562925062" lon="10.723851529555942"><ele>131.25</ele><time>2026-04-18T07:35:01.999Z</time></trkpt><trkpt lat="43.55014724885651" lon="10.723989221812817"><ele>129.5</ele><time>2026-04-18T07:35:02.999Z</time></trkpt><trkpt lat="43.550228216937406" lon="10.72411067158607"><ele>127.75</ele><time>2026-04-18T07:35:03.999Z</time></trkpt><trkpt lat="43.55031080388406" lon="10.724205857465034"><ele>126.0</ele><time>2026-04-18T07:35:04.999Z</time></trkpt><trkpt lat="43.5504308260847" lon="10.724266773177758"><ele>126.0</ele><time>2026-04-18T07:35:05.999Z</time></trkpt><trkpt lat="43.55054775670935" lon="10.724285756168825"><ele>126.0</ele><time>2026-04-18T07:35:07.999Z</time></trkpt><trkpt lat="43.55066670459646" lon="10.724287745226476"><ele>126.0</ele><time>2026-04-18T07:35:08.999Z</time></trkpt><trkpt lat="43.550793285071386" lon="10.724307347260796"><ele>126.0</ele><time>2026-04-18T07:35:09.999Z</time></trkpt><trkpt lat="43.550929300232596" lon="10.72434060022032"><ele>126.0</ele><time>2026-04-18T07:35:10.999Z</time></trkpt><trkpt lat="43.55106648816519" lon="10.724380838446061"><ele>126.0</ele><time>2026-04-18T07:35:11.999Z</time></trkpt><trkpt lat="43.551206326517985" lon="10.724426323190773"><ele>126.0</ele><time>2026-04-18T07:35:12.999Z</time></trkpt><trkpt lat="43.55133924997866" lon="10.724473463110154"><ele>126.0</ele><time>2026-04-18T07:35:13.999Z</time></trkpt><trkpt lat="43.551435421092386" lon="10.724507047391697"><ele>121.83333333333333</ele><time>2026-04-18T07:35:14.999Z</time></trkpt><trkpt lat="43.55150094215178" lon="10.724528623526096"><ele>117.66666666666666</ele><time>2026-04-18T07:35:15.999Z</time></trkpt><trkpt lat="43.55157590519701" lon="10.724553981747865"><ele>113.5</ele><time>2026-04-18T07:35:16.999Z</time></trkpt><trkpt lat="43.55165056094235" lon="10.724587934027825"><ele>109.33333333333333</ele><time>2026-04-18T07:35:17.999Z</time></trkpt><trkpt lat="43.551731768542915" lon="10.72462417081692"><ele>105.16666666666666</ele><time>2026-04-18T07:35:18.999Z</time></trkpt><trkpt lat="43.5518331854158" lon="10.724651207610345"><ele>101.0</ele><time>2026-04-18T07:35:19.999Z</time></trkpt><trkpt lat="43.55194784672296" lon="10.724638922444276"><ele>99.5</ele><time>2026-04-18T07:35:20.999Z</time></trkpt><trkpt lat="43.552069809269504" lon="10.72462638720715"><ele>98.0</ele><time>2026-04-18T07:35:21.999Z</time></trkpt><trkpt lat="43.552197551753444" lon="10.72460165341046"><ele>96.5</ele><time>2026-04-18T07:35:22.999Z</time></trkpt><trkpt lat="43.552331212160134" lon="10.724573787094707"><ele>95.0</ele><time>2026-04-18T07:35:23.999Z</time></trkpt><trkpt lat="43.552468649351" lon="10.724557043440882"><ele>95.0</ele><time>2026-04-18T07:35:24.999Z</time></trkpt><trkpt lat="43.55260973393048" lon="10.724570323314323"><ele>95.0</ele><time>2026-04-18T07:35:25.999Z</time></trkpt><trkpt lat="43.5527536816186" lon="10.724601441731497"><ele>95.0</ele><time>2026-04-18T07:35:26.999Z</time></trkpt><trkpt lat="43.5528992350696" lon="10.724643012318687"><ele>95.0</ele><time>2026-04-18T07:35:27.999Z</time></trkpt><trkpt lat="43.5530486245728" lon="10.724680047091773"><ele>92.0</ele><time>2026-04-18T07:35:28.998Z</time></trkpt><trkpt lat="43.55320915098065" lon="10.724715401093398"><ele>89.0</ele><time>2026-04-18T07:35:29.998Z</time></trkpt><trkpt lat="43.55337390618901" lon="10.724750905463623"><ele>86.0</ele><time>2026-04-18T07:35:30.998Z</time></trkpt><trkpt lat="43.55354028287712" lon="10.724788593003083"><ele>84.33333333333334</ele><time>2026-04-18T07:35:31.998Z</time></trkpt><trkpt lat="43.55370722368407" lon="10.724827191496484"><ele>82.66666666666667</ele><time>2026-04-18T07:35:32.998Z</time></trkpt><trkpt lat="43.55387641424675" lon="10.724865511367454"><ele>81.0</ele><time>2026-04-18T07:35:33.998Z</time></trkpt><trkpt lat="43.55404775544762" lon="10.724896261439499"><ele>81.0</ele><time>2026-04-18T07:35:34.998Z</time></trkpt><trkpt lat="43.55422321025272" lon="10.724917404970643"><ele>81.0</ele><time>2026-04-18T07:35:35.998Z</time></trkpt><trkpt lat="43.55440059317155" lon="10.724923732066696"><ele>81.0</ele><time>2026-04-18T07:35:36.998Z</time></trkpt><trkpt lat="43.55457882718681" lon="10.72491596714267"><ele>78.0</ele><time>2026-04-18T07:35:37.998Z</time></trkpt><trkpt lat="43.554754605272784" lon="10.72489985705147"><ele>75.0</ele><time>2026-04-18T07:35:38.998Z</time></trkpt><trkpt lat="43.55492669472997" lon="10.724886807939884"><ele>72.0</ele><time>2026-04-18T07:35:39.998Z</time></trkpt><trkpt lat="43.555101379085826" lon="10.724885535814634"><ele>72.0</ele><time>2026-04-18T07:35:40.998Z</time></trkpt><trkpt lat="43.555270604219174" lon="10.724884730882343"><ele>72.0</ele><time>2026-04-18T07:35:41.998Z</time></trkpt><trkpt lat="43.555445354801016" lon="10.724885419109892"><ele>72.0</ele><time>2026-04-18T07:35:42.998Z</time></trkpt><trkpt lat="43.55562141381694" lon="10.724886130884698"><ele>70.33333333333333</ele><time>2026-04-18T07:35:43.998Z</time></trkpt><trkpt lat="43.55579921863522" lon="10.724893151367782"><ele>68.66666666666666</ele><time>2026-04-18T07:35:44.998Z</time></trkpt><trkpt lat="43.55597406552254" lon="10.72494068970729"><ele>67.0</ele><time>2026-04-18T07:35:45.998Z</time></trkpt><trkpt lat="43.556147969517994" lon="10.725001989959223"><ele>66.33333333333333</ele><time>2026-04-18T07:35:46.998Z</time></trkpt><trkpt lat="43.55632699450409" lon="10.725052234970171"><ele>65.66666666666667</ele><time>2026-04-18T07:35:47.998Z</time></trkpt><trkpt lat="43.5565006336428" lon="10.725124199777186"><ele>65.0</ele><time>2026-04-18T07:35:48.998Z</time></trkpt><trkpt lat="43.55667781354008" lon="10.725184008396615"><ele>60.66666666666667</ele><time>2026-04-18T07:35:49.998Z</time></trkpt><trkpt lat="43.55684870058979" lon="10.725246610947394"><ele>56.33333333333333</ele><time>2026-04-18T07:35:50.998Z</time></trkpt><trkpt lat="43.55701812384814" lon="10.725322126650317"><ele>52.0</ele><time>2026-04-18T07:35:51.998Z</time></trkpt><trkpt lat="43.55717535931067" lon="10.725420283481602"><ele>51.33333333333333</ele><time>2026-04-18T07:35:52.998Z</time></trkpt><trkpt lat="43.557319962566865" lon="10.725548418189101"><ele>50.66666666666667</ele><time>2026-04-18T07:35:53.998Z</time></trkpt><trkpt lat="43.55744998850606" lon="10.725702957144291"><ele>50.0</ele><time>2026-04-18T07:35:54.998Z</time></trkpt><trkpt lat="43.55755247001458" lon="10.725897899760941"><ele>49.333333333333336</ele><time>2026-04-18T07:35:55.998Z</time></trkpt><trkpt lat="43.55767782417636" lon="10.726069625066074"><ele>48.66666666666667</ele><time>2026-04-18T07:35:56.998Z</time></trkpt><trkpt lat="43.557791549747705" lon="10.726262286626179"><ele>48.0</ele><time>2026-04-18T07:35:57.998Z</time></trkpt><trkpt lat="43.55790556742419" lon="10.726453789094355"><ele>47.666666666666664</ele><time>2026-04-18T07:35:58.998Z</time></trkpt><trkpt lat="43.55802425206762" lon="10.726645340457999"><ele>47.33333333333333</ele><time>2026-04-18T07:35:59.998Z</time></trkpt><trkpt lat="43.55814772378283" lon="10.726841394977598"><ele>47.0</ele><time>2026-04-18T07:36:00.998Z</time></trkpt><trkpt lat="43.5582700950618" lon="10.727034543797975"><ele>47.0</ele><time>2026-04-18T07:36:01.998Z</time></trkpt><trkpt lat="43.558394328738444" lon="10.727234011830909"><ele>47.0</ele><time>2026-04-18T07:36:02.998Z</time></trkpt><trkpt lat="43.55852004540482" lon="10.727431191041948"><ele>47.0</ele><time>2026-04-18T07:36:03.998Z</time></trkpt><trkpt lat="43.55864715328773" lon="10.727626344286861"><ele>47.0</ele><time>2026-04-18T07:36:04.998Z</time></trkpt><trkpt lat="43.55877085575073" lon="10.727822466934546"><ele>47.0</ele><time>2026-04-18T07:36:05.998Z</time></trkpt><trkpt lat="43.5588923195244" lon="10.728021271864815"><ele>47.0</ele><time>2026-04-18T07:36:06.998Z</time></trkpt><trkpt lat="43.55901435227844" lon="10.728218943749825"><ele>47.0</ele><time>2026-04-18T07:36:07.998Z</time></trkpt><trkpt lat="43.55913821390407" lon="10.728418614220464"><ele>47.0</ele><time>2026-04-18T07:36:09Z</time></trkpt><trkpt lat="43.55926310411406" lon="10.728618179383794"><ele>47.0</ele><time>2026-04-18T07:36:10Z</time></trkpt><trkpt lat="43.55938971505094" lon="10.728817670893623"><ele>47.666666666666664</ele><time>2026-04-18T07:36:11Z</time></trkpt><trkpt lat="43.5595191995132" lon="10.729020481300532"><ele>48.33333333333333</ele><time>2026-04-18T07:36:12Z</time></trkpt><trkpt lat="43.55964806457125" lon="10.729223453178975"><ele>49.0</ele><time>2026-04-18T07:36:13Z</time></trkpt><trkpt lat="43.55977676835781" lon="10.729430703184585"><ele>47.666666666666664</ele><time>2026-04-18T07:36:14Z</time></trkpt><trkpt lat="43.559907162992985" lon="10.729638249342372"><ele>46.33333333333333</ele><time>2026-04-18T07:36:15Z</time></trkpt><trkpt lat="43.56003720343938" lon="10.72984789693073"><ele>45.0</ele><time>2026-04-18T07:36:16Z</time></trkpt><trkpt lat="43.560169691411325" lon="10.730059139297163"><ele>45.0</ele><time>2026-04-18T07:36:17Z</time></trkpt><trkpt lat="43.56030184021934" lon="10.730271549722977"><ele>45.0</ele><time>2026-04-18T07:36:18Z</time></trkpt><trkpt lat="43.560435880486345" lon="10.730485147968523"><ele>45.0</ele><time>2026-04-18T07:36:19Z</time></trkpt><trkpt lat="43.56057274632978" lon="10.730699555688753"><ele>45.0</ele><time>2026-04-18T07:36:20Z</time></trkpt><trkpt lat="43.56070991771444" lon="10.730911361766669"><ele>45.0</ele><time>2026-04-18T07:36:21Z</time></trkpt><trkpt lat="43.560847510346704" lon="10.731126372682542"><ele>45.0</ele><time>2026-04-18T07:36:22Z</time></trkpt><trkpt lat="43.560983189084084" lon="10.73134409317132"><ele>45.0</ele><time>2026-04-18T07:36:23Z</time></trkpt><trkpt lat="43.561117071478634" lon="10.731560483091986"><ele>45.0</ele><time>2026-04-18T07:36:24Z</time></trkpt><trkpt lat="43.56124976814761" lon="10.731777898665934"><ele>45.0</ele><time>2026-04-18T07:36:25Z</time></trkpt><trkpt lat="43.56138376725052" lon="10.731994757923779"><ele>45.0</ele><time>2026-04-18T07:36:26Z</time></trkpt><trkpt lat="43.561520642942476" lon="10.732211569380418"><ele>45.0</ele><time>2026-04-18T07:36:27Z</time></trkpt><trkpt lat="43.561656501373776" lon="10.732427245153128"><ele>45.0</ele><time>2026-04-18T07:36:27.999Z</time></trkpt><trkpt lat="43.56179227611172" lon="10.732638434562109"><ele>45.333333333333336</ele><time>2026-04-18T07:36:28.999Z</time></trkpt><trkpt lat="43.56192883867732" lon="10.73285523589331"><ele>45.66666666666667</ele><time>2026-04-18T07:36:29.999Z</time></trkpt><trkpt lat="43.562062280895596" lon="10.73306889223423"><ele>46.0</ele><time>2026-04-18T07:36:30.999Z</time></trkpt><trkpt lat="43.56219821358398" lon="10.733281212115195"><ele>46.333333333333336</ele><time>2026-04-18T07:36:31.999Z</time></trkpt><trkpt lat="43.56232793992127" lon="10.73349779219783"><ele>46.666666666666664</ele><time>2026-04-18T07:36:32.999Z</time></trkpt><trkpt lat="43.562460979903506" lon="10.733710172904964"><ele>47.0</ele><time>2026-04-18T07:36:33.999Z</time></trkpt><trkpt lat="43.56259609859234" lon="10.733923363520326"><ele>47.0</ele><time>2026-04-18T07:36:34.999Z</time></trkpt><trkpt lat="43.56273034422533" lon="10.734137826352239"><ele>47.0</ele><time>2026-04-18T07:36:35.999Z</time></trkpt><trkpt lat="43.56286263408197" lon="10.734354076230812"><ele>47.0</ele><time>2026-04-18T07:36:36.999Z</time></trkpt><trkpt lat="43.56298767487924" lon="10.734576864068202"><ele>47.0</ele><time>2026-04-18T07:36:37.999Z</time></trkpt><trkpt lat="43.56310580050985" lon="10.73480951061238"><ele>47.0</ele><time>2026-04-18T07:36:38.999Z</time></trkpt><trkpt lat="43.56321419307609" lon="10.735052124322207"><ele>47.0</ele><time>2026-04-18T07:36:39.999Z</time></trkpt><trkpt lat="43.563313854748145" lon="10.735298021473659"><ele>47.0</ele><time>2026-04-18T07:36:40.999Z</time></trkpt><trkpt lat="43.56341970284821" lon="10.73554620687874"><ele>47.0</ele><time>2026-04-18T07:36:41.999Z</time></trkpt><trkpt lat="43.56352010893292" lon="10.7357913497315"><ele>47.0</ele><time>2026-04-18T07:36:42.999Z</time></trkpt><trkpt lat="43.563624398844816" lon="10.73603714844407"><ele>47.33333333333333</ele><time>2026-04-18T07:36:43.999Z</time></trkpt><trkpt lat="43.56372976247736" lon="10.736281314075534"><ele>47.666666666666664</ele><time>2026-04-18T07:36:44.999Z</time></trkpt><trkpt lat="43.56383584464394" lon="10.736527380969122"><ele>48.0</ele><time>2026-04-18T07:36:45.999Z</time></trkpt><trkpt lat="43.5639393036901" lon="10.736773269289127"><ele>48.0</ele><time>2026-04-18T07:36:46.999Z</time></trkpt><trkpt lat="43.564043057011794" lon="10.737019926313423"><ele>48.0</ele><time>2026-04-18T07:36:47.999Z</time></trkpt><trkpt lat="43.56414699636202" lon="10.737266165777086"><ele>48.0</ele><time>2026-04-18T07:36:48.999Z</time></trkpt><trkpt lat="43.564251156966534" lon="10.737511932886132"><ele>48.0</ele><time>2026-04-18T07:36:49.999Z</time></trkpt><trkpt lat="43.564352845183606" lon="10.737752354020078"><ele>48.0</ele><time>2026-04-18T07:36:50.999Z</time></trkpt><trkpt lat="43.564451973929025" lon="10.73799420543082"><ele>48.0</ele><time>2026-04-18T07:36:51.999Z</time></trkpt><trkpt lat="43.56455057468757" lon="10.738229462974516"><ele>48.33333333333333</ele><time>2026-04-18T07:36:52.999Z</time></trkpt><trkpt lat="43.56464665658064" lon="10.738446200543539"><ele>48.666666666666664</ele><time>2026-04-18T07:36:53.999Z</time></trkpt><trkpt lat="43.56473813705812" lon="10.738630634452068"><ele>49.0</ele><time>2026-04-18T07:36:54.999Z</time></trkpt><trkpt lat="43.564827428343065" lon="10.73879740735877"><ele>49.5</ele><time>2026-04-18T07:36:55.999Z</time></trkpt><trkpt lat="43.5649254992321" lon="10.738928517248533"><ele>50.0</ele><time>2026-04-18T07:36:56.999Z</time></trkpt><trkpt lat="43.565008506918055" lon="10.739050663309918"><ele>50.5</ele><time>2026-04-18T07:36:57.999Z</time></trkpt><trkpt lat="43.56506725229823" lon="10.739174121711066"><ele>51.0</ele><time>2026-04-18T07:36:58.999Z</time></trkpt><trkpt lat="43.56508773320045" lon="10.739300109399542"><ele>51.5</ele><time>2026-04-18T07:36:59.999Z</time></trkpt><trkpt lat="43.565062229844436" lon="10.739422938930039"><ele>52.0</ele><time>2026-04-18T07:37:00.999Z</time></trkpt><trkpt lat="43.56500604992249" lon="10.739546599066557"><ele>52.5</ele><time>2026-04-18T07:37:01.999Z</time></trkpt><trkpt lat="43.564927225318655" lon="10.739680420229245"><ele>53.0</ele><time>2026-04-18T07:37:02.999Z</time></trkpt><trkpt lat="43.5648344162541" lon="10.739825731979323"><ele>53.0</ele><time>2026-04-18T07:37:03.999Z</time></trkpt><trkpt lat="43.56473312092554" lon="10.739996780561812"><ele>53.0</ele><time>2026-04-18T07:37:04.999Z</time></trkpt><trkpt lat="43.564637751797186" lon="10.740171802720052"><ele>53.0</ele><time>2026-04-18T07:37:05.999Z</time></trkpt><trkpt lat="43.56454110526747" lon="10.740349642070818"><ele>52.333333333333336</ele><time>2026-04-18T07:37:06.999Z</time></trkpt><trkpt lat="43.56443828394966" lon="10.740534130884841"><ele>51.66666666666667</ele><time>2026-04-18T07:37:07.999Z</time></trkpt><trkpt lat="43.56433288799985" lon="10.740724725185585"><ele>51.0</ele><time>2026-04-18T07:37:08.999Z</time></trkpt><trkpt lat="43.56422522379581" lon="10.740922251085925"><ele>53.0</ele><time>2026-04-18T07:37:09.999Z</time></trkpt><trkpt lat="43.564114126682014" lon="10.741119171125352"><ele>55.0</ele><time>2026-04-18T07:37:10.999Z</time></trkpt><trkpt lat="43.564002802079365" lon="10.741315413140786"><ele>57.0</ele><time>2026-04-18T07:37:11.999Z</time></trkpt><trkpt lat="43.56388954202041" lon="10.741517793783771"><ele>57.0</ele><time>2026-04-18T07:37:12.999Z</time></trkpt><trkpt lat="43.56377621075729" lon="10.741717585343432"><ele>57.0</ele><time>2026-04-18T07:37:13.999Z</time></trkpt><trkpt lat="43.56365794148307" lon="10.74192156122359"><ele>57.0</ele><time>2026-04-18T07:37:14.999Z</time></trkpt><trkpt lat="43.56354144363056" lon="10.74212232213407"><ele>57.33333333333333</ele><time>2026-04-18T07:37:15.999Z</time></trkpt><trkpt lat="43.5634249028411" lon="10.742331437963454"><ele>57.666666666666664</ele><time>2026-04-18T07:37:16.999Z</time></trkpt><trkpt lat="43.56330980076223" lon="10.742540813891113"><ele>58.0</ele><time>2026-04-18T07:37:17.999Z</time></trkpt><trkpt lat="43.56319148253299" lon="10.742749288014625"><ele>58.0</ele><time>2026-04-18T07:37:18.999Z</time></trkpt><trkpt lat="43.563072726423854" lon="10.74295857392898"><ele>58.0</ele><time>2026-04-18T07:37:19.999Z</time></trkpt><trkpt lat="43.56295344880087" lon="10.743172430041847"><ele>58.0</ele><time>2026-04-18T07:37:20.999Z</time></trkpt><trkpt lat="43.562832405250305" lon="10.743386806206471"><ele>57.0</ele><time>2026-04-18T07:37:21.999Z</time></trkpt><trkpt lat="43.562710210461795" lon="10.74359953034725"><ele>56.0</ele><time>2026-04-18T07:37:22.999Z</time></trkpt><trkpt lat="43.562591122224404" lon="10.743819558332259"><ele>55.0</ele><time>2026-04-18T07:37:23.999Z</time></trkpt><trkpt lat="43.56247647543705" lon="10.744042975715528"><ele>55.0</ele><time>2026-04-18T07:37:24.999Z</time></trkpt><trkpt lat="43.56237578669668" lon="10.744283964961408"><ele>55.0</ele><time>2026-04-18T07:37:25.999Z</time></trkpt><trkpt lat="43.56229689205152" lon="10.74453789016484"><ele>55.0</ele><time>2026-04-18T07:37:26.999Z</time></trkpt><trkpt lat="43.56223599489925" lon="10.744798974645105"><ele>56.0</ele><time>2026-04-18T07:37:27.999Z</time></trkpt><trkpt lat="43.562193390867364" lon="10.745064105956743"><ele>57.0</ele><time>2026-04-18T07:37:28.999Z</time></trkpt><trkpt lat="43.56216006329316" lon="10.745317800832337"><ele>58.0</ele><time>2026-04-18T07:37:29.999Z</time></trkpt><trkpt lat="43.56214082693126" lon="10.745571854500158"><ele>58.0</ele><time>2026-04-18T07:37:30.999Z</time></trkpt><trkpt lat="43.562135542566445" lon="10.745833762936384"><ele>58.0</ele><time>2026-04-18T07:37:31.999Z</time></trkpt><trkpt lat="43.56213334857305" lon="10.74608361895212"><ele>58.0</ele><time>2026-04-18T07:37:32.998Z</time></trkpt><trkpt lat="43.56213435272363" lon="10.746314412822606"><ele>56.666666666666664</ele><time>2026-04-18T07:37:33.998Z</time></trkpt><trkpt lat="43.56214883100008" lon="10.746539528252532"><ele>55.33333333333333</ele><time>2026-04-18T07:37:34.998Z</time></trkpt><trkpt lat="43.56218046936478" lon="10.746762017552054"><ele>54.0</ele><time>2026-04-18T07:37:35.998Z</time></trkpt><trkpt lat="43.56222515160706" lon="10.74697506149639"><ele>53.33333333333333</ele><time>2026-04-18T07:37:36.998Z</time></trkpt><trkpt lat="43.56228052582913" lon="10.747167801700463"><ele>52.666666666666664</ele><time>2026-04-18T07:37:37.998Z</time></trkpt><trkpt lat="43.56234157935883" lon="10.74735996494175"><ele>52.0</ele><time>2026-04-18T07:37:38.998Z</time></trkpt><trkpt lat="43.56240379793462" lon="10.747550479494917"><ele>52.33333333333333</ele><time>2026-04-18T07:37:39.998Z</time></trkpt><trkpt lat="43.56246745762989" lon="10.747743050431211"><ele>52.66666666666667</ele><time>2026-04-18T07:37:40.998Z</time></trkpt><trkpt lat="43.56253417655695" lon="10.747936789992767"><ele>53.0</ele><time>2026-04-18T07:37:41.998Z</time></trkpt><trkpt lat="43.562601606211146" lon="10.74813153410527"><ele>53.0</ele><time>2026-04-18T07:37:42.998Z</time></trkpt><trkpt lat="43.5626697598285" lon="10.748329889895079"><ele>53.0</ele><time>2026-04-18T07:37:43.998Z</time></trkpt><trkpt lat="43.5627355884381" lon="10.748527725824792"><ele>53.0</ele><time>2026-04-18T07:37:44.998Z</time></trkpt><trkpt lat="43.56280616730849" lon="10.74873159454991"><ele>54.0</ele><time>2026-04-18T07:37:45.998Z</time></trkpt><trkpt lat="43.56287733497838" lon="10.74894070015351"><ele>55.0</ele><time>2026-04-18T07:37:46.998Z</time></trkpt><trkpt lat="43.56294630131761" lon="10.749154843501628"><ele>56.0</ele><time>2026-04-18T07:37:47.998Z</time></trkpt><trkpt lat="43.56301933025929" lon="10.749370858558079"><ele>56.333333333333336</ele><time>2026-04-18T07:37:48.998Z</time></trkpt><trkpt lat="43.56309733173026" lon="10.749583572288383"><ele>56.66666666666667</ele><time>2026-04-18T07:37:49.998Z</time></trkpt><trkpt lat="43.563167854545114" lon="10.749794128112134"><ele>57.0</ele><time>2026-04-18T07:37:50.998Z</time></trkpt><trkpt lat="43.563230706555245" lon="10.749977900911968"><ele>57.0</ele><time>2026-04-18T07:37:51.998Z</time></trkpt><trkpt lat="43.56328886603689" lon="10.75015040653262"><ele>57.0</ele><time>2026-04-18T07:37:52.998Z</time></trkpt><trkpt lat="43.5633435416401" lon="10.750320085362263"><ele>57.0</ele><time>2026-04-18T07:37:53.998Z</time></trkpt><trkpt lat="43.563392040311214" lon="10.750474322433686"><ele>57.0</ele><time>2026-04-18T07:37:54.998Z</time></trkpt><trkpt lat="43.56343964654641" lon="10.750618442055591"><ele>56.0</ele><time>2026-04-18T07:37:55.998Z</time></trkpt><trkpt lat="43.56349623110588" lon="10.750779287595924"><ele>55.0</ele><time>2026-04-18T07:37:56.998Z</time></trkpt><trkpt lat="43.56355925652999" lon="10.750961404808953"><ele>54.0</ele><time>2026-04-18T07:37:57.998Z</time></trkpt><trkpt lat="43.56362360461341" lon="10.751161966840236"><ele>53.0</ele><time>2026-04-18T07:37:58.998Z</time></trkpt><trkpt lat="43.56369205287539" lon="10.751373342424468"><ele>55.333333333333336</ele><time>2026-04-18T07:37:59.998Z</time></trkpt><trkpt lat="43.56376518319376" lon="10.75158500845102"><ele>57.66666666666667</ele><time>2026-04-18T07:38:00.998Z</time></trkpt><trkpt lat="43.56382910680202" lon="10.751774661414107"><ele>60.0</ele><time>2026-04-18T07:38:01.998Z</time></trkpt><trkpt lat="43.56388982817592" lon="10.751954583379137"><ele>60.0</ele><time>2026-04-18T07:38:02.998Z</time></trkpt><trkpt lat="43.56394962292807" lon="10.75213549618705"><ele>60.0</ele><time>2026-04-18T07:38:03.998Z</time></trkpt><trkpt lat="43.564006373570805" lon="10.752310897091926"><ele>60.0</ele><time>2026-04-18T07:38:04.998Z</time></trkpt><trkpt lat="43.56406459744527" lon="10.752486071994257"><ele>60.0</ele><time>2026-04-18T07:38:05.998Z</time></trkpt><trkpt lat="43.564129458125315" lon="10.75266072045973"><ele>58.5</ele><time>2026-04-18T07:38:06.998Z</time></trkpt><trkpt lat="43.56420163678996" lon="10.75282796344038"><ele>57.0</ele><time>2026-04-18T07:38:07.998Z</time></trkpt><trkpt lat="43.5642817426154" lon="10.752989623954058"><ele>55.5</ele><time>2026-04-18T07:38:08.998Z</time></trkpt><trkpt lat="43.564367438035895" lon="10.753146306678902"><ele>54.0</ele><time>2026-04-18T07:38:09.998Z</time></trkpt><trkpt lat="43.56446080706155" lon="10.753297314179894"><ele>54.75</ele><time>2026-04-18T07:38:10.998Z</time></trkpt><trkpt lat="43.564562128235075" lon="10.753441610004959"><ele>55.5</ele><time>2026-04-18T07:38:11.998Z</time></trkpt><trkpt lat="43.5646701809509" lon="10.753572851869517"><ele>56.25</ele><time>2026-04-18T07:38:12.998Z</time></trkpt><trkpt lat="43.564781267866564" lon="10.753692522382469"><ele>57.0</ele><time>2026-04-18T07:38:14Z</time></trkpt><trkpt lat="43.56489370890593" lon="10.753798133851138"><ele>57.0</ele><time>2026-04-18T07:38:15Z</time></trkpt><trkpt lat="43.565011831218605" lon="10.753904042915304"><ele>57.0</ele><time>2026-04-18T07:38:16Z</time></trkpt><trkpt lat="43.56513597776586" lon="10.754007199792868"><ele>57.0</ele><time>2026-04-18T07:38:17Z</time></trkpt><trkpt lat="43.56525774898844" lon="10.754109999024148"><ele>57.0</ele><time>2026-04-18T07:38:18Z</time></trkpt><trkpt lat="43.56537891951619" lon="10.754213058700074"><ele>56.75</ele><time>2026-04-18T07:38:19Z</time></trkpt><trkpt lat="43.56550216568132" lon="10.754316141566973"><ele>56.5</ele><time>2026-04-18T07:38:20Z</time></trkpt><trkpt lat="43.565623998556205" lon="10.754419151563066"><ele>56.25</ele><time>2026-04-18T07:38:21Z</time></trkpt><trkpt lat="43.56575065236655" lon="10.754525034532511"><ele>56.0</ele><time>2026-04-18T07:38:22Z</time></trkpt><trkpt lat="43.565894328802734" lon="10.754636372064004"><ele>56.0</ele><time>2026-04-18T07:38:23Z</time></trkpt><trkpt lat="43.56603341442649" lon="10.75477946286345"><ele>56.0</ele><time>2026-04-18T07:38:24Z</time></trkpt><trkpt lat="43.56619474246587" lon="10.75488900681534"><ele>56.0</ele><time>2026-04-18T07:38:25Z</time></trkpt><trkpt lat="43.56634880539943" lon="10.75503009584093"><ele>56.66666666666667</ele><time>2026-04-18T07:38:26Z</time></trkpt><trkpt lat="43.56650564838333" lon="10.755169144762077"><ele>57.33333333333333</ele><time>2026-04-18T07:38:27Z</time></trkpt><trkpt lat="43.56666919168638" lon="10.75530779156857"><ele>58.0</ele><time>2026-04-18T07:38:28Z</time></trkpt><trkpt lat="43.56683556638415" lon="10.755446561148656"><ele>58.0</ele><time>2026-04-18T07:38:29Z</time></trkpt><trkpt lat="43.567004372441595" lon="10.755587216351442"><ele>58.0</ele><time>2026-04-18T07:38:30Z</time></trkpt><trkpt lat="43.5671777443003" lon="10.755731865077843"><ele>58.0</ele><time>2026-04-18T07:38:31Z</time></trkpt><trkpt lat="43.56734693350559" lon="10.755868876731435"><ele>58.0</ele><time>2026-04-18T07:38:31.999Z</time></trkpt><trkpt lat="43.56751549786598" lon="10.756011251130223"><ele>58.0</ele><time>2026-04-18T07:38:32.999Z</time></trkpt><trkpt lat="43.56768352820252" lon="10.756155701200365"><ele>58.0</ele><time>2026-04-18T07:38:33.999Z</time></trkpt><trkpt lat="43.56785315583204" lon="10.756300054315414"><ele>58.33333333333333</ele><time>2026-04-18T07:38:34.999Z</time></trkpt><trkpt lat="43.56802215003088" lon="10.75644085359285"><ele>58.66666666666667</ele><time>2026-04-18T07:38:35.999Z</time></trkpt><trkpt lat="43.56818744033598" lon="10.75657777912217"><ele>59.0</ele><time>2026-04-18T07:38:36.999Z</time></trkpt><trkpt lat="43.56834175432754" lon="10.756707356859392"><ele>59.0</ele><time>2026-04-18T07:38:37.999Z</time></trkpt><trkpt lat="43.56848669613099" lon="10.756824376124458"><ele>59.0</ele><time>2026-04-18T07:38:38.999Z</time></trkpt><trkpt lat="43.56862424742211" lon="10.756937156690388"><ele>59.0</ele><time>2026-04-18T07:38:39.999Z</time></trkpt><trkpt lat="43.568752650891646" lon="10.757044867639292"><ele>58.5</ele><time>2026-04-18T07:38:40.999Z</time></trkpt><trkpt lat="43.56887393483966" lon="10.757147911785413"><ele>58.0</ele><time>2026-04-18T07:38:41.999Z</time></trkpt><trkpt lat="43.56898765240358" lon="10.75724236213053"><ele>57.5</ele><time>2026-04-18T07:38:42.999Z</time></trkpt><trkpt lat="43.56908719596797" lon="10.757322439699282"><ele>57.0</ele><time>2026-04-18T07:38:43.999Z</time></trkpt><trkpt lat="43.56916887876832" lon="10.757388326568966"><ele>57.0</ele><time>2026-04-18T07:38:44.999Z</time></trkpt><trkpt lat="43.56923040061661" lon="10.757447944438676"><ele>57.0</ele><time>2026-04-18T07:38:45.999Z</time></trkpt><trkpt lat="43.56928998793182" lon="10.757524522183864"><ele>57.0</ele><time>2026-04-18T07:38:47.999Z</time></trkpt><trkpt lat="43.56922600954611" lon="10.757608992175687"><ele>57.0</ele><time>2026-04-18T07:38:52.999Z</time></trkpt><trkpt lat="43.56916963467991" lon="10.75768234679551"><ele>57.0</ele><time>2026-04-18T07:38:55.999Z</time></trkpt><trkpt lat="43.569109941332776" lon="10.7578072448935"><ele>57.0</ele><time>2026-04-18T07:38:57.999Z</time></trkpt><trkpt lat="43.56907855947916" lon="10.757891385456679"><ele>56.8</ele><time>2026-04-18T07:38:58.999Z</time></trkpt><trkpt lat="43.56903765755252" lon="10.75798852342651"><ele>56.6</ele><time>2026-04-18T07:38:59.999Z</time></trkpt><trkpt lat="43.568987333399555" lon="10.758099683374942"><ele>56.39999999999999</ele><time>2026-04-18T07:39:00.999Z</time></trkpt><trkpt lat="43.56893449893612" lon="10.758224302382605"><ele>56.199999999999996</ele><time>2026-04-18T07:39:01.999Z</time></trkpt><trkpt lat="43.568877568792615" lon="10.758349310950859"><ele>56.0</ele><time>2026-04-18T07:39:02.999Z</time></trkpt><trkpt lat="43.56881893071613" lon="10.758472517231942"><ele>56.199999999999996</ele><time>2026-04-18T07:39:03.999Z</time></trkpt><trkpt lat="43.568762572652" lon="10.758591836072076"><ele>56.39999999999999</ele><time>2026-04-18T07:39:04.999Z</time></trkpt><trkpt lat="43.56870599500687" lon="10.758704438619517"><ele>56.6</ele><time>2026-04-18T07:39:05.999Z</time></trkpt><trkpt lat="43.56863747639182" lon="10.758815474362311"><ele>56.8</ele><time>2026-04-18T07:39:06.999Z</time></trkpt><trkpt lat="43.56856120366213" lon="10.758918313989817"><ele>57.0</ele><time>2026-04-18T07:39:07.999Z</time></trkpt><trkpt lat="43.56848571455051" lon="10.75901198509904"><ele>56.333333333333336</ele><time>2026-04-18T07:39:08.999Z</time></trkpt><trkpt lat="43.56841962450665" lon="10.759088285362663"><ele>55.66666666666667</ele><time>2026-04-18T07:39:09.999Z</time></trkpt><trkpt lat="43.56835508537978" lon="10.759170748902203"><ele>55.0</ele><time>2026-04-18T07:39:10.999Z</time></trkpt><trkpt lat="43.56829677726027" lon="10.759255593285454"><ele>54.333333333333336</ele><time>2026-04-18T07:39:11.999Z</time></trkpt><trkpt lat="43.56825645290285" lon="10.7593345681374"><ele>53.66666666666667</ele><time>2026-04-18T07:39:12.999Z</time></trkpt><trkpt lat="43.568188026704235" lon="10.759471621504426"><ele>53.0</ele><time>2026-04-18T07:39:14.999Z</time></trkpt><trkpt lat="43.56809626192256" lon="10.759516733574916"><ele>53.00000000000001</ele><time>2026-04-18T07:39:16.999Z</time></trkpt><trkpt lat="43.567966009243364" lon="10.759508184312585"><ele>53.0</ele><time>2026-04-18T07:39:18.999Z</time></trkpt><trkpt lat="43.56789636924527" lon="10.759504209234255"><ele>53.0</ele><time>2026-04-18T07:39:19.999Z</time></trkpt><trkpt lat="43.56778714883722" lon="10.759525343356406"><ele>53.0</ele><time>2026-04-18T07:39:21.999Z</time></trkpt><trkpt lat="43.56772023399914" lon="10.759550488194739"><ele>53.00000000000001</ele><time>2026-04-18T07:39:38.998Z</time></trkpt><trkpt lat="43.56765411889059" lon="10.7595658868558"><ele>53.0</ele><time>2026-04-18T07:39:47.998Z</time></trkpt><trkpt lat="43.567585701029195" lon="10.759562120477103"><ele>54.16666666666667</ele><time>2026-04-18T07:39:49.998Z</time></trkpt><trkpt lat="43.567513988173225" lon="10.759582593696466"><ele>55.333333333333336</ele><time>2026-04-18T07:40:54.999Z</time></trkpt><trkpt lat="43.56746762613986" lon="10.75964501209252"><ele>56.5</ele><time>2026-04-18T07:41:12.999Z</time></trkpt><trkpt lat="43.56739960528819" lon="10.759730738844855"><ele>57.66666666666667</ele><time>2026-04-18T07:41:14.999Z</time></trkpt><trkpt lat="43.567297896459486" lon="10.759835954232578"><ele>58.833333333333336</ele><time>2026-04-18T07:41:16.999Z</time></trkpt><trkpt lat="43.567229227036506" lon="10.759895494597036"><ele>60.0</ele><time>2026-04-18T07:41:17.999Z</time></trkpt><trkpt lat="43.56716145110415" lon="10.759949633588784"><ele>60.0</ele><time>2026-04-18T07:41:18.999Z</time></trkpt><trkpt lat="43.56710300400888" lon="10.760009949656608"><ele>60.0</ele><time>2026-04-18T07:41:19.999Z</time></trkpt><trkpt lat="43.567039523306434" lon="10.760078282273428"><ele>60.0</ele><time>2026-04-18T07:41:20.999Z</time></trkpt><trkpt lat="43.566977304442325" lon="10.760116426051647"><ele>60.0</ele><time>2026-04-18T07:41:21.999Z</time></trkpt><trkpt lat="43.566898638701105" lon="10.760152744732224"><ele>60.0</ele><time>2026-04-18T07:41:22.999Z</time></trkpt><trkpt lat="43.56682666428656" lon="10.760184777512364"><ele>60.0</ele><time>2026-04-18T07:41:23.999Z</time></trkpt><trkpt lat="43.566753888750746" lon="10.760246276721277"><ele>62.2</ele><time>2026-04-18T07:41:24.999Z</time></trkpt><trkpt lat="43.566691172120244" lon="10.760321730500907"><ele>64.4</ele><time>2026-04-18T07:41:25.999Z</time></trkpt><trkpt lat="43.56663566582285" lon="10.760399750838515"><ele>66.6</ele><time>2026-04-18T07:41:26.999Z</time></trkpt><trkpt lat="43.56658690846432" lon="10.760463862212703"><ele>68.8</ele><time>2026-04-18T07:41:27.999Z</time></trkpt><trkpt lat="43.566503611345624" lon="10.760565679190938"><ele>71.0</ele><time>2026-04-18T07:41:29.999Z</time></trkpt><trkpt lat="43.566420927226865" lon="10.760671944996304"><ele>71.0</ele><time>2026-04-18T07:41:31.999Z</time></trkpt><trkpt lat="43.566344207285375" lon="10.760801423246308"><ele>71.0</ele><time>2026-04-18T07:41:33.999Z</time></trkpt><trkpt lat="43.5662740228281" lon="10.760923496953813"><ele>71.0</ele><time>2026-04-18T07:41:35.999Z</time></trkpt><trkpt lat="43.5662166988112" lon="10.761074710894993"><ele>71.0</ele><time>2026-04-18T07:41:37.999Z</time></trkpt><trkpt lat="43.56620280606854" lon="10.761163740759718"><ele>71.0</ele><time>2026-04-18T07:41:38.999Z</time></trkpt><trkpt lat="43.56620798416661" lon="10.761251029232008"><ele>71.6</ele><time>2026-04-18T07:41:39.999Z</time></trkpt><trkpt lat="43.56622822666983" lon="10.7613558200444"><ele>72.19999999999999</ele><time>2026-04-18T07:41:40.998Z</time></trkpt><trkpt lat="43.56624806833847" lon="10.761478898627704"><ele>72.80000000000001</ele><time>2026-04-18T07:41:41.998Z</time></trkpt><trkpt lat="43.5662488541036" lon="10.761606812112651"><ele>73.4</ele><time>2026-04-18T07:41:42.998Z</time></trkpt><trkpt lat="43.56623709105526" lon="10.761741716874319"><ele>74.0</ele><time>2026-04-18T07:41:43.998Z</time></trkpt><trkpt lat="43.566220910445246" lon="10.76186846972676"><ele>74.0</ele><time>2026-04-18T07:41:44.998Z</time></trkpt><trkpt lat="43.56620430997199" lon="10.761982935921942"><ele>74.0</ele><time>2026-04-18T07:41:45.998Z</time></trkpt><trkpt lat="43.56618393885901" lon="10.762095758744058"><ele>74.0</ele><time>2026-04-18T07:41:46.998Z</time></trkpt><trkpt lat="43.56615346160894" lon="10.76221014112604"><ele>74.0</ele><time>2026-04-18T07:41:47.998Z</time></trkpt><trkpt lat="43.56612401529491" lon="10.762306722588866"><ele>74.0</ele><time>2026-04-18T07:41:48.998Z</time></trkpt><trkpt lat="43.56609496512861" lon="10.762389170762694"><ele>74.0</ele><time>2026-04-18T07:41:49.998Z</time></trkpt><trkpt lat="43.5660705208968" lon="10.762489569022687"><ele>70.60000000000001</ele><time>2026-04-18T07:41:50.998Z</time></trkpt><trkpt lat="43.5660552524394" lon="10.76260855229475"><ele>67.2</ele><time>2026-04-18T07:41:51.998Z</time></trkpt><trkpt lat="43.56604182231523" lon="10.762743969037732"><ele>63.800000000000004</ele><time>2026-04-18T07:41:52.998Z</time></trkpt><trkpt lat="43.566030585037495" lon="10.762891858621526"><ele>60.400000000000006</ele><time>2026-04-18T07:41:53.998Z</time></trkpt><trkpt lat="43.56603139428404" lon="10.763047813561423"><ele>57.0</ele><time>2026-04-18T07:41:54.998Z</time></trkpt><trkpt lat="43.566041636920176" lon="10.763180908272385"><ele>57.0</ele><time>2026-04-18T07:41:55.998Z</time></trkpt><trkpt lat="43.566049891295016" lon="10.763329171838224"><ele>57.0</ele><time>2026-04-18T07:41:56.998Z</time></trkpt><trkpt lat="43.56605969357682" lon="10.763488168201276"><ele>57.0</ele><time>2026-04-18T07:41:57.998Z</time></trkpt><trkpt lat="43.56607031203145" lon="10.763650425977657"><ele>57.0</ele><time>2026-04-18T07:41:58.998Z</time></trkpt><trkpt lat="43.56607898118401" lon="10.76381966656725"><ele>57.2</ele><time>2026-04-18T07:41:59.998Z</time></trkpt><trkpt lat="43.56608602679059" lon="10.763988308936876"><ele>57.400000000000006</ele><time>2026-04-18T07:42:00.998Z</time></trkpt><trkpt lat="43.56609336244656" lon="10.764130144125751"><ele>57.599999999999994</ele><time>2026-04-18T07:42:01.998Z</time></trkpt><trkpt lat="43.56610001344567" lon="10.764230158035515"><ele>57.8</ele><time>2026-04-18T07:42:02.998Z</time></trkpt><trkpt lat="43.566107000872435" lon="10.764371291142492"><ele>58.0</ele><time>2026-04-18T07:42:04.998Z</time></trkpt><trkpt lat="43.566127710209784" lon="10.764488569518344"><ele>58.2</ele><time>2026-04-18T07:42:06.998Z</time></trkpt><trkpt lat="43.56616819088647" lon="10.764675999889953"><ele>58.4</ele><time>2026-04-18T07:42:08.998Z</time></trkpt><trkpt lat="43.56618541228408" lon="10.764787692911979"><ele>58.60000000000001</ele><time>2026-04-18T07:42:09.998Z</time></trkpt><trkpt lat="43.56620037687513" lon="10.764889491885304"><ele>58.800000000000004</ele><time>2026-04-18T07:42:10.998Z</time></trkpt><trkpt lat="43.56622162018973" lon="10.764996172250026"><ele>59.0</ele><time>2026-04-18T07:42:11.998Z</time></trkpt><trkpt lat="43.566252690918596" lon="10.7651094916079"><ele>62.0</ele><time>2026-04-18T07:42:12.998Z</time></trkpt><trkpt lat="43.566292361511906" lon="10.765239935460391"><ele>65.0</ele><time>2026-04-18T07:42:13.998Z</time></trkpt><trkpt lat="43.566323392801586" lon="10.765377222188862"><ele>68.0</ele><time>2026-04-18T07:42:14.998Z</time></trkpt><trkpt lat="43.56634630448122" lon="10.76552118168598"><ele>71.0</ele><time>2026-04-18T07:42:15.998Z</time></trkpt><trkpt lat="43.56636325895921" lon="10.765666511374908"><ele>74.0</ele><time>2026-04-18T07:42:16.998Z</time></trkpt><trkpt lat="43.56637249284674" lon="10.765806694370834"><ele>74.0</ele><time>2026-04-18T07:42:17.998Z</time></trkpt><trkpt lat="43.56637353934488" lon="10.7659438584494"><ele>74.0</ele><time>2026-04-18T07:42:18.998Z</time></trkpt><trkpt lat="43.5663743652144" lon="10.766084575251506"><ele>74.0</ele><time>2026-04-18T07:42:19.998Z</time></trkpt><trkpt lat="43.56637724814971" lon="10.766239021085221"><ele>74.0</ele><time>2026-04-18T07:42:20.998Z</time></trkpt><trkpt lat="43.56638067617867" lon="10.766398548734776"><ele>74.0</ele><time>2026-04-18T07:42:21.998Z</time></trkpt><trkpt lat="43.56638260282883" lon="10.766556088637941"><ele>73.8</ele><time>2026-04-18T07:42:22.998Z</time></trkpt><trkpt lat="43.566383382009846" lon="10.766710417457347"><ele>73.60000000000001</ele><time>2026-04-18T07:42:23.998Z</time></trkpt><trkpt lat="43.566381470558156" lon="10.76686451395687"><ele>73.4</ele><time>2026-04-18T07:42:24.999Z</time></trkpt><trkpt lat="43.56638055357427" lon="10.767021481403555"><ele>73.2</ele><time>2026-04-18T07:42:25.999Z</time></trkpt><trkpt lat="43.566378055382884" lon="10.76716516453008"><ele>73.0</ele><time>2026-04-18T07:42:26.999Z</time></trkpt><trkpt lat="43.56637331799675" lon="10.767290519231372"><ele>73.0</ele><time>2026-04-18T07:42:27.999Z</time></trkpt><trkpt lat="43.56637589935077" lon="10.767422965516516"><ele>73.0</ele><time>2026-04-18T07:42:29Z</time></trkpt><trkpt lat="43.56637210297852" lon="10.767575896930934"><ele>73.0</ele><time>2026-04-18T07:42:29.999Z</time></trkpt><trkpt lat="43.56637296730904" lon="10.767722328195225"><ele>73.0</ele><time>2026-04-18T07:42:30.999Z</time></trkpt><trkpt lat="43.566371589160745" lon="10.767836836398313"><ele>73.0</ele><time>2026-04-18T07:42:32Z</time></trkpt><trkpt lat="43.56637944765897" lon="10.768017970966469"><ele>72.83333333333333</ele><time>2026-04-18T07:42:34Z</time></trkpt><trkpt lat="43.5663954691235" lon="10.768122266023811"><ele>72.66666666666666</ele><time>2026-04-18T07:42:35Z</time></trkpt><trkpt lat="43.5664253036004" lon="10.768233685635021"><ele>72.5</ele><time>2026-04-18T07:42:35.999Z</time></trkpt><trkpt lat="43.566460615280995" lon="10.768336129291052"><ele>72.33333333333333</ele><time>2026-04-18T07:42:36.999Z</time></trkpt><trkpt lat="43.56649998093873" lon="10.76843872355626"><ele>72.16666666666667</ele><time>2026-04-18T07:42:38Z</time></trkpt><trkpt lat="43.56652724678258" lon="10.768527832647713"><ele>72.0</ele><time>2026-04-18T07:42:38.999Z</time></trkpt><trkpt lat="43.56654203631735" lon="10.768624120228584"><ele>72.0</ele><time>2026-04-18T07:42:39.999Z</time></trkpt><trkpt lat="43.5665478551367" lon="10.768726342698006"><ele>72.0</ele><time>2026-04-18T07:42:40.999Z</time></trkpt><trkpt lat="43.566549358182485" lon="10.768833191224982"><ele>72.0</ele><time>2026-04-18T07:42:41.999Z</time></trkpt><trkpt lat="43.566553519425185" lon="10.768940605946927"><ele>72.0</ele><time>2026-04-18T07:42:42.999Z</time></trkpt><trkpt lat="43.56656074331341" lon="10.76905196927969"><ele>72.0</ele><time>2026-04-18T07:42:43.999Z</time></trkpt><trkpt lat="43.56656957242774" lon="10.769156710071208"><ele>72.0</ele><time>2026-04-18T07:42:44.999Z</time></trkpt><trkpt lat="43.566576184835" lon="10.769291189394997"><ele>71.83333333333333</ele><time>2026-04-18T07:42:46.999Z</time></trkpt><trkpt lat="43.566591860149245" lon="10.769412452943726"><ele>71.66666666666667</ele><time>2026-04-18T07:42:49.999Z</time></trkpt><trkpt lat="43.56660316351519" lon="10.769524103385832"><ele>71.5</ele><time>2026-04-18T07:42:51.999Z</time></trkpt><trkpt lat="43.566595965849366" lon="10.769634821761848"><ele>71.33333333333334</ele><time>2026-04-18T07:42:53.999Z</time></trkpt><trkpt lat="43.56666571555033" lon="10.769653852086085"><ele>71.16666666666667</ele><time>2026-04-18T07:42:57.999Z</time></trkpt><trkpt lat="43.566638635106536" lon="10.769528703227074"><ele>71.0</ele><time>2026-04-18T07:43:00.999Z</time></trkpt><trkpt lat="43.56659315949574" lon="10.769456025417377"><ele>71.0</ele><time>2026-04-18T07:43:04.999Z</time></trkpt><trkpt lat="43.5665962007243" lon="10.769359005903835"><ele>71.0</ele><time>2026-04-18T07:43:20.999Z</time></trkpt><trkpt lat="43.56658783354589" lon="10.769272552032591"><ele>71.0</ele><time>2026-04-18T07:43:25.999Z</time></trkpt><trkpt lat="43.56658151938218" lon="10.769175598697647"><ele>71.0</ele><time>2026-04-18T07:43:37.999Z</time></trkpt><trkpt lat="43.566572334344706" lon="10.769053552022308"><ele>71.0</ele><time>2026-04-18T07:43:39.999Z</time></trkpt><trkpt lat="43.56655179863505" lon="10.768911450662817"><ele>71.0</ele><time>2026-04-18T07:43:41.999Z</time></trkpt><trkpt lat="43.566545229120145" lon="10.768745385151764"><ele>71.16666666666667</ele><time>2026-04-18T07:43:43.998Z</time></trkpt><trkpt lat="43.56653667003247" lon="10.76860944654527"><ele>71.33333333333334</ele><time>2026-04-18T07:43:45.998Z</time></trkpt><trkpt lat="43.566519448629265" lon="10.768488649581137"><ele>71.5</ele><time>2026-04-18T07:43:47.998Z</time></trkpt><trkpt lat="43.56648763969563" lon="10.768368078468756"><ele>71.66666666666667</ele><time>2026-04-18T07:43:49.998Z</time></trkpt><trkpt lat="43.56645071371774" lon="10.768263377303805"><ele>71.83333333333333</ele><time>2026-04-18T07:43:51.998Z</time></trkpt><trkpt lat="43.56642076101836" lon="10.768163543393014"><ele>72.0</ele><time>2026-04-18T07:43:53.998Z</time></trkpt><trkpt lat="43.56639628569093" lon="10.76806016921552"><ele>72.66666666666667</ele><time>2026-04-18T07:43:55.998Z</time></trkpt><trkpt lat="43.566383648924756" lon="10.767965920367109"><ele>73.33333333333333</ele><time>2026-04-18T07:43:57.998Z</time></trkpt><trkpt lat="43.56646021942686" lon="10.767924940668175"><ele>74.0</ele><time>2026-04-18T07:44:01.998Z</time></trkpt><trkpt lat="43.566480687324834" lon="10.768038174832812"><ele>74.66666666666666</ele><time>2026-04-18T07:44:03.998Z</time></trkpt><trkpt lat="43.566482467367095" lon="10.768188130248808"><ele>75.33333333333333</ele><time>2026-04-18T07:44:05.998Z</time></trkpt><trkpt lat="43.56653377616022" lon="10.768305173648614"><ele>76.0</ele><time>2026-04-18T07:44:07.998Z</time></trkpt><trkpt lat="43.56660647555576" lon="10.768428143076328"><ele>76.0</ele><time>2026-04-18T07:44:09.998Z</time></trkpt><trkpt lat="43.56665400103161" lon="10.768492449820531"><ele>76.0</ele><time>2026-04-18T07:44:10.998Z</time></trkpt><trkpt lat="43.566692699656066" lon="10.768566646370564"><ele>76.0</ele><time>2026-04-18T07:44:11.998Z</time></trkpt><trkpt lat="43.56672922401262" lon="10.768708037258584"><ele>76.0</ele><time>2026-04-18T07:44:13.998Z</time></trkpt><trkpt lat="43.566738194271686" lon="10.768816200615948"><ele>76.0</ele><time>2026-04-18T07:44:14.998Z</time></trkpt><trkpt lat="43.56684075647974" lon="10.768836601940077"><ele>76.0</ele><time>2026-04-18T07:44:15.998Z</time></trkpt><trkpt lat="43.56683882574418" lon="10.768930924159488"><ele>75.33333333333333</ele><time>2026-04-18T07:44:16.998Z</time></trkpt><trkpt lat="43.56691553789389" lon="10.769054433126028"><ele>74.66666666666666</ele><time>2026-04-18T07:44:18.998Z</time></trkpt><trkpt lat="43.566990232946075" lon="10.769095307144946"><ele>74.0</ele><time>2026-04-18T07:44:19.998Z</time></trkpt><trkpt lat="43.56706848973204" lon="10.769117646204311"><ele>73.33333333333333</ele><time>2026-04-18T07:44:20.998Z</time></trkpt><trkpt lat="43.56713035041817" lon="10.769160696932998"><ele>72.66666666666667</ele><time>2026-04-18T07:44:21.998Z</time></trkpt><trkpt lat="43.567166233197746" lon="10.769242460681959"><ele>72.0</ele><time>2026-04-18T07:44:22.998Z</time></trkpt><trkpt lat="43.567194897072994" lon="10.769328082703389"><ele>75.83333333333333</ele><time>2026-04-18T07:44:23.998Z</time></trkpt><trkpt lat="43.567234619868124" lon="10.769412369484682"><ele>79.66666666666667</ele><time>2026-04-18T07:44:27.998Z</time></trkpt><trkpt lat="43.56734429632022" lon="10.769429137536623"><ele>83.5</ele><time>2026-04-18T07:44:29.998Z</time></trkpt><trkpt lat="43.56741919486634" lon="10.769438996400465"><ele>87.33333333333334</ele><time>2026-04-18T07:44:30.999Z</time></trkpt><trkpt lat="43.56748703266292" lon="10.76944290886632"><ele>91.16666666666667</ele><time>2026-04-18T07:44:31.999Z</time></trkpt><trkpt lat="43.567553094019146" lon="10.76942377239853"><ele>95.0</ele><time>2026-04-18T07:44:32.999Z</time></trkpt><trkpt lat="43.56762293533726" lon="10.769407808692867"><ele>95.0</ele><time>2026-04-18T07:44:33.999Z</time></trkpt><trkpt lat="43.56769575538034" lon="10.76939893260914"><ele>95.0</ele><time>2026-04-18T07:44:34.999Z</time></trkpt><trkpt lat="43.56777313165858" lon="10.769400874225063"><ele>95.0</ele><time>2026-04-18T07:44:35.999Z</time></trkpt><trkpt lat="43.567848647655524" lon="10.769411169809509"><ele>95.0</ele><time>2026-04-18T07:44:36.999Z</time></trkpt><trkpt lat="43.56796115690057" lon="10.769447562868821"><ele>95.0</ele><time>2026-04-18T07:44:38.999Z</time></trkpt><trkpt lat="43.56802459948853" lon="10.769458720732072"><ele>95.0</ele><time>2026-04-18T07:44:39.999Z</time></trkpt><trkpt lat="43.56808934145364" lon="10.769488503287908"><ele>98.6</ele><time>2026-04-18T07:44:40.999Z</time></trkpt><trkpt lat="43.568199665265404" lon="10.769553636711935"><ele>102.2</ele><time>2026-04-18T07:44:42.999Z</time></trkpt><trkpt lat="43.568300320917885" lon="10.769659264683812"><ele>105.80000000000001</ele><time>2026-04-18T07:44:44.999Z</time></trkpt><trkpt lat="43.56836236014247" lon="10.769725783223995"><ele>109.4</ele><time>2026-04-18T07:44:45.999Z</time></trkpt><trkpt lat="43.56842952793496" lon="10.769766789057089"><ele>113.0</ele><time>2026-04-18T07:44:47.999Z</time></trkpt><trkpt lat="43.5683881741177" lon="10.769901847421545"><ele>113.0</ele><time>2026-04-18T07:44:50.999Z</time></trkpt><trkpt lat="43.56834562674297" lon="10.769968950168584"><ele>113.0</ele><time>2026-04-18T07:44:51.999Z</time></trkpt><trkpt lat="43.56830573821097" lon="10.770039317273616"><ele>113.0</ele><time>2026-04-18T07:44:52.999Z</time></trkpt><trkpt lat="43.56825153382467" lon="10.770154322146684"><ele>113.0</ele><time>2026-04-18T07:44:54.999Z</time></trkpt><trkpt lat="43.56822221113027" lon="10.770246559941155"><ele>113.0</ele><time>2026-04-18T07:44:55.999Z</time></trkpt><trkpt lat="43.5681915831239" lon="10.770330269982667"><ele>113.0</ele><time>2026-04-18T07:44:56.999Z</time></trkpt><trkpt lat="43.568157761515174" lon="10.770418470408403"><ele>113.0</ele><time>2026-04-18T07:44:57.999Z</time></trkpt><trkpt lat="43.56811462252714" lon="10.770512584373133"><ele>113.99999999999999</ele><time>2026-04-18T07:44:58.999Z</time></trkpt><trkpt lat="43.56807825642358" lon="10.770610928754015"><ele>115.0</ele><time>2026-04-18T07:44:59.999Z</time></trkpt><trkpt lat="43.56802671981939" lon="10.770689002713642"><ele>116.0</ele><time>2026-04-18T07:45:00.999Z</time></trkpt><trkpt lat="43.56798864608604" lon="10.770770617739153"><ele>117.0</ele><time>2026-04-18T07:45:01.999Z</time></trkpt><trkpt lat="43.567949107675" lon="10.770858978034807"><ele>117.99999999999999</ele><time>2026-04-18T07:45:02.999Z</time></trkpt><trkpt lat="43.56790988403534" lon="10.770935804405987"><ele>119.0</ele><time>2026-04-18T07:45:03.999Z</time></trkpt><trkpt lat="43.56786931603744" lon="10.771063525098382"><ele>118.0</ele><time>2026-04-18T07:45:05.999Z</time></trkpt><trkpt lat="43.567814922663175" lon="10.771225150243069"><ele>117.0</ele><time>2026-04-18T07:45:07.999Z</time></trkpt><trkpt lat="43.56777674377127" lon="10.771328498474297"><ele>116.0</ele><time>2026-04-18T07:45:08.999Z</time></trkpt><trkpt lat="43.567759621848126" lon="10.771427991739106"><ele>115.0</ele><time>2026-04-18T07:45:09.999Z</time></trkpt><trkpt lat="43.567748997820104" lon="10.771547438135658"><ele>114.0</ele><time>2026-04-18T07:45:10.999Z</time></trkpt><trkpt lat="43.56773572090804" lon="10.771655686032409"><ele>114.0</ele><time>2026-04-18T07:45:11.999Z</time></trkpt><trkpt lat="43.56771094287818" lon="10.771737593958093"><ele>114.0</ele><time>2026-04-18T07:45:12.999Z</time></trkpt><trkpt lat="43.56769727780548" lon="10.771865456883969"><ele>114.0</ele><time>2026-04-18T07:45:14.999Z</time></trkpt><trkpt lat="43.567736791362236" lon="10.771944765827643"><ele>114.0</ele><time>2026-04-18T07:45:16.999Z</time></trkpt><trkpt lat="43.567771834001306" lon="10.772038294009267"><ele>114.0</ele><time>2026-04-18T07:45:18.999Z</time></trkpt><trkpt lat="43.56780458220903" lon="10.772127281775832"><ele>114.0</ele><time>2026-04-18T07:45:45.999Z</time></trkpt><trkpt lat="43.567851750974064" lon="10.772248760787711"><ele>115.4</ele><time>2026-04-18T07:45:47.999Z</time></trkpt><trkpt lat="43.567909842483566" lon="10.772385284366196"><ele>116.80000000000001</ele><time>2026-04-18T07:45:49.999Z</time></trkpt><trkpt lat="43.56796159766256" lon="10.772502818665464"><ele>118.19999999999999</ele><time>2026-04-18T07:45:51.998Z</time></trkpt><trkpt lat="43.5679594769539" lon="10.772605991768113"><ele>119.6</ele><time>2026-04-18T07:45:53.998Z</time></trkpt><trkpt lat="43.56797217355475" lon="10.772726988331259"><ele>121.0</ele><time>2026-04-18T07:45:56.998Z</time></trkpt><trkpt lat="43.56799201179594" lon="10.772846348569097"><ele>121.19999999999999</ele><time>2026-04-18T07:45:58.998Z</time></trkpt><trkpt lat="43.568048439825006" lon="10.772933102562853"><ele>121.39999999999999</ele><time>2026-04-18T07:46:00.998Z</time></trkpt><trkpt lat="43.56807970405216" lon="10.773052168445266"><ele>121.6</ele><time>2026-04-18T07:46:02.998Z</time></trkpt><trkpt lat="43.56810253634794" lon="10.773190838423814"><ele>121.8</ele><time>2026-04-18T07:46:04.998Z</time></trkpt><trkpt lat="43.568083537361886" lon="10.773361183894014"><ele>122.0</ele><time>2026-04-18T07:46:06.998Z</time></trkpt><trkpt lat="43.56806448292045" lon="10.773447775078782"><ele>122.57142857142856</ele><time>2026-04-18T07:46:07.998Z</time></trkpt><trkpt lat="43.56806914659385" lon="10.77353679667947"><ele>123.14285714285714</ele><time>2026-04-18T07:46:08.998Z</time></trkpt><trkpt lat="43.56809867302644" lon="10.77361926003122"><ele>123.71428571428571</ele><time>2026-04-18T07:46:09.998Z</time></trkpt><trkpt lat="43.568132879688626" lon="10.773704173459924"><ele>124.28571428571428</ele><time>2026-04-18T07:46:10.998Z</time></trkpt><trkpt lat="43.568165995087696" lon="10.773793597047602"><ele>124.85714285714286</ele><time>2026-04-18T07:46:11.998Z</time></trkpt><trkpt lat="43.568201448479236" lon="10.773887108254588"><ele>125.42857142857143</ele><time>2026-04-18T07:46:12.998Z</time></trkpt><trkpt lat="43.568233768304204" lon="10.773987043634566"><ele>126.0</ele><time>2026-04-18T07:46:13.998Z</time></trkpt><trkpt lat="43.56826650504969" lon="10.774087109276527"><ele>126.0</ele><time>2026-04-18T07:46:14.998Z</time></trkpt><trkpt lat="43.568300195864424" lon="10.774189785652043"><ele>126.0</ele><time>2026-04-18T07:46:15.998Z</time></trkpt><trkpt lat="43.56833698503644" lon="10.774297778928037"><ele>126.0</ele><time>2026-04-18T07:46:16.998Z</time></trkpt><trkpt lat="43.568368546910165" lon="10.774396779206091"><ele>126.0</ele><time>2026-04-18T07:46:17.998Z</time></trkpt><trkpt lat="43.5683964177105" lon="10.774508110495333"><ele>126.0</ele><time>2026-04-18T07:46:18.998Z</time></trkpt><trkpt lat="43.56842282955705" lon="10.774622098246764"><ele>126.0</ele><time>2026-04-18T07:46:19.998Z</time></trkpt><trkpt lat="43.568450217248" lon="10.774745992318815"><ele>125.6</ele><time>2026-04-18T07:46:20.998Z</time></trkpt><trkpt lat="43.56846790196813" lon="10.774866819503407"><ele>125.19999999999999</ele><time>2026-04-18T07:46:21.998Z</time></trkpt><trkpt lat="43.56848287307853" lon="10.7749896817951"><ele>124.80000000000001</ele><time>2026-04-18T07:46:22.998Z</time></trkpt><trkpt lat="43.56849694337894" lon="10.775123875624763"><ele>124.4</ele><time>2026-04-18T07:46:23.998Z</time></trkpt><trkpt lat="43.56851900051031" lon="10.775276959829931"><ele>124.0</ele><time>2026-04-18T07:46:24.998Z</time></trkpt><trkpt lat="43.56853722830451" lon="10.775420072771599"><ele>122.0</ele><time>2026-04-18T07:46:25.998Z</time></trkpt><trkpt lat="43.56855689379023" lon="10.775538952378783"><ele>120.0</ele><time>2026-04-18T07:46:26.998Z</time></trkpt><trkpt lat="43.56857578347159" lon="10.775659730804577"><ele>118.0</ele><time>2026-04-18T07:46:27.998Z</time></trkpt><trkpt lat="43.568595989489765" lon="10.77579389266663"><ele>116.0</ele><time>2026-04-18T07:46:28.998Z</time></trkpt><trkpt lat="43.568617982226385" lon="10.775927696008441"><ele>114.0</ele><time>2026-04-18T07:46:29.998Z</time></trkpt><trkpt lat="43.56863655992337" lon="10.77606423535254"><ele>114.4</ele><time>2026-04-18T07:46:30.998Z</time></trkpt><trkpt lat="43.5686555152116" lon="10.776206375403076"><ele>114.80000000000001</ele><time>2026-04-18T07:46:31.998Z</time></trkpt><trkpt lat="43.56867467834943" lon="10.776353636082593"><ele>115.19999999999999</ele><time>2026-04-18T07:46:32.998Z</time></trkpt><trkpt lat="43.56869343605424" lon="10.776494072616531"><ele>115.6</ele><time>2026-04-18T07:46:33.998Z</time></trkpt><trkpt lat="43.568708144465454" lon="10.776617069587543"><ele>116.0</ele><time>2026-04-18T07:46:34.998Z</time></trkpt><trkpt lat="43.56871917568193" lon="10.776738199337789"><ele>116.16666666666666</ele><time>2026-04-18T07:46:35.998Z</time></trkpt><trkpt lat="43.56873445839916" lon="10.776860308946306"><ele>116.33333333333333</ele><time>2026-04-18T07:46:36.999Z</time></trkpt><trkpt lat="43.56875093517783" lon="10.776994815207146"><ele>116.5</ele><time>2026-04-18T07:46:37.999Z</time></trkpt><trkpt lat="43.56876961410179" lon="10.777111994239007"><ele>116.66666666666666</ele><time>2026-04-18T07:46:38.999Z</time></trkpt><trkpt lat="43.56879136477613" lon="10.777216967433203"><ele>116.83333333333333</ele><time>2026-04-18T07:46:39.999Z</time></trkpt><trkpt lat="43.56881506211594" lon="10.777304446250119"><ele>117.0</ele><time>2026-04-18T07:46:40.999Z</time></trkpt><trkpt lat="43.568849484530546" lon="10.777479349972536"><ele>117.0</ele><time>2026-04-18T07:46:42.999Z</time></trkpt><trkpt lat="43.56886174524624" lon="10.777599449284867"><ele>117.0</ele><time>2026-04-18T07:46:43.999Z</time></trkpt><trkpt lat="43.568869559771784" lon="10.777715383938457"><ele>117.0</ele><time>2026-04-18T07:46:44.999Z</time></trkpt><trkpt lat="43.56886234258043" lon="10.777818277935884"><ele>117.0</ele><time>2026-04-18T07:46:45.999Z</time></trkpt><trkpt lat="43.56884666458059" lon="10.777919153464701"><ele>117.0</ele><time>2026-04-18T07:46:46.999Z</time></trkpt><trkpt lat="43.56883040111361" lon="10.778030475388737"><ele>117.0</ele><time>2026-04-18T07:46:47.999Z</time></trkpt><trkpt lat="43.56881163059702" lon="10.778133011052324"><ele>116.66666666666667</ele><time>2026-04-18T07:46:48.999Z</time></trkpt><trkpt lat="43.56878054360582" lon="10.778227516633297"><ele>116.33333333333334</ele><time>2026-04-18T07:46:49.999Z</time></trkpt><trkpt lat="43.56873011216416" lon="10.778331539822627"><ele>116.0</ele><time>2026-04-18T07:46:50.999Z</time></trkpt><trkpt lat="43.568679661340845" lon="10.778432508498375"><ele>115.66666666666667</ele><time>2026-04-18T07:46:51.999Z</time></trkpt><trkpt lat="43.568616930575246" lon="10.77851613098186"><ele>115.33333333333334</ele><time>2026-04-18T07:46:52.999Z</time></trkpt><trkpt lat="43.56854440755081" lon="10.778592030406017"><ele>115.0</ele><time>2026-04-18T07:46:53.999Z</time></trkpt><trkpt lat="43.56847476960504" lon="10.778674664069614"><ele>116.0</ele><time>2026-04-18T07:46:54.999Z</time></trkpt><trkpt lat="43.56840792711166" lon="10.778753337553614"><ele>117.0</ele><time>2026-04-18T07:46:55.999Z</time></trkpt><trkpt lat="43.56833821485942" lon="10.778834728426364"><ele>118.0</ele><time>2026-04-18T07:46:56.999Z</time></trkpt><trkpt lat="43.56826264213528" lon="10.778917784509952"><ele>119.0</ele><time>2026-04-18T07:46:57.999Z</time></trkpt><trkpt lat="43.56817642082982" lon="10.779005317723216"><ele>120.0</ele><time>2026-04-18T07:46:58.999Z</time></trkpt><trkpt lat="43.56808000386977" lon="10.779103307493273"><ele>120.0</ele><time>2026-04-18T07:46:59.999Z</time></trkpt><trkpt lat="43.56801282579795" lon="10.779217676977137"><ele>120.0</ele><time>2026-04-18T07:47:00.999Z</time></trkpt><trkpt lat="43.56797322035738" lon="10.779321380114544"><ele>120.0</ele><time>2026-04-18T07:47:01.999Z</time></trkpt><trkpt lat="43.56796709511433" lon="10.779408420823534"><ele>120.0</ele><time>2026-04-18T07:47:02.999Z</time></trkpt><trkpt lat="43.56796802003047" lon="10.77949801229686"><ele>120.0</ele><time>2026-04-18T07:47:03.999Z</time></trkpt><trkpt lat="43.567955582735785" lon="10.77958370691553"><ele>120.0</ele><time>2026-04-18T07:47:04.999Z</time></trkpt><trkpt lat="43.56789661224775" lon="10.779752248794795"><ele>119.83333333333333</ele><time>2026-04-18T07:47:06.999Z</time></trkpt><trkpt lat="43.5678579913311" lon="10.77983473906164"><ele>119.66666666666666</ele><time>2026-04-18T07:47:07.999Z</time></trkpt><trkpt lat="43.56780453699506" lon="10.779950147804241"><ele>119.5</ele><time>2026-04-18T07:47:09.999Z</time></trkpt><trkpt lat="43.56779323173705" lon="10.780069465473687"><ele>119.33333333333333</ele><time>2026-04-18T07:47:12.999Z</time></trkpt><trkpt lat="43.56777848723351" lon="10.780213781333824"><ele>119.16666666666666</ele><time>2026-04-18T07:47:14.999Z</time></trkpt><trkpt lat="43.56775645136742" lon="10.780304270539508"><ele>119.0</ele><time>2026-04-18T07:47:15.999Z</time></trkpt><trkpt lat="43.56773764489315" lon="10.78040946069698"><ele>118.99999999999999</ele><time>2026-04-18T07:47:16.999Z</time></trkpt><trkpt lat="43.56772038490727" lon="10.780498625395886"><ele>119.0</ele><time>2026-04-18T07:47:17.999Z</time></trkpt><trkpt lat="43.567692320325264" lon="10.780681569957423"><ele>119.0</ele><time>2026-04-18T07:47:19.999Z</time></trkpt><trkpt lat="43.56766573498454" lon="10.780782193795853"><ele>119.0</ele><time>2026-04-18T07:47:20.999Z</time></trkpt><trkpt lat="43.5676446284653" lon="10.78087866579194"><ele>118.99999999999999</ele><time>2026-04-18T07:47:21.999Z</time></trkpt><trkpt lat="43.5676276178751" lon="10.780986550785089"><ele>119.0</ele><time>2026-04-18T07:47:22.999Z</time></trkpt><trkpt lat="43.56761899364633" lon="10.781098588714528"><ele>119.49999999999999</ele><time>2026-04-18T07:47:23.999Z</time></trkpt><trkpt lat="43.56760906088853" lon="10.781195786008803"><ele>120.0</ele><time>2026-04-18T07:47:24.999Z</time></trkpt><trkpt lat="43.56759211783556" lon="10.781289189885975"><ele>120.5</ele><time>2026-04-18T07:47:25.999Z</time></trkpt><trkpt lat="43.56757393679366" lon="10.781383956345334"><ele>121.0</ele><time>2026-04-18T07:47:26.999Z</time></trkpt><trkpt lat="43.567526776026625" lon="10.781518708411946"><ele>121.49999999999999</ele><time>2026-04-18T07:47:28.999Z</time></trkpt><trkpt lat="43.56749106754978" lon="10.781650510711646"><ele>122.0</ele><time>2026-04-18T07:47:31.999Z</time></trkpt><trkpt lat="43.56744002728546" lon="10.781730875881205"><ele>121.99999999999999</ele><time>2026-04-18T07:47:33Z</time></trkpt><trkpt lat="43.567382108871" lon="10.781797801136726"><ele>122.0</ele><time>2026-04-18T07:47:34Z</time></trkpt><trkpt lat="43.567322407262395" lon="10.781871913649898"><ele>122.0</ele><time>2026-04-18T07:47:35Z</time></trkpt><trkpt lat="43.56725602971895" lon="10.781954713791961"><ele>122.0</ele><time>2026-04-18T07:47:36Z</time></trkpt><trkpt lat="43.5671999462497" lon="10.782041914058006"><ele>121.99999999999999</ele><time>2026-04-18T07:47:37Z</time></trkpt><trkpt lat="43.56716416366432" lon="10.782120065510252"><ele>122.0</ele><time>2026-04-18T07:47:38Z</time></trkpt><trkpt lat="43.56713530141983" lon="10.782200643271713"><ele>121.39999999999999</ele><time>2026-04-18T07:47:39Z</time></trkpt><trkpt lat="43.56710090684329" lon="10.782310750544127"><ele>120.79999999999998</ele><time>2026-04-18T07:47:40Z</time></trkpt><trkpt lat="43.567064314783416" lon="10.782423924927011"><ele>120.2</ele><time>2026-04-18T07:47:41Z</time></trkpt><trkpt lat="43.567024962456706" lon="10.782545025845671"><ele>119.6</ele><time>2026-04-18T07:47:42Z</time></trkpt><trkpt lat="43.56699188750729" lon="10.782665178224208"><ele>119.0</ele><time>2026-04-18T07:47:43Z</time></trkpt><trkpt lat="43.566955465489876" lon="10.782784794859378"><ele>120.6</ele><time>2026-04-18T07:47:44Z</time></trkpt><trkpt lat="43.56691514320004" lon="10.782910889346226"><ele>122.2</ele><time>2026-04-18T07:47:45Z</time></trkpt><trkpt lat="43.56688089503955" lon="10.78304165739869"><ele>123.79999999999998</ele><time>2026-04-18T07:47:46Z</time></trkpt><trkpt lat="43.56684257795702" lon="10.783174171164902"><ele>125.39999999999999</ele><time>2026-04-18T07:47:47Z</time></trkpt><trkpt lat="43.566804161936965" lon="10.783275243587553"><ele>127.0</ele><time>2026-04-18T07:47:48Z</time></trkpt><trkpt lat="43.566782508808885" lon="10.783358285149031"><ele>127.00000000000001</ele><time>2026-04-18T07:47:49Z</time></trkpt><trkpt lat="43.56675469672071" lon="10.783453506252103"><ele>127.0</ele><time>2026-04-18T07:47:50Z</time></trkpt><trkpt lat="43.566727402485135" lon="10.78354367077777"><ele>127.0</ele><time>2026-04-18T07:47:51Z</time></trkpt><trkpt lat="43.566708258791394" lon="10.783630349587508"><ele>127.0</ele><time>2026-04-18T07:47:52Z</time></trkpt><trkpt lat="43.56667687804124" lon="10.78372945104257"><ele>127.00000000000001</ele><time>2026-04-18T07:47:53Z</time></trkpt><trkpt lat="43.56663979938539" lon="10.783825829012534"><ele>127.0</ele><time>2026-04-18T07:47:54Z</time></trkpt><trkpt lat="43.566587217387266" lon="10.783931974720984"><ele>127.33333333333334</ele><time>2026-04-18T07:47:54.999Z</time></trkpt><trkpt lat="43.56653502220029" lon="10.784036485567533"><ele>127.66666666666667</ele><time>2026-04-18T07:47:55.999Z</time></trkpt><trkpt lat="43.56648872089257" lon="10.784140356688509"><ele>128.0</ele><time>2026-04-18T07:47:56.999Z</time></trkpt><trkpt lat="43.56644525726522" lon="10.784233590601268"><ele>128.33333333333334</ele><time>2026-04-18T07:47:57.999Z</time></trkpt><trkpt lat="43.56639447438221" lon="10.7843388172219"><ele>128.66666666666666</ele><time>2026-04-18T07:47:58.999Z</time></trkpt><trkpt lat="43.566346378805186" lon="10.78443381558653"><ele>129.0</ele><time>2026-04-18T07:47:59.999Z</time></trkpt><trkpt lat="43.56629218312346" lon="10.78452524533138"><ele>129.0</ele><time>2026-04-18T07:48:00.999Z</time></trkpt><trkpt lat="43.566237072235104" lon="10.784608952873173"><ele>129.0</ele><time>2026-04-18T07:48:01.999Z</time></trkpt><trkpt lat="43.566169686707255" lon="10.784684926693274"><ele>129.0</ele><time>2026-04-18T07:48:02.999Z</time></trkpt><trkpt lat="43.56609768373518" lon="10.784759978895789"><ele>129.0</ele><time>2026-04-18T07:48:03.999Z</time></trkpt><trkpt lat="43.56603100102069" lon="10.784821487346216"><ele>129.0</ele><time>2026-04-18T07:48:04.999Z</time></trkpt><trkpt lat="43.56597417093208" lon="10.784860140010172"><ele>129.0</ele><time>2026-04-18T07:48:05.999Z</time></trkpt><trkpt lat="43.565885959572626" lon="10.784907505178198"><ele>129.0</ele><time>2026-04-18T07:48:07.999Z</time></trkpt><trkpt lat="43.56599037125778" lon="10.784854982163749"><ele>129.0</ele><time>2026-04-18T07:48:32.999Z</time></trkpt><trkpt lat="43.56606027996908" lon="10.784776720014461"><ele>129.0</ele><time>2026-04-18T07:48:35.999Z</time></trkpt><trkpt lat="43.5661436363058" lon="10.784716966531477"><ele>129.0</ele><time>2026-04-18T07:48:38.999Z</time></trkpt><trkpt lat="43.566191834081856" lon="10.784660671284993"><ele>129.0</ele><time>2026-04-18T07:48:40.999Z</time></trkpt><trkpt lat="43.56624030778549" lon="10.784600179347493"><ele>129.0</ele><time>2026-04-18T07:48:43Z</time></trkpt><trkpt lat="43.56630605217877" lon="10.784510706666946"><ele>129.0</ele><time>2026-04-18T07:48:46Z</time></trkpt><trkpt lat="43.566351432299264" lon="10.7844338479286"><ele>129.0</ele><time>2026-04-18T07:48:49Z</time></trkpt><trkpt lat="43.566408460938234" lon="10.784371261910225"><ele>129.0</ele><time>2026-04-18T07:48:53Z</time></trkpt><trkpt lat="43.566439083579716" lon="10.784280858549277"><ele>129.0</ele><time>2026-04-18T07:49:00Z</time></trkpt><trkpt lat="43.566478610817995" lon="10.784188917884038"><ele>129.0</ele><time>2026-04-18T07:49:02Z</time></trkpt><trkpt lat="43.56652999318223" lon="10.78408448111804"><ele>129.0</ele><time>2026-04-18T07:49:04Z</time></trkpt><trkpt lat="43.56658494926422" lon="10.783964392855411"><ele>128.99999999999997</ele><time>2026-04-18T07:49:06Z</time></trkpt><trkpt lat="43.566622466719444" lon="10.78388079237545"><ele>129.0</ele><time>2026-04-18T07:49:08Z</time></trkpt><trkpt lat="43.566608867465874" lon="10.78379125375816"><ele>129.0</ele><time>2026-04-18T07:49:31Z</time></trkpt><trkpt lat="43.566659565715845" lon="10.783738404650554"><ele>129.0</ele><time>2026-04-18T07:49:35Z</time></trkpt><trkpt lat="43.566651311012265" lon="10.783825252854516"><ele>129.0</ele><time>2026-04-18T07:49:38Z</time></trkpt><trkpt lat="43.566590623385046" lon="10.783952107128266"><ele>128.99999999999997</ele><time>2026-04-18T07:49:40Z</time></trkpt><trkpt lat="43.566552944938124" lon="10.784031892042089"><ele>129.0</ele><time>2026-04-18T07:49:41Z</time></trkpt><trkpt lat="43.566516727432656" lon="10.784124572363261"><ele>129.0</ele><time>2026-04-18T07:49:42Z</time></trkpt><trkpt lat="43.56648694548815" lon="10.784223602036029"><ele>129.0</ele><time>2026-04-18T07:49:43Z</time></trkpt><trkpt lat="43.566456467295886" lon="10.784334340405904"><ele>129.0</ele><time>2026-04-18T07:49:44Z</time></trkpt><trkpt lat="43.566425226552276" lon="10.784445701384687"><ele>129.0</ele><time>2026-04-18T07:49:45Z</time></trkpt><trkpt lat="43.566402171834646" lon="10.784557421983232"><ele>129.0</ele><time>2026-04-18T07:49:46Z</time></trkpt><trkpt lat="43.566295772256424" lon="10.784553077410589"><ele>129.0</ele><time>2026-04-18T07:49:47Z</time></trkpt><trkpt lat="43.56625049220656" lon="10.784615380346235"><ele>129.0</ele><time>2026-04-18T07:49:48Z</time></trkpt><trkpt lat="43.5662039298388" lon="10.784678850508406"><ele>129.0</ele><time>2026-04-18T07:49:49Z</time></trkpt><trkpt lat="43.566114911330786" lon="10.784769802750588"><ele>129.0</ele><time>2026-04-18T07:49:51Z</time></trkpt><trkpt lat="43.56604113574042" lon="10.784824999093185"><ele>129.0</ele><time>2026-04-18T07:49:53Z</time></trkpt><trkpt lat="43.56598400761253" lon="10.784864158765535"><ele>129.0</ele><time>2026-04-18T07:50:50Z</time></trkpt><trkpt lat="43.566049789810926" lon="10.784898163675347"><ele>129.0</ele><time>2026-04-18T07:50:56Z</time></trkpt><trkpt lat="43.566080731264286" lon="10.784777595283995"><ele>129.0</ele><time>2026-04-18T07:50:59Z</time></trkpt><trkpt lat="43.56614956188557" lon="10.78471224198596"><ele>129.0</ele><time>2026-04-18T07:51:01Z</time></trkpt><trkpt lat="43.56623338783543" lon="10.784617686328478"><ele>129.0</ele><time>2026-04-18T07:51:03Z</time></trkpt><trkpt lat="43.56628252695536" lon="10.784554834769267"><ele>129.0</ele><time>2026-04-18T07:51:04Z</time></trkpt><trkpt lat="43.56636025295568" lon="10.784433875911374"><ele>129.0</ele><time>2026-04-18T07:51:06Z</time></trkpt><trkpt lat="43.56642642752774" lon="10.784306999488077"><ele>128.99999999999997</ele><time>2026-04-18T07:51:08Z</time></trkpt><trkpt lat="43.566466321072554" lon="10.784227874525328"><ele>129.0</ele><time>2026-04-18T07:51:09Z</time></trkpt><trkpt lat="43.56650941576746" lon="10.78414110315716"><ele>129.0</ele><time>2026-04-18T07:51:10Z</time></trkpt><trkpt lat="43.566551476390835" lon="10.784045979708841"><ele>129.0</ele><time>2026-04-18T07:51:11Z</time></trkpt><trkpt lat="43.56658613971899" lon="10.783963570580601"><ele>129.0</ele><time>2026-04-18T07:51:12Z</time></trkpt><trkpt lat="43.566624373404096" lon="10.783881288490834"><ele>128.99999999999997</ele><time>2026-04-18T07:51:13Z</time></trkpt><trkpt lat="43.56666062421928" lon="10.78379619732808"><ele>129.0</ele><time>2026-04-18T07:51:14Z</time></trkpt><trkpt lat="43.5667310919702" lon="10.783656028926499"><ele>128.99999999999997</ele><time>2026-04-18T07:51:16Z</time></trkpt><trkpt lat="43.56677628205524" lon="10.783533944012733"><ele>129.0</ele><time>2026-04-18T07:51:18Z</time></trkpt><trkpt lat="43.56680826558391" lon="10.78344277031018"><ele>129.0</ele><time>2026-04-18T07:51:20Z</time></trkpt><trkpt lat="43.5668226535014" lon="10.783352307305972"><ele>129.0</ele><time>2026-04-18T07:51:22Z</time></trkpt><trkpt lat="43.56686333324211" lon="10.78327310789198"><ele>129.0</ele><time>2026-04-18T07:51:30Z</time></trkpt><trkpt lat="43.56692406458941" lon="10.783304825527251"><ele>128.99999999999997</ele><time>2026-04-18T07:51:34Z</time></trkpt><trkpt lat="43.566907899328726" lon="10.783398340923053"><ele>129.0</ele><time>2026-04-18T07:52:37.999Z</time></trkpt><trkpt lat="43.56686955671554" lon="10.783473809746027"><ele>129.0</ele><time>2026-04-18T07:52:39.999Z</time></trkpt><trkpt lat="43.56683300876476" lon="10.783587066219141"><ele>129.0</ele><time>2026-04-18T07:52:41.999Z</time></trkpt><trkpt lat="43.5668037717589" lon="10.783689284441984"><ele>129.0</ele><time>2026-04-18T07:52:43.999Z</time></trkpt><trkpt lat="43.566769216161525" lon="10.783788185847698"><ele>129.0</ele><time>2026-04-18T07:52:45.999Z</time></trkpt><trkpt lat="43.56672402917026" lon="10.783893491484873"><ele>129.0</ele><time>2026-04-18T07:52:47.999Z</time></trkpt><trkpt lat="43.56668657504898" lon="10.784032484643848"><ele>129.0</ele><time>2026-04-18T07:52:49.999Z</time></trkpt><trkpt lat="43.566626898157324" lon="10.784175161487296"><ele>129.0</ele><time>2026-04-18T07:52:51.999Z</time></trkpt><trkpt lat="43.56656609621126" lon="10.784329650388418"><ele>129.0</ele><time>2026-04-18T07:52:54Z</time></trkpt><trkpt lat="43.56652961812289" lon="10.784416733895574"><ele>129.0</ele><time>2026-04-18T07:52:55Z</time></trkpt><trkpt lat="43.56649258631434" lon="10.784513686031575"><ele>129.0</ele><time>2026-04-18T07:52:56Z</time></trkpt><trkpt lat="43.56645709571457" lon="10.784604380324781"><ele>129.0</ele><time>2026-04-18T07:52:57Z</time></trkpt><trkpt lat="43.56642521044515" lon="10.784687402922772"><ele>129.0</ele><time>2026-04-18T07:52:58Z</time></trkpt><trkpt lat="43.56639096327727" lon="10.784784033529649"><ele>129.0</ele><time>2026-04-18T07:53:00Z</time></trkpt><trkpt lat="43.56637384439483" lon="10.784878710327375"><ele>129.0</ele><time>2026-04-18T07:53:02Z</time></trkpt><trkpt lat="43.566329475514124" lon="10.785035549692049"><ele>129.0</ele><time>2026-04-18T07:53:04Z</time></trkpt><trkpt lat="43.56629189120825" lon="10.78516889327608"><ele>129.0</ele><time>2026-04-18T07:53:06Z</time></trkpt><trkpt lat="43.566245941426246" lon="10.785271532109032"><ele>129.0</ele><time>2026-04-18T07:53:08Z</time></trkpt><trkpt lat="43.56616372646482" lon="10.785343475503185"><ele>130.2</ele><time>2026-04-18T07:53:10Z</time></trkpt><trkpt lat="43.56606610172276" lon="10.785423562097892"><ele>131.4</ele><time>2026-04-18T07:53:12Z</time></trkpt><trkpt lat="43.56599479112364" lon="10.78554229561114"><ele>132.6</ele><time>2026-04-18T07:53:14Z</time></trkpt><trkpt lat="43.56592780927201" lon="10.78566280548714"><ele>133.8</ele><time>2026-04-18T07:53:16Z</time></trkpt><trkpt lat="43.565877859202494" lon="10.7857308078725"><ele>135.0</ele><time>2026-04-18T07:53:17Z</time></trkpt><trkpt lat="43.56583065322372" lon="10.78579782759373"><ele>135.0</ele><time>2026-04-18T07:53:18Z</time></trkpt><trkpt lat="43.56575713114441" lon="10.785899559203852"><ele>135.0</ele><time>2026-04-18T07:53:20Z</time></trkpt><trkpt lat="43.565674085211015" lon="10.785982376256165"><ele>135.0</ele><time>2026-04-18T07:53:22Z</time></trkpt><trkpt lat="43.56563518869162" lon="10.786079144910447"><ele>135.0</ele><time>2026-04-18T07:53:24Z</time></trkpt><trkpt lat="43.56564238681597" lon="10.7861761388246"><ele>135.0</ele><time>2026-04-18T07:53:27Z</time></trkpt><trkpt lat="43.56562690722543" lon="10.786278440575"><ele>135.0</ele><time>2026-04-18T07:53:30Z</time></trkpt><trkpt lat="43.565577874819155" lon="10.786342540400415"><ele>133.8</ele><time>2026-04-18T07:53:51Z</time></trkpt><trkpt lat="43.5655385685435" lon="10.78642424618326"><ele>132.6</ele><time>2026-04-18T07:53:53Z</time></trkpt><trkpt lat="43.56548135505155" lon="10.786549293177945"><ele>131.4</ele><time>2026-04-18T07:53:55Z</time></trkpt><trkpt lat="43.56532142557564" lon="10.786556238840987"><ele>130.2</ele><time>2026-04-18T07:53:56Z</time></trkpt><trkpt lat="43.56528587691506" lon="10.786677888154765"><ele>129.0</ele><time>2026-04-18T07:53:58Z</time></trkpt><trkpt lat="43.56522953104632" lon="10.78679630926025"><ele>130.0</ele><time>2026-04-18T07:54:00Z</time></trkpt><trkpt lat="43.56515419375147" lon="10.786882627248987"><ele>131.0</ele><time>2026-04-18T07:54:02Z</time></trkpt><trkpt lat="43.565097119582326" lon="10.786927850614525"><ele>132.0</ele><time>2026-04-18T07:54:03Z</time></trkpt><trkpt lat="43.56501373395132" lon="10.786971793732848"><ele>133.0</ele><time>2026-04-18T07:54:04Z</time></trkpt><trkpt lat="43.56494783023084" lon="10.787054617336814"><ele>134.0</ele><time>2026-04-18T07:54:05Z</time></trkpt><trkpt lat="43.56490065709829" lon="10.78711558072287"><ele>135.0</ele><time>2026-04-18T07:54:06Z</time></trkpt><trkpt lat="43.56488029242371" lon="10.787226615747658"><ele>135.0</ele><time>2026-04-18T07:54:07Z</time></trkpt><trkpt lat="43.56488240408979" lon="10.787401699857433"><ele>135.0</ele><time>2026-04-18T07:54:09Z</time></trkpt><trkpt lat="43.564857240427635" lon="10.787531682093487"><ele>135.0</ele><time>2026-04-18T07:54:12Z</time></trkpt><trkpt lat="43.56484551524279" lon="10.787671855447377"><ele>135.0</ele><time>2026-04-18T07:54:13.999Z</time></trkpt><trkpt lat="43.56482657778295" lon="10.787838232492685"><ele>135.0</ele><time>2026-04-18T07:54:15.999Z</time></trkpt><trkpt lat="43.56480363753571" lon="10.787935476261053"><ele>135.16666666666666</ele><time>2026-04-18T07:54:16.999Z</time></trkpt><trkpt lat="43.56475528253397" lon="10.78802852831431"><ele>135.33333333333334</ele><time>2026-04-18T07:54:17.999Z</time></trkpt><trkpt lat="43.56471058232206" lon="10.788128389671826"><ele>135.5</ele><time>2026-04-18T07:54:18.999Z</time></trkpt><trkpt lat="43.56468124365001" lon="10.788232506214174"><ele>135.66666666666669</ele><time>2026-04-18T07:54:19.999Z</time></trkpt><trkpt lat="43.564631859773705" lon="10.788361007935936"><ele>135.83333333333334</ele><time>2026-04-18T07:54:21.999Z</time></trkpt><trkpt lat="43.56459513141378" lon="10.788445862691901"><ele>136.0</ele><time>2026-04-18T07:54:22.999Z</time></trkpt><trkpt lat="43.564570776035026" lon="10.788537253991883"><ele>135.99999999999997</ele><time>2026-04-18T07:54:23.999Z</time></trkpt><trkpt lat="43.56455545286149" lon="10.788630195969672"><ele>136.0</ele><time>2026-04-18T07:54:24.999Z</time></trkpt><trkpt lat="43.564558462757155" lon="10.788720895263875"><ele>136.0</ele><time>2026-04-18T07:54:25.999Z</time></trkpt><trkpt lat="43.564566484505306" lon="10.788821828912186"><ele>136.0</ele><time>2026-04-18T07:54:26.999Z</time></trkpt><trkpt lat="43.5645864535781" lon="10.788927452406831"><ele>136.0</ele><time>2026-04-18T07:54:27.999Z</time></trkpt><trkpt lat="43.564566129580655" lon="10.789032860887351"><ele>135.99999999999997</ele><time>2026-04-18T07:54:28.999Z</time></trkpt><trkpt lat="43.56453939334203" lon="10.78913987915578"><ele>136.0</ele><time>2026-04-18T07:54:29.999Z</time></trkpt><trkpt lat="43.56452439480695" lon="10.789254052193964"><ele>135.5</ele><time>2026-04-18T07:54:30.999Z</time></trkpt><trkpt lat="43.564487974859226" lon="10.789377797295188"><ele>135.0</ele><time>2026-04-18T07:54:31.999Z</time></trkpt><trkpt lat="43.56445229268321" lon="10.789490435748016"><ele>134.5</ele><time>2026-04-18T07:54:32.999Z</time></trkpt><trkpt lat="43.564409776803195" lon="10.789591486083806"><ele>134.0</ele><time>2026-04-18T07:54:33.999Z</time></trkpt><trkpt lat="43.56438794300707" lon="10.78969038004276"><ele>133.5</ele><time>2026-04-18T07:54:34.999Z</time></trkpt><trkpt lat="43.56436747421936" lon="10.789823125872045"><ele>133.0</ele><time>2026-04-18T07:54:36.999Z</time></trkpt><trkpt lat="43.564363529197706" lon="10.789914144257473"><ele>133.0</ele><time>2026-04-18T07:54:37.999Z</time></trkpt><trkpt lat="43.56436937254323" lon="10.790001299329983"><ele>133.0</ele><time>2026-04-18T07:54:38.999Z</time></trkpt><trkpt lat="43.56436094110281" lon="10.79009780325939"><ele>133.0</ele><time>2026-04-18T07:54:39.999Z</time></trkpt><trkpt lat="43.56431920985067" lon="10.790270253035052"><ele>133.0</ele><time>2026-04-18T07:54:41.999Z</time></trkpt><trkpt lat="43.564291265757184" lon="10.790369518476886"><ele>133.0</ele><time>2026-04-18T07:54:42.999Z</time></trkpt><trkpt lat="43.564261151245965" lon="10.790474694075893"><ele>133.0</ele><time>2026-04-18T07:54:43.999Z</time></trkpt><trkpt lat="43.564239964154204" lon="10.79060023997115"><ele>133.5</ele><time>2026-04-18T07:54:44.999Z</time></trkpt><trkpt lat="43.5641942538342" lon="10.790731157697572"><ele>134.0</ele><time>2026-04-18T07:54:45.999Z</time></trkpt><trkpt lat="43.56416467991011" lon="10.790848446525978"><ele>134.5</ele><time>2026-04-18T07:54:46.999Z</time></trkpt><trkpt lat="43.56413182228121" lon="10.790942344326211"><ele>135.0</ele><time>2026-04-18T07:54:47.999Z</time></trkpt><trkpt lat="43.56412100654909" lon="10.791033861459034"><ele>135.5</ele><time>2026-04-18T07:54:48.999Z</time></trkpt><trkpt lat="43.56411607812168" lon="10.791133630899498"><ele>136.0</ele><time>2026-04-18T07:54:49.999Z</time></trkpt><trkpt lat="43.56413562406182" lon="10.791251914317145"><ele>136.0</ele><time>2026-04-18T07:54:50.999Z</time></trkpt><trkpt lat="43.56413365350351" lon="10.791370915540435"><ele>136.0</ele><time>2026-04-18T07:54:51.999Z</time></trkpt><trkpt lat="43.564124237810574" lon="10.791494419157011"><ele>136.0</ele><time>2026-04-18T07:54:52.999Z</time></trkpt><trkpt lat="43.56408817012301" lon="10.79158809518754"><ele>136.0</ele><time>2026-04-18T07:54:53.999Z</time></trkpt><trkpt lat="43.56408284541234" lon="10.79169238391081"><ele>136.0</ele><time>2026-04-18T07:54:54.999Z</time></trkpt><trkpt lat="43.564067436061016" lon="10.791777847935732"><ele>136.0</ele><time>2026-04-18T07:54:55.999Z</time></trkpt><trkpt lat="43.564057944719224" lon="10.791941072731163"><ele>137.16666666666669</ele><time>2026-04-18T07:54:57.999Z</time></trkpt><trkpt lat="43.56406055064643" lon="10.792049983362105"><ele>138.33333333333334</ele><time>2026-04-18T07:54:58.999Z</time></trkpt><trkpt lat="43.56407840436959" lon="10.792157041308805"><ele>139.5</ele><time>2026-04-18T07:55:00Z</time></trkpt><trkpt lat="43.56408323466816" lon="10.792298066012217"><ele>140.66666666666666</ele><time>2026-04-18T07:55:01Z</time></trkpt><trkpt lat="43.56410046814138" lon="10.792428175866249"><ele>141.83333333333331</ele><time>2026-04-18T07:55:02Z</time></trkpt><trkpt lat="43.56411064396598" lon="10.792546276453283"><ele>143.0</ele><time>2026-04-18T07:55:03Z</time></trkpt><trkpt lat="43.564113363696634" lon="10.792667802116323"><ele>144.0</ele><time>2026-04-18T07:55:04Z</time></trkpt><trkpt lat="43.56413395994854" lon="10.792751642597596"><ele>145.0</ele><time>2026-04-18T07:55:05Z</time></trkpt><trkpt lat="43.56415549119611" lon="10.792881056057697"><ele>146.0</ele><time>2026-04-18T07:55:07Z</time></trkpt><trkpt lat="43.56420124574606" lon="10.793035574874413"><ele>147.0</ele><time>2026-04-18T07:55:09Z</time></trkpt><trkpt lat="43.5642345821779" lon="10.79313073743109"><ele>148.0</ele><time>2026-04-18T07:55:10Z</time></trkpt><trkpt lat="43.56427062303367" lon="10.793239886587854"><ele>149.0</ele><time>2026-04-18T07:55:11Z</time></trkpt><trkpt lat="43.56430262257678" lon="10.793324054641282"><ele>149.0</ele><time>2026-04-18T07:55:12Z</time></trkpt><trkpt lat="43.56431320767993" lon="10.793425420795334"><ele>149.0</ele><time>2026-04-18T07:55:13Z</time></trkpt><trkpt lat="43.56433183162571" lon="10.793586579404549"><ele>149.0</ele><time>2026-04-18T07:55:15Z</time></trkpt><trkpt lat="43.564345963086424" lon="10.793712795581543"><ele>149.0</ele><time>2026-04-18T07:55:16Z</time></trkpt><trkpt lat="43.5643365337401" lon="10.793826187158748"><ele>149.0</ele><time>2026-04-18T07:55:17Z</time></trkpt><trkpt lat="43.56433734930228" lon="10.793930245831406"><ele>149.0</ele><time>2026-04-18T07:55:18Z</time></trkpt><trkpt lat="43.5643315607698" lon="10.794046429679124"><ele>149.0</ele><time>2026-04-18T07:55:19Z</time></trkpt><trkpt lat="43.56431707611115" lon="10.794200750444322"><ele>149.0</ele><time>2026-04-18T07:55:20Z</time></trkpt><trkpt lat="43.564303877008385" lon="10.794336104325373"><ele>149.0</ele><time>2026-04-18T07:55:21Z</time></trkpt><trkpt lat="43.564290772478145" lon="10.794442870487014"><ele>149.0</ele><time>2026-04-18T07:55:22Z</time></trkpt><trkpt lat="43.56427567513062" lon="10.794550625357665"><ele>149.0</ele><time>2026-04-18T07:55:23Z</time></trkpt><trkpt lat="43.564273313445625" lon="10.794685851238393"><ele>149.0</ele><time>2026-04-18T07:55:24Z</time></trkpt><trkpt lat="43.564252534794626" lon="10.79479813941012"><ele>149.0</ele><time>2026-04-18T07:55:25Z</time></trkpt><trkpt lat="43.56424001367446" lon="10.79490663681499"><ele>149.0</ele><time>2026-04-18T07:55:26Z</time></trkpt><trkpt lat="43.564224153658444" lon="10.795016065984784"><ele>149.0</ele><time>2026-04-18T07:55:27Z</time></trkpt><trkpt lat="43.56423058592199" lon="10.795126857620117"><ele>149.0</ele><time>2026-04-18T07:55:28Z</time></trkpt><trkpt lat="43.564224739492005" lon="10.79522041591481"><ele>149.0</ele><time>2026-04-18T07:55:29Z</time></trkpt><trkpt lat="43.56420986193316" lon="10.795308444285897"><ele>149.6</ele><time>2026-04-18T07:55:30Z</time></trkpt><trkpt lat="43.56418660686421" lon="10.795407493592062"><ele>150.2</ele><time>2026-04-18T07:55:31Z</time></trkpt><trkpt lat="43.56415095202304" lon="10.79553598553937"><ele>150.79999999999998</ele><time>2026-04-18T07:55:32Z</time></trkpt><trkpt lat="43.56409051208253" lon="10.795701321750528"><ele>151.4</ele><time>2026-04-18T07:55:33Z</time></trkpt><trkpt lat="43.5640146412783" lon="10.795857403360518"><ele>152.0</ele><time>2026-04-18T07:55:34Z</time></trkpt><trkpt lat="43.56395580871571" lon="10.795959861578147"><ele>152.66666666666666</ele><time>2026-04-18T07:55:35Z</time></trkpt><trkpt lat="43.56389514438691" lon="10.796059421905767"><ele>153.33333333333331</ele><time>2026-04-18T07:55:36Z</time></trkpt><trkpt lat="43.56383072155407" lon="10.796170137173785"><ele>154.0</ele><time>2026-04-18T07:55:37Z</time></trkpt><trkpt lat="43.563783233957544" lon="10.796264392337116"><ele>154.66666666666666</ele><time>2026-04-18T07:55:38Z</time></trkpt><trkpt lat="43.56373422985432" lon="10.79635678795835"><ele>155.33333333333334</ele><time>2026-04-18T07:55:39Z</time></trkpt><trkpt lat="43.563710146493605" lon="10.796451282638138"><ele>156.0</ele><time>2026-04-18T07:55:41Z</time></trkpt><trkpt lat="43.5637214622103" lon="10.796543824618405"><ele>156.0</ele><time>2026-04-18T07:55:44Z</time></trkpt><trkpt lat="43.56371450079409" lon="10.79671376640643"><ele>156.0</ele><time>2026-04-18T07:55:46Z</time></trkpt><trkpt lat="43.56372317369334" lon="10.79682700113691"><ele>156.0</ele><time>2026-04-18T07:55:47Z</time></trkpt><trkpt lat="43.563748728718686" lon="10.796974463809788"><ele>156.0</ele><time>2026-04-18T07:55:48Z</time></trkpt><trkpt lat="43.56378817076471" lon="10.79713008108687"><ele>156.0</ele><time>2026-04-18T07:55:49Z</time></trkpt><trkpt lat="43.56382995099052" lon="10.797224867928396"><ele>158.25</ele><time>2026-04-18T07:55:50Z</time></trkpt><trkpt lat="43.56387965951824" lon="10.797313490090435"><ele>160.5</ele><time>2026-04-18T07:55:51Z</time></trkpt><trkpt lat="43.56394686896131" lon="10.797430914447768"><ele>162.75</ele><time>2026-04-18T07:55:52Z</time></trkpt><trkpt lat="43.56406522429919" lon="10.79766946176308"><ele>165.0</ele><time>2026-04-18T07:55:53Z</time></trkpt><trkpt lat="43.5640730939544" lon="10.798065657770072"><ele>167.25</ele><time>2026-04-18T07:55:54Z</time></trkpt><trkpt lat="43.56406507508405" lon="10.798235432056051"><ele>169.5</ele><time>2026-04-18T07:55:55Z</time></trkpt><trkpt lat="43.564028933678806" lon="10.798413700257987"><ele>171.75</ele><time>2026-04-18T07:55:56Z</time></trkpt><trkpt lat="43.563999124611996" lon="10.798550294827638"><ele>174.0</ele><time>2026-04-18T07:55:57Z</time></trkpt><trkpt lat="43.563965064160044" lon="10.798673169248085"><ele>175.5</ele><time>2026-04-18T07:55:58Z</time></trkpt><trkpt lat="43.563931691804356" lon="10.798768273365862"><ele>177.0</ele><time>2026-04-18T07:55:59Z</time></trkpt><trkpt lat="43.5638921143551" lon="10.79888700405576"><ele>178.5</ele><time>2026-04-18T07:56:01Z</time></trkpt><trkpt lat="43.56369251487723" lon="10.798819619607448"><ele>180.0</ele><time>2026-04-18T07:56:03Z</time></trkpt><trkpt lat="43.56359075117277" lon="10.79882995041168"><ele>181.8</ele><time>2026-04-18T07:56:06Z</time></trkpt><trkpt lat="43.5634899403514" lon="10.798796727494462"><ele>183.6</ele><time>2026-04-18T07:56:08Z</time></trkpt><trkpt lat="43.563378880108225" lon="10.798761214806678"><ele>185.39999999999998</ele><time>2026-04-18T07:56:10Z</time></trkpt><trkpt lat="43.56330463450347" lon="10.798756349891422"><ele>187.2</ele><time>2026-04-18T07:56:12Z</time></trkpt><trkpt lat="43.56337201892227" lon="10.798755826047456"><ele>189.0</ele><time>2026-04-18T07:56:31.999Z</time></trkpt><trkpt lat="43.56336300750001" lon="10.798888013504103"><ele>189.0</ele><time>2026-04-18T07:56:32.999Z</time></trkpt><trkpt lat="43.56343353687916" lon="10.798947149611623"><ele>189.0</ele><time>2026-04-18T07:56:34.999Z</time></trkpt><trkpt lat="43.563499557122746" lon="10.79900250432799"><ele>189.0</ele><time>2026-04-18T07:56:36.999Z</time></trkpt><trkpt lat="43.56356844915178" lon="10.799068090537896"><ele>189.0</ele><time>2026-04-18T07:56:39.999Z</time></trkpt><trkpt lat="43.56364102289266" lon="10.799090392479938"><ele>189.0</ele><time>2026-04-18T07:56:44.999Z</time></trkpt><trkpt lat="43.56366423103131" lon="10.799177116614771"><ele>189.0</ele><time>2026-04-18T07:56:48.999Z</time></trkpt><trkpt lat="43.56381550914565" lon="10.799185688248397"><ele>188.2</ele><time>2026-04-18T07:56:59.999Z</time></trkpt><trkpt lat="43.563836486984286" lon="10.799316999144098"><ele>187.39999999999998</ele><time>2026-04-18T07:57:01.999Z</time></trkpt><trkpt lat="43.563863543300826" lon="10.799401450168258"><ele>186.6</ele><time>2026-04-18T07:57:02.999Z</time></trkpt><trkpt lat="43.56390730278674" lon="10.799523161906208"><ele>185.8</ele><time>2026-04-18T07:57:04.999Z</time></trkpt><trkpt lat="43.56397515772055" lon="10.799636264557332"><ele>185.0</ele><time>2026-04-18T07:57:07Z</time></trkpt><trkpt lat="43.56402779900996" lon="10.799751657497668"><ele>185.0</ele><time>2026-04-18T07:57:09Z</time></trkpt><trkpt lat="43.56395489318199" lon="10.799813294799993"><ele>185.0</ele><time>2026-04-18T07:57:10Z</time></trkpt><trkpt lat="43.563964047807" lon="10.79992209253454"><ele>185.0</ele><time>2026-04-18T07:57:14Z</time></trkpt><trkpt lat="43.564113518014956" lon="10.799968473203888"><ele>185.0</ele><time>2026-04-18T07:57:16Z</time></trkpt><trkpt lat="43.56420131151148" lon="10.800040632333722"><ele>185.0</ele><time>2026-04-18T07:57:18Z</time></trkpt><trkpt lat="43.56426706561303" lon="10.800085125767897"><ele>185.0</ele><time>2026-04-18T07:57:19Z</time></trkpt><trkpt lat="43.56433879886413" lon="10.800127685095811"><ele>185.0</ele><time>2026-04-18T07:57:20Z</time></trkpt><trkpt lat="43.56441440760898" lon="10.80016981861402"><ele>185.0</ele><time>2026-04-18T07:57:21Z</time></trkpt><trkpt lat="43.564485275215326" lon="10.800204009149184"><ele>185.0</ele><time>2026-04-18T07:57:22Z</time></trkpt><trkpt lat="43.56455793879958" lon="10.800237714750144"><ele>185.0</ele><time>2026-04-18T07:57:23Z</time></trkpt><trkpt lat="43.56463624410922" lon="10.800260290083644"><ele>185.0</ele><time>2026-04-18T07:57:24Z</time></trkpt><trkpt lat="43.564700972537466" lon="10.800290331220337"><ele>184.0</ele><time>2026-04-18T07:57:25Z</time></trkpt><trkpt lat="43.56479075731502" lon="10.800328476734288"><ele>183.0</ele><time>2026-04-18T07:57:27Z</time></trkpt><trkpt lat="43.56487155592974" lon="10.800375813393229"><ele>182.0</ele><time>2026-04-18T07:57:30Z</time></trkpt><trkpt lat="43.56496673662393" lon="10.800411473406523"><ele>181.0</ele><time>2026-04-18T07:57:32Z</time></trkpt><trkpt lat="43.56505204633815" lon="10.800456312960474"><ele>180.0</ele><time>2026-04-18T07:57:34Z</time></trkpt><trkpt lat="43.56514372744872" lon="10.800456620941604"><ele>180.0</ele><time>2026-04-18T07:57:36Z</time></trkpt><trkpt lat="43.56522808913039" lon="10.800447732077957"><ele>180.0</ele><time>2026-04-18T07:57:38Z</time></trkpt><trkpt lat="43.56531106252296" lon="10.800438313540582"><ele>180.0</ele><time>2026-04-18T07:57:40Z</time></trkpt><trkpt lat="43.56539084385088" lon="10.800422474989922"><ele>180.0</ele><time>2026-04-18T07:57:42Z</time></trkpt><trkpt lat="43.565461085166206" lon="10.800449707655517"><ele>180.0</ele><time>2026-04-18T07:57:45Z</time></trkpt><trkpt lat="43.56555871008316" lon="10.80051944844204"><ele>180.0</ele><time>2026-04-18T07:58:41.999Z</time></trkpt><trkpt lat="43.565655665902646" lon="10.800635741364847"><ele>179.83333333333334</ele><time>2026-04-18T07:58:43.999Z</time></trkpt><trkpt lat="43.565707868487785" lon="10.800717633727322"><ele>179.66666666666666</ele><time>2026-04-18T07:58:44.999Z</time></trkpt><trkpt lat="43.565762358700184" lon="10.800799035220809"><ele>179.5</ele><time>2026-04-18T07:58:45.999Z</time></trkpt><trkpt lat="43.56583643358185" lon="10.800884572015685"><ele>179.33333333333331</ele><time>2026-04-18T07:58:46.999Z</time></trkpt><trkpt lat="43.5659126230726" lon="10.800954156024535"><ele>179.16666666666666</ele><time>2026-04-18T07:58:47.999Z</time></trkpt><trkpt lat="43.565996709226035" lon="10.801014055975374"><ele>179.0</ele><time>2026-04-18T07:58:48.999Z</time></trkpt><trkpt lat="43.566090583622696" lon="10.801052344530056"><ele>179.0</ele><time>2026-04-18T07:58:49.999Z</time></trkpt><trkpt lat="43.5661797509329" lon="10.8011208877211"><ele>179.0</ele><time>2026-04-18T07:58:50.999Z</time></trkpt><trkpt lat="43.56627276270837" lon="10.801178739043973"><ele>179.0</ele><time>2026-04-18T07:58:51.999Z</time></trkpt><trkpt lat="43.56636651408623" lon="10.801239088626557"><ele>179.0</ele><time>2026-04-18T07:58:52.999Z</time></trkpt><trkpt lat="43.566460342440536" lon="10.801302479554472"><ele>179.0</ele><time>2026-04-18T07:58:53.999Z</time></trkpt><trkpt lat="43.56656481695344" lon="10.80137159690057"><ele>180.0</ele><time>2026-04-18T07:58:54.999Z</time></trkpt><trkpt lat="43.56668487896818" lon="10.80144526971474"><ele>181.0</ele><time>2026-04-18T07:58:55.999Z</time></trkpt><trkpt lat="43.56681119956578" lon="10.801525238538021"><ele>182.0</ele><time>2026-04-18T07:58:56.999Z</time></trkpt><trkpt lat="43.56694417412658" lon="10.801608890613808"><ele>183.0</ele><time>2026-04-18T07:58:57.999Z</time></trkpt><trkpt lat="43.567082455966734" lon="10.80169097533555"><ele>183.0</ele><time>2026-04-18T07:58:58.999Z</time></trkpt><trkpt lat="43.56723833924803" lon="10.801780264531748"><ele>183.0</ele><time>2026-04-18T07:58:59.999Z</time></trkpt><trkpt lat="43.56741329150309" lon="10.80183729904135"><ele>183.0</ele><time>2026-04-18T07:59:00.999Z</time></trkpt><trkpt lat="43.56757732291841" lon="10.801872554579802"><ele>183.0</ele><time>2026-04-18T07:59:01.999Z</time></trkpt><trkpt lat="43.56773020540213" lon="10.801885429577405"><ele>183.0</ele><time>2026-04-18T07:59:02.999Z</time></trkpt><trkpt lat="43.567879609129434" lon="10.801914802342575"><ele>183.0</ele><time>2026-04-18T07:59:03.999Z</time></trkpt><trkpt lat="43.56803453953888" lon="10.801903890714481"><ele>182.33333333333334</ele><time>2026-04-18T07:59:04.999Z</time></trkpt><trkpt lat="43.568197391756414" lon="10.801916260277157"><ele>181.66666666666669</ele><time>2026-04-18T07:59:05.999Z</time></trkpt><trkpt lat="43.56836232373037" lon="10.801919950155416"><ele>181.0</ele><time>2026-04-18T07:59:06.999Z</time></trkpt><trkpt lat="43.56852693700394" lon="10.801923601754561"><ele>181.0</ele><time>2026-04-18T07:59:07.999Z</time></trkpt><trkpt lat="43.568680893407105" lon="10.801935781938951"><ele>181.0</ele><time>2026-04-18T07:59:08.999Z</time></trkpt><trkpt lat="43.56882494648473" lon="10.801941543068956"><ele>181.0</ele><time>2026-04-18T07:59:09.999Z</time></trkpt><trkpt lat="43.56896422712828" lon="10.801925767951507"><ele>181.0</ele><time>2026-04-18T07:59:10.999Z</time></trkpt><trkpt lat="43.5690914569866" lon="10.801878943978402"><ele>183.60000000000002</ele><time>2026-04-18T07:59:12Z</time></trkpt><trkpt lat="43.56921723299281" lon="10.801846728103474"><ele>186.2</ele><time>2026-04-18T07:59:13Z</time></trkpt><trkpt lat="43.56932545726409" lon="10.801818466080979"><ele>188.8</ele><time>2026-04-18T07:59:14Z</time></trkpt><trkpt lat="43.56941438532578" lon="10.801806382776237"><ele>191.39999999999998</ele><time>2026-04-18T07:59:15Z</time></trkpt><trkpt lat="43.569495477229886" lon="10.8018679270883"><ele>194.0</ele><time>2026-04-18T07:59:16Z</time></trkpt><trkpt lat="43.56956112080797" lon="10.80199745326103"><ele>196.75</ele><time>2026-04-18T07:59:17Z</time></trkpt><trkpt lat="43.569632502810215" lon="10.802137027779185"><ele>199.5</ele><time>2026-04-18T07:59:18Z</time></trkpt><trkpt lat="43.569699791636545" lon="10.802306363762506"><ele>202.25</ele><time>2026-04-18T07:59:19Z</time></trkpt><trkpt lat="43.56978306797091" lon="10.802488323121416"><ele>205.0</ele><time>2026-04-18T07:59:20Z</time></trkpt><trkpt lat="43.569867811470466" lon="10.80267524623708"><ele>205.0</ele><time>2026-04-18T07:59:21Z</time></trkpt><trkpt lat="43.56994781553537" lon="10.802857723796906"><ele>205.0</ele><time>2026-04-18T07:59:22Z</time></trkpt><trkpt lat="43.570024417534476" lon="10.803022738860632"><ele>205.0</ele><time>2026-04-18T07:59:23Z</time></trkpt><trkpt lat="43.57009585463902" lon="10.80315630629881"><ele>205.0</ele><time>2026-04-18T07:59:24Z</time></trkpt><trkpt lat="43.57017947611151" lon="10.803263410683721"><ele>205.0</ele><time>2026-04-18T07:59:25Z</time></trkpt><trkpt lat="43.57028778003643" lon="10.803347447847443"><ele>205.0</ele><time>2026-04-18T07:59:26Z</time></trkpt><trkpt lat="43.57041541865809" lon="10.80341821454905"><ele>205.0</ele><time>2026-04-18T07:59:27Z</time></trkpt><trkpt lat="43.57055674387451" lon="10.803492717510021"><ele>205.0</ele><time>2026-04-18T07:59:28Z</time></trkpt><trkpt lat="43.57068453109286" lon="10.80358594161482"><ele>204.25</ele><time>2026-04-18T07:59:29Z</time></trkpt><trkpt lat="43.570813108099934" lon="10.803645831153124"><ele>203.5</ele><time>2026-04-18T07:59:30Z</time></trkpt><trkpt lat="43.570903704568046" lon="10.803767995504627"><ele>202.75</ele><time>2026-04-18T07:59:31Z</time></trkpt><trkpt lat="43.57097740751088" lon="10.803899158580949"><ele>202.0</ele><time>2026-04-18T07:59:32Z</time></trkpt><trkpt lat="43.571033534077976" lon="10.804048551515162"><ele>202.0</ele><time>2026-04-18T07:59:33Z</time></trkpt><trkpt lat="43.57108043456938" lon="10.804229479072648"><ele>202.0</ele><time>2026-04-18T07:59:34Z</time></trkpt><trkpt lat="43.57109031812618" lon="10.804441415608082"><ele>202.0</ele><time>2026-04-18T07:59:35Z</time></trkpt><trkpt lat="43.571075626039516" lon="10.804673684655013"><ele>198.66666666666666</ele><time>2026-04-18T07:59:36Z</time></trkpt><trkpt lat="43.57105132725379" lon="10.804928720468991"><ele>195.33333333333331</ele><time>2026-04-18T07:59:37Z</time></trkpt><trkpt lat="43.57103396241963" lon="10.805197152538588"><ele>192.0</ele><time>2026-04-18T07:59:38Z</time></trkpt><trkpt lat="43.5710003009263" lon="10.805406515831807"><ele>188.33333333333334</ele><time>2026-04-18T07:59:39Z</time></trkpt><trkpt lat="43.57098198834872" lon="10.805595928629616"><ele>184.66666666666669</ele><time>2026-04-18T07:59:40Z</time></trkpt><trkpt lat="43.57097474699308" lon="10.805884961787457"><ele>181.0</ele><time>2026-04-18T07:59:41Z</time></trkpt><trkpt lat="43.57098562824639" lon="10.806098538194203"><ele>179.33333333333334</ele><time>2026-04-18T07:59:42Z</time></trkpt><trkpt lat="43.57101917417821" lon="10.806316192276304"><ele>177.66666666666666</ele><time>2026-04-18T07:59:43Z</time></trkpt><trkpt lat="43.57105724710527" lon="10.80655162502283"><ele>176.0</ele><time>2026-04-18T07:59:44Z</time></trkpt><trkpt lat="43.5710985881522" lon="10.806794821376531"><ele>177.33333333333331</ele><time>2026-04-18T07:59:45Z</time></trkpt><trkpt lat="43.571140486615406" lon="10.807026292139806"><ele>178.66666666666666</ele><time>2026-04-18T07:59:46Z</time></trkpt><trkpt lat="43.57117305461681" lon="10.807232181104498"><ele>180.0</ele><time>2026-04-18T07:59:47Z</time></trkpt><trkpt lat="43.57118253204396" lon="10.807419827202638"><ele>180.0</ele><time>2026-04-18T07:59:48Z</time></trkpt><trkpt lat="43.571126103512555" lon="10.80758977619581"><ele>180.0</ele><time>2026-04-18T07:59:49Z</time></trkpt><trkpt lat="43.57105632902115" lon="10.807753595229972"><ele>180.0</ele><time>2026-04-18T07:59:50Z</time></trkpt><trkpt lat="43.570961787610635" lon="10.807920493933702"><ele>180.0</ele><time>2026-04-18T07:59:51Z</time></trkpt><trkpt lat="43.57086911356061" lon="10.808109487124742"><ele>178.66666666666666</ele><time>2026-04-18T07:59:52Z</time></trkpt><trkpt lat="43.57074622098921" lon="10.808279590199188"><ele>177.33333333333331</ele><time>2026-04-18T07:59:53Z</time></trkpt><trkpt lat="43.570624825129265" lon="10.808463576664634"><ele>176.0</ele><time>2026-04-18T07:59:54Z</time></trkpt><trkpt lat="43.57051739824915" lon="10.80863734976937"><ele>174.5</ele><time>2026-04-18T07:59:55Z</time></trkpt><trkpt lat="43.57040647037846" lon="10.808760508406737"><ele>173.0</ele><time>2026-04-18T07:59:56Z</time></trkpt><trkpt lat="43.57030267456311" lon="10.80883154808373"><ele>171.5</ele><time>2026-04-18T07:59:57Z</time></trkpt><trkpt lat="43.57018856776198" lon="10.808853142832048"><ele>170.0</ele><time>2026-04-18T07:59:58Z</time></trkpt><trkpt lat="43.57007148742333" lon="10.80884896522867"><ele>170.0</ele><time>2026-04-18T07:59:59Z</time></trkpt><trkpt lat="43.56995372267348" lon="10.808793827006202"><ele>170.0</ele><time>2026-04-18T08:00:00Z</time></trkpt><trkpt lat="43.56981893949667" lon="10.808710413691294"><ele>170.0</ele><time>2026-04-18T08:00:01Z</time></trkpt><trkpt lat="43.569672714279456" lon="10.808657457789868"><ele>170.0</ele><time>2026-04-18T08:00:02Z</time></trkpt><trkpt lat="43.56954331859681" lon="10.808612979648613"><ele>169.5</ele><time>2026-04-18T08:00:03Z</time></trkpt><trkpt lat="43.56941436995696" lon="10.808630046509007"><ele>169.0</ele><time>2026-04-18T08:00:04Z</time></trkpt><trkpt lat="43.56928107932172" lon="10.808719860643071"><ele>168.5</ele><time>2026-04-18T08:00:05Z</time></trkpt><trkpt lat="43.56915077774851" lon="10.808848233265866"><ele>168.0</ele><time>2026-04-18T08:00:06Z</time></trkpt><trkpt lat="43.56902849423725" lon="10.809016860832813"><ele>168.0</ele><time>2026-04-18T08:00:07Z</time></trkpt><trkpt lat="43.56891023448439" lon="10.809218403901356"><ele>168.0</ele><time>2026-04-18T08:00:08Z</time></trkpt><trkpt lat="43.568791185681995" lon="10.809428896246477"><ele>168.0</ele><time>2026-04-18T08:00:09Z</time></trkpt><trkpt lat="43.568666079486164" lon="10.809628930397363"><ele>168.25</ele><time>2026-04-18T08:00:10Z</time></trkpt><trkpt lat="43.56856482322196" lon="10.80978141903593"><ele>168.5</ele><time>2026-04-18T08:00:11Z</time></trkpt><trkpt lat="43.568479604895586" lon="10.809863986338236"><ele>168.75</ele><time>2026-04-18T08:00:12Z</time></trkpt><trkpt lat="43.568370476391124" lon="10.809889774547582"><ele>169.0</ele><time>2026-04-18T08:00:13Z</time></trkpt><trkpt lat="43.568249089916684" lon="10.809931783937751"><ele>169.0</ele><time>2026-04-18T08:00:14Z</time></trkpt><trkpt lat="43.568114359546186" lon="10.809953561351868"><ele>169.0</ele><time>2026-04-18T08:00:15Z</time></trkpt><trkpt lat="43.567992433166054" lon="10.810043532160957"><ele>169.0</ele><time>2026-04-18T08:00:16Z</time></trkpt><trkpt lat="43.56789910467093" lon="10.810204528462837"><ele>169.0</ele><time>2026-04-18T08:00:17Z</time></trkpt><trkpt lat="43.56782397186795" lon="10.81039416130168"><ele>170.25</ele><time>2026-04-18T08:00:18Z</time></trkpt><trkpt lat="43.56775361398533" lon="10.810573210988133"><ele>171.5</ele><time>2026-04-18T08:00:19Z</time></trkpt><trkpt lat="43.56771371130073" lon="10.810739595923193"><ele>172.75</ele><time>2026-04-18T08:00:20Z</time></trkpt><trkpt lat="43.567724910116546" lon="10.810910692007322"><ele>174.0</ele><time>2026-04-18T08:00:21Z</time></trkpt><trkpt lat="43.567776294429876" lon="10.811088798350562"><ele>171.66666666666666</ele><time>2026-04-18T08:00:22Z</time></trkpt><trkpt lat="43.567845625491216" lon="10.811271685184353"><ele>169.33333333333331</ele><time>2026-04-18T08:00:23Z</time></trkpt><trkpt lat="43.567907588460365" lon="10.811465579068274"><ele>167.0</ele><time>2026-04-18T08:00:24Z</time></trkpt><trkpt lat="43.56796233938778" lon="10.811671065982493"><ele>170.0</ele><time>2026-04-18T08:00:25Z</time></trkpt><trkpt lat="43.56801502536328" lon="10.811887070651474"><ele>173.0</ele><time>2026-04-18T08:00:26Z</time></trkpt><trkpt lat="43.5680694395688" lon="10.812111975942514"><ele>176.0</ele><time>2026-04-18T08:00:27Z</time></trkpt><trkpt lat="43.568128839175124" lon="10.812345393832937"><ele>176.0</ele><time>2026-04-18T08:00:28Z</time></trkpt><trkpt lat="43.56818462880365" lon="10.812556912621316"><ele>176.0</ele><time>2026-04-18T08:00:29Z</time></trkpt><trkpt lat="43.568227661719135" lon="10.812731342679534"><ele>176.0</ele><time>2026-04-18T08:00:29.999Z</time></trkpt><trkpt lat="43.56823240028877" lon="10.812874308555207"><ele>176.0</ele><time>2026-04-18T08:00:30.999Z</time></trkpt><trkpt lat="43.56819497403191" lon="10.813016281941463"><ele>175.25</ele><time>2026-04-18T08:00:31.999Z</time></trkpt><trkpt lat="43.56812957982576" lon="10.813172122484605"><ele>174.5</ele><time>2026-04-18T08:00:32.999Z</time></trkpt><trkpt lat="43.568057134993744" lon="10.81333823871853"><ele>173.75</ele><time>2026-04-18T08:00:33.999Z</time></trkpt><trkpt lat="43.56799865820109" lon="10.813516509322342"><ele>173.0</ele><time>2026-04-18T08:00:34.999Z</time></trkpt><trkpt lat="43.56798039620258" lon="10.813695492265053"><ele>173.0</ele><time>2026-04-18T08:00:35.999Z</time></trkpt><trkpt lat="43.567997042100394" lon="10.813896856655253"><ele>173.0</ele><time>2026-04-18T08:00:36.999Z</time></trkpt><trkpt lat="43.568025889382334" lon="10.814119082637385"><ele>173.0</ele><time>2026-04-18T08:00:37.999Z</time></trkpt><trkpt lat="43.568056265463" lon="10.81436851887605"><ele>174.66666666666666</ele><time>2026-04-18T08:00:38.999Z</time></trkpt><trkpt lat="43.568085794792296" lon="10.814604395768136"><ele>176.33333333333334</ele><time>2026-04-18T08:00:39.999Z</time></trkpt><trkpt lat="43.568107789035274" lon="10.814844864079275"><ele>178.0</ele><time>2026-04-18T08:00:40.999Z</time></trkpt><trkpt lat="43.56813056285826" lon="10.815084739883298"><ele>179.0</ele><time>2026-04-18T08:00:41.999Z</time></trkpt><trkpt lat="43.56816097499085" lon="10.815321827831626"><ele>180.0</ele><time>2026-04-18T08:00:42.999Z</time></trkpt><trkpt lat="43.56820558408202" lon="10.81554785475689"><ele>181.0</ele><time>2026-04-18T08:00:43.999Z</time></trkpt><trkpt lat="43.56827016782511" lon="10.815763480811738"><ele>181.0</ele><time>2026-04-18T08:00:44.999Z</time></trkpt><trkpt lat="43.56835495722601" lon="10.815970158809865"><ele>181.0</ele><time>2026-04-18T08:00:45.999Z</time></trkpt><trkpt lat="43.56844987234053" lon="10.816170947254879"><ele>181.0</ele><time>2026-04-18T08:00:46.999Z</time></trkpt><trkpt lat="43.568547404846" lon="10.816371309416706"><ele>181.33333333333334</ele><time>2026-04-18T08:00:47.999Z</time></trkpt><trkpt lat="43.56864619747803" lon="10.81656922025061"><ele>181.66666666666666</ele><time>2026-04-18T08:00:48.999Z</time></trkpt><trkpt lat="43.56874411515282" lon="10.816767950499628"><ele>182.0</ele><time>2026-04-18T08:00:49.999Z</time></trkpt><trkpt lat="43.56884109846634" lon="10.816967131110914"><ele>182.0</ele><time>2026-04-18T08:00:50.999Z</time></trkpt><trkpt lat="43.56893791373166" lon="10.817164749764025"><ele>182.0</ele><time>2026-04-18T08:00:51.999Z</time></trkpt><trkpt lat="43.569032247727485" lon="10.817366482117768"><ele>182.0</ele><time>2026-04-18T08:00:52.999Z</time></trkpt><trkpt lat="43.56911922553613" lon="10.81756504269548"><ele>179.5</ele><time>2026-04-18T08:00:53.999Z</time></trkpt><trkpt lat="43.56919032660338" lon="10.817759112566415"><ele>177.0</ele><time>2026-04-18T08:00:54.999Z</time></trkpt><trkpt lat="43.569257264968634" lon="10.817938978010314"><ele>174.5</ele><time>2026-04-18T08:00:55.999Z</time></trkpt><trkpt lat="43.56932371832843" lon="10.81810905424514"><ele>172.0</ele><time>2026-04-18T08:00:56.999Z</time></trkpt><trkpt lat="43.56938946605782" lon="10.818275953938967"><ele>172.0</ele><time>2026-04-18T08:00:57.999Z</time></trkpt><trkpt lat="43.56945085766029" lon="10.818444034375657"><ele>172.0</ele><time>2026-04-18T08:00:58.999Z</time></trkpt><trkpt lat="43.56947522645254" lon="10.818628185555395"><ele>172.0</ele><time>2026-04-18T08:00:59.999Z</time></trkpt><trkpt lat="43.56948850900107" lon="10.818812881676745"><ele>172.0</ele><time>2026-04-18T08:01:00.999Z</time></trkpt><trkpt lat="43.56949012366619" lon="10.818992308916956"><ele>171.5</ele><time>2026-04-18T08:01:01.999Z</time></trkpt><trkpt lat="43.569455982311794" lon="10.819159736633555"><ele>171.0</ele><time>2026-04-18T08:01:02.999Z</time></trkpt><trkpt lat="43.569374469898534" lon="10.81929394037198"><ele>170.5</ele><time>2026-04-18T08:01:03.999Z</time></trkpt><trkpt lat="43.56930819466559" lon="10.819458598611753"><ele>170.0</ele><time>2026-04-18T08:01:04.999Z</time></trkpt><trkpt lat="43.56921663435879" lon="10.819626667794864"><ele>169.66666666666666</ele><time>2026-04-18T08:01:05.999Z</time></trkpt><trkpt lat="43.569130546658094" lon="10.81980652539361"><ele>169.33333333333334</ele><time>2026-04-18T08:01:06.999Z</time></trkpt><trkpt lat="43.56904553202723" lon="10.819992179794903"><ele>169.0</ele><time>2026-04-18T08:01:07.999Z</time></trkpt><trkpt lat="43.56896247775324" lon="10.820158719002567"><ele>167.25</ele><time>2026-04-18T08:01:08.999Z</time></trkpt><trkpt lat="43.56890961070907" lon="10.82032474921751"><ele>165.5</ele><time>2026-04-18T08:01:09.999Z</time></trkpt><trkpt lat="43.56887210461403" lon="10.82047596395069"><ele>163.75</ele><time>2026-04-18T08:01:10.999Z</time></trkpt><trkpt lat="43.56885983324226" lon="10.82062330975684"><ele>162.0</ele><time>2026-04-18T08:01:11.999Z</time></trkpt><trkpt lat="43.56887807357393" lon="10.820773747890643"><ele>162.0</ele><time>2026-04-18T08:01:12.999Z</time></trkpt><trkpt lat="43.568918890124465" lon="10.82094790077637"><ele>162.0</ele><time>2026-04-18T08:01:13.999Z</time></trkpt><trkpt lat="43.568955618874334" lon="10.82115087053694"><ele>162.0</ele><time>2026-04-18T08:01:14.999Z</time></trkpt><trkpt lat="43.56899006177558" lon="10.821370502603676"><ele>162.0</ele><time>2026-04-18T08:01:15.999Z</time></trkpt><trkpt lat="43.569025028672094" lon="10.821591829893233"><ele>159.75</ele><time>2026-04-18T08:01:16.999Z</time></trkpt><trkpt lat="43.569057472375455" lon="10.821798055059993"><ele>157.5</ele><time>2026-04-18T08:01:18Z</time></trkpt><trkpt lat="43.56908323564783" lon="10.821991773675434"><ele>155.25</ele><time>2026-04-18T08:01:19Z</time></trkpt><trkpt lat="43.569094067777776" lon="10.82217921216526"><ele>153.0</ele><time>2026-04-18T08:01:20Z</time></trkpt><trkpt lat="43.569088368225934" lon="10.822359681181291"><ele>151.75</ele><time>2026-04-18T08:01:21Z</time></trkpt><trkpt lat="43.569074207338154" lon="10.822535198168746"><ele>150.5</ele><time>2026-04-18T08:01:22Z</time></trkpt><trkpt lat="43.56905689064354" lon="10.822708769123514"><ele>149.25</ele><time>2026-04-18T08:01:23Z</time></trkpt><trkpt lat="43.569048047075896" lon="10.822894209535486"><ele>148.0</ele><time>2026-04-18T08:01:24Z</time></trkpt><trkpt lat="43.56903772879495" lon="10.823081873034528"><ele>147.5</ele><time>2026-04-18T08:01:25Z</time></trkpt><trkpt lat="43.56901601078558" lon="10.823269967200746"><ele>147.0</ele><time>2026-04-18T08:01:26Z</time></trkpt><trkpt lat="43.56899425098886" lon="10.823456607026785"><ele>146.5</ele><time>2026-04-18T08:01:27Z</time></trkpt><trkpt lat="43.568970151867234" lon="10.823640332665455"><ele>146.0</ele><time>2026-04-18T08:01:28Z</time></trkpt><trkpt lat="43.56893937969352" lon="10.823826001132268"><ele>144.75</ele><time>2026-04-18T08:01:29Z</time></trkpt><trkpt lat="43.56890137473857" lon="10.824009330705701"><ele>143.5</ele><time>2026-04-18T08:01:30Z</time></trkpt><trkpt lat="43.56887206271419" lon="10.824195091867601"><ele>142.25</ele><time>2026-04-18T08:01:31Z</time></trkpt><trkpt lat="43.56883043208705" lon="10.824376437418241"><ele>141.0</ele><time>2026-04-18T08:01:32Z</time></trkpt><trkpt lat="43.56880215403854" lon="10.824547910586517"><ele>140.2</ele><time>2026-04-18T08:01:33Z</time></trkpt><trkpt lat="43.56877640961583" lon="10.824706344580227"><ele>139.39999999999998</ele><time>2026-04-18T08:01:34Z</time></trkpt><trkpt lat="43.5687572684323" lon="10.824845105932154"><ele>138.6</ele><time>2026-04-18T08:01:35Z</time></trkpt><trkpt lat="43.5687417870733" lon="10.824934117579769"><ele>137.79999999999998</ele><time>2026-04-18T08:01:36Z</time></trkpt><trkpt lat="43.56868363488155" lon="10.825040342732702"><ele>137.0</ele><time>2026-04-18T08:01:38Z</time></trkpt><trkpt lat="43.56859095662073" lon="10.824969838984064"><ele>136.75</ele><time>2026-04-18T08:01:41Z</time></trkpt><trkpt lat="43.56857627150577" lon="10.824873391822535"><ele>136.5</ele><time>2026-04-18T08:02:03Z</time></trkpt><trkpt lat="43.56853883802131" lon="10.824681314489748"><ele>136.25</ele><time>2026-04-18T08:02:05Z</time></trkpt><trkpt lat="43.56853914517828" lon="10.824529688541807"><ele>136.0</ele><time>2026-04-18T08:02:06Z</time></trkpt><trkpt lat="43.5685050413709" lon="10.824364204154527"><ele>134.33333333333334</ele><time>2026-04-18T08:02:07Z</time></trkpt><trkpt lat="43.5684824275603" lon="10.824176389818334"><ele>132.66666666666666</ele><time>2026-04-18T08:02:08Z</time></trkpt><trkpt lat="43.568452195861035" lon="10.823968962765445"><ele>131.0</ele><time>2026-04-18T08:02:09Z</time></trkpt><trkpt lat="43.56844313843599" lon="10.823737136585628"><ele>131.0</ele><time>2026-04-18T08:02:10Z</time></trkpt><trkpt lat="43.56842280885482" lon="10.823492928653597"><ele>131.0</ele><time>2026-04-18T08:02:11Z</time></trkpt><trkpt lat="43.568391548739655" lon="10.823243292897917"><ele>131.0</ele><time>2026-04-18T08:02:12Z</time></trkpt><trkpt lat="43.568379005130595" lon="10.822992872839587"><ele>130.66666666666666</ele><time>2026-04-18T08:02:13Z</time></trkpt><trkpt lat="43.56836471945747" lon="10.822761617109494"><ele>130.33333333333334</ele><time>2026-04-18T08:02:14Z</time></trkpt><trkpt lat="43.56835257024736" lon="10.822548764039423"><ele>130.0</ele><time>2026-04-18T08:02:15Z</time></trkpt><trkpt lat="43.56833570508054" lon="10.822363002375962"><ele>130.0</ele><time>2026-04-18T08:02:16Z</time></trkpt><trkpt lat="43.56830204585812" lon="10.822201605159178"><ele>130.0</ele><time>2026-04-18T08:02:17Z</time></trkpt><trkpt lat="43.568243181431825" lon="10.822059802578949"><ele>130.0</ele><time>2026-04-18T08:02:18Z</time></trkpt><trkpt lat="43.56817892128262" lon="10.821922956750646"><ele>130.0</ele><time>2026-04-18T08:02:19Z</time></trkpt><trkpt lat="43.56805036306581" lon="10.821865664770737"><ele>130.0</ele><time>2026-04-18T08:02:20Z</time></trkpt><trkpt lat="43.567918773584715" lon="10.82181964199403"><ele>130.0</ele><time>2026-04-18T08:02:21Z</time></trkpt><trkpt lat="43.56776388246586" lon="10.82180282068112"><ele>130.0</ele><time>2026-04-18T08:02:22Z</time></trkpt><trkpt lat="43.567595590348816" lon="10.82176378562857"><ele>128.66666666666669</ele><time>2026-04-18T08:02:23Z</time></trkpt><trkpt lat="43.56743459559592" lon="10.821714450955257"><ele>127.33333333333334</ele><time>2026-04-18T08:02:24Z</time></trkpt><trkpt lat="43.56728408408555" lon="10.821669730247153"><ele>126.0</ele><time>2026-04-18T08:02:25Z</time></trkpt><trkpt lat="43.56713760116124" lon="10.821627471522355"><ele>122.0</ele><time>2026-04-18T08:02:26Z</time></trkpt><trkpt lat="43.566998782698384" lon="10.821588163153454"><ele>118.0</ele><time>2026-04-18T08:02:27Z</time></trkpt><trkpt lat="43.56686462402615" lon="10.821545625830908"><ele>114.0</ele><time>2026-04-18T08:02:28Z</time></trkpt><trkpt lat="43.566736239506426" lon="10.821502523974099"><ele>110.0</ele><time>2026-04-18T08:02:29Z</time></trkpt><trkpt lat="43.56661339171649" lon="10.82146345593377"><ele>110.0</ele><time>2026-04-18T08:02:30Z</time></trkpt><trkpt lat="43.56649627028979" lon="10.821427739611934"><ele>110.0</ele><time>2026-04-18T08:02:31Z</time></trkpt><trkpt lat="43.56638364330178" lon="10.821390875119729"><ele>110.0</ele><time>2026-04-18T08:02:32Z</time></trkpt><trkpt lat="43.566272649362496" lon="10.8213508674553"><ele>110.0</ele><time>2026-04-18T08:02:33Z</time></trkpt><trkpt lat="43.56616868408465" lon="10.821321974198565"><ele>107.25</ele><time>2026-04-18T08:02:34Z</time></trkpt><trkpt lat="43.56606165032471" lon="10.82130751910056"><ele>104.5</ele><time>2026-04-18T08:02:35Z</time></trkpt><trkpt lat="43.56594038101407" lon="10.82127965376514"><ele>101.75</ele><time>2026-04-18T08:02:36Z</time></trkpt><trkpt lat="43.5658118631985" lon="10.821243210384031"><ele>99.0</ele><time>2026-04-18T08:02:37Z</time></trkpt><trkpt lat="43.565686311283706" lon="10.82119875838743"><ele>99.0</ele><time>2026-04-18T08:02:38Z</time></trkpt><trkpt lat="43.56556295845456" lon="10.821131355038045"><ele>99.0</ele><time>2026-04-18T08:02:39Z</time></trkpt><trkpt lat="43.5654374631994" lon="10.821032412859736"><ele>99.0</ele><time>2026-04-18T08:02:39.999Z</time></trkpt><trkpt lat="43.56531241407897" lon="10.820888641258621"><ele>99.0</ele><time>2026-04-18T08:02:40.999Z</time></trkpt><trkpt lat="43.5651841669014" lon="10.820728597856071"><ele>99.0</ele><time>2026-04-18T08:02:41.999Z</time></trkpt><trkpt lat="43.56504421931404" lon="10.820581798033043"><ele>99.0</ele><time>2026-04-18T08:02:42.999Z</time></trkpt><trkpt lat="43.56489860931819" lon="10.820425234277355"><ele>99.0</ele><time>2026-04-18T08:02:43.999Z</time></trkpt><trkpt lat="43.56475596053949" lon="10.820273197644902"><ele>99.66666666666666</ele><time>2026-04-18T08:02:44.999Z</time></trkpt><trkpt lat="43.564628255888124" lon="10.820130140892362"><ele>100.33333333333333</ele><time>2026-04-18T08:02:45.999Z</time></trkpt><trkpt lat="43.564512535476645" lon="10.819987287033994"><ele>101.0</ele><time>2026-04-18T08:02:46.999Z</time></trkpt><trkpt lat="43.564406272824726" lon="10.819823663290496"><ele>96.33333333333333</ele><time>2026-04-18T08:02:47.999Z</time></trkpt><trkpt lat="43.564308039530424" lon="10.819631376850166"><ele>91.66666666666666</ele><time>2026-04-18T08:02:48.999Z</time></trkpt><trkpt lat="43.5642107061201" lon="10.819427747792233"><ele>87.0</ele><time>2026-04-18T08:02:49.999Z</time></trkpt><trkpt lat="43.56411764881802" lon="10.819231442865014"><ele>87.0</ele><time>2026-04-18T08:02:50.999Z</time></trkpt><trkpt lat="43.564045152995824" lon="10.81903425520274"><ele>87.0</ele><time>2026-04-18T08:02:51.999Z</time></trkpt><trkpt lat="43.56397617322422" lon="10.818880144546197"><ele>87.0</ele><time>2026-04-18T08:02:52.999Z</time></trkpt><trkpt lat="43.563916066988725" lon="10.818749617016927"><ele>87.0</ele><time>2026-04-18T08:02:53.999Z</time></trkpt><trkpt lat="43.56385555292643" lon="10.818648054136473"><ele>87.0</ele><time>2026-04-18T08:02:54.999Z</time></trkpt><trkpt lat="43.5638094222562" lon="10.81855543545722"><ele>87.0</ele><time>2026-04-18T08:02:55.999Z</time></trkpt><trkpt lat="43.563713679996006" lon="10.818539892241596"><ele>87.0</ele><time>2026-04-18T08:02:56.999Z</time></trkpt><trkpt lat="43.56364044425814" lon="10.81852507043674"><ele>87.0</ele><time>2026-04-18T08:02:57.999Z</time></trkpt><trkpt lat="43.56354616667967" lon="10.818523068632741"><ele>87.0</ele><time>2026-04-18T08:02:58.999Z</time></trkpt><trkpt lat="43.56343379563879" lon="10.818559191681075"><ele>85.0</ele><time>2026-04-18T08:02:59.999Z</time></trkpt><trkpt lat="43.563326052919194" lon="10.818622075460372"><ele>83.0</ele><time>2026-04-18T08:03:00.999Z</time></trkpt><trkpt lat="43.56321434879102" lon="10.818699139039095"><ele>81.0</ele><time>2026-04-18T08:03:01.999Z</time></trkpt><trkpt lat="43.563100137097756" lon="10.818783463705987"><ele>79.0</ele><time>2026-04-18T08:03:02.999Z</time></trkpt><trkpt lat="43.562985788391785" lon="10.818861655401607"><ele>80.25</ele><time>2026-04-18T08:03:03.999Z</time></trkpt><trkpt lat="43.562859080503635" lon="10.818950909652836"><ele>81.5</ele><time>2026-04-18T08:03:04.999Z</time></trkpt><trkpt lat="43.56273579619406" lon="10.819040991315758"><ele>82.75</ele><time>2026-04-18T08:03:05.999Z</time></trkpt><trkpt lat="43.562614788705545" lon="10.819122245049847"><ele>84.0</ele><time>2026-04-18T08:03:06.999Z</time></trkpt><trkpt lat="43.562494767876785" lon="10.819172495251623"><ele>84.0</ele><time>2026-04-18T08:03:07.999Z</time></trkpt><trkpt lat="43.56240075142298" lon="10.819210955538669"><ele>84.0</ele><time>2026-04-18T08:03:08.999Z</time></trkpt><trkpt lat="43.56230217491128" lon="10.819247712269489"><ele>84.0</ele><time>2026-04-18T08:03:09.999Z</time></trkpt><trkpt lat="43.56219468383429" lon="10.819183512806982"><ele>84.0</ele><time>2026-04-18T08:03:10.999Z</time></trkpt><trkpt lat="43.56210048585253" lon="10.819103087519927"><ele>84.0</ele><time>2026-04-18T08:03:11.999Z</time></trkpt><trkpt lat="43.56202083132163" lon="10.818983394433038"><ele>83.33333333333333</ele><time>2026-04-18T08:03:12.999Z</time></trkpt><trkpt lat="43.56194110467171" lon="10.818853006680131"><ele>82.66666666666666</ele><time>2026-04-18T08:03:13.999Z</time></trkpt><trkpt lat="43.561829101281525" lon="10.818691700266964"><ele>82.0</ele><time>2026-04-18T08:03:14.999Z</time></trkpt><trkpt lat="43.56170410643726" lon="10.818469312023272"><ele>82.0</ele><time>2026-04-18T08:03:15.999Z</time></trkpt><trkpt lat="43.56156706632465" lon="10.81823398809446"><ele>82.0</ele><time>2026-04-18T08:03:16.999Z</time></trkpt><trkpt lat="43.56142663760309" lon="10.818013004224028"><ele>82.0</ele><time>2026-04-18T08:03:17.999Z</time></trkpt><trkpt lat="43.56132927688395" lon="10.817828529331251"><ele>81.0</ele><time>2026-04-18T08:03:18.999Z</time></trkpt><trkpt lat="43.56122368151471" lon="10.817632959007256"><ele>80.0</ele><time>2026-04-18T08:03:19.999Z</time></trkpt><trkpt lat="43.56111158546683" lon="10.81743757590958"><ele>79.0</ele><time>2026-04-18T08:03:20.999Z</time></trkpt><trkpt lat="43.561005604416756" lon="10.817251011807109"><ele>79.25</ele><time>2026-04-18T08:03:21.999Z</time></trkpt><trkpt lat="43.56090723934557" lon="10.817087710802857"><ele>79.5</ele><time>2026-04-18T08:03:22.999Z</time></trkpt><trkpt lat="43.56080963110025" lon="10.816948973774528"><ele>79.75</ele><time>2026-04-18T08:03:24.001Z</time></trkpt><trkpt lat="43.560695505245036" lon="10.816814489536293"><ele>80.0</ele><time>2026-04-18T08:03:25.001Z</time></trkpt><trkpt lat="43.56056639705146" lon="10.816685347029159"><ele>80.0</ele><time>2026-04-18T08:03:26.001Z</time></trkpt><trkpt lat="43.560424777942735" lon="10.8165506415365"><ele>80.0</ele><time>2026-04-18T08:03:27.001Z</time></trkpt><trkpt lat="43.560277370222074" lon="10.816410295366621"><ele>80.0</ele><time>2026-04-18T08:03:28.001Z</time></trkpt><trkpt lat="43.5601453367529" lon="10.81627851001471"><ele>79.25</ele><time>2026-04-18T08:03:29.001Z</time></trkpt><trkpt lat="43.560027995964774" lon="10.81616138780985"><ele>78.5</ele><time>2026-04-18T08:03:30.001Z</time></trkpt><trkpt lat="43.55991260031878" lon="10.816045757667627"><ele>77.75</ele><time>2026-04-18T08:03:31.001Z</time></trkpt><trkpt lat="43.559802370152276" lon="10.815936086626477"><ele>77.0</ele><time>2026-04-18T08:03:32.001Z</time></trkpt><trkpt lat="43.55969868009816" lon="10.815845428176438"><ele>77.0</ele><time>2026-04-18T08:03:33.001Z</time></trkpt><trkpt lat="43.55959349594869" lon="10.815772405671947"><ele>77.0</ele><time>2026-04-18T08:03:34.001Z</time></trkpt><trkpt lat="43.55947283441045" lon="10.815710127597532"><ele>77.0</ele><time>2026-04-18T08:03:35.001Z</time></trkpt><trkpt lat="43.55933960972223" lon="10.815668612296736"><ele>77.0</ele><time>2026-04-18T08:03:36.001Z</time></trkpt><trkpt lat="43.55918658025883" lon="10.815637700100165"><ele>78.0</ele><time>2026-04-18T08:03:37.001Z</time></trkpt><trkpt lat="43.55900137845688" lon="10.81559801290689"><ele>79.0</ele><time>2026-04-18T08:03:38.001Z</time></trkpt><trkpt lat="43.55878586382716" lon="10.815542344099187"><ele>80.0</ele><time>2026-04-18T08:03:39.001Z</time></trkpt><trkpt lat="43.558586770256596" lon="10.815497229359272"><ele>80.0</ele><time>2026-04-18T08:03:40Z</time></trkpt><trkpt lat="43.55841314665363" lon="10.815462773879672"><ele>80.0</ele><time>2026-04-18T08:03:41Z</time></trkpt><trkpt lat="43.558223826183195" lon="10.81542442961961"><ele>80.0</ele><time>2026-04-18T08:03:42Z</time></trkpt><trkpt lat="43.55802934653327" lon="10.815379406000899"><ele>79.0</ele><time>2026-04-18T08:03:43Z</time></trkpt><trkpt lat="43.557852744694245" lon="10.815335602087004"><ele>78.0</ele><time>2026-04-18T08:03:44Z</time></trkpt><trkpt lat="43.55768873871851" lon="10.81529397799725"><ele>77.0</ele><time>2026-04-18T08:03:45Z</time></trkpt><trkpt lat="43.5575282733223" lon="10.815251495511788"><ele>77.0</ele><time>2026-04-18T08:03:46Z</time></trkpt><trkpt lat="43.55736705772781" lon="10.815211515012185"><ele>77.0</ele><time>2026-04-18T08:03:47Z</time></trkpt><trkpt lat="43.55722090784333" lon="10.815177627112512"><ele>77.0</ele><time>2026-04-18T08:03:48Z</time></trkpt><trkpt lat="43.557086782406294" lon="10.815150530106393"><ele>77.0</ele><time>2026-04-18T08:03:49Z</time></trkpt><trkpt lat="43.5569463800129" lon="10.815145886787668"><ele>78.0</ele><time>2026-04-18T08:03:50Z</time></trkpt><trkpt lat="43.5568000799803" lon="10.815169131302307"><ele>79.0</ele><time>2026-04-18T08:03:51Z</time></trkpt><trkpt lat="43.55665828005045" lon="10.815215162414868"><ele>80.0</ele><time>2026-04-18T08:03:52Z</time></trkpt><trkpt lat="43.55654169789952" lon="10.815257426158995"><ele>81.0</ele><time>2026-04-18T08:03:53Z</time></trkpt><trkpt lat="43.55644793069114" lon="10.815294841132804"><ele>81.0</ele><time>2026-04-18T08:03:54Z</time></trkpt><trkpt lat="43.55636792190885" lon="10.815325659602754"><ele>81.0</ele><time>2026-04-18T08:03:55Z</time></trkpt><trkpt lat="43.556298636808464" lon="10.815353061473958"><ele>81.0</ele><time>2026-04-18T08:03:56Z</time></trkpt><trkpt lat="43.556236196940475" lon="10.815377301154252"><ele>81.0</ele><time>2026-04-18T08:03:57Z</time></trkpt><trkpt lat="43.55614186205508" lon="10.815414817881864"><ele>81.0</ele><time>2026-04-18T08:03:59Z</time></trkpt><trkpt lat="43.55604387749987" lon="10.815450928625795"><ele>81.0</ele><time>2026-04-18T08:04:01Z</time></trkpt><trkpt lat="43.55598006614365" lon="10.815470592727252"><ele>82.33333333333333</ele><time>2026-04-18T08:04:02Z</time></trkpt><trkpt lat="43.555914979437894" lon="10.815490430595057"><ele>83.66666666666667</ele><time>2026-04-18T08:04:03Z</time></trkpt><trkpt lat="43.55584668876475" lon="10.81551210023839"><ele>85.0</ele><time>2026-04-18T08:04:04Z</time></trkpt><trkpt lat="43.55577986440886" lon="10.815535412491954"><ele>86.33333333333334</ele><time>2026-04-18T08:04:05Z</time></trkpt><trkpt lat="43.55567089541339" lon="10.815577191843792"><ele>87.66666666666667</ele><time>2026-04-18T08:04:07Z</time></trkpt><trkpt lat="43.55560819799023" lon="10.815614750322426"><ele>89.0</ele><time>2026-04-18T08:04:08Z</time></trkpt><trkpt lat="43.55554247220827" lon="10.815661434105257"><ele>89.0</ele><time>2026-04-18T08:04:09Z</time></trkpt><trkpt lat="43.55547458090821" lon="10.815716114814903"><ele>89.0</ele><time>2026-04-18T08:04:10Z</time></trkpt><trkpt lat="43.555407694987665" lon="10.81578797276622"><ele>89.0</ele><time>2026-04-18T08:04:11Z</time></trkpt><trkpt lat="43.555342492744494" lon="10.81587489327656"><ele>89.0</ele><time>2026-04-18T08:04:12Z</time></trkpt><trkpt lat="43.555286240315525" lon="10.815970500784381"><ele>89.0</ele><time>2026-04-18T08:04:13Z</time></trkpt><trkpt lat="43.55522757172868" lon="10.816077462012096"><ele>89.0</ele><time>2026-04-18T08:04:14Z</time></trkpt><trkpt lat="43.55516821666709" lon="10.816189886711236"><ele>91.0</ele><time>2026-04-18T08:04:15Z</time></trkpt><trkpt lat="43.55509675421277" lon="10.816323763081662"><ele>93.0</ele><time>2026-04-18T08:04:16Z</time></trkpt><trkpt lat="43.555015098796474" lon="10.816470114588595"><ele>95.0</ele><time>2026-04-18T08:04:17Z</time></trkpt><trkpt lat="43.554937835548444" lon="10.816609247584783"><ele>97.0</ele><time>2026-04-18T08:04:18Z</time></trkpt><trkpt lat="43.554861650173045" lon="10.81675229922291"><ele>98.0</ele><time>2026-04-18T08:04:19Z</time></trkpt><trkpt lat="43.55478423441396" lon="10.816898606896135"><ele>99.0</ele><time>2026-04-18T08:04:20Z</time></trkpt><trkpt lat="43.5547046583737" lon="10.817043598229246"><ele>100.0</ele><time>2026-04-18T08:04:21Z</time></trkpt><trkpt lat="43.554624639735636" lon="10.817182585193985"><ele>101.0</ele><time>2026-04-18T08:04:22Z</time></trkpt><trkpt lat="43.554548150091094" lon="10.817321131826343"><ele>101.4</ele><time>2026-04-18T08:04:23Z</time></trkpt><trkpt lat="43.55447403291912" lon="10.817455485380775"><ele>101.8</ele><time>2026-04-18T08:04:24Z</time></trkpt><trkpt lat="43.55440563523329" lon="10.817577793857907"><ele>102.2</ele><time>2026-04-18T08:04:25Z</time></trkpt><trkpt lat="43.55435597896582" lon="10.817665464476523"><ele>102.60000000000001</ele><time>2026-04-18T08:04:26Z</time></trkpt><trkpt lat="43.55428940604399" lon="10.81779006240136"><ele>103.0</ele><time>2026-04-18T08:04:28Z</time></trkpt><trkpt lat="43.554252627966406" lon="10.817868119085444"><ele>104.00000000000001</ele><time>2026-04-18T08:04:29Z</time></trkpt><trkpt lat="43.55421275436129" lon="10.817948963438253"><ele>105.0</ele><time>2026-04-18T08:04:30Z</time></trkpt><trkpt lat="43.5541666701795" lon="10.818032187127963"><ele>106.0</ele><time>2026-04-18T08:04:31Z</time></trkpt><trkpt lat="43.55411660195275" lon="10.818113742379493"><ele>107.0</ele><time>2026-04-18T08:04:32Z</time></trkpt><trkpt lat="43.55406255491211" lon="10.818202300142918"><ele>108.00000000000001</ele><time>2026-04-18T08:04:33Z</time></trkpt><trkpt lat="43.55401311022088" lon="10.818291507574646"><ele>109.0</ele><time>2026-04-18T08:04:34Z</time></trkpt><trkpt lat="43.553965759055465" lon="10.818383725910234"><ele>109.00000000000001</ele><time>2026-04-18T08:04:35Z</time></trkpt><trkpt lat="43.55391536890117" lon="10.818481242045454"><ele>109.0</ele><time>2026-04-18T08:04:36Z</time></trkpt><trkpt lat="43.55386612333295" lon="10.818576810995948"><ele>109.0</ele><time>2026-04-18T08:04:37Z</time></trkpt><trkpt lat="43.55381043366348" lon="10.818674863903794"><ele>109.0</ele><time>2026-04-18T08:04:38Z</time></trkpt><trkpt lat="43.553754690526375" lon="10.818771352691297"><ele>109.00000000000001</ele><time>2026-04-18T08:04:39Z</time></trkpt><trkpt lat="43.553712185737" lon="10.818852669963169"><ele>109.0</ele><time>2026-04-18T08:04:40Z</time></trkpt><trkpt lat="43.553649547365275" lon="10.818973756441043"><ele>110.4</ele><time>2026-04-18T08:04:42Z</time></trkpt><trkpt lat="43.5535810408346" lon="10.819101892695038"><ele>111.80000000000001</ele><time>2026-04-18T08:04:44Z</time></trkpt><trkpt lat="43.553539996090656" lon="10.819181023633348"><ele>113.19999999999999</ele><time>2026-04-18T08:04:45Z</time></trkpt><trkpt lat="43.5534613092414" lon="10.819287117237845"><ele>114.6</ele><time>2026-04-18T08:04:47Z</time></trkpt><trkpt lat="43.553415376266805" lon="10.819369737066792"><ele>116.0</ele><time>2026-04-18T08:04:50.999Z</time></trkpt><trkpt lat="43.55335623359989" lon="10.8194897465073"><ele>117.19999999999999</ele><time>2026-04-18T08:05:01.999Z</time></trkpt><trkpt lat="43.55331178914317" lon="10.819561694861772"><ele>118.39999999999999</ele><time>2026-04-18T08:05:02.999Z</time></trkpt><trkpt lat="43.55325883085828" lon="10.819649620756413"><ele>119.6</ele><time>2026-04-18T08:05:03.999Z</time></trkpt><trkpt lat="43.55319631497144" lon="10.819766130441897"><ele>120.8</ele><time>2026-04-18T08:05:04.999Z</time></trkpt><trkpt lat="43.55313758943831" lon="10.819877895581048"><ele>122.0</ele><time>2026-04-18T08:05:05.999Z</time></trkpt><trkpt lat="43.55307528861579" lon="10.81999635142871"><ele>122.0</ele><time>2026-04-18T08:05:06.999Z</time></trkpt><trkpt lat="43.552999654381" lon="10.820137173136477"><ele>122.0</ele><time>2026-04-18T08:05:07.999Z</time></trkpt><trkpt lat="43.55290413746619" lon="10.820311632742987"><ele>122.0</ele><time>2026-04-18T08:05:08.999Z</time></trkpt><trkpt lat="43.552796497354514" lon="10.820503896131969"><ele>123.33333333333333</ele><time>2026-04-18T08:05:09.999Z</time></trkpt><trkpt lat="43.55268861240943" lon="10.820700064382414"><ele>124.66666666666666</ele><time>2026-04-18T08:05:10.999Z</time></trkpt><trkpt lat="43.55257897693956" lon="10.820901840232237"><ele>126.0</ele><time>2026-04-18T08:05:11.999Z</time></trkpt><trkpt lat="43.552460244389806" lon="10.821113542552476"><ele>127.66666666666666</ele><time>2026-04-18T08:05:12.999Z</time></trkpt><trkpt lat="43.5523451022357" lon="10.821328635582335"><ele>129.33333333333331</ele><time>2026-04-18T08:05:13.999Z</time></trkpt><trkpt lat="43.55223123780317" lon="10.821538150872543"><ele>131.0</ele><time>2026-04-18T08:05:14.999Z</time></trkpt><trkpt lat="43.552123193661636" lon="10.821743966152253"><ele>133.0</ele><time>2026-04-18T08:05:15.999Z</time></trkpt><trkpt lat="43.55202024656047" lon="10.821904648815167"><ele>135.0</ele><time>2026-04-18T08:05:16.999Z</time></trkpt><trkpt lat="43.55193095373625" lon="10.822068796443045"><ele>137.0</ele><time>2026-04-18T08:05:17.999Z</time></trkpt><trkpt lat="43.551815882339106" lon="10.822304704362505"><ele>137.0</ele><time>2026-04-18T08:05:18.999Z</time></trkpt><trkpt lat="43.551719885885916" lon="10.822471580043265"><ele>137.0</ele><time>2026-04-18T08:05:19.999Z</time></trkpt><trkpt lat="43.551625637804925" lon="10.822638343309146"><ele>137.0</ele><time>2026-04-18T08:05:20.999Z</time></trkpt><trkpt lat="43.551571880294986" lon="10.822742092305841"><ele>137.0</ele><time>2026-04-18T08:05:21.999Z</time></trkpt><trkpt lat="43.551495843124634" lon="10.822842713254941"><ele>139.0</ele><time>2026-04-18T08:05:22.999Z</time></trkpt><trkpt lat="43.55141744002987" lon="10.822918971621855"><ele>141.0</ele><time>2026-04-18T08:05:23.999Z</time></trkpt><trkpt lat="43.551315272323485" lon="10.822923356813055"><ele>143.0</ele><time>2026-04-18T08:05:24.999Z</time></trkpt><trkpt lat="43.55122192815453" lon="10.82292831328317"><ele>145.0</ele><time>2026-04-18T08:05:25.999Z</time></trkpt><trkpt lat="43.55110530616041" lon="10.822939884117663"><ele>147.0</ele><time>2026-04-18T08:05:26.999Z</time></trkpt><trkpt lat="43.55097716492308" lon="10.822971105390414"><ele>147.0</ele><time>2026-04-18T08:05:27.999Z</time></trkpt><trkpt lat="43.550844128854706" lon="10.82293300411905"><ele>147.0</ele><time>2026-04-18T08:05:28.999Z</time></trkpt><trkpt lat="43.550710777245385" lon="10.822886202586904"><ele>147.0</ele><time>2026-04-18T08:05:30.001Z</time></trkpt><trkpt lat="43.550548157003824" lon="10.822828705949593"><ele>147.0</ele><time>2026-04-18T08:05:31.001Z</time></trkpt><trkpt lat="43.55035491466983" lon="10.822795942449005"><ele>148.0</ele><time>2026-04-18T08:05:32.001Z</time></trkpt><trkpt lat="43.55015576417145" lon="10.822742944891772"><ele>149.0</ele><time>2026-04-18T08:05:33.001Z</time></trkpt><trkpt lat="43.54995144381499" lon="10.822689375245188"><ele>150.0</ele><time>2026-04-18T08:05:34.001Z</time></trkpt><trkpt lat="43.54974626791995" lon="10.822633967968454"><ele>148.33333333333334</ele><time>2026-04-18T08:05:35.001Z</time></trkpt><trkpt lat="43.54954283950733" lon="10.822580848687723"><ele>146.66666666666669</ele><time>2026-04-18T08:05:36.001Z</time></trkpt><trkpt lat="43.54935656571058" lon="10.822534069973146"><ele>145.0</ele><time>2026-04-18T08:05:37.001Z</time></trkpt><trkpt lat="43.549190329854106" lon="10.82249558174405"><ele>145.0</ele><time>2026-04-18T08:05:38.001Z</time></trkpt><trkpt lat="43.54903733582631" lon="10.822460891339022"><ele>145.0</ele><time>2026-04-18T08:05:39.001Z</time></trkpt><trkpt lat="43.54890437673281" lon="10.822427918401802"><ele>145.0</ele><time>2026-04-18T08:05:40.001Z</time></trkpt><trkpt lat="43.54878534578801" lon="10.822365455157167"><ele>145.0</ele><time>2026-04-18T08:05:41.001Z</time></trkpt><trkpt lat="43.548663020671555" lon="10.82230242872291"><ele>147.25</ele><time>2026-04-18T08:05:42.001Z</time></trkpt><trkpt lat="43.54854876109241" lon="10.822221079584075"><ele>149.5</ele><time>2026-04-18T08:05:43.001Z</time></trkpt><trkpt lat="43.54843244612496" lon="10.822120415255139"><ele>151.75</ele><time>2026-04-18T08:05:44.001Z</time></trkpt><trkpt lat="43.54833124361964" lon="10.822000133635186"><ele>154.0</ele><time>2026-04-18T08:05:45.001Z</time></trkpt><trkpt lat="43.54823145291396" lon="10.821865944973466"><ele>152.25</ele><time>2026-04-18T08:05:46.001Z</time></trkpt><trkpt lat="43.54813679598215" lon="10.821732261868167"><ele>150.5</ele><time>2026-04-18T08:05:47.001Z</time></trkpt><trkpt lat="43.548034578989686" lon="10.82161450039236"><ele>148.75</ele><time>2026-04-18T08:05:48Z</time></trkpt><trkpt lat="43.54794777269514" lon="10.821466215047478"><ele>147.0</ele><time>2026-04-18T08:05:49Z</time></trkpt><trkpt lat="43.54785398209727" lon="10.821351554979904"><ele>146.4</ele><time>2026-04-18T08:05:50Z</time></trkpt><trkpt lat="43.54777203240908" lon="10.821248053628587"><ele>145.79999999999998</ele><time>2026-04-18T08:05:51Z</time></trkpt><trkpt lat="43.54769478829824" lon="10.821152783037107"><ele>145.2</ele><time>2026-04-18T08:05:52Z</time></trkpt><trkpt lat="43.54762457831241" lon="10.82105863302821"><ele>144.6</ele><time>2026-04-18T08:05:53Z</time></trkpt><trkpt lat="43.54755922532255" lon="10.820960649644814"><ele>144.0</ele><time>2026-04-18T08:05:54Z</time></trkpt><trkpt lat="43.547474772143545" lon="10.820841016217614"><ele>144.0</ele><time>2026-04-18T08:05:55Z</time></trkpt><trkpt lat="43.54738773783509" lon="10.820715384614749"><ele>144.0</ele><time>2026-04-18T08:05:56Z</time></trkpt><trkpt lat="43.547309094830815" lon="10.820601656822905"><ele>144.0</ele><time>2026-04-18T08:05:57Z</time></trkpt><trkpt lat="43.54724495731032" lon="10.820508660048342"><ele>144.0</ele><time>2026-04-18T08:05:58Z</time></trkpt><trkpt lat="43.54719542278457" lon="10.820436078137007"><ele>144.0</ele><time>2026-04-18T08:05:59Z</time></trkpt><trkpt lat="43.54714513541215" lon="10.820382384029337"><ele>144.0</ele><time>2026-04-18T08:06:00Z</time></trkpt><trkpt lat="43.54708168378851" lon="10.820340511300826"><ele>144.0</ele><time>2026-04-18T08:06:01Z</time></trkpt><trkpt lat="43.54701571445419" lon="10.820339313136104"><ele>144.0</ele><time>2026-04-18T08:06:02Z</time></trkpt><trkpt lat="43.546955895992944" lon="10.82037519290726"><ele>144.0</ele><time>2026-04-18T08:06:03Z</time></trkpt><trkpt lat="43.54689722015357" lon="10.820450145320269"><ele>144.0</ele><time>2026-04-18T08:06:04Z</time></trkpt><trkpt lat="43.546844533752115" lon="10.820560397885917"><ele>144.0</ele><time>2026-04-18T08:06:05Z</time></trkpt><trkpt lat="43.54680818236992" lon="10.820695063433927"><ele>140.25</ele><time>2026-04-18T08:06:06Z</time></trkpt><trkpt lat="43.54677946289349" lon="10.820852266857301"><ele>136.5</ele><time>2026-04-18T08:06:07Z</time></trkpt><trkpt lat="43.546740837136696" lon="10.821050849982193"><ele>132.75</ele><time>2026-04-18T08:06:08Z</time></trkpt><trkpt lat="43.54669164507419" lon="10.821265512125898"><ele>129.0</ele><time>2026-04-18T08:06:09Z</time></trkpt><trkpt lat="43.54664178159654" lon="10.821461029515156"><ele>128.5</ele><time>2026-04-18T08:06:10Z</time></trkpt><trkpt lat="43.5466021490249" lon="10.82163948609736"><ele>128.0</ele><time>2026-04-18T08:06:11Z</time></trkpt><trkpt lat="43.54656259090166" lon="10.821813640289427"><ele>127.5</ele><time>2026-04-18T08:06:12Z</time></trkpt><trkpt lat="43.54653190652588" lon="10.821991622226307"><ele>127.0</ele><time>2026-04-18T08:06:13Z</time></trkpt><trkpt lat="43.546479637393965" lon="10.82214796723019"><ele>126.39999999999999</ele><time>2026-04-18T08:06:14Z</time></trkpt><trkpt lat="43.546447102847466" lon="10.822292880871693"><ele>125.79999999999998</ele><time>2026-04-18T08:06:15Z</time></trkpt><trkpt lat="43.54641744330922" lon="10.822424986596037"><ele>125.2</ele><time>2026-04-18T08:06:16Z</time></trkpt><trkpt lat="43.54638799540665" lon="10.822552530311853"><ele>124.6</ele><time>2026-04-18T08:06:17Z</time></trkpt><trkpt lat="43.54636221974628" lon="10.822662700596956"><ele>124.0</ele><time>2026-04-18T08:06:18Z</time></trkpt><trkpt lat="43.546339139415615" lon="10.822751669305944"><ele>123.6</ele><time>2026-04-18T08:06:19Z</time></trkpt><trkpt lat="43.54628520358756" lon="10.822841472340654"><ele>123.2</ele><time>2026-04-18T08:06:21Z</time></trkpt><trkpt lat="43.546216641823335" lon="10.822877363095099"><ele>122.79999999999998</ele><time>2026-04-18T08:06:25Z</time></trkpt><trkpt lat="43.54612819293515" lon="10.822860189039453"><ele>122.39999999999999</ele><time>2026-04-18T08:07:41.001Z</time></trkpt><trkpt lat="43.54602676623828" lon="10.822758318658067"><ele>122.0</ele><time>2026-04-18T08:07:43.001Z</time></trkpt><trkpt lat="43.54597782204899" lon="10.822668763622158"><ele>119.6</ele><time>2026-04-18T08:07:44.001Z</time></trkpt><trkpt lat="43.54591613143011" lon="10.822579737699797"><ele>117.19999999999999</ele><time>2026-04-18T08:07:45.001Z</time></trkpt><trkpt lat="43.54586799600985" lon="10.822470877285449"><ele>114.8</ele><time>2026-04-18T08:07:46.001Z</time></trkpt><trkpt lat="43.54581488618137" lon="10.82234940610457"><ele>112.4</ele><time>2026-04-18T08:07:47.001Z</time></trkpt><trkpt lat="43.54575687108581" lon="10.82220784346889"><ele>110.0</ele><time>2026-04-18T08:07:48.001Z</time></trkpt><trkpt lat="43.54571676308824" lon="10.822044899603164"><ele>110.0</ele><time>2026-04-18T08:07:49.001Z</time></trkpt><trkpt lat="43.54567019834754" lon="10.821883244801016"><ele>110.0</ele><time>2026-04-18T08:07:50.001Z</time></trkpt><trkpt lat="43.54563615616639" lon="10.821723268142556"><ele>110.0</ele><time>2026-04-18T08:07:51.001Z</time></trkpt><trkpt lat="43.545602561705245" lon="10.821550287831645"><ele>110.0</ele><time>2026-04-18T08:07:52.001Z</time></trkpt><trkpt lat="43.545567466642424" lon="10.82136139499865"><ele>110.0</ele><time>2026-04-18T08:07:53.001Z</time></trkpt><trkpt lat="43.54551609761961" lon="10.82117224372257"><ele>110.0</ele><time>2026-04-18T08:07:54Z</time></trkpt><trkpt lat="43.54548361448957" lon="10.820993065113383"><ele>110.0</ele><time>2026-04-18T08:07:55Z</time></trkpt><trkpt lat="43.545456892857146" lon="10.820838637497149"><ele>110.0</ele><time>2026-04-18T08:07:56Z</time></trkpt><trkpt lat="43.545423583941904" lon="10.820690618324258"><ele>109.75</ele><time>2026-04-18T08:07:57Z</time></trkpt><trkpt lat="43.545402198068885" lon="10.820537144350457"><ele>109.5</ele><time>2026-04-18T08:07:58Z</time></trkpt><trkpt lat="43.545350337959476" lon="10.820402728481522"><ele>109.25</ele><time>2026-04-18T08:07:59Z</time></trkpt><trkpt lat="43.54528108801389" lon="10.820288566959952"><ele>109.0</ele><time>2026-04-18T08:08:00Z</time></trkpt><trkpt lat="43.545180217931254" lon="10.82020169583345"><ele>106.0</ele><time>2026-04-18T08:08:01Z</time></trkpt><trkpt lat="43.545081352156835" lon="10.820096371416502"><ele>103.0</ele><time>2026-04-18T08:08:02Z</time></trkpt><trkpt lat="43.54498131192655" lon="10.819983394851702"><ele>100.0</ele><time>2026-04-18T08:08:03Z</time></trkpt><trkpt lat="43.544896206685415" lon="10.819867063444576"><ele>97.0</ele><time>2026-04-18T08:08:04Z</time></trkpt><trkpt lat="43.54482239137764" lon="10.819741423393712"><ele>97.0</ele><time>2026-04-18T08:08:05Z</time></trkpt><trkpt lat="43.54475668205216" lon="10.819597332382909"><ele>97.0</ele><time>2026-04-18T08:08:06Z</time></trkpt><trkpt lat="43.5447211546532" lon="10.819427814547735"><ele>97.0</ele><time>2026-04-18T08:08:07Z</time></trkpt><trkpt lat="43.54469268062259" lon="10.819266006384947"><ele>97.0</ele><time>2026-04-18T08:08:08Z</time></trkpt><trkpt lat="43.54467007998305" lon="10.81909283139052"><ele>96.75</ele><time>2026-04-18T08:08:09Z</time></trkpt><trkpt lat="43.5446363583896" lon="10.818922562088792"><ele>96.5</ele><time>2026-04-18T08:08:10Z</time></trkpt><trkpt lat="43.54461101554563" lon="10.818711596800487"><ele>96.25</ele><time>2026-04-18T08:08:11Z</time></trkpt><trkpt lat="43.54457775450722" lon="10.818492251420416"><ele>96.0</ele><time>2026-04-18T08:08:12Z</time></trkpt><trkpt lat="43.54455303937637" lon="10.818298553641657"><ele>92.75</ele><time>2026-04-18T08:08:13Z</time></trkpt><trkpt lat="43.5445304958989" lon="10.818121981648098"><ele>89.5</ele><time>2026-04-18T08:08:14Z</time></trkpt><trkpt lat="43.54450732679565" lon="10.817959295691804"><ele>86.25</ele><time>2026-04-18T08:08:15Z</time></trkpt><trkpt lat="43.54449151635932" lon="10.817789814538099"><ele>83.0</ele><time>2026-04-18T08:08:16Z</time></trkpt><trkpt lat="43.54446617397057" lon="10.81760558881032"><ele>83.0</ele><time>2026-04-18T08:08:17Z</time></trkpt><trkpt lat="43.54444151426869" lon="10.817421646128535"><ele>83.0</ele><time>2026-04-18T08:08:18Z</time></trkpt><trkpt lat="43.54441256118427" lon="10.817252811159333"><ele>83.0</ele><time>2026-04-18T08:08:19Z</time></trkpt><trkpt lat="43.54437704450432" lon="10.817097578444123"><ele>83.0</ele><time>2026-04-18T08:08:20Z</time></trkpt><trkpt lat="43.54434557484202" lon="10.816969249646538"><ele>83.0</ele><time>2026-04-18T08:08:21Z</time></trkpt><trkpt lat="43.54428775162458" lon="10.816865908737869"><ele>83.0</ele><time>2026-04-18T08:08:22Z</time></trkpt><trkpt lat="43.544210737759904" lon="10.816787334421308"><ele>83.0</ele><time>2026-04-18T08:08:23Z</time></trkpt><trkpt lat="43.54411232719565" lon="10.816742749957363"><ele>83.0</ele><time>2026-04-18T08:08:24Z</time></trkpt><trkpt lat="43.54402099076883" lon="10.816757026760422"><ele>83.0</ele><time>2026-04-18T08:08:25Z</time></trkpt><trkpt lat="43.543915549313205" lon="10.816779963461629"><ele>83.0</ele><time>2026-04-18T08:08:26Z</time></trkpt><trkpt lat="43.54380615487981" lon="10.816827733324711"><ele>83.0</ele><time>2026-04-18T08:08:27Z</time></trkpt><trkpt lat="43.543673053665984" lon="10.816896379119758"><ele>83.0</ele><time>2026-04-18T08:08:28Z</time></trkpt><trkpt lat="43.54351483903383" lon="10.816945572652774"><ele>83.0</ele><time>2026-04-18T08:08:29Z</time></trkpt><trkpt lat="43.54336108196803" lon="10.817034446689208"><ele>82.25</ele><time>2026-04-18T08:08:30Z</time></trkpt><trkpt lat="43.54321809047519" lon="10.817094113517884"><ele>81.5</ele><time>2026-04-18T08:08:31Z</time></trkpt><trkpt lat="43.54309034677797" lon="10.817142129938127"><ele>80.75</ele><time>2026-04-18T08:08:32Z</time></trkpt><trkpt lat="43.54298246831496" lon="10.81720320239285"><ele>80.0</ele><time>2026-04-18T08:08:33Z</time></trkpt><trkpt lat="43.54288101915962" lon="10.817288025811449"><ele>81.5</ele><time>2026-04-18T08:08:34Z</time></trkpt><trkpt lat="43.54277891195463" lon="10.81738070492533"><ele>83.0</ele><time>2026-04-18T08:08:35Z</time></trkpt><trkpt lat="43.54271154242214" lon="10.817518864222857"><ele>84.5</ele><time>2026-04-18T08:08:36Z</time></trkpt><trkpt lat="43.54266801899701" lon="10.817681981073555"><ele>86.0</ele><time>2026-04-18T08:08:37Z</time></trkpt><trkpt lat="43.54266229678977" lon="10.817861559476107"><ele>88.0</ele><time>2026-04-18T08:08:38Z</time></trkpt><trkpt lat="43.54264933317427" lon="10.81806133663745"><ele>90.0</ele><time>2026-04-18T08:08:39Z</time></trkpt><trkpt lat="43.54263463852347" lon="10.818296844948359"><ele>92.0</ele><time>2026-04-18T08:08:40Z</time></trkpt><trkpt lat="43.54261810000858" lon="10.818545957207466"><ele>93.66666666666667</ele><time>2026-04-18T08:08:41Z</time></trkpt><trkpt lat="43.54260535435431" lon="10.818795676269144"><ele>95.33333333333334</ele><time>2026-04-18T08:08:42Z</time></trkpt><trkpt lat="43.54259057614101" lon="10.819037897539294"><ele>97.0</ele><time>2026-04-18T08:08:43Z</time></trkpt><trkpt lat="43.54256118435731" lon="10.819249084450455"><ele>98.33333333333334</ele><time>2026-04-18T08:08:44Z</time></trkpt><trkpt lat="43.54254738122786" lon="10.819459508880293"><ele>99.66666666666666</ele><time>2026-04-18T08:08:45Z</time></trkpt><trkpt lat="43.54252741228501" lon="10.819672237304744"><ele>101.0</ele><time>2026-04-18T08:08:46Z</time></trkpt><trkpt lat="43.542496633772686" lon="10.81987935885879"><ele>101.0</ele><time>2026-04-18T08:08:47Z</time></trkpt><trkpt lat="43.54245648355634" lon="10.820089920348588"><ele>101.0</ele><time>2026-04-18T08:08:48Z</time></trkpt><trkpt lat="43.542403276117035" lon="10.820330853625403"><ele>101.0</ele><time>2026-04-18T08:08:49Z</time></trkpt><trkpt lat="43.54236295983213" lon="10.82056995537371"><ele>101.75</ele><time>2026-04-18T08:08:50Z</time></trkpt><trkpt lat="43.54230754663781" lon="10.820782629255211"><ele>102.5</ele><time>2026-04-18T08:08:51Z</time></trkpt><trkpt lat="43.54223612345588" lon="10.820958229647779"><ele>103.25</ele><time>2026-04-18T08:08:52Z</time></trkpt><trkpt lat="43.54217833412294" lon="10.821102289653748"><ele>104.0</ele><time>2026-04-18T08:08:53Z</time></trkpt><trkpt lat="43.542121077007835" lon="10.821251749219552"><ele>108.0</ele><time>2026-04-18T08:08:54Z</time></trkpt><trkpt lat="43.542031482686845" lon="10.8213943729135"><ele>112.0</ele><time>2026-04-18T08:08:55Z</time></trkpt><trkpt lat="43.54194176417786" lon="10.821544461180164"><ele>116.0</ele><time>2026-04-18T08:08:56Z</time></trkpt><trkpt lat="43.54186958705212" lon="10.8216872461268"><ele>120.0</ele><time>2026-04-18T08:08:57Z</time></trkpt><trkpt lat="43.541819699203025" lon="10.821841212556812"><ele>120.5</ele><time>2026-04-18T08:08:58Z</time></trkpt><trkpt lat="43.54178949060037" lon="10.82201504485621"><ele>121.0</ele><time>2026-04-18T08:08:58.999Z</time></trkpt><trkpt lat="43.54177902250743" lon="10.82219100110756"><ele>121.5</ele><time>2026-04-18T08:08:59.999Z</time></trkpt><trkpt lat="43.54178053756922" lon="10.822376791214834"><ele>122.0</ele><time>2026-04-18T08:09:00.999Z</time></trkpt><trkpt lat="43.54178256164347" lon="10.82255061735217"><ele>122.75</ele><time>2026-04-18T08:09:01.999Z</time></trkpt><trkpt lat="43.54175964071912" lon="10.822713958093448"><ele>123.5</ele><time>2026-04-18T08:09:02.999Z</time></trkpt><trkpt lat="43.541736324578494" lon="10.822871895304086"><ele>124.25</ele><time>2026-04-18T08:09:03.999Z</time></trkpt><trkpt lat="43.54169630182121" lon="10.823037470243925"><ele>125.0</ele><time>2026-04-18T08:09:04.999Z</time></trkpt><trkpt lat="43.54164512026703" lon="10.82322177890089"><ele>125.0</ele><time>2026-04-18T08:09:05.999Z</time></trkpt><trkpt lat="43.54160660791236" lon="10.82340056065575"><ele>125.0</ele><time>2026-04-18T08:09:06.999Z</time></trkpt><trkpt lat="43.541551700931" lon="10.823586880031586"><ele>125.0</ele><time>2026-04-18T08:09:07.999Z</time></trkpt><trkpt lat="43.54149052757285" lon="10.823783194181935"><ele>125.0</ele><time>2026-04-18T08:09:08.999Z</time></trkpt><trkpt lat="43.54142545408862" lon="10.823981297607979"><ele>125.0</ele><time>2026-04-18T08:09:09.999Z</time></trkpt><trkpt lat="43.54135350487225" lon="10.824195502342402"><ele>125.0</ele><time>2026-04-18T08:09:10.999Z</time></trkpt><trkpt lat="43.54128288063697" lon="10.824412137291949"><ele>125.0</ele><time>2026-04-18T08:09:11.999Z</time></trkpt><trkpt lat="43.541210460686386" lon="10.824635339531925"><ele>130.33333333333331</ele><time>2026-04-18T08:09:12.999Z</time></trkpt><trkpt lat="43.541146154197286" lon="10.82485439128209"><ele>135.66666666666666</ele><time>2026-04-18T08:09:13.999Z</time></trkpt><trkpt lat="43.541081616410935" lon="10.825084992458715"><ele>141.0</ele><time>2026-04-18T08:09:14.999Z</time></trkpt><trkpt lat="43.541020446719365" lon="10.825312291472326"><ele>141.0</ele><time>2026-04-18T08:09:15.999Z</time></trkpt><trkpt lat="43.54095815897607" lon="10.825543870135927"><ele>141.0</ele><time>2026-04-18T08:09:16.999Z</time></trkpt><trkpt lat="43.54089287313632" lon="10.825781087396066"><ele>141.0</ele><time>2026-04-18T08:09:17.999Z</time></trkpt><trkpt lat="43.54083116847289" lon="10.826011588522613"><ele>141.66666666666666</ele><time>2026-04-18T08:09:18.999Z</time></trkpt><trkpt lat="43.54077371387554" lon="10.826239287517827"><ele>142.33333333333331</ele><time>2026-04-18T08:09:19.999Z</time></trkpt><trkpt lat="43.54071762520345" lon="10.826465554167742"><ele>143.0</ele><time>2026-04-18T08:09:20.999Z</time></trkpt><trkpt lat="43.540662355567726" lon="10.826684183347277"><ele>142.5</ele><time>2026-04-18T08:09:21.999Z</time></trkpt><trkpt lat="43.54060770332365" lon="10.826886606039125"><ele>142.0</ele><time>2026-04-18T08:09:22.999Z</time></trkpt><trkpt lat="43.540553946754144" lon="10.827073987809245"><ele>141.5</ele><time>2026-04-18T08:09:23.999Z</time></trkpt><trkpt lat="43.54050643689493" lon="10.827227370911853"><ele>141.0</ele><time>2026-04-18T08:09:24.999Z</time></trkpt><trkpt lat="43.54044445179466" lon="10.827386133008119"><ele>143.5</ele><time>2026-04-18T08:09:25.999Z</time></trkpt><trkpt lat="43.540367696988255" lon="10.827552552972554"><ele>146.0</ele><time>2026-04-18T08:09:26.999Z</time></trkpt><trkpt lat="43.54028417660554" lon="10.82771126885825"><ele>148.5</ele><time>2026-04-18T08:09:27.999Z</time></trkpt><trkpt lat="43.54020029579301" lon="10.827851452715255"><ele>151.0</ele><time>2026-04-18T08:09:28.999Z</time></trkpt><trkpt lat="43.54012944749323" lon="10.827969090779789"><ele>151.0</ele><time>2026-04-18T08:09:29.999Z</time></trkpt><trkpt lat="43.5400760471017" lon="10.828065277973751"><ele>151.0</ele><time>2026-04-18T08:09:30.999Z</time></trkpt><trkpt lat="43.54000051904692" lon="10.82815031014423"><ele>151.0</ele><time>2026-04-18T08:09:32.999Z</time></trkpt><trkpt lat="43.539992356013805" lon="10.828292155965974"><ele>151.0</ele><time>2026-04-18T08:09:35.999Z</time></trkpt><trkpt lat="43.54001437316949" lon="10.82842976710142"><ele>151.0</ele><time>2026-04-18T08:09:38.999Z</time></trkpt><trkpt lat="43.5400268999227" lon="10.828515228749882"><ele>151.2</ele><time>2026-04-18T08:09:40.999Z</time></trkpt><trkpt lat="43.54006290650706" lon="10.828666235949356"><ele>151.39999999999998</ele><time>2026-04-18T08:10:10Z</time></trkpt><trkpt lat="43.54007716618262" lon="10.828783156631566"><ele>151.6</ele><time>2026-04-18T08:10:11Z</time></trkpt><trkpt lat="43.540099400313636" lon="10.828935058689817"><ele>151.79999999999998</ele><time>2026-04-18T08:10:12Z</time></trkpt><trkpt lat="43.54011950152216" lon="10.829101371639728"><ele>152.0</ele><time>2026-04-18T08:10:13Z</time></trkpt><trkpt lat="43.540137891651476" lon="10.829282231776736"><ele>152.33333333333331</ele><time>2026-04-18T08:10:14Z</time></trkpt><trkpt lat="43.540160532982895" lon="10.829489942453284"><ele>152.66666666666666</ele><time>2026-04-18T08:10:15Z</time></trkpt><trkpt lat="43.54019597943044" lon="10.829732623002258"><ele>153.0</ele><time>2026-04-18T08:10:16Z</time></trkpt><trkpt lat="43.540227441438795" lon="10.829992799289254"><ele>154.33333333333334</ele><time>2026-04-18T08:10:17Z</time></trkpt><trkpt lat="43.54025319190126" lon="10.830250988666437"><ele>155.66666666666669</ele><time>2026-04-18T08:10:18Z</time></trkpt><trkpt lat="43.54026089207567" lon="10.830513039936411"><ele>157.0</ele><time>2026-04-18T08:10:19Z</time></trkpt><trkpt lat="43.54025517238103" lon="10.830765331543883"><ele>158.66666666666669</ele><time>2026-04-18T08:10:20Z</time></trkpt><trkpt lat="43.54024063071831" lon="10.831025906151877"><ele>160.33333333333334</ele><time>2026-04-18T08:10:21Z</time></trkpt><trkpt lat="43.54020838644477" lon="10.831290819822408"><ele>162.0</ele><time>2026-04-18T08:10:22Z</time></trkpt><trkpt lat="43.54019464052317" lon="10.8315641148647"><ele>163.0</ele><time>2026-04-18T08:10:23Z</time></trkpt><trkpt lat="43.540181682291504" lon="10.83183974110628"><ele>164.0</ele><time>2026-04-18T08:10:24Z</time></trkpt><trkpt lat="43.540203406168274" lon="10.831942616900507"><ele>165.0</ele><time>2026-04-18T08:10:25Z</time></trkpt><trkpt lat="43.54020626039856" lon="10.832125936503315"><ele>166.0</ele><time>2026-04-18T08:10:26Z</time></trkpt><trkpt lat="43.540224083703265" lon="10.832311867687359"><ele>166.0</ele><time>2026-04-18T08:10:27Z</time></trkpt><trkpt lat="43.54025640821063" lon="10.832502828597866"><ele>166.0</ele><time>2026-04-18T08:10:28Z</time></trkpt><trkpt lat="43.540301445235336" lon="10.832703456709897"><ele>166.0</ele><time>2026-04-18T08:10:29Z</time></trkpt><trkpt lat="43.54034228271996" lon="10.83291463331889"><ele>165.0</ele><time>2026-04-18T08:10:30Z</time></trkpt><trkpt lat="43.540366785892125" lon="10.833104210892355"><ele>164.0</ele><time>2026-04-18T08:10:31Z</time></trkpt><trkpt lat="43.540353758378835" lon="10.833313158488991"><ele>163.0</ele><time>2026-04-18T08:10:32Z</time></trkpt><trkpt lat="43.540348530197846" lon="10.833550033644325"><ele>162.33333333333334</ele><time>2026-04-18T08:10:33Z</time></trkpt><trkpt lat="43.54033796843302" lon="10.833812041882174"><ele>161.66666666666666</ele><time>2026-04-18T08:10:34Z</time></trkpt><trkpt lat="43.54032589938672" lon="10.834093540382149"><ele>161.0</ele><time>2026-04-18T08:10:35Z</time></trkpt><trkpt lat="43.54031322355008" lon="10.83438012287875"><ele>161.0</ele><time>2026-04-18T08:10:36Z</time></trkpt><trkpt lat="43.54030070449206" lon="10.834663160873395"><ele>161.0</ele><time>2026-04-18T08:10:37Z</time></trkpt><trkpt lat="43.54028807608525" lon="10.834938493620307"><ele>161.0</ele><time>2026-04-18T08:10:38Z</time></trkpt><trkpt lat="43.54029054788713" lon="10.835183885359031"><ele>160.66666666666666</ele><time>2026-04-18T08:10:39Z</time></trkpt><trkpt lat="43.54027748006712" lon="10.83540893895842"><ele>160.33333333333334</ele><time>2026-04-18T08:10:40Z</time></trkpt><trkpt lat="43.54026577834488" lon="10.835639707966946"><ele>160.0</ele><time>2026-04-18T08:10:41Z</time></trkpt><trkpt lat="43.54025963070372" lon="10.83585039454662"><ele>159.25</ele><time>2026-04-18T08:10:42Z</time></trkpt><trkpt lat="43.540247802118216" lon="10.836049884428055"><ele>158.5</ele><time>2026-04-18T08:10:43Z</time></trkpt><trkpt lat="43.5402400648483" lon="10.836246313792827"><ele>157.75</ele><time>2026-04-18T08:10:44Z</time></trkpt><trkpt lat="43.54021781137119" lon="10.836441976227361"><ele>157.0</ele><time>2026-04-18T08:10:45Z</time></trkpt><trkpt lat="43.54021333884075" lon="10.836651794549967"><ele>157.0</ele><time>2026-04-18T08:10:46Z</time></trkpt><trkpt lat="43.54021452663066" lon="10.836869831477149"><ele>157.0</ele><time>2026-04-18T08:10:47Z</time></trkpt><trkpt lat="43.540226335090566" lon="10.837102153696566"><ele>157.0</ele><time>2026-04-18T08:10:48Z</time></trkpt><trkpt lat="43.540250347874675" lon="10.83733735750562"><ele>157.0</ele><time>2026-04-18T08:10:49Z</time></trkpt><trkpt lat="43.540301168921935" lon="10.837585381656453"><ele>157.0</ele><time>2026-04-18T08:10:50Z</time></trkpt><trkpt lat="43.54034952354559" lon="10.837866385301824"><ele>157.0</ele><time>2026-04-18T08:10:51Z</time></trkpt><trkpt lat="43.540401045939845" lon="10.838150918448513"><ele>157.5</ele><time>2026-04-18T08:10:52Z</time></trkpt><trkpt lat="43.5404401648615" lon="10.838369925066361"><ele>158.0</ele><time>2026-04-18T08:10:53Z</time></trkpt><trkpt lat="43.54046115695519" lon="10.838544158753674"><ele>158.5</ele><time>2026-04-18T08:10:54Z</time></trkpt><trkpt lat="43.54049146090964" lon="10.838710643463234"><ele>159.0</ele><time>2026-04-18T08:10:55Z</time></trkpt><trkpt lat="43.540524852746366" lon="10.838901625461839"><ele>160.8</ele><time>2026-04-18T08:10:56Z</time></trkpt><trkpt lat="43.5405570691138" lon="10.839089018104676"><ele>162.60000000000002</ele><time>2026-04-18T08:10:57Z</time></trkpt><trkpt lat="43.54058325234845" lon="10.839235047067621"><ele>164.4</ele><time>2026-04-18T08:10:58Z</time></trkpt><trkpt lat="43.54062131171014" lon="10.839344492929014"><ele>166.20000000000002</ele><time>2026-04-18T08:10:59Z</time></trkpt><trkpt lat="43.54062623008989" lon="10.8394580978793"><ele>168.0</ele><time>2026-04-18T08:11:00Z</time></trkpt><trkpt lat="43.540643408097466" lon="10.839548061886784"><ele>169.4</ele><time>2026-04-18T08:11:01Z</time></trkpt><trkpt lat="43.540674024529245" lon="10.839669310989944"><ele>170.8</ele><time>2026-04-18T08:11:02.999Z</time></trkpt><trkpt lat="43.54058106147327" lon="10.839650637569356"><ele>172.2</ele><time>2026-04-18T08:11:04.999Z</time></trkpt><trkpt lat="43.54051487832134" lon="10.839587811776488"><ele>173.6</ele><time>2026-04-18T08:11:05.999Z</time></trkpt><trkpt lat="43.54042275550686" lon="10.839560090014338"><ele>175.0</ele><time>2026-04-18T08:11:06.999Z</time></trkpt><trkpt lat="43.54032396711074" lon="10.839538072120911"><ele>175.2</ele><time>2026-04-18T08:11:07.999Z</time></trkpt><trkpt lat="43.54024523813233" lon="10.83954903345954"><ele>175.4</ele><time>2026-04-18T08:11:08.999Z</time></trkpt><trkpt lat="43.54013031638497" lon="10.839457060056017"><ele>175.60000000000002</ele><time>2026-04-18T08:11:10.999Z</time></trkpt><trkpt lat="43.54005276584365" lon="10.839399709969227"><ele>175.8</ele><time>2026-04-18T08:11:11.999Z</time></trkpt><trkpt lat="43.539971292391755" lon="10.839328318210082"><ele>176.0</ele><time>2026-04-18T08:11:12.999Z</time></trkpt><trkpt lat="43.53989136730231" lon="10.83928482356174"><ele>174.8</ele><time>2026-04-18T08:11:13.999Z</time></trkpt><trkpt lat="43.53983895664969" lon="10.839213866129944"><ele>173.60000000000002</ele><time>2026-04-18T08:11:14.999Z</time></trkpt><trkpt lat="43.539769377137794" lon="10.839153654958555"><ele>172.4</ele><time>2026-04-18T08:11:15.999Z</time></trkpt><trkpt lat="43.539680485206866" lon="10.839100015238333"><ele>171.2</ele><time>2026-04-18T08:11:16.999Z</time></trkpt><trkpt lat="43.539588559185006" lon="10.839032110873823"><ele>170.0</ele><time>2026-04-18T08:11:17.999Z</time></trkpt><trkpt lat="43.53950451959161" lon="10.838953241370744"><ele>169.83333333333331</ele><time>2026-04-18T08:11:18.999Z</time></trkpt><trkpt lat="43.53942226900482" lon="10.838894337367408"><ele>169.66666666666666</ele><time>2026-04-18T08:11:19.999Z</time></trkpt><trkpt lat="43.53935829216543" lon="10.8388441610097"><ele>169.5</ele><time>2026-04-18T08:11:20.999Z</time></trkpt><trkpt lat="43.53929968372317" lon="10.838794544369039"><ele>169.33333333333334</ele><time>2026-04-18T08:11:21.999Z</time></trkpt><trkpt lat="43.53923695999285" lon="10.838735658319964"><ele>169.16666666666669</ele><time>2026-04-18T08:11:22.999Z</time></trkpt><trkpt lat="43.53916826825179" lon="10.838680183831652"><ele>169.0</ele><time>2026-04-18T08:11:23.999Z</time></trkpt><trkpt lat="43.53908867024845" lon="10.838606015496357"><ele>169.0</ele><time>2026-04-18T08:11:24.999Z</time></trkpt><trkpt lat="43.53900545816651" lon="10.838530693084296"><ele>169.0</ele><time>2026-04-18T08:11:25.999Z</time></trkpt><trkpt lat="43.53892883183153" lon="10.838466462623431"><ele>169.0</ele><time>2026-04-18T08:11:26.999Z</time></trkpt><trkpt lat="43.53884828296054" lon="10.83839577516985"><ele>169.0</ele><time>2026-04-18T08:11:27.999Z</time></trkpt><trkpt lat="43.53876486767212" lon="10.838331968394735"><ele>169.0</ele><time>2026-04-18T08:11:28.999Z</time></trkpt><trkpt lat="43.53867124621159" lon="10.838277674077066"><ele>168.33333333333334</ele><time>2026-04-18T08:11:29.999Z</time></trkpt><trkpt lat="43.538579533574755" lon="10.838197581644309"><ele>167.66666666666669</ele><time>2026-04-18T08:11:30.999Z</time></trkpt><trkpt lat="43.538498892397634" lon="10.838127575242519"><ele>167.0</ele><time>2026-04-18T08:11:31.999Z</time></trkpt><trkpt lat="43.53843168092619" lon="10.83807500811058"><ele>166.33333333333334</ele><time>2026-04-18T08:11:32.999Z</time></trkpt><trkpt lat="43.538374887936385" lon="10.838020832343169"><ele>165.66666666666666</ele><time>2026-04-18T08:11:33.999Z</time></trkpt><trkpt lat="43.53831764285944" lon="10.837973774329868"><ele>165.0</ele><time>2026-04-18T08:11:34.999Z</time></trkpt><trkpt lat="43.53826314175968" lon="10.837902326850186"><ele>165.0</ele><time>2026-04-18T08:11:35.999Z</time></trkpt><trkpt lat="43.53819089436955" lon="10.8378577900175"><ele>165.0</ele><time>2026-04-18T08:11:36.999Z</time></trkpt><trkpt lat="43.53811997183031" lon="10.837778455967849"><ele>165.0</ele><time>2026-04-18T08:11:37.999Z</time></trkpt><trkpt lat="43.53805312113981" lon="10.837720616628989"><ele>165.0</ele><time>2026-04-18T08:11:38.999Z</time></trkpt><trkpt lat="43.537984256042414" lon="10.837661034417403"><ele>165.0</ele><time>2026-04-18T08:11:39.999Z</time></trkpt><trkpt lat="43.537906267493014" lon="10.837611990763351"><ele>165.0</ele><time>2026-04-18T08:11:40.999Z</time></trkpt><trkpt lat="43.53784910446168" lon="10.837570740158384"><ele>163.6</ele><time>2026-04-18T08:11:41.999Z</time></trkpt><trkpt lat="43.537754964427215" lon="10.837483346703813"><ele>162.2</ele><time>2026-04-18T08:11:43.999Z</time></trkpt><trkpt lat="43.5376612381193" lon="10.837391689268006"><ele>160.8</ele><time>2026-04-18T08:11:45.999Z</time></trkpt><trkpt lat="43.53758815750005" lon="10.837344314074484"><ele>159.4</ele><time>2026-04-18T08:11:46.999Z</time></trkpt><trkpt lat="43.537499308216894" lon="10.837305488380148"><ele>158.0</ele><time>2026-04-18T08:11:48.001Z</time></trkpt><trkpt lat="43.53741237871257" lon="10.837276328418387"><ele>158.0</ele><time>2026-04-18T08:11:49.001Z</time></trkpt><trkpt lat="43.53732988459999" lon="10.837255165738659"><ele>158.0</ele><time>2026-04-18T08:11:50.001Z</time></trkpt><trkpt lat="43.53723061458652" lon="10.837227956178118"><ele>158.0</ele><time>2026-04-18T08:11:51.001Z</time></trkpt><trkpt lat="43.53713221616596" lon="10.837203665925642"><ele>158.0</ele><time>2026-04-18T08:11:52.001Z</time></trkpt><trkpt lat="43.537036094801984" lon="10.837166208762994"><ele>158.0</ele><time>2026-04-18T08:11:53.001Z</time></trkpt><trkpt lat="43.53696749307718" lon="10.837082898400721"><ele>157.8</ele><time>2026-04-18T08:11:54.001Z</time></trkpt><trkpt lat="43.53688592605303" lon="10.836999220156798"><ele>157.60000000000002</ele><time>2026-04-18T08:11:55.001Z</time></trkpt><trkpt lat="43.53680076342283" lon="10.836929810340695"><ele>157.39999999999998</ele><time>2026-04-18T08:11:56.001Z</time></trkpt><trkpt lat="43.53671660490619" lon="10.836870174974576"><ele>157.2</ele><time>2026-04-18T08:11:57.001Z</time></trkpt><trkpt lat="43.53662516940794" lon="10.836809540878585"><ele>157.0</ele><time>2026-04-18T08:11:58.001Z</time></trkpt><trkpt lat="43.53652946705817" lon="10.83675524787691"><ele>157.0</ele><time>2026-04-18T08:11:59Z</time></trkpt><trkpt lat="43.53644668443085" lon="10.836689936135139"><ele>157.0</ele><time>2026-04-18T08:12:00.001Z</time></trkpt><trkpt lat="43.53636929759159" lon="10.836585082026014"><ele>157.0</ele><time>2026-04-18T08:12:01.001Z</time></trkpt><trkpt lat="43.536290636240565" lon="10.836521891611397"><ele>157.0</ele><time>2026-04-18T08:12:02Z</time></trkpt><trkpt lat="43.53622368474804" lon="10.83642881241522"><ele>157.0</ele><time>2026-04-18T08:12:03Z</time></trkpt><trkpt lat="43.5361487400712" lon="10.836355070527528"><ele>159.6</ele><time>2026-04-18T08:12:04Z</time></trkpt><trkpt lat="43.53607329812598" lon="10.836309302043604"><ele>162.2</ele><time>2026-04-18T08:12:05Z</time></trkpt><trkpt lat="43.5359842699438" lon="10.836277203447812"><ele>164.8</ele><time>2026-04-18T08:12:06Z</time></trkpt><trkpt lat="43.53589418117541" lon="10.836230401715817"><ele>167.4</ele><time>2026-04-18T08:12:07Z</time></trkpt><trkpt lat="43.535842750377725" lon="10.836127430636635"><ele>170.0</ele><time>2026-04-18T08:12:08Z</time></trkpt><trkpt lat="43.535779850344596" lon="10.83603602404196"><ele>168.0</ele><time>2026-04-18T08:12:09Z</time></trkpt><trkpt lat="43.535690126650515" lon="10.835935503071537"><ele>166.0</ele><time>2026-04-18T08:12:10Z</time></trkpt><trkpt lat="43.535613999329215" lon="10.835805254765665"><ele>164.0</ele><time>2026-04-18T08:12:11Z</time></trkpt><trkpt lat="43.53552829316877" lon="10.83569388567136"><ele>162.0</ele><time>2026-04-18T08:12:12Z</time></trkpt><trkpt lat="43.53544556056122" lon="10.835579979552369"><ele>165.39999999999998</ele><time>2026-04-18T08:12:13Z</time></trkpt><trkpt lat="43.53536630974465" lon="10.835478210370333"><ele>168.79999999999998</ele><time>2026-04-18T08:12:14Z</time></trkpt><trkpt lat="43.535278512885654" lon="10.835383751701944"><ele>172.2</ele><time>2026-04-18T08:12:15Z</time></trkpt><trkpt lat="43.53519400852675" lon="10.835310068942709"><ele>175.6</ele><time>2026-04-18T08:12:16Z</time></trkpt><trkpt lat="43.535111068912414" lon="10.835263895665818"><ele>179.0</ele><time>2026-04-18T08:12:17Z</time></trkpt><trkpt lat="43.5350141405717" lon="10.83526089730162"><ele>179.0</ele><time>2026-04-18T08:12:18Z</time></trkpt><trkpt lat="43.53495007524355" lon="10.835205866794773"><ele>179.0</ele><time>2026-04-18T08:12:19Z</time></trkpt><trkpt lat="43.534907000301466" lon="10.83512892783904"><ele>179.0</ele><time>2026-04-18T08:12:20Z</time></trkpt><trkpt lat="43.534936340853626" lon="10.83500171550405"><ele>179.0</ele><time>2026-04-18T08:12:21Z</time></trkpt><trkpt lat="43.534907881372646" lon="10.834918610077741"><ele>179.0</ele><time>2026-04-18T08:12:22Z</time></trkpt><trkpt lat="43.534873417740535" lon="10.834821640413027"><ele>179.0</ele><time>2026-04-18T08:12:23Z</time></trkpt><trkpt lat="43.5348379344735" lon="10.83473310550286"><ele>177.6</ele><time>2026-04-18T08:12:24Z</time></trkpt><trkpt lat="43.53477072803914" lon="10.834598513471093"><ele>176.2</ele><time>2026-04-18T08:12:25Z</time></trkpt><trkpt lat="43.53470430760574" lon="10.834484809736516"><ele>174.79999999999998</ele><time>2026-04-18T08:12:26Z</time></trkpt><trkpt lat="43.534640944745846" lon="10.834389136834345"><ele>173.39999999999998</ele><time>2026-04-18T08:12:27Z</time></trkpt><trkpt lat="43.53456358170772" lon="10.834296991630849"><ele>172.0</ele><time>2026-04-18T08:12:28Z</time></trkpt><trkpt lat="43.534468431054066" lon="10.834205825181822"><ele>172.0</ele><time>2026-04-18T08:12:29Z</time></trkpt><trkpt lat="43.53439938991285" lon="10.834098288972914"><ele>172.0</ele><time>2026-04-18T08:12:30Z</time></trkpt><trkpt lat="43.5343233820778" lon="10.8340144604904"><ele>172.0</ele><time>2026-04-18T08:12:31Z</time></trkpt><trkpt lat="43.53424675963399" lon="10.833938271268464"><ele>172.0</ele><time>2026-04-18T08:12:32Z</time></trkpt><trkpt lat="43.53417617338705" lon="10.833878050915612"><ele>172.0</ele><time>2026-04-18T08:12:33Z</time></trkpt><trkpt lat="43.53409661341521" lon="10.833829222664038"><ele>172.0</ele><time>2026-04-18T08:12:34Z</time></trkpt><trkpt lat="43.53400725474652" lon="10.833773927792935"><ele>172.0</ele><time>2026-04-18T08:12:35Z</time></trkpt><trkpt lat="43.5339126909503" lon="10.833687413811"><ele>172.0</ele><time>2026-04-18T08:12:36Z</time></trkpt><trkpt lat="43.53384435869359" lon="10.833572110633375"><ele>172.0</ele><time>2026-04-18T08:12:37Z</time></trkpt><trkpt lat="43.53378042151877" lon="10.833464003125332"><ele>172.0</ele><time>2026-04-18T08:12:38Z</time></trkpt><trkpt lat="43.53373753275242" lon="10.83335431281457"><ele>171.39999999999998</ele><time>2026-04-18T08:12:39Z</time></trkpt><trkpt lat="43.53366461633016" lon="10.833245238465791"><ele>170.79999999999998</ele><time>2026-04-18T08:12:40Z</time></trkpt><trkpt lat="43.53357982441114" lon="10.833139808052216"><ele>170.2</ele><time>2026-04-18T08:12:41Z</time></trkpt><trkpt lat="43.53352156345089" lon="10.833005821660503"><ele>169.6</ele><time>2026-04-18T08:12:42Z</time></trkpt><trkpt lat="43.53346754516561" lon="10.832873904189634"><ele>169.0</ele><time>2026-04-18T08:12:43Z</time></trkpt><trkpt lat="43.53342025934015" lon="10.832744742152505"><ele>169.2</ele><time>2026-04-18T08:12:44Z</time></trkpt><trkpt lat="43.533358471526256" lon="10.832631866008558"><ele>169.39999999999998</ele><time>2026-04-18T08:12:45Z</time></trkpt><trkpt lat="43.53330515871577" lon="10.832504652630332"><ele>169.6</ele><time>2026-04-18T08:12:46Z</time></trkpt><trkpt lat="43.53325962876093" lon="10.832389790071568"><ele>169.8</ele><time>2026-04-18T08:12:47Z</time></trkpt><trkpt lat="43.533187788462484" lon="10.83230194818718"><ele>170.0</ele><time>2026-04-18T08:12:48Z</time></trkpt><trkpt lat="43.53311956226794" lon="10.832216641623017"><ele>170.0</ele><time>2026-04-18T08:12:49Z</time></trkpt><trkpt lat="43.53304720820949" lon="10.832117926266534"><ele>170.0</ele><time>2026-04-18T08:12:50Z</time></trkpt><trkpt lat="43.53298370281187" lon="10.831999468135944"><ele>170.0</ele><time>2026-04-18T08:12:51Z</time></trkpt><trkpt lat="43.53292208129203" lon="10.83189189219734"><ele>170.0</ele><time>2026-04-18T08:12:52Z</time></trkpt><trkpt lat="43.53286430889917" lon="10.831770132075246"><ele>170.0</ele><time>2026-04-18T08:12:53Z</time></trkpt><trkpt lat="43.53281330346919" lon="10.831641062046808"><ele>170.0</ele><time>2026-04-18T08:12:54Z</time></trkpt><trkpt lat="43.53275967577908" lon="10.831505937127817"><ele>170.0</ele><time>2026-04-18T08:12:55Z</time></trkpt><trkpt lat="43.53269317183284" lon="10.831413819588285"><ele>170.0</ele><time>2026-04-18T08:12:56Z</time></trkpt><trkpt lat="43.53264506790669" lon="10.831326041849128"><ele>170.0</ele><time>2026-04-18T08:12:57Z</time></trkpt><trkpt lat="43.53258885498728" lon="10.83124214519187"><ele>170.0</ele><time>2026-04-18T08:12:58Z</time></trkpt><trkpt lat="43.5325247188902" lon="10.831161261002674"><ele>170.0</ele><time>2026-04-18T08:12:59Z</time></trkpt><trkpt lat="43.53244507780942" lon="10.83108057896797"><ele>170.0</ele><time>2026-04-18T08:13:00Z</time></trkpt><trkpt lat="43.53236181925734" lon="10.831009415001226"><ele>170.0</ele><time>2026-04-18T08:13:01Z</time></trkpt><trkpt lat="43.53226875084317" lon="10.830945281554722"><ele>170.0</ele><time>2026-04-18T08:13:02Z</time></trkpt><trkpt lat="43.53217325185355" lon="10.830892100526304"><ele>170.0</ele><time>2026-04-18T08:13:03Z</time></trkpt><trkpt lat="43.53207554938648" lon="10.830836490245407"><ele>172.75</ele><time>2026-04-18T08:13:04Z</time></trkpt><trkpt lat="43.531966867744366" lon="10.830783190714673"><ele>175.5</ele><time>2026-04-18T08:13:04.999Z</time></trkpt><trkpt lat="43.53185544141307" lon="10.830752470987981"><ele>178.25</ele><time>2026-04-18T08:13:05.999Z</time></trkpt><trkpt lat="43.53174179773172" lon="10.830677497379185"><ele>181.0</ele><time>2026-04-18T08:13:06.999Z</time></trkpt><trkpt lat="43.53163093634464" lon="10.83062895290552"><ele>181.0</ele><time>2026-04-18T08:13:07.999Z</time></trkpt><trkpt lat="43.53152721040798" lon="10.830573315974934"><ele>181.0</ele><time>2026-04-18T08:13:08.999Z</time></trkpt><trkpt lat="43.531433814255315" lon="10.830521785571014"><ele>181.0</ele><time>2026-04-18T08:13:09.999Z</time></trkpt><trkpt lat="43.53134968035472" lon="10.830483450569828"><ele>181.0</ele><time>2026-04-18T08:13:10.999Z</time></trkpt><trkpt lat="43.531285608977775" lon="10.830444709884747"><ele>181.0</ele><time>2026-04-18T08:13:11.999Z</time></trkpt><trkpt lat="43.53121212783568" lon="10.830402145470602"><ele>180.4</ele><time>2026-04-18T08:13:12.999Z</time></trkpt><trkpt lat="43.53114362895608" lon="10.83033970738757"><ele>179.8</ele><time>2026-04-18T08:13:13.999Z</time></trkpt><trkpt lat="43.53108677661899" lon="10.830270897988829"><ele>179.20000000000002</ele><time>2026-04-18T08:13:14.999Z</time></trkpt><trkpt lat="43.53106537278171" lon="10.830175238212107"><ele>178.60000000000002</ele><time>2026-04-18T08:13:15.999Z</time></trkpt><trkpt lat="43.53102337342558" lon="10.830008344549157"><ele>178.0</ele><time>2026-04-18T08:13:17.999Z</time></trkpt><trkpt lat="43.53099688656417" lon="10.829836947619766"><ele>177.99999999999997</ele><time>2026-04-18T08:13:19.999Z</time></trkpt><trkpt lat="43.53098512832905" lon="10.829734120621845"><ele>178.0</ele><time>2026-04-18T08:13:20.999Z</time></trkpt><trkpt lat="43.53097510199762" lon="10.829631448002843"><ele>178.0</ele><time>2026-04-18T08:13:21.999Z</time></trkpt><trkpt lat="43.53095234835654" lon="10.829533272316901"><ele>178.0</ele><time>2026-04-18T08:13:22.999Z</time></trkpt><trkpt lat="43.53095692923411" lon="10.829429519724274"><ele>178.0</ele><time>2026-04-18T08:13:23.999Z</time></trkpt><trkpt lat="43.530946054165476" lon="10.829330143978256"><ele>177.99999999999997</ele><time>2026-04-18T08:13:24.999Z</time></trkpt><trkpt lat="43.530918244831376" lon="10.829241039838038"><ele>178.0</ele><time>2026-04-18T08:13:25.999Z</time></trkpt><trkpt lat="43.5308847315149" lon="10.829080493336836"><ele>177.60000000000002</ele><time>2026-04-18T08:13:27.999Z</time></trkpt><trkpt lat="43.530822011541055" lon="10.82893018426838"><ele>177.20000000000002</ele><time>2026-04-18T08:13:29.999Z</time></trkpt><trkpt lat="43.5307486726643" lon="10.828783656227673"><ele>176.8</ele><time>2026-04-18T08:13:31.999Z</time></trkpt><trkpt lat="43.53070198542438" lon="10.828687304027842"><ele>176.4</ele><time>2026-04-18T08:13:32.999Z</time></trkpt><trkpt lat="43.53063869955439" lon="10.828590536815513"><ele>176.0</ele><time>2026-04-18T08:13:33.999Z</time></trkpt><trkpt lat="43.53057492652122" lon="10.828491858604638"><ele>175.33333333333331</ele><time>2026-04-18T08:13:34.999Z</time></trkpt><trkpt lat="43.53050359719827" lon="10.82840164550322"><ele>174.66666666666666</ele><time>2026-04-18T08:13:35.999Z</time></trkpt><trkpt lat="43.53044030262713" lon="10.828310629149179"><ele>174.0</ele><time>2026-04-18T08:13:36.999Z</time></trkpt><trkpt lat="43.530379911120924" lon="10.828225358180367"><ele>173.33333333333334</ele><time>2026-04-18T08:13:37.999Z</time></trkpt><trkpt lat="43.530314891820154" lon="10.828151266777683"><ele>172.66666666666669</ele><time>2026-04-18T08:13:38.999Z</time></trkpt><trkpt lat="43.530259916808" lon="10.828093081025084"><ele>172.0</ele><time>2026-04-18T08:13:39.999Z</time></trkpt><trkpt lat="43.5302108139163" lon="10.828025386982695"><ele>171.33333333333334</ele><time>2026-04-18T08:13:40.999Z</time></trkpt><trkpt lat="43.53016159089256" lon="10.827949803373697"><ele>170.66666666666669</ele><time>2026-04-18T08:13:41.999Z</time></trkpt><trkpt lat="43.53010189729843" lon="10.827859813580986"><ele>170.0</ele><time>2026-04-18T08:13:43.999Z</time></trkpt><trkpt lat="43.530047753745976" lon="10.827806939802242"><ele>169.33333333333334</ele><time>2026-04-18T08:13:46.999Z</time></trkpt><trkpt lat="43.530001603952364" lon="10.827731598009658"><ele>168.66666666666666</ele><time>2026-04-18T08:13:50.999Z</time></trkpt><trkpt lat="43.52996116954722" lon="10.827656392960877"><ele>168.0</ele><time>2026-04-18T08:13:54Z</time></trkpt><trkpt lat="43.529909833600094" lon="10.827564504941773"><ele>168.0</ele><time>2026-04-18T08:13:58Z</time></trkpt><trkpt lat="43.52985800183224" lon="10.82746239220723"><ele>168.0</ele><time>2026-04-18T08:14:01Z</time></trkpt><trkpt lat="43.52982758752816" lon="10.827362204123816"><ele>168.0</ele><time>2026-04-18T08:14:04Z</time></trkpt><trkpt lat="43.52977411272529" lon="10.82727238711098"><ele>168.0</ele><time>2026-04-18T08:14:07Z</time></trkpt><trkpt lat="43.529737965654846" lon="10.827201139206377"><ele>168.0</ele><time>2026-04-18T08:14:09Z</time></trkpt><trkpt lat="43.52969032326142" lon="10.827114191446237"><ele>168.0</ele><time>2026-04-18T08:14:12Z</time></trkpt><trkpt lat="43.52964856635655" lon="10.82704110852517"><ele>168.0</ele><time>2026-04-18T08:14:14Z</time></trkpt><trkpt lat="43.529587149655974" lon="10.826950629545614"><ele>168.0</ele><time>2026-04-18T08:14:16Z</time></trkpt><trkpt lat="43.5295393052453" lon="10.826884356526193"><ele>168.0</ele><time>2026-04-18T08:14:19Z</time></trkpt><trkpt lat="43.52949667894252" lon="10.826819925794334"><ele>168.0</ele><time>2026-04-18T08:14:23Z</time></trkpt><trkpt lat="43.529432765240095" lon="10.826669031220423"><ele>168.0</ele><time>2026-04-18T08:14:25Z</time></trkpt><trkpt lat="43.52939461734254" lon="10.826593968385405"><ele>168.0</ele><time>2026-04-18T08:14:26Z</time></trkpt><trkpt lat="43.5293464192661" lon="10.826535124027776"><ele>166.14285714285714</ele><time>2026-04-18T08:14:27Z</time></trkpt><trkpt lat="43.5293220806647" lon="10.826453073644892"><ele>164.28571428571428</ele><time>2026-04-18T08:14:28Z</time></trkpt><trkpt lat="43.529268851761536" lon="10.826388511234887"><ele>162.42857142857144</ele><time>2026-04-18T08:14:29Z</time></trkpt><trkpt lat="43.52922987894319" lon="10.826308163631834"><ele>160.57142857142856</ele><time>2026-04-18T08:14:30Z</time></trkpt><trkpt lat="43.52920311722727" lon="10.826221882025926"><ele>158.71428571428572</ele><time>2026-04-18T08:14:31Z</time></trkpt><trkpt lat="43.529149378401875" lon="10.826158695776629"><ele>156.85714285714286</ele><time>2026-04-18T08:14:32Z</time></trkpt><trkpt lat="43.52909821522988" lon="10.826058897273091"><ele>155.0</ele><time>2026-04-18T08:14:33Z</time></trkpt><trkpt lat="43.52905429699618" lon="10.825940539187108"><ele>152.6</ele><time>2026-04-18T08:14:34Z</time></trkpt><trkpt lat="43.5290128372541" lon="10.825837806791457"><ele>150.2</ele><time>2026-04-18T08:14:35Z</time></trkpt><trkpt lat="43.52896954641881" lon="10.825719972486244"><ele>147.8</ele><time>2026-04-18T08:14:36Z</time></trkpt><trkpt lat="43.52892991250183" lon="10.825598369950287"><ele>145.4</ele><time>2026-04-18T08:14:37Z</time></trkpt><trkpt lat="43.528896108121785" lon="10.825483503624481"><ele>143.0</ele><time>2026-04-18T08:14:38Z</time></trkpt><trkpt lat="43.5288679315454" lon="10.825374232007922"><ele>143.0</ele><time>2026-04-18T08:14:39Z</time></trkpt><trkpt lat="43.5288418212394" lon="10.825260487820076"><ele>143.0</ele><time>2026-04-18T08:14:40Z</time></trkpt><trkpt lat="43.52881725215133" lon="10.825147401514227"><ele>143.0</ele><time>2026-04-18T08:14:41Z</time></trkpt><trkpt lat="43.528795575443965" lon="10.82504762823318"><ele>143.0</ele><time>2026-04-18T08:14:42Z</time></trkpt><trkpt lat="43.5287597751556" lon="10.824949503751263"><ele>143.0</ele><time>2026-04-18T08:14:43Z</time></trkpt><trkpt lat="43.52874068948361" lon="10.824849792741437"><ele>143.0</ele><time>2026-04-18T08:14:44Z</time></trkpt><trkpt lat="43.52872247247359" lon="10.824755701255617"><ele>142.0</ele><time>2026-04-18T08:14:45Z</time></trkpt><trkpt lat="43.52871760484597" lon="10.824660163453983"><ele>141.0</ele><time>2026-04-18T08:14:46Z</time></trkpt><trkpt lat="43.528670064170996" lon="10.824514086392961"><ele>140.0</ele><time>2026-04-18T08:14:48Z</time></trkpt><trkpt lat="43.528643693465185" lon="10.824397754963352"><ele>139.0</ele><time>2026-04-18T08:14:50Z</time></trkpt><trkpt lat="43.52862943829908" lon="10.824286840693226"><ele>138.0</ele><time>2026-04-18T08:14:52Z</time></trkpt><trkpt lat="43.528579506927215" lon="10.824180495962292"><ele>137.0</ele><time>2026-04-18T08:14:54Z</time></trkpt><trkpt lat="43.528552489664584" lon="10.824041555413816"><ele>136.83333333333331</ele><time>2026-04-18T08:14:56Z</time></trkpt><trkpt lat="43.528492109054596" lon="10.823911979030617"><ele>136.66666666666666</ele><time>2026-04-18T08:14:58Z</time></trkpt><trkpt lat="43.52844961519647" lon="10.823750852477211"><ele>136.5</ele><time>2026-04-18T08:15:00Z</time></trkpt><trkpt lat="43.528408691465295" lon="10.82368041202026"><ele>136.33333333333334</ele><time>2026-04-18T08:15:01Z</time></trkpt><trkpt lat="43.52838195143393" lon="10.8235963127937"><ele>136.16666666666669</ele><time>2026-04-18T08:15:02Z</time></trkpt><trkpt lat="43.52834069649231" lon="10.82351653939913"><ele>136.0</ele><time>2026-04-18T08:15:03Z</time></trkpt><trkpt lat="43.52829697522583" lon="10.823422737244591"><ele>134.83333333333334</ele><time>2026-04-18T08:15:04Z</time></trkpt><trkpt lat="43.52824995104047" lon="10.823325075657253"><ele>133.66666666666669</ele><time>2026-04-18T08:15:05Z</time></trkpt><trkpt lat="43.528207238509836" lon="10.823204819396507"><ele>132.5</ele><time>2026-04-18T08:15:06Z</time></trkpt><trkpt lat="43.5281600393265" lon="10.823103215847265"><ele>131.33333333333334</ele><time>2026-04-18T08:15:07Z</time></trkpt><trkpt lat="43.52811894921407" lon="10.823009317676476"><ele>130.16666666666666</ele><time>2026-04-18T08:15:08Z</time></trkpt><trkpt lat="43.528080281694976" lon="10.822920778628934"><ele>129.0</ele><time>2026-04-18T08:15:08.999Z</time></trkpt><trkpt lat="43.528038387371794" lon="10.822835448817598"><ele>129.0</ele><time>2026-04-18T08:15:09.999Z</time></trkpt><trkpt lat="43.52800247673991" lon="10.822753002378626"><ele>129.0</ele><time>2026-04-18T08:15:10.999Z</time></trkpt><trkpt lat="43.52794727502697" lon="10.822606168802748"><ele>129.0</ele><time>2026-04-18T08:15:12.999Z</time></trkpt><trkpt lat="43.52789033655533" lon="10.822518901183487"><ele>129.0</ele><time>2026-04-18T08:15:13.999Z</time></trkpt><trkpt lat="43.52787223759383" lon="10.822422772536841"><ele>129.0</ele><time>2026-04-18T08:15:14.999Z</time></trkpt><trkpt lat="43.52786200576703" lon="10.822290339931845"><ele>129.0</ele><time>2026-04-18T08:15:16.999Z</time></trkpt><trkpt lat="43.527928127266115" lon="10.822177475857632"><ele>127.2</ele><time>2026-04-18T08:15:34.999Z</time></trkpt><trkpt lat="43.527965746726814" lon="10.822105748922393"><ele>125.4</ele><time>2026-04-18T08:15:35.999Z</time></trkpt><trkpt lat="43.52800040609293" lon="10.82201220260398"><ele>123.6</ele><time>2026-04-18T08:15:36.999Z</time></trkpt><trkpt lat="43.528028569671555" lon="10.821884804208679"><ele>121.8</ele><time>2026-04-18T08:15:37.999Z</time></trkpt><trkpt lat="43.5280355453568" lon="10.821735066117517"><ele>120.0</ele><time>2026-04-18T08:15:38.999Z</time></trkpt><trkpt lat="43.528023555335515" lon="10.82158283447549"><ele>118.0</ele><time>2026-04-18T08:15:39.999Z</time></trkpt><trkpt lat="43.52800874760453" lon="10.82144130106755"><ele>116.0</ele><time>2026-04-18T08:15:40.999Z</time></trkpt><trkpt lat="43.52798883880132" lon="10.821287380854603"><ele>114.0</ele><time>2026-04-18T08:15:41.999Z</time></trkpt><trkpt lat="43.52796697499539" lon="10.82112666738201"><ele>112.0</ele><time>2026-04-18T08:15:42.999Z</time></trkpt><trkpt lat="43.52794308810564" lon="10.820963145351675"><ele>111.66666666666667</ele><time>2026-04-18T08:15:43.999Z</time></trkpt><trkpt lat="43.52790618239921" lon="10.820825622653159"><ele>111.33333333333334</ele><time>2026-04-18T08:15:44.999Z</time></trkpt><trkpt lat="43.52789997808102" lon="10.820692401692297"><ele>111.0</ele><time>2026-04-18T08:15:45.999Z</time></trkpt><trkpt lat="43.527876662860585" lon="10.820595883236525"><ele>110.66666666666666</ele><time>2026-04-18T08:15:46.999Z</time></trkpt><trkpt lat="43.52783555700996" lon="10.820522065134826"><ele>110.33333333333333</ele><time>2026-04-18T08:15:47.999Z</time></trkpt><trkpt lat="43.52777404429452" lon="10.820486351901954"><ele>110.0</ele><time>2026-04-18T08:15:48.999Z</time></trkpt><trkpt lat="43.527660592895714" lon="10.820418644278472"><ele>110.0</ele><time>2026-04-18T08:15:50.999Z</time></trkpt><trkpt lat="43.52757751139585" lon="10.82039985442166"><ele>110.0</ele><time>2026-04-18T08:15:51.999Z</time></trkpt><trkpt lat="43.52749002356126" lon="10.820378887455105"><ele>110.0</ele><time>2026-04-18T08:15:52.999Z</time></trkpt><trkpt lat="43.527395866592784" lon="10.82036191687255"><ele>110.0</ele><time>2026-04-18T08:15:53.999Z</time></trkpt><trkpt lat="43.527300602338435" lon="10.820333327554819"><ele>110.0</ele><time>2026-04-18T08:15:54.999Z</time></trkpt><trkpt lat="43.527199528637524" lon="10.820281141602264"><ele>110.0</ele><time>2026-04-18T08:15:55.999Z</time></trkpt><trkpt lat="43.527088664068536" lon="10.820222042979855"><ele>110.0</ele><time>2026-04-18T08:15:56.999Z</time></trkpt><trkpt lat="43.527016211339145" lon="10.820099753481806"><ele>110.0</ele><time>2026-04-18T08:15:57.999Z</time></trkpt><trkpt lat="43.52700002334474" lon="10.819947210038515"><ele>110.0</ele><time>2026-04-18T08:15:58.999Z</time></trkpt><trkpt lat="43.52703206440691" lon="10.819862158288595"><ele>110.0</ele><time>2026-04-18T08:16:01Z</time></trkpt><trkpt lat="43.527038798942485" lon="10.819722012780678"><ele>107.5</ele><time>2026-04-18T08:16:02Z</time></trkpt><trkpt lat="43.527033980505756" lon="10.819558177110162"><ele>105.0</ele><time>2026-04-18T08:16:03Z</time></trkpt><trkpt lat="43.52706107495063" lon="10.819388844623795"><ele>102.5</ele><time>2026-04-18T08:16:04Z</time></trkpt><trkpt lat="43.52705048338481" lon="10.819233892233628"><ele>100.0</ele><time>2026-04-18T08:16:05Z</time></trkpt><trkpt lat="43.52703954215693" lon="10.819093527371361"><ele>97.8</ele><time>2026-04-18T08:16:06Z</time></trkpt><trkpt lat="43.52701354207435" lon="10.818964889896105"><ele>95.6</ele><time>2026-04-18T08:16:07Z</time></trkpt><trkpt lat="43.52696559662631" lon="10.818849630608852"><ele>93.4</ele><time>2026-04-18T08:16:08Z</time></trkpt><trkpt lat="43.52690858713005" lon="10.818739333166786"><ele>91.2</ele><time>2026-04-18T08:16:09Z</time></trkpt><trkpt lat="43.52684998097333" lon="10.818645983461625"><ele>89.0</ele><time>2026-04-18T08:16:10Z</time></trkpt><trkpt lat="43.52680062919423" lon="10.818577841237667"><ele>89.0</ele><time>2026-04-18T08:16:11Z</time></trkpt><trkpt lat="43.52685455278984" lon="10.81844297591104"><ele>89.0</ele><time>2026-04-18T08:16:18Z</time></trkpt><trkpt lat="43.52691885810334" lon="10.818351190831388"><ele>89.0</ele><time>2026-04-18T08:16:19Z</time></trkpt><trkpt lat="43.52698527327318" lon="10.81822999990759"><ele>89.0</ele><time>2026-04-18T08:16:20Z</time></trkpt><trkpt lat="43.527063344990836" lon="10.818098976590973"><ele>89.0</ele><time>2026-04-18T08:16:21Z</time></trkpt><trkpt lat="43.52714073077858" lon="10.817947248189519"><ele>87.75</ele><time>2026-04-18T08:16:22Z</time></trkpt><trkpt lat="43.52720681638899" lon="10.817792905797237"><ele>86.5</ele><time>2026-04-18T08:16:23Z</time></trkpt><trkpt lat="43.527273997767956" lon="10.817662662150582"><ele>85.25</ele><time>2026-04-18T08:16:24Z</time></trkpt><trkpt lat="43.52733301334194" lon="10.817551897983243"><ele>84.0</ele><time>2026-04-18T08:16:25Z</time></trkpt><trkpt lat="43.52742236620734" lon="10.817463555364549"><ele>84.0</ele><time>2026-04-18T08:16:26Z</time></trkpt><trkpt lat="43.52750710252409" lon="10.817384973584886"><ele>84.0</ele><time>2026-04-18T08:16:27Z</time></trkpt><trkpt lat="43.52759864723951" lon="10.817320649315034"><ele>84.0</ele><time>2026-04-18T08:16:28Z</time></trkpt><trkpt lat="43.52769216561839" lon="10.81723870187829"><ele>84.0</ele><time>2026-04-18T08:16:29Z</time></trkpt><trkpt lat="43.52774904777619" lon="10.81713357622786"><ele>84.0</ele><time>2026-04-18T08:16:30Z</time></trkpt><trkpt lat="43.527794364393856" lon="10.817028082704146"><ele>84.0</ele><time>2026-04-18T08:16:31Z</time></trkpt><trkpt lat="43.52782588352447" lon="10.816901092819787"><ele>84.0</ele><time>2026-04-18T08:16:32Z</time></trkpt><trkpt lat="43.52785164865332" lon="10.816775926003048"><ele>84.0</ele><time>2026-04-18T08:16:33Z</time></trkpt><trkpt lat="43.52787811822032" lon="10.816680014360324"><ele>84.0</ele><time>2026-04-18T08:16:34Z</time></trkpt><trkpt lat="43.52792565053159" lon="10.816544982692843"><ele>84.0</ele><time>2026-04-18T08:16:36Z</time></trkpt><trkpt lat="43.527963903406274" lon="10.816465516318688"><ele>84.0</ele><time>2026-04-18T08:16:38Z</time></trkpt><trkpt lat="43.527991264745815" lon="10.816375101465338"><ele>85.0</ele><time>2026-04-18T08:17:05Z</time></trkpt><trkpt lat="43.52801850158598" lon="10.816286681899298"><ele>86.0</ele><time>2026-04-18T08:17:06Z</time></trkpt><trkpt lat="43.52805043715108" lon="10.816197085775938"><ele>87.0</ele><time>2026-04-18T08:17:07Z</time></trkpt><trkpt lat="43.52810968822079" lon="10.81612212000352"><ele>88.0</ele><time>2026-04-18T08:17:08Z</time></trkpt><trkpt lat="43.52817144940751" lon="10.81604082022259"><ele>89.0</ele><time>2026-04-18T08:17:09Z</time></trkpt><trkpt lat="43.528230835845825" lon="10.815976429525072"><ele>90.0</ele><time>2026-04-18T08:17:10Z</time></trkpt><trkpt lat="43.52830904441275" lon="10.816009048603227"><ele>90.0</ele><time>2026-04-18T08:17:11Z</time></trkpt><trkpt lat="43.52839181438848" lon="10.816024777459917"><ele>90.0</ele><time>2026-04-18T08:17:12Z</time></trkpt><trkpt lat="43.52848986968301" lon="10.81605726760907"><ele>90.0</ele><time>2026-04-18T08:17:13Z</time></trkpt><trkpt lat="43.528597680710746" lon="10.816083571081393"><ele>90.0</ele><time>2026-04-18T08:17:13.999Z</time></trkpt><trkpt lat="43.5287109837269" lon="10.816114439106226"><ele>90.0</ele><time>2026-04-18T08:17:14.999Z</time></trkpt><trkpt lat="43.52881462304848" lon="10.816120994817778"><ele>91.8</ele><time>2026-04-18T08:17:15.999Z</time></trkpt><trkpt lat="43.52890491636241" lon="10.816128465150209"><ele>93.6</ele><time>2026-04-18T08:17:16.999Z</time></trkpt><trkpt lat="43.52900818058159" lon="10.81610333640197"><ele>95.4</ele><time>2026-04-18T08:17:17.999Z</time></trkpt><trkpt lat="43.529099765069255" lon="10.81606006057204"><ele>97.2</ele><time>2026-04-18T08:17:18.999Z</time></trkpt><trkpt lat="43.529174053891495" lon="10.81600897348778"><ele>99.0</ele><time>2026-04-18T08:17:19.999Z</time></trkpt><trkpt lat="43.529244724739506" lon="10.81596513917204"><ele>102.16666666666667</ele><time>2026-04-18T08:17:20.999Z</time></trkpt><trkpt lat="43.52932448033391" lon="10.815916638642243"><ele>105.33333333333334</ele><time>2026-04-18T08:17:21.999Z</time></trkpt><trkpt lat="43.52940239382911" lon="10.81587600876161"><ele>108.5</ele><time>2026-04-18T08:17:22.999Z</time></trkpt><trkpt lat="43.52948310265078" lon="10.815848277701157"><ele>111.66666666666667</ele><time>2026-04-18T08:17:23.999Z</time></trkpt><trkpt lat="43.529554738066125" lon="10.815837556151983"><ele>114.83333333333334</ele><time>2026-04-18T08:17:24.999Z</time></trkpt><trkpt lat="43.529626328349686" lon="10.815808712336887"><ele>118.0</ele><time>2026-04-18T08:17:25.999Z</time></trkpt><trkpt lat="43.529698427795125" lon="10.815774674228475"><ele>119.00000000000001</ele><time>2026-04-18T08:17:26.999Z</time></trkpt><trkpt lat="43.5297780146375" lon="10.81575637569607"><ele>120.0</ele><time>2026-04-18T08:17:27.999Z</time></trkpt><trkpt lat="43.52986399463839" lon="10.81575933326742"><ele>121.0</ele><time>2026-04-18T08:17:28.999Z</time></trkpt><trkpt lat="43.52995242436444" lon="10.815741092817664"><ele>122.0</ele><time>2026-04-18T08:17:29.999Z</time></trkpt><trkpt lat="43.530028320962195" lon="10.815708370401167"><ele>123.00000000000001</ele><time>2026-04-18T08:17:30.999Z</time></trkpt><trkpt lat="43.53010681884216" lon="10.815696289558945"><ele>124.0</ele><time>2026-04-18T08:17:31.999Z</time></trkpt><trkpt lat="43.53018817051447" lon="10.81568639194301"><ele>124.00000000000001</ele><time>2026-04-18T08:17:32.999Z</time></trkpt><trkpt lat="43.53026715622948" lon="10.81567550774969"><ele>124.0</ele><time>2026-04-18T08:17:33.999Z</time></trkpt><trkpt lat="43.53035170694132" lon="10.815659152206871"><ele>124.0</ele><time>2026-04-18T08:17:34.999Z</time></trkpt><trkpt lat="43.530438424518024" lon="10.815646116696914"><ele>124.0</ele><time>2026-04-18T08:17:35.999Z</time></trkpt><trkpt lat="43.530522501987214" lon="10.815619757885825"><ele>124.00000000000001</ele><time>2026-04-18T08:17:36.999Z</time></trkpt><trkpt lat="43.53060929414567" lon="10.815599567992134"><ele>124.0</ele><time>2026-04-18T08:17:37.999Z</time></trkpt><trkpt lat="43.530707223493756" lon="10.815577946092196"><ele>124.6</ele><time>2026-04-18T08:17:38.999Z</time></trkpt><trkpt lat="43.53080799385546" lon="10.815609498930023"><ele>125.2</ele><time>2026-04-18T08:17:39.999Z</time></trkpt><trkpt lat="43.53090788494859" lon="10.815645656305104"><ele>125.79999999999998</ele><time>2026-04-18T08:17:40.999Z</time></trkpt><trkpt lat="43.53101318812599" lon="10.815690110663853"><ele>126.39999999999999</ele><time>2026-04-18T08:17:41.999Z</time></trkpt><trkpt lat="43.53112058643124" lon="10.815735891310908"><ele>127.0</ele><time>2026-04-18T08:17:42.999Z</time></trkpt><trkpt lat="43.53123515773185" lon="10.81575905847545"><ele>128.0</ele><time>2026-04-18T08:17:43.999Z</time></trkpt><trkpt lat="43.53133587383284" lon="10.815803502595285"><ele>129.0</ele><time>2026-04-18T08:17:44.999Z</time></trkpt><trkpt lat="43.53142315920699" lon="10.81584102883376"><ele>130.0</ele><time>2026-04-18T08:17:45.999Z</time></trkpt><trkpt lat="43.531508203776575" lon="10.815842430472314"><ele>131.0</ele><time>2026-04-18T08:17:46.999Z</time></trkpt><trkpt lat="43.53160232022903" lon="10.815838147166136"><ele>132.0</ele><time>2026-04-18T08:17:47.999Z</time></trkpt><trkpt lat="43.5317007004738" lon="10.815834424429067"><ele>132.0</ele><time>2026-04-18T08:17:48.999Z</time></trkpt><trkpt lat="43.5317994596145" lon="10.81586329886603"><ele>132.0</ele><time>2026-04-18T08:17:49.999Z</time></trkpt><trkpt lat="43.53188288826464" lon="10.81588752353381"><ele>132.0</ele><time>2026-04-18T08:17:50.999Z</time></trkpt><trkpt lat="43.531964938358996" lon="10.815920682871303"><ele>132.0</ele><time>2026-04-18T08:17:51.999Z</time></trkpt><trkpt lat="43.532041499440474" lon="10.815965630655564"><ele>132.0</ele><time>2026-04-18T08:17:52.999Z</time></trkpt><trkpt lat="43.53211796565933" lon="10.81602551739558"><ele>132.0</ele><time>2026-04-18T08:17:53.999Z</time></trkpt><trkpt lat="43.53220122832398" lon="10.816094116765566"><ele>133.2</ele><time>2026-04-18T08:17:54.999Z</time></trkpt><trkpt lat="43.53228863055458" lon="10.816171416985068"><ele>134.39999999999998</ele><time>2026-04-18T08:17:55.999Z</time></trkpt><trkpt lat="43.5323837080063" lon="10.816227108538445"><ele>135.60000000000002</ele><time>2026-04-18T08:17:56.999Z</time></trkpt><trkpt lat="43.532460305665836" lon="10.816294403997096"><ele>136.8</ele><time>2026-04-18T08:17:57.999Z</time></trkpt><trkpt lat="43.532549304045205" lon="10.816357822912863"><ele>138.0</ele><time>2026-04-18T08:17:58.999Z</time></trkpt><trkpt lat="43.53265373807488" lon="10.816384100610865"><ele>138.0</ele><time>2026-04-18T08:17:59.999Z</time></trkpt><trkpt lat="43.53275888408193" lon="10.816424784500507"><ele>138.0</ele><time>2026-04-18T08:18:00.999Z</time></trkpt><trkpt lat="43.53286679075706" lon="10.816459900082984"><ele>138.0</ele><time>2026-04-18T08:18:01.999Z</time></trkpt><trkpt lat="43.532969543588806" lon="10.81652497662828"><ele>138.0</ele><time>2026-04-18T08:18:02.999Z</time></trkpt><trkpt lat="43.5330906341449" lon="10.816551397997797"><ele>137.8</ele><time>2026-04-18T08:18:03.999Z</time></trkpt><trkpt lat="43.533203276382075" lon="10.816602110942634"><ele>137.60000000000002</ele><time>2026-04-18T08:18:04.999Z</time></trkpt><trkpt lat="43.533300372397136" lon="10.816650138925315"><ele>137.39999999999998</ele><time>2026-04-18T08:18:06Z</time></trkpt><trkpt lat="43.533385780878824" lon="10.816688084155512"><ele>137.2</ele><time>2026-04-18T08:18:07Z</time></trkpt><trkpt lat="43.53346474591334" lon="10.816758649391543"><ele>137.0</ele><time>2026-04-18T08:18:08Z</time></trkpt><trkpt lat="43.53356124047501" lon="10.816794536405249"><ele>137.0</ele><time>2026-04-18T08:18:09Z</time></trkpt><trkpt lat="43.53366427195992" lon="10.816786210024048"><ele>137.0</ele><time>2026-04-18T08:18:10Z</time></trkpt><trkpt lat="43.53375783341562" lon="10.816733961219903"><ele>137.0</ele><time>2026-04-18T08:18:11Z</time></trkpt><trkpt lat="43.53385892130329" lon="10.816689778845255"><ele>137.0</ele><time>2026-04-18T08:18:12Z</time></trkpt><trkpt lat="43.53396275136369" lon="10.81665302545968"><ele>137.0</ele><time>2026-04-18T08:18:13Z</time></trkpt><trkpt lat="43.53407069840047" lon="10.81666781369154"><ele>138.2</ele><time>2026-04-18T08:18:14Z</time></trkpt><trkpt lat="43.534177837006084" lon="10.81666718571717"><ele>139.39999999999998</ele><time>2026-04-18T08:18:15Z</time></trkpt><trkpt lat="43.53428160848507" lon="10.816670893232168"><ele>140.60000000000002</ele><time>2026-04-18T08:18:16Z</time></trkpt><trkpt lat="43.53438431346403" lon="10.816677998961971"><ele>141.8</ele><time>2026-04-18T08:18:17Z</time></trkpt><trkpt lat="43.53448327291754" lon="10.816686427768559"><ele>143.0</ele><time>2026-04-18T08:18:18Z</time></trkpt><trkpt lat="43.53457447604317" lon="10.81669741906172"><ele>144.8</ele><time>2026-04-18T08:18:19Z</time></trkpt><trkpt lat="43.53467198973885" lon="10.816711253059086"><ele>146.60000000000002</ele><time>2026-04-18T08:18:20Z</time></trkpt><trkpt lat="43.53476249387676" lon="10.816724092626398"><ele>148.39999999999998</ele><time>2026-04-18T08:18:21Z</time></trkpt><trkpt lat="43.53485935309433" lon="10.816718011368085"><ele>150.2</ele><time>2026-04-18T08:18:22Z</time></trkpt><trkpt lat="43.53495129110061" lon="10.816728033876412"><ele>152.0</ele><time>2026-04-18T08:18:23Z</time></trkpt><trkpt lat="43.53504184455049" lon="10.816706981352068"><ele>152.0</ele><time>2026-04-18T08:18:24Z</time></trkpt><trkpt lat="43.535119881259966" lon="10.816652051646397"><ele>152.0</ele><time>2026-04-18T08:18:25Z</time></trkpt><trkpt lat="43.53525566917683" lon="10.816528485614054"><ele>152.0</ele><time>2026-04-18T08:18:27Z</time></trkpt><trkpt lat="43.53531964663663" lon="10.81649755784571"><ele>152.0</ele><time>2026-04-18T08:18:28Z</time></trkpt><trkpt lat="43.53537581173855" lon="10.816448585802894"><ele>152.0</ele><time>2026-04-18T08:18:29Z</time></trkpt><trkpt lat="43.53541840901285" lon="10.81638368243903"><ele>152.0</ele><time>2026-04-18T08:18:30Z</time></trkpt><trkpt lat="43.53547882943544" lon="10.81635472719993"><ele>154.0</ele><time>2026-04-18T08:18:31Z</time></trkpt><trkpt lat="43.53554069723029" lon="10.816295718695233"><ele>156.0</ele><time>2026-04-18T08:18:32Z</time></trkpt><trkpt lat="43.53559584599568" lon="10.816227826195346"><ele>158.0</ele><time>2026-04-18T08:18:33Z</time></trkpt><trkpt lat="43.53565919524971" lon="10.81615765013947"><ele>160.0</ele><time>2026-04-18T08:18:34Z</time></trkpt><trkpt lat="43.535731899997685" lon="10.81608525128459"><ele>162.0</ele><time>2026-04-18T08:18:35Z</time></trkpt><trkpt lat="43.53582235313183" lon="10.816025282012447"><ele>164.0</ele><time>2026-04-18T08:18:36Z</time></trkpt><trkpt lat="43.535901021318374" lon="10.815954444526565"><ele>164.0</ele><time>2026-04-18T08:18:37Z</time></trkpt><trkpt lat="43.53598504954229" lon="10.81588968122956"><ele>164.0</ele><time>2026-04-18T08:18:38Z</time></trkpt><trkpt lat="43.536069092636936" lon="10.815831838499435"><ele>164.0</ele><time>2026-04-18T08:18:39Z</time></trkpt><trkpt lat="43.53615335023121" lon="10.815781369047675"><ele>164.0</ele><time>2026-04-18T08:18:40Z</time></trkpt><trkpt lat="43.53624414664961" lon="10.815738798977375"><ele>164.0</ele><time>2026-04-18T08:18:41Z</time></trkpt><trkpt lat="43.53634201055908" lon="10.815704224468677"><ele>165.33333333333331</ele><time>2026-04-18T08:18:42Z</time></trkpt><trkpt lat="43.5364389119641" lon="10.815670633501675"><ele>166.66666666666666</ele><time>2026-04-18T08:18:43Z</time></trkpt><trkpt lat="43.53652121271199" lon="10.815648492636107"><ele>168.0</ele><time>2026-04-18T08:18:44Z</time></trkpt><trkpt lat="43.536593497021904" lon="10.815646258418084"><ele>169.33333333333334</ele><time>2026-04-18T08:18:45Z</time></trkpt><trkpt lat="43.53668431093071" lon="10.81564792142748"><ele>170.66666666666669</ele><time>2026-04-18T08:18:46Z</time></trkpt><trkpt lat="43.53677436952281" lon="10.815654007345067"><ele>172.0</ele><time>2026-04-18T08:18:47Z</time></trkpt><trkpt lat="43.536856862383196" lon="10.815654262716066"><ele>172.0</ele><time>2026-04-18T08:18:48Z</time></trkpt><trkpt lat="43.536962893848525" lon="10.81559163149693"><ele>172.0</ele><time>2026-04-18T08:18:50Z</time></trkpt><trkpt lat="43.53704704159444" lon="10.815467030833418"><ele>172.0</ele><time>2026-04-18T08:18:52Z</time></trkpt><trkpt lat="43.53708757426363" lon="10.815381078149365"><ele>172.0</ele><time>2026-04-18T08:18:53Z</time></trkpt><trkpt lat="43.53712692683998" lon="10.815303563270941"><ele>172.0</ele><time>2026-04-18T08:18:54Z</time></trkpt><trkpt lat="43.537189434587816" lon="10.815170522792755"><ele>170.0</ele><time>2026-04-18T08:18:56Z</time></trkpt><trkpt lat="43.537226084271836" lon="10.815071180236165"><ele>168.0</ele><time>2026-04-18T08:18:58Z</time></trkpt><trkpt lat="43.537280100981754" lon="10.814981174925217"><ele>166.0</ele><time>2026-04-18T08:19:00Z</time></trkpt><trkpt lat="43.53724239192235" lon="10.814870764644967"><ele>164.0</ele><time>2026-04-18T08:19:01Z</time></trkpt><trkpt lat="43.537217359165524" lon="10.814769636549048"><ele>162.0</ele><time>2026-04-18T08:19:02Z</time></trkpt><trkpt lat="43.537191584475025" lon="10.814655010542113"><ele>160.0</ele><time>2026-04-18T08:19:03Z</time></trkpt><trkpt lat="43.53716611932056" lon="10.814531231733188"><ele>160.0</ele><time>2026-04-18T08:19:04Z</time></trkpt><trkpt lat="43.53715159610061" lon="10.81439304254628"><ele>160.0</ele><time>2026-04-18T08:19:05Z</time></trkpt><trkpt lat="43.53715171507417" lon="10.814254437229454"><ele>160.0</ele><time>2026-04-18T08:19:06Z</time></trkpt><trkpt lat="43.53718315090286" lon="10.81410830468137"><ele>160.0</ele><time>2026-04-18T08:19:07Z</time></trkpt><trkpt lat="43.537237699406646" lon="10.813968734622192"><ele>160.0</ele><time>2026-04-18T08:19:08Z</time></trkpt><trkpt lat="43.53730293810807" lon="10.813832329349289"><ele>161.75</ele><time>2026-04-18T08:19:09Z</time></trkpt><trkpt lat="43.53737579896175" lon="10.81369735057003"><ele>163.5</ele><time>2026-04-18T08:19:10Z</time></trkpt><trkpt lat="43.537446578466465" lon="10.813562594942512"><ele>165.25</ele><time>2026-04-18T08:19:11Z</time></trkpt><trkpt lat="43.53750720657002" lon="10.81342241613084"><ele>167.0</ele><time>2026-04-18T08:19:12Z</time></trkpt><trkpt lat="43.53754401257945" lon="10.813282885581643"><ele>169.0</ele><time>2026-04-18T08:19:13Z</time></trkpt><trkpt lat="43.537558206101245" lon="10.813142483638678"><ele>171.0</ele><time>2026-04-18T08:19:14Z</time></trkpt><trkpt lat="43.53753409532607" lon="10.813023170362651"><ele>173.0</ele><time>2026-04-18T08:19:14.999Z</time></trkpt><trkpt lat="43.537485712877235" lon="10.812914294357766"><ele>175.0</ele><time>2026-04-18T08:19:15.999Z</time></trkpt><trkpt lat="43.53742613268611" lon="10.812815338266635"><ele>177.0</ele><time>2026-04-18T08:19:16.999Z</time></trkpt><trkpt lat="43.53734144268011" lon="10.812737587688671"><ele>177.0</ele><time>2026-04-18T08:19:17.999Z</time></trkpt><trkpt lat="43.53725909653234" lon="10.812660877667044"><ele>177.0</ele><time>2026-04-18T08:19:18.999Z</time></trkpt><trkpt lat="43.53717120668823" lon="10.81256567750501"><ele>177.0</ele><time>2026-04-18T08:19:19.999Z</time></trkpt><trkpt lat="43.537076463278744" lon="10.812455131198295"><ele>177.0</ele><time>2026-04-18T08:19:20.999Z</time></trkpt><trkpt lat="43.5369777181321" lon="10.812356541770404"><ele>176.5</ele><time>2026-04-18T08:19:21.999Z</time></trkpt><trkpt lat="43.53689040738844" lon="10.812263334150849"><ele>176.0</ele><time>2026-04-18T08:19:22.999Z</time></trkpt><trkpt lat="43.53681700285209" lon="10.812146655578188"><ele>175.5</ele><time>2026-04-18T08:19:23.999Z</time></trkpt><trkpt lat="43.536740168326716" lon="10.812019220415802"><ele>175.0</ele><time>2026-04-18T08:19:24.999Z</time></trkpt><trkpt lat="43.536663842872755" lon="10.811886337581878"><ele>173.5</ele><time>2026-04-18T08:19:25.999Z</time></trkpt><trkpt lat="43.536588407978634" lon="10.811747644391293"><ele>172.0</ele><time>2026-04-18T08:19:26.999Z</time></trkpt><trkpt lat="43.536523001760955" lon="10.811595928548055"><ele>170.5</ele><time>2026-04-18T08:19:27.999Z</time></trkpt><trkpt lat="43.536475706859655" lon="10.811427034376363"><ele>169.0</ele><time>2026-04-18T08:19:28.999Z</time></trkpt><trkpt lat="43.53645030799273" lon="10.811251513752977"><ele>169.0</ele><time>2026-04-18T08:19:29.999Z</time></trkpt><trkpt lat="43.5364367312044" lon="10.81107108967497"><ele>169.0</ele><time>2026-04-18T08:19:30.999Z</time></trkpt><trkpt lat="43.536433347281346" lon="10.810890257657347"><ele>169.0</ele><time>2026-04-18T08:19:31.999Z</time></trkpt><trkpt lat="43.53643700279236" lon="10.810711628630566"><ele>169.0</ele><time>2026-04-18T08:19:32.999Z</time></trkpt><trkpt lat="43.536440868198476" lon="10.810543433088545"><ele>168.5</ele><time>2026-04-18T08:19:33.999Z</time></trkpt><trkpt lat="43.53643567385732" lon="10.810381694528955"><ele>168.0</ele><time>2026-04-18T08:19:34.999Z</time></trkpt><trkpt lat="43.536412787743316" lon="10.810230707881042"><ele>167.5</ele><time>2026-04-18T08:19:35.999Z</time></trkpt><trkpt lat="43.53636371441544" lon="10.810089772680074"><ele>167.0</ele><time>2026-04-18T08:19:36.999Z</time></trkpt><trkpt lat="43.5362866546084" lon="10.809952882333794"><ele>168.0</ele><time>2026-04-18T08:19:37.999Z</time></trkpt><trkpt lat="43.536190377955855" lon="10.809803863709709"><ele>169.0</ele><time>2026-04-18T08:19:38.999Z</time></trkpt><trkpt lat="43.53610113825069" lon="10.80962143409109"><ele>170.0</ele><time>2026-04-18T08:19:39.999Z</time></trkpt><trkpt lat="43.53605808681982" lon="10.809413437146619"><ele>168.5</ele><time>2026-04-18T08:19:40.999Z</time></trkpt><trkpt lat="43.536018836967905" lon="10.809211333868117"><ele>167.0</ele><time>2026-04-18T08:19:41.999Z</time></trkpt><trkpt lat="43.53597652110176" lon="10.809006890151053"><ele>165.5</ele><time>2026-04-18T08:19:42.999Z</time></trkpt><trkpt lat="43.53597944944795" lon="10.808809207612484"><ele>164.0</ele><time>2026-04-18T08:19:43.999Z</time></trkpt><trkpt lat="43.53601182660636" lon="10.808609726750547"><ele>163.0</ele><time>2026-04-18T08:19:44.999Z</time></trkpt><trkpt lat="43.53605114099486" lon="10.808418919022492"><ele>162.0</ele><time>2026-04-18T08:19:45.999Z</time></trkpt><trkpt lat="43.53609196095881" lon="10.808186148520342"><ele>161.0</ele><time>2026-04-18T08:19:46.999Z</time></trkpt><trkpt lat="43.536120608088126" lon="10.80796576368576"><ele>161.0</ele><time>2026-04-18T08:19:47.999Z</time></trkpt><trkpt lat="43.53612502054873" lon="10.807744048177437"><ele>161.0</ele><time>2026-04-18T08:19:48.999Z</time></trkpt><trkpt lat="43.53611568456124" lon="10.807519689363069"><ele>161.0</ele><time>2026-04-18T08:19:49.999Z</time></trkpt><trkpt lat="43.53610382866243" lon="10.807296216018875"><ele>161.66666666666666</ele><time>2026-04-18T08:19:50.999Z</time></trkpt><trkpt lat="43.53608809629968" lon="10.807066098814243"><ele>162.33333333333334</ele><time>2026-04-18T08:19:51.999Z</time></trkpt><trkpt lat="43.536059944561906" lon="10.806832811125506"><ele>163.0</ele><time>2026-04-18T08:19:52.999Z</time></trkpt><trkpt lat="43.53601718356175" lon="10.806616900916826"><ele>163.25</ele><time>2026-04-18T08:19:53.999Z</time></trkpt><trkpt lat="43.535985473687404" lon="10.806422760859997"><ele>163.5</ele><time>2026-04-18T08:19:54.999Z</time></trkpt><trkpt lat="43.53600214535229" lon="10.806230632578101"><ele>163.75</ele><time>2026-04-18T08:19:55.999Z</time></trkpt><trkpt lat="43.53600583482804" lon="10.806053116813116"><ele>164.0</ele><time>2026-04-18T08:19:56.999Z</time></trkpt><trkpt lat="43.53602828695606" lon="10.805889472961011"><ele>164.0</ele><time>2026-04-18T08:19:57.999Z</time></trkpt><trkpt lat="43.536059981731036" lon="10.80571118517844"><ele>164.0</ele><time>2026-04-18T08:19:58.999Z</time></trkpt><trkpt lat="43.53611252588357" lon="10.805510855274848"><ele>164.0</ele><time>2026-04-18T08:19:59.999Z</time></trkpt><trkpt lat="43.53619268418561" lon="10.805305393471523"><ele>164.0</ele><time>2026-04-18T08:20:00.999Z</time></trkpt><trkpt lat="43.536277809285664" lon="10.805093636010731"><ele>164.0</ele><time>2026-04-18T08:20:01.999Z</time></trkpt><trkpt lat="43.53635796228516" lon="10.804872650674046"><ele>164.0</ele><time>2026-04-18T08:20:02.999Z</time></trkpt><trkpt lat="43.53644821054904" lon="10.80466270989797"><ele>164.0</ele><time>2026-04-18T08:20:03.999Z</time></trkpt><trkpt lat="43.5365025195121" lon="10.80444985237635"><ele>164.0</ele><time>2026-04-18T08:20:04.999Z</time></trkpt><trkpt lat="43.536562559631186" lon="10.80422852144392"><ele>164.0</ele><time>2026-04-18T08:20:05.999Z</time></trkpt><trkpt lat="43.53661202248891" lon="10.803999154885721"><ele>162.0</ele><time>2026-04-18T08:20:06.999Z</time></trkpt><trkpt lat="43.53664780724809" lon="10.803767029451878"><ele>160.0</ele><time>2026-04-18T08:20:07.999Z</time></trkpt><trkpt lat="43.53667820574816" lon="10.803532378247532"><ele>158.0</ele><time>2026-04-18T08:20:08.999Z</time></trkpt><trkpt lat="43.5367014796968" lon="10.80329031717279"><ele>157.33333333333331</ele><time>2026-04-18T08:20:09.999Z</time></trkpt><trkpt lat="43.53671143603892" lon="10.803052995135715"><ele>156.66666666666666</ele><time>2026-04-18T08:20:10.999Z</time></trkpt><trkpt lat="43.536719897704785" lon="10.80281609052373"><ele>156.0</ele><time>2026-04-18T08:20:12Z</time></trkpt><trkpt lat="43.536727632281575" lon="10.802582520763618"><ele>157.33333333333334</ele><time>2026-04-18T08:20:13Z</time></trkpt><trkpt lat="43.536737306262154" lon="10.802355974751098"><ele>158.66666666666669</ele><time>2026-04-18T08:20:14Z</time></trkpt><trkpt lat="43.536763249830535" lon="10.802140633871993"><ele>160.0</ele><time>2026-04-18T08:20:15Z</time></trkpt><trkpt lat="43.536815640361546" lon="10.801941982883411"><ele>161.33333333333334</ele><time>2026-04-18T08:20:16Z</time></trkpt><trkpt lat="43.53688746026099" lon="10.801747731020338"><ele>162.66666666666666</ele><time>2026-04-18T08:20:17Z</time></trkpt><trkpt lat="43.53697751540351" lon="10.801561648219419"><ele>164.0</ele><time>2026-04-18T08:20:18Z</time></trkpt><trkpt lat="43.537078763922985" lon="10.80140756449637"><ele>164.0</ele><time>2026-04-18T08:20:19Z</time></trkpt><trkpt lat="43.537216744861496" lon="10.801298859457932"><ele>164.0</ele><time>2026-04-18T08:20:20Z</time></trkpt><trkpt lat="43.537352717440356" lon="10.80118638417686"><ele>164.0</ele><time>2026-04-18T08:20:21Z</time></trkpt><trkpt lat="43.53748595806733" lon="10.801063420779094"><ele>163.0</ele><time>2026-04-18T08:20:22Z</time></trkpt><trkpt lat="43.53760317782075" lon="10.800942423790552"><ele>162.0</ele><time>2026-04-18T08:20:23Z</time></trkpt><trkpt lat="43.537671670019314" lon="10.800847290494833"><ele>161.0</ele><time>2026-04-18T08:20:24Z</time></trkpt><trkpt lat="43.53777448732142" lon="10.800735299808025"><ele>160.0</ele><time>2026-04-18T08:20:25Z</time></trkpt><trkpt lat="43.537905392687776" lon="10.800566133409378"><ele>160.0</ele><time>2026-04-18T08:20:27Z</time></trkpt><trkpt lat="43.5379946224365" lon="10.800439593084784"><ele>160.0</ele><time>2026-04-18T08:20:28Z</time></trkpt><trkpt lat="43.538069041012854" lon="10.800282006691255"><ele>160.0</ele><time>2026-04-18T08:20:29Z</time></trkpt><trkpt lat="43.538140056257866" lon="10.800106619441019"><ele>160.0</ele><time>2026-04-18T08:20:30Z</time></trkpt><trkpt lat="43.53821166185607" lon="10.799919362074855"><ele>160.5</ele><time>2026-04-18T08:20:31Z</time></trkpt><trkpt lat="43.53827956230866" lon="10.799740481924339"><ele>161.0</ele><time>2026-04-18T08:20:32Z</time></trkpt><trkpt lat="43.538347592967796" lon="10.799561258754217"><ele>161.5</ele><time>2026-04-18T08:20:33Z</time></trkpt><trkpt lat="43.53842118584019" lon="10.799375148103385"><ele>162.0</ele><time>2026-04-18T08:20:34Z</time></trkpt><trkpt lat="43.53846387128348" lon="10.79924686628073"><ele>162.0</ele><time>2026-04-18T08:20:35Z</time></trkpt><trkpt lat="43.538523769798864" lon="10.799079873168555"><ele>162.0</ele><time>2026-04-18T08:20:36Z</time></trkpt><trkpt lat="43.53856190778433" lon="10.79890603807626"><ele>162.0</ele><time>2026-04-18T08:20:37Z</time></trkpt><trkpt lat="43.53857501102553" lon="10.798724613797722"><ele>162.0</ele><time>2026-04-18T08:20:38Z</time></trkpt><trkpt lat="43.538563300830646" lon="10.798522260628209"><ele>160.33333333333334</ele><time>2026-04-18T08:20:39Z</time></trkpt><trkpt lat="43.538541645660594" lon="10.798310106541615"><ele>158.66666666666669</ele><time>2026-04-18T08:20:40Z</time></trkpt><trkpt lat="43.53850377953948" lon="10.79808927632603"><ele>157.0</ele><time>2026-04-18T08:20:41Z</time></trkpt><trkpt lat="43.53846718719077" lon="10.797872621743984"><ele>157.75</ele><time>2026-04-18T08:20:42Z</time></trkpt><trkpt lat="43.53843300340974" lon="10.797661002289097"><ele>158.5</ele><time>2026-04-18T08:20:43Z</time></trkpt><trkpt lat="43.53839646998904" lon="10.797460046411148"><ele>159.25</ele><time>2026-04-18T08:20:44Z</time></trkpt><trkpt lat="43.538364051056476" lon="10.797276656508584"><ele>160.0</ele><time>2026-04-18T08:20:45Z</time></trkpt><trkpt lat="43.53833592900424" lon="10.797100384708266"><ele>160.0</ele><time>2026-04-18T08:20:46Z</time></trkpt><trkpt lat="43.53829899445669" lon="10.796925909323894"><ele>160.0</ele><time>2026-04-18T08:20:47Z</time></trkpt><trkpt lat="43.53824586407224" lon="10.796753498375255"><ele>160.0</ele><time>2026-04-18T08:20:48Z</time></trkpt><trkpt lat="43.538182759664004" lon="10.796588751510427"><ele>160.0</ele><time>2026-04-18T08:20:49Z</time></trkpt><trkpt lat="43.53812880341236" lon="10.79641485071476"><ele>162.0</ele><time>2026-04-18T08:20:50Z</time></trkpt><trkpt lat="43.5380944136804" lon="10.79624472953038"><ele>164.0</ele><time>2026-04-18T08:20:51Z</time></trkpt><trkpt lat="43.538119684967526" lon="10.796094380242957"><ele>166.0</ele><time>2026-04-18T08:20:52Z</time></trkpt><trkpt lat="43.53816783609672" lon="10.795970869717678"><ele>168.0</ele><time>2026-04-18T08:20:53Z</time></trkpt><trkpt lat="43.53822221379085" lon="10.795804691203926"><ele>169.4</ele><time>2026-04-18T08:20:54Z</time></trkpt><trkpt lat="43.53828537178212" lon="10.795646228528723"><ele>170.8</ele><time>2026-04-18T08:20:55Z</time></trkpt><trkpt lat="43.53835461330866" lon="10.795541961077353"><ele>172.2</ele><time>2026-04-18T08:20:56Z</time></trkpt><trkpt lat="43.53843737029752" lon="10.795498218588243"><ele>173.6</ele><time>2026-04-18T08:20:57Z</time></trkpt><trkpt lat="43.53853114664801" lon="10.795436521809727"><ele>175.0</ele><time>2026-04-18T08:20:58Z</time></trkpt><trkpt lat="43.53862442899669" lon="10.795365522604476"><ele>175.8</ele><time>2026-04-18T08:20:59Z</time></trkpt><trkpt lat="43.53872242598216" lon="10.795305186939629"><ele>176.6</ele><time>2026-04-18T08:21:00Z</time></trkpt><trkpt lat="43.53880415819813" lon="10.795219607007178"><ele>177.39999999999998</ele><time>2026-04-18T08:21:01Z</time></trkpt><trkpt lat="43.538872276945014" lon="10.795118519399889"><ele>178.2</ele><time>2026-04-18T08:21:02Z</time></trkpt><trkpt lat="43.53892287372484" lon="10.79499384028267"><ele>179.0</ele><time>2026-04-18T08:21:03Z</time></trkpt><trkpt lat="43.53894990885149" lon="10.794854982738352"><ele>179.0</ele><time>2026-04-18T08:21:04Z</time></trkpt><trkpt lat="43.538965096199334" lon="10.79471332442825"><ele>179.0</ele><time>2026-04-18T08:21:05Z</time></trkpt><trkpt lat="43.53897603744105" lon="10.79459851588845"><ele>179.0</ele><time>2026-04-18T08:21:06Z</time></trkpt><trkpt lat="43.538991570854975" lon="10.794495798025034"><ele>179.0</ele><time>2026-04-18T08:21:07Z</time></trkpt><trkpt lat="43.53900697792125" lon="10.794398401406568"><ele>179.0</ele><time>2026-04-18T08:21:08Z</time></trkpt><trkpt lat="43.53902235704756" lon="10.794290671569042"><ele>179.0</ele><time>2026-04-18T08:21:09Z</time></trkpt><trkpt lat="43.53904741973286" lon="10.794176397017312"><ele>179.16666666666666</ele><time>2026-04-18T08:21:10Z</time></trkpt><trkpt lat="43.53909022013763" lon="10.794083875490424"><ele>179.33333333333331</ele><time>2026-04-18T08:21:11Z</time></trkpt><trkpt lat="43.53916528555273" lon="10.794030065062001"><ele>179.5</ele><time>2026-04-18T08:21:12Z</time></trkpt><trkpt lat="43.539231337586415" lon="10.793963837600272"><ele>179.66666666666666</ele><time>2026-04-18T08:21:13Z</time></trkpt><trkpt lat="43.539287308918865" lon="10.793883229972689"><ele>179.83333333333334</ele><time>2026-04-18T08:21:14Z</time></trkpt><trkpt lat="43.53935128310112" lon="10.793820590412508"><ele>180.0</ele><time>2026-04-18T08:21:15Z</time></trkpt><trkpt lat="43.53941693182052" lon="10.793752343885673"><ele>180.0</ele><time>2026-04-18T08:21:16Z</time></trkpt><trkpt lat="43.53948170320461" lon="10.793674444320242"><ele>180.0</ele><time>2026-04-18T08:21:16.999Z</time></trkpt><trkpt lat="43.53953319965061" lon="10.793597351833748"><ele>180.0</ele><time>2026-04-18T08:21:17.999Z</time></trkpt><trkpt lat="43.53957336232488" lon="10.793515528274813"><ele>180.0</ele><time>2026-04-18T08:21:19.999Z</time></trkpt><trkpt lat="43.53958858989107" lon="10.793385399525722"><ele>180.0</ele><time>2026-04-18T08:21:27.999Z</time></trkpt><trkpt lat="43.53961499597194" lon="10.79323333966015"><ele>180.0</ele><time>2026-04-18T08:21:29.999Z</time></trkpt><trkpt lat="43.53960682757894" lon="10.793130456410838"><ele>180.16666666666666</ele><time>2026-04-18T08:21:30.999Z</time></trkpt><trkpt lat="43.53960818539889" lon="10.793029365216206"><ele>180.33333333333334</ele><time>2026-04-18T08:21:31.999Z</time></trkpt><trkpt lat="43.53959270254165" lon="10.79292490205694"><ele>180.5</ele><time>2026-04-18T08:21:32.999Z</time></trkpt><trkpt lat="43.539545961515145" lon="10.792826869706712"><ele>180.66666666666669</ele><time>2026-04-18T08:21:33.999Z</time></trkpt><trkpt lat="43.539493902610715" lon="10.792722865810367"><ele>180.83333333333334</ele><time>2026-04-18T08:21:34.999Z</time></trkpt><trkpt lat="43.53944224689106" lon="10.792608410478406"><ele>181.0</ele><time>2026-04-18T08:21:35.999Z</time></trkpt><trkpt lat="43.53939468798353" lon="10.792480192585982"><ele>181.0</ele><time>2026-04-18T08:21:36.999Z</time></trkpt><trkpt lat="43.539340831241226" lon="10.792356576960966"><ele>181.0</ele><time>2026-04-18T08:21:37.999Z</time></trkpt><trkpt lat="43.53928314181934" lon="10.792233877582934"><ele>181.0</ele><time>2026-04-18T08:21:38.999Z</time></trkpt><trkpt lat="43.53923004334627" lon="10.792131637343031"><ele>181.0</ele><time>2026-04-18T08:21:39.999Z</time></trkpt><trkpt lat="43.53919819728723" lon="10.792046520369624"><ele>181.0</ele><time>2026-04-18T08:21:40.999Z</time></trkpt><trkpt lat="43.5391340411797" lon="10.791900388515064"><ele>182.4</ele><time>2026-04-18T08:21:42.999Z</time></trkpt><trkpt lat="43.53908376222143" lon="10.791768790229964"><ele>183.8</ele><time>2026-04-18T08:21:44.999Z</time></trkpt><trkpt lat="43.5390439435052" lon="10.791683724133588"><ele>185.20000000000002</ele><time>2026-04-18T08:21:46.999Z</time></trkpt><trkpt lat="43.5389758960431" lon="10.791574904179537"><ele>186.60000000000002</ele><time>2026-04-18T08:21:48.999Z</time></trkpt><trkpt lat="43.538923630593374" lon="10.791487121864598"><ele>188.0</ele><time>2026-04-18T08:21:49.999Z</time></trkpt><trkpt lat="43.53885757961432" lon="10.791382907269183"><ele>188.0</ele><time>2026-04-18T08:21:50.999Z</time></trkpt><trkpt lat="43.53878591374953" lon="10.791282225449976"><ele>188.0</ele><time>2026-04-18T08:21:51.999Z</time></trkpt><trkpt lat="43.53871787231508" lon="10.7911963611169"><ele>188.0</ele><time>2026-04-18T08:21:52.999Z</time></trkpt><trkpt lat="43.538660089678345" lon="10.791114522478546"><ele>188.0</ele><time>2026-04-18T08:21:53.999Z</time></trkpt><trkpt lat="43.538608635301586" lon="10.791035704030467"><ele>188.0</ele><time>2026-04-18T08:21:54.999Z</time></trkpt><trkpt lat="43.53854277311342" lon="10.790946048777167"><ele>188.0</ele><time>2026-04-18T08:21:56.999Z</time></trkpt><trkpt lat="43.538484514853984" lon="10.79086630544722"><ele>186.2</ele><time>2026-04-18T08:21:58.999Z</time></trkpt><trkpt lat="43.5383506842548" lon="10.790796029618404"><ele>184.4</ele><time>2026-04-18T08:22:00.999Z</time></trkpt><trkpt lat="43.53826724631052" lon="10.790741010553413"><ele>182.6</ele><time>2026-04-18T08:22:01.999Z</time></trkpt><trkpt lat="43.53818748305328" lon="10.790678532025291"><ele>180.79999999999998</ele><time>2026-04-18T08:22:02.999Z</time></trkpt><trkpt lat="43.538089501154445" lon="10.790639183756902"><ele>179.0</ele><time>2026-04-18T08:22:03.999Z</time></trkpt><trkpt lat="43.53798868895642" lon="10.79061130552018"><ele>178.5</ele><time>2026-04-18T08:22:04.999Z</time></trkpt><trkpt lat="43.53787031590651" lon="10.790593327695438"><ele>178.0</ele><time>2026-04-18T08:22:05.999Z</time></trkpt><trkpt lat="43.53774610517848" lon="10.790591262564881"><ele>177.5</ele><time>2026-04-18T08:22:06.999Z</time></trkpt><trkpt lat="43.5376342257723" lon="10.790602807622447"><ele>177.0</ele><time>2026-04-18T08:22:07.999Z</time></trkpt><trkpt lat="43.53753049555943" lon="10.790633097292883"><ele>177.0</ele><time>2026-04-18T08:22:08.999Z</time></trkpt><trkpt lat="43.53743260274719" lon="10.790676331599279"><ele>177.0</ele><time>2026-04-18T08:22:09.999Z</time></trkpt><trkpt lat="43.53733084288746" lon="10.79072143026817"><ele>177.0</ele><time>2026-04-18T08:22:10.999Z</time></trkpt><trkpt lat="43.53722747979108" lon="10.79076422015965"><ele>177.0</ele><time>2026-04-18T08:22:11.999Z</time></trkpt><trkpt lat="43.537121508604336" lon="10.790797162136649"><ele>177.0</ele><time>2026-04-18T08:22:12.999Z</time></trkpt><trkpt lat="43.537012825909606" lon="10.790819675978664"><ele>177.5</ele><time>2026-04-18T08:22:13.999Z</time></trkpt><trkpt lat="43.536897075949916" lon="10.790819976064448"><ele>178.0</ele><time>2026-04-18T08:22:14.999Z</time></trkpt><trkpt lat="43.536780868646254" lon="10.790798785548565"><ele>178.5</ele><time>2026-04-18T08:22:15.999Z</time></trkpt><trkpt lat="43.536657571140566" lon="10.790775872551396"><ele>179.0</ele><time>2026-04-18T08:22:16.999Z</time></trkpt><trkpt lat="43.53652905670335" lon="10.79077596384133"><ele>179.0</ele><time>2026-04-18T08:22:18Z</time></trkpt><trkpt lat="43.53640544614905" lon="10.790787125745844"><ele>179.0</ele><time>2026-04-18T08:22:19Z</time></trkpt><trkpt lat="43.53630076066614" lon="10.790816799907548"><ele>179.0</ele><time>2026-04-18T08:22:20Z</time></trkpt><trkpt lat="43.53621948178201" lon="10.790845654226004"><ele>179.0</ele><time>2026-04-18T08:22:21Z</time></trkpt><trkpt lat="43.53614901860175" lon="10.790855866983511"><ele>179.0</ele><time>2026-04-18T08:22:22Z</time></trkpt><trkpt lat="43.536079743310026" lon="10.790848098876662"><ele>178.79999999999998</ele><time>2026-04-18T08:22:23Z</time></trkpt><trkpt lat="43.53600215703264" lon="10.790824253606978"><ele>178.6</ele><time>2026-04-18T08:22:24Z</time></trkpt><trkpt lat="43.535921558879615" lon="10.790779517788671"><ele>178.4</ele><time>2026-04-18T08:22:25Z</time></trkpt><trkpt lat="43.53583428420678" lon="10.790708996627325"><ele>178.2</ele><time>2026-04-18T08:22:26Z</time></trkpt><trkpt lat="43.53573804879327" lon="10.790622870046903"><ele>178.0</ele><time>2026-04-18T08:22:27Z</time></trkpt><trkpt lat="43.53563550925909" lon="10.790535654840147"><ele>178.0</ele><time>2026-04-18T08:22:28Z</time></trkpt><trkpt lat="43.535532286439874" lon="10.790446362116404"><ele>178.0</ele><time>2026-04-18T08:22:29Z</time></trkpt><trkpt lat="43.535432577518655" lon="10.790361848365496"><ele>178.0</ele><time>2026-04-18T08:22:30Z</time></trkpt><trkpt lat="43.535328763149096" lon="10.790275096204928"><ele>178.0</ele><time>2026-04-18T08:22:31Z</time></trkpt><trkpt lat="43.53521880873209" lon="10.790188121262057"><ele>176.25</ele><time>2026-04-18T08:22:32Z</time></trkpt><trkpt lat="43.53510759870422" lon="10.790106959040791"><ele>174.5</ele><time>2026-04-18T08:22:33Z</time></trkpt><trkpt lat="43.53500036910869" lon="10.790026669922476"><ele>172.75</ele><time>2026-04-18T08:22:34Z</time></trkpt><trkpt lat="43.53490286981998" lon="10.789945964134677"><ele>171.0</ele><time>2026-04-18T08:22:35Z</time></trkpt><trkpt lat="43.53482256526086" lon="10.78988000104439"><ele>171.0</ele><time>2026-04-18T08:22:36Z</time></trkpt><trkpt lat="43.53474645159782" lon="10.789826511666533"><ele>171.0</ele><time>2026-04-18T08:22:37Z</time></trkpt><trkpt lat="43.53466540849656" lon="10.789769079634834"><ele>171.0</ele><time>2026-04-18T08:22:38Z</time></trkpt><trkpt lat="43.5345752221439" lon="10.78968488687408"><ele>171.0</ele><time>2026-04-18T08:22:39Z</time></trkpt><trkpt lat="43.534475749009985" lon="10.789635215781816"><ele>171.0</ele><time>2026-04-18T08:22:40Z</time></trkpt><trkpt lat="43.534382571114804" lon="10.789580387246053"><ele>170.8</ele><time>2026-04-18T08:22:41Z</time></trkpt><trkpt lat="43.53430526706343" lon="10.78953701549162"><ele>170.60000000000002</ele><time>2026-04-18T08:22:42Z</time></trkpt><trkpt lat="43.534231579493124" lon="10.78949922627181"><ele>170.4</ele><time>2026-04-18T08:22:43Z</time></trkpt><trkpt lat="43.53414198403025" lon="10.78944725264823"><ele>170.2</ele><time>2026-04-18T08:22:44Z</time></trkpt><trkpt lat="43.534040613423464" lon="10.78938458686386"><ele>170.0</ele><time>2026-04-18T08:22:45Z</time></trkpt><trkpt lat="43.533946668729406" lon="10.7892972495934"><ele>170.0</ele><time>2026-04-18T08:22:46Z</time></trkpt><trkpt lat="43.53385115059927" lon="10.789228423228227"><ele>170.0</ele><time>2026-04-18T08:22:47Z</time></trkpt><trkpt lat="43.53374339498821" lon="10.789164359731853"><ele>170.0</ele><time>2026-04-18T08:22:48Z</time></trkpt><trkpt lat="43.53362716067227" lon="10.78910391000933"><ele>170.0</ele><time>2026-04-18T08:22:49Z</time></trkpt><trkpt lat="43.533496351819444" lon="10.789056538404171"><ele>167.33333333333331</ele><time>2026-04-18T08:22:50Z</time></trkpt><trkpt lat="43.53334047364479" lon="10.788982867149526"><ele>164.66666666666666</ele><time>2026-04-18T08:22:51Z</time></trkpt><trkpt lat="43.53319993180312" lon="10.788901224059046"><ele>162.0</ele><time>2026-04-18T08:22:52Z</time></trkpt><trkpt lat="43.53307134206548" lon="10.78880127531915"><ele>162.0</ele><time>2026-04-18T08:22:53Z</time></trkpt><trkpt lat="43.53295162534007" lon="10.78872941052145"><ele>162.0</ele><time>2026-04-18T08:22:54Z</time></trkpt><trkpt lat="43.53283382209674" lon="10.788658694368012"><ele>162.0</ele><time>2026-04-18T08:22:55Z</time></trkpt><trkpt lat="43.53270462818841" lon="10.788583890361458"><ele>162.0</ele><time>2026-04-18T08:22:56Z</time></trkpt><trkpt lat="43.53256485991834" lon="10.788529426157748"><ele>160.75</ele><time>2026-04-18T08:22:57Z</time></trkpt><trkpt lat="43.53243409769017" lon="10.788445344930976"><ele>159.5</ele><time>2026-04-18T08:22:58Z</time></trkpt><trkpt lat="43.532308636586336" lon="10.788388591306148"><ele>158.25</ele><time>2026-04-18T08:22:59Z</time></trkpt><trkpt lat="43.53218704609217" lon="10.788322340195304"><ele>157.0</ele><time>2026-04-18T08:23:00Z</time></trkpt><trkpt lat="43.53207499355379" lon="10.788247681349045"><ele>154.25</ele><time>2026-04-18T08:23:01Z</time></trkpt><trkpt lat="43.53197279011632" lon="10.788173544405405"><ele>151.5</ele><time>2026-04-18T08:23:02Z</time></trkpt><trkpt lat="43.5318741203152" lon="10.78808440667271"><ele>148.75</ele><time>2026-04-18T08:23:03Z</time></trkpt><trkpt lat="43.53179629396783" lon="10.787984883443436"><ele>146.0</ele><time>2026-04-18T08:23:04Z</time></trkpt><trkpt lat="43.531725446547654" lon="10.787863082032997"><ele>146.0</ele><time>2026-04-18T08:23:05Z</time></trkpt><trkpt lat="43.531653995032194" lon="10.787739944972461"><ele>146.0</ele><time>2026-04-18T08:23:06Z</time></trkpt><trkpt lat="43.53157272258821" lon="10.7875997915759"><ele>146.0</ele><time>2026-04-18T08:23:07Z</time></trkpt><trkpt lat="43.53148886082705" lon="10.787455883991871"><ele>146.0</ele><time>2026-04-18T08:23:08Z</time></trkpt><trkpt lat="43.53140728414742" lon="10.787313711608121"><ele>145.0</ele><time>2026-04-18T08:23:09Z</time></trkpt><trkpt lat="43.531329913349275" lon="10.787179023349392"><ele>144.0</ele><time>2026-04-18T08:23:10Z</time></trkpt><trkpt lat="43.531260148131395" lon="10.787061961456926"><ele>143.0</ele><time>2026-04-18T08:23:11Z</time></trkpt><trkpt lat="43.53119582518066" lon="10.786954242534941"><ele>142.0</ele><time>2026-04-18T08:23:12Z</time></trkpt><trkpt lat="43.53113230809872" lon="10.78684344395446"><ele>141.0</ele><time>2026-04-18T08:23:13Z</time></trkpt><trkpt lat="43.53105822808673" lon="10.786728341135147"><ele>141.0</ele><time>2026-04-18T08:23:14Z</time></trkpt><trkpt lat="43.5309865109132" lon="10.786630430254435"><ele>141.0</ele><time>2026-04-18T08:23:15Z</time></trkpt><trkpt lat="43.53093288454222" lon="10.786560189502906"><ele>141.0</ele><time>2026-04-18T08:23:16Z</time></trkpt><trkpt lat="43.530853324719835" lon="10.78644870330389"><ele>141.0</ele><time>2026-04-18T08:23:18Z</time></trkpt><trkpt lat="43.53080360712972" lon="10.786379821293929"><ele>141.0</ele><time>2026-04-18T08:23:20Z</time></trkpt><trkpt lat="43.530755727159615" lon="10.786313971089411"><ele>141.0</ele><time>2026-04-18T08:23:23Z</time></trkpt><trkpt lat="43.53069887652705" lon="10.786231077259352"><ele>141.0</ele><time>2026-04-18T08:23:26.999Z</time></trkpt><trkpt lat="43.53064191458171" lon="10.786125798169097"><ele>141.0</ele><time>2026-04-18T08:23:29.999Z</time></trkpt><trkpt lat="43.53065571134446" lon="10.785934965606256"><ele>141.0</ele><time>2026-04-18T08:23:31.999Z</time></trkpt><trkpt lat="43.530693661033396" lon="10.785824224971766"><ele>141.0</ele><time>2026-04-18T08:23:32.999Z</time></trkpt><trkpt lat="43.53074090927356" lon="10.78571463913964"><ele>141.0</ele><time>2026-04-18T08:23:33.999Z</time></trkpt><trkpt lat="43.53079023260683" lon="10.785598185960584"><ele>144.0</ele><time>2026-04-18T08:23:34.999Z</time></trkpt><trkpt lat="43.53083421326114" lon="10.785487050745076"><ele>144.0</ele><time>2026-04-18T08:23:35.999Z</time></trkpt><trkpt lat="43.53086852933042" lon="10.78538778682809"><ele>144.0</ele><time>2026-04-18T08:23:36.999Z</time></trkpt><trkpt lat="43.53089204864651" lon="10.785287602660455"><ele>144.0</ele><time>2026-04-18T08:23:37.999Z</time></trkpt><trkpt lat="43.53090487465185" lon="10.785201820628297"><ele>144.0</ele><time>2026-04-18T08:23:38.999Z</time></trkpt><trkpt lat="43.53091082711066" lon="10.785092702571099"><ele>139.0</ele><time>2026-04-18T08:23:40.999Z</time></trkpt></trkseg></trk></gpx>